<?xml version='1.0' encoding='UTF-8'?><gpx version="1.1" creator="JPX - https://github.com/jenetics/jpx" xmlns="http://www.topografix.com/GPX/1/1"><trk><trkseg><trkpt lat="38.18292430823156" lon="15.644517989046916"><ele>19.0</ele><time>2026-04-18T14:29:23.999Z</time></trkpt><trkpt lat="38.18285225947647" lon="15.644559368125709"><ele>19.0</ele><time>2026-04-18T14:29:25.999Z</time></trkpt><trkpt lat="38.18278545438233" lon="15.644604315414595"><ele>19.0</ele><time>2026-04-18T14:29:27.999Z</time></trkpt><trkpt lat="38.18271742446025" lon="15.644659177244648"><ele>19.0</ele><time>2026-04-18T14:29:29.999Z</time></trkpt><trkpt lat="38.182655069411766" lon="15.644701869750136"><ele>19.0</ele><time>2026-04-18T14:29:52.999Z</time></trkpt><trkpt lat="38.18258960576989" lon="15.644755469200902"><ele>19.0</ele><time>2026-04-18T14:29:58.999Z</time></trkpt><trkpt lat="38.182644578443636" lon="15.644844335730355"><ele>19.0</ele><time>2026-04-18T14:29:59.999Z</time></trkpt><trkpt lat="38.18270035933771" lon="15.644995534961364"><ele>19.0</ele><time>2026-04-18T14:30:01.999Z</time></trkpt><trkpt lat="38.18274186883329" lon="15.645089088522587"><ele>19.0</ele><time>2026-04-18T14:30:02.999Z</time></trkpt><trkpt lat="38.18277965471663" lon="15.645200122909902"><ele>19.0</ele><time>2026-04-18T14:30:03.999Z</time></trkpt><trkpt lat="38.182820891469184" lon="15.64530134840686"><ele>19.0</ele><time>2026-04-18T14:30:04.999Z</time></trkpt><trkpt lat="38.18284987280083" lon="15.645419812337611"><ele>19.6</ele><time>2026-04-18T14:30:05.999Z</time></trkpt><trkpt lat="38.18291105775236" lon="15.645545015575223"><ele>20.2</ele><time>2026-04-18T14:30:06.999Z</time></trkpt><trkpt lat="38.182958562992184" lon="15.645682636593998"><ele>20.8</ele><time>2026-04-18T14:30:07.999Z</time></trkpt><trkpt lat="38.18299277843084" lon="15.64579925008838"><ele>21.400000000000002</ele><time>2026-04-18T14:30:08.999Z</time></trkpt><trkpt lat="38.18303129156781" lon="15.645876476026343"><ele>22.0</ele><time>2026-04-18T14:30:09.999Z</time></trkpt><trkpt lat="38.18305775109338" lon="15.645966062867918"><ele>22.0</ele><time>2026-04-18T14:30:12.999Z</time></trkpt><trkpt lat="38.183072661762345" lon="15.64606318804934"><ele>22.0</ele><time>2026-04-18T14:30:16.999Z</time></trkpt><trkpt lat="38.18312777183714" lon="15.646173307198284"><ele>22.0</ele><time>2026-04-18T14:30:17.999Z</time></trkpt><trkpt lat="38.18318444899367" lon="15.646320261037506"><ele>22.0</ele><time>2026-04-18T14:30:18.999Z</time></trkpt><trkpt lat="38.183211698731355" lon="15.64646996948661"><ele>22.0</ele><time>2026-04-18T14:30:19.999Z</time></trkpt><trkpt lat="38.1832746185513" lon="15.646638325200104"><ele>22.833333333333332</ele><time>2026-04-18T14:30:20.999Z</time></trkpt><trkpt lat="38.18332436506877" lon="15.646764476976882"><ele>23.666666666666664</ele><time>2026-04-18T14:30:21.999Z</time></trkpt><trkpt lat="38.18335680989901" lon="15.646863119825328"><ele>24.5</ele><time>2026-04-18T14:30:22.999Z</time></trkpt><trkpt lat="38.18334314685461" lon="15.646966802546224"><ele>25.333333333333332</ele><time>2026-04-18T14:30:23.999Z</time></trkpt><trkpt lat="38.183395312262284" lon="15.647014156689231"><ele>26.166666666666668</ele><time>2026-04-18T14:30:24.999Z</time></trkpt><trkpt lat="38.18344975015799" lon="15.647121343385221"><ele>27.0</ele><time>2026-04-18T14:30:26.999Z</time></trkpt><trkpt lat="38.18350096475724" lon="15.647257486983149"><ele>27.666666666666668</ele><time>2026-04-18T14:30:28.999Z</time></trkpt><trkpt lat="38.18352935451199" lon="15.647336111314008"><ele>28.333333333333336</ele><time>2026-04-18T14:30:29.999Z</time></trkpt><trkpt lat="38.183557489645935" lon="15.647428403760392"><ele>29.0</ele><time>2026-04-18T14:30:30.999Z</time></trkpt><trkpt lat="38.18359022103747" lon="15.64753901594745"><ele>29.666666666666668</ele><time>2026-04-18T14:30:31.999Z</time></trkpt><trkpt lat="38.183627973165905" lon="15.647657595752424"><ele>30.333333333333336</ele><time>2026-04-18T14:30:32.999Z</time></trkpt><trkpt lat="38.18365830984306" lon="15.647782665787332"><ele>31.0</ele><time>2026-04-18T14:30:33.999Z</time></trkpt><trkpt lat="38.18368093562734" lon="15.64792199296081"><ele>32.25</ele><time>2026-04-18T14:30:34.999Z</time></trkpt><trkpt lat="38.18368916677821" lon="15.648076219877725"><ele>33.5</ele><time>2026-04-18T14:30:35.999Z</time></trkpt><trkpt lat="38.18367717054526" lon="15.648233219592898"><ele>34.75</ele><time>2026-04-18T14:30:36.999Z</time></trkpt><trkpt lat="38.18363959009964" lon="15.648383054024539"><ele>36.0</ele><time>2026-04-18T14:30:37.999Z</time></trkpt><trkpt lat="38.18355597047416" lon="15.648530076254737"><ele>37.0</ele><time>2026-04-18T14:30:38.999Z</time></trkpt><trkpt lat="38.183469873252285" lon="15.648666209798177"><ele>38.0</ele><time>2026-04-18T14:30:39.999Z</time></trkpt><trkpt lat="38.18336231265938" lon="15.648749901619293"><ele>39.0</ele><time>2026-04-18T14:30:40.999Z</time></trkpt><trkpt lat="38.18322563067758" lon="15.648850223402903"><ele>40.0</ele><time>2026-04-18T14:30:41.999Z</time></trkpt><trkpt lat="38.18308694174929" lon="15.648981708638264"><ele>40.5</ele><time>2026-04-18T14:30:42.999Z</time></trkpt><trkpt lat="38.18298509808147" lon="15.649058397953457"><ele>41.0</ele><time>2026-04-18T14:30:43.999Z</time></trkpt><trkpt lat="38.182896467746914" lon="15.649129900312175"><ele>41.5</ele><time>2026-04-18T14:30:44.999Z</time></trkpt><trkpt lat="38.18276281462537" lon="15.649215360851068"><ele>42.0</ele><time>2026-04-18T14:30:45.999Z</time></trkpt><trkpt lat="38.182649587077414" lon="15.649315830723147"><ele>42.0</ele><time>2026-04-18T14:30:47.999Z</time></trkpt><trkpt lat="38.18256192789004" lon="15.649394497812485"><ele>42.0</ele><time>2026-04-18T14:30:48.999Z</time></trkpt><trkpt lat="38.182466929945775" lon="15.649469686466228"><ele>42.0</ele><time>2026-04-18T14:30:49.999Z</time></trkpt><trkpt lat="38.18236068358993" lon="15.649552345459735"><ele>42.0</ele><time>2026-04-18T14:30:50.999Z</time></trkpt><trkpt lat="38.182265878189746" lon="15.649605665732228"><ele>42.0</ele><time>2026-04-18T14:30:51.999Z</time></trkpt><trkpt lat="38.18215787419528" lon="15.649709668910365"><ele>41.5</ele><time>2026-04-18T14:30:52.999Z</time></trkpt><trkpt lat="38.18206036958153" lon="15.64979046337495"><ele>41.0</ele><time>2026-04-18T14:30:53.999Z</time></trkpt><trkpt lat="38.18195442823306" lon="15.649874414037393"><ele>40.5</ele><time>2026-04-18T14:30:54.999Z</time></trkpt><trkpt lat="38.18183589964344" lon="15.649968494165574"><ele>40.0</ele><time>2026-04-18T14:30:55.999Z</time></trkpt><trkpt lat="38.181691536448604" lon="15.650085686352478"><ele>39.0</ele><time>2026-04-18T14:30:56.999Z</time></trkpt><trkpt lat="38.18151412408064" lon="15.650216096379559"><ele>38.0</ele><time>2026-04-18T14:30:57.999Z</time></trkpt><trkpt lat="38.181334376286735" lon="15.650340838399133"><ele>37.0</ele><time>2026-04-18T14:30:58.999Z</time></trkpt><trkpt lat="38.18114601988147" lon="15.650467714994384"><ele>40.0</ele><time>2026-04-18T14:30:59.999Z</time></trkpt><trkpt lat="38.18094076145966" lon="15.650606540705368"><ele>43.0</ele><time>2026-04-18T14:31:00.999Z</time></trkpt><trkpt lat="38.18071296080896" lon="15.65075581089215"><ele>44.0</ele><time>2026-04-18T14:31:01.999Z</time></trkpt><trkpt lat="38.18045902437318" lon="15.65090692745465"><ele>45.0</ele><time>2026-04-18T14:31:02.999Z</time></trkpt><trkpt lat="38.18017725599604" lon="15.651054867201593"><ele>48.5</ele><time>2026-04-18T14:31:03.999Z</time></trkpt><trkpt lat="38.17988527014242" lon="15.651184980122228"><ele>52.0</ele><time>2026-04-18T14:31:04.999Z</time></trkpt><trkpt lat="38.17956719032777" lon="15.651314138783025"><ele>52.0</ele><time>2026-04-18T14:31:05.999Z</time></trkpt><trkpt lat="38.17923638418171" lon="15.651449582387569"><ele>52.0</ele><time>2026-04-18T14:31:06.999Z</time></trkpt><trkpt lat="38.17887497102467" lon="15.651607839218702"><ele>49.0</ele><time>2026-04-18T14:31:07.999Z</time></trkpt><trkpt lat="38.17854997835639" lon="15.651753682078288"><ele>46.0</ele><time>2026-04-18T14:31:08.999Z</time></trkpt><trkpt lat="38.17825774937896" lon="15.651882451535503"><ele>48.0</ele><time>2026-04-18T14:31:09.999Z</time></trkpt><trkpt lat="38.17798529440995" lon="15.652004973720134"><ele>50.0</ele><time>2026-04-18T14:31:10.999Z</time></trkpt><trkpt lat="38.177736781887255" lon="15.65211060169032"><ele>50.0</ele><time>2026-04-18T14:31:11.999Z</time></trkpt><trkpt lat="38.17749248149897" lon="15.652217152628404"><ele>50.0</ele><time>2026-04-18T14:31:12.999Z</time></trkpt><trkpt lat="38.17723763448079" lon="15.652335023827735"><ele>49.5</ele><time>2026-04-18T14:31:13.999Z</time></trkpt><trkpt lat="38.176956820992594" lon="15.65246376175483"><ele>49.0</ele><time>2026-04-18T14:31:14.999Z</time></trkpt><trkpt lat="38.176658076472854" lon="15.652592110418695"><ele>45.5</ele><time>2026-04-18T14:31:15.999Z</time></trkpt><trkpt lat="38.176342446815504" lon="15.65272444355808"><ele>42.0</ele><time>2026-04-18T14:31:16.999Z</time></trkpt><trkpt lat="38.176043521650314" lon="15.652858248223836"><ele>41.5</ele><time>2026-04-18T14:31:17.999Z</time></trkpt><trkpt lat="38.17575815429878" lon="15.652983657634321"><ele>41.0</ele><time>2026-04-18T14:31:18.999Z</time></trkpt><trkpt lat="38.17548574586371" lon="15.653099338014124"><ele>39.0</ele><time>2026-04-18T14:31:19.999Z</time></trkpt><trkpt lat="38.17521434714387" lon="15.653217414423581"><ele>37.0</ele><time>2026-04-18T14:31:20.999Z</time></trkpt><trkpt lat="38.174955919531875" lon="15.653335967574623"><ele>36.0</ele><time>2026-04-18T14:31:21.999Z</time></trkpt><trkpt lat="38.17470697526283" lon="15.653453760851336"><ele>35.0</ele><time>2026-04-18T14:31:22.999Z</time></trkpt><trkpt lat="38.17439889974503" lon="15.653578632138574"><ele>34.5</ele><time>2026-04-18T14:31:23.999Z</time></trkpt><trkpt lat="38.174108216099725" lon="15.653708031219082"><ele>34.0</ele><time>2026-04-18T14:31:24.999Z</time></trkpt><trkpt lat="38.17382380690182" lon="15.653828457605783"><ele>34.0</ele><time>2026-04-18T14:31:25.999Z</time></trkpt><trkpt lat="38.17353346692959" lon="15.653959001827259"><ele>34.0</ele><time>2026-04-18T14:31:26.999Z</time></trkpt><trkpt lat="38.17324112552498" lon="15.654083088909521"><ele>33.5</ele><time>2026-04-18T14:31:27.999Z</time></trkpt><trkpt lat="38.17295253778153" lon="15.654209454455962"><ele>33.0</ele><time>2026-04-18T14:31:28.999Z</time></trkpt><trkpt lat="38.17267208574783" lon="15.654329441977714"><ele>33.5</ele><time>2026-04-18T14:31:29.999Z</time></trkpt><trkpt lat="38.17238773304802" lon="15.654456310738851"><ele>34.0</ele><time>2026-04-18T14:31:30.999Z</time></trkpt><trkpt lat="38.17211280121268" lon="15.654578728739716"><ele>34.0</ele><time>2026-04-18T14:31:31.999Z</time></trkpt><trkpt lat="38.171837415097585" lon="15.65469860240814"><ele>34.0</ele><time>2026-04-18T14:31:32.999Z</time></trkpt><trkpt lat="38.17156723922422" lon="15.65481554828469"><ele>33.0</ele><time>2026-04-18T14:31:33.999Z</time></trkpt><trkpt lat="38.17130675435302" lon="15.654931299635212"><ele>32.0</ele><time>2026-04-18T14:31:34.999Z</time></trkpt><trkpt lat="38.17105422575673" lon="15.655049673583203"><ele>32.0</ele><time>2026-04-18T14:31:35.999Z</time></trkpt><trkpt lat="38.17081180170897" lon="15.655163199918212"><ele>32.0</ele><time>2026-04-18T14:31:36.999Z</time></trkpt><trkpt lat="38.17057102588384" lon="15.65526597155267"><ele>33.5</ele><time>2026-04-18T14:31:37.999Z</time></trkpt><trkpt lat="38.170338518237045" lon="15.655387857153277"><ele>35.0</ele><time>2026-04-18T14:31:38.999Z</time></trkpt><trkpt lat="38.17010302129493" lon="15.655517279486153"><ele>35.0</ele><time>2026-04-18T14:31:39.999Z</time></trkpt><trkpt lat="38.16986387279885" lon="15.655651356216692"><ele>35.0</ele><time>2026-04-18T14:31:40.999Z</time></trkpt><trkpt lat="38.169620171474435" lon="15.655788164775927"><ele>33.0</ele><time>2026-04-18T14:31:41.999Z</time></trkpt><trkpt lat="38.169376353743615" lon="15.655926632079215"><ele>31.0</ele><time>2026-04-18T14:31:42.999Z</time></trkpt><trkpt lat="38.169140300357526" lon="15.656060683096936"><ele>31.5</ele><time>2026-04-18T14:31:43.999Z</time></trkpt><trkpt lat="38.1689102566418" lon="15.65619229880599"><ele>32.0</ele><time>2026-04-18T14:31:44.999Z</time></trkpt><trkpt lat="38.168677804574195" lon="15.656323555065258"><ele>32.0</ele><time>2026-04-18T14:31:45.999Z</time></trkpt><trkpt lat="38.168446255217184" lon="15.656464881287299"><ele>32.0</ele><time>2026-04-18T14:31:46.999Z</time></trkpt><trkpt lat="38.16821949508639" lon="15.656620508202302"><ele>31.5</ele><time>2026-04-18T14:31:47.999Z</time></trkpt><trkpt lat="38.16799468902887" lon="15.656785850443278"><ele>31.0</ele><time>2026-04-18T14:31:48.999Z</time></trkpt><trkpt lat="38.167766889594816" lon="15.656960916492809"><ele>31.0</ele><time>2026-04-18T14:31:49.999Z</time></trkpt><trkpt lat="38.16753777146391" lon="15.657144744709262"><ele>31.0</ele><time>2026-04-18T14:31:50.999Z</time></trkpt><trkpt lat="38.16731531336748" lon="15.657338984199242"><ele>29.5</ele><time>2026-04-18T14:31:51.999Z</time></trkpt><trkpt lat="38.16710062085262" lon="15.657538225205107"><ele>28.0</ele><time>2026-04-18T14:31:52.999Z</time></trkpt><trkpt lat="38.166893883757524" lon="15.657737899725179"><ele>28.5</ele><time>2026-04-18T14:31:53.999Z</time></trkpt><trkpt lat="38.16668644350118" lon="15.657938941470206"><ele>29.0</ele><time>2026-04-18T14:31:54.999Z</time></trkpt><trkpt lat="38.1664735938104" lon="15.658144287307652"><ele>29.0</ele><time>2026-04-18T14:31:55.999Z</time></trkpt><trkpt lat="38.16625533366437" lon="15.658353310520601"><ele>29.0</ele><time>2026-04-18T14:31:56.999Z</time></trkpt><trkpt lat="38.16602477211551" lon="15.658570037205767"><ele>29.0</ele><time>2026-04-18T14:31:57.999Z</time></trkpt><trkpt lat="38.16577680815536" lon="15.658810615985196"><ele>29.0</ele><time>2026-04-18T14:31:58.999Z</time></trkpt><trkpt lat="38.16550484006704" lon="15.6590690946813"><ele>29.0</ele><time>2026-04-18T14:31:59.999Z</time></trkpt><trkpt lat="38.165211334001015" lon="15.659345063944716"><ele>29.0</ele><time>2026-04-18T14:32:00.999Z</time></trkpt><trkpt lat="38.164900640571354" lon="15.659637713220986"><ele>30.0</ele><time>2026-04-18T14:32:01.999Z</time></trkpt><trkpt lat="38.16457309944175" lon="15.659948178698297"><ele>31.0</ele><time>2026-04-18T14:32:02.999Z</time></trkpt><trkpt lat="38.16423565101615" lon="15.660269429415901"><ele>34.5</ele><time>2026-04-18T14:32:03.999Z</time></trkpt><trkpt lat="38.163898323559344" lon="15.660594897299006"><ele>38.0</ele><time>2026-04-18T14:32:04.999Z</time></trkpt><trkpt lat="38.163572951918944" lon="15.660907891833475"><ele>40.5</ele><time>2026-04-18T14:32:05.999Z</time></trkpt><trkpt lat="38.163275875934396" lon="15.661195479054184"><ele>43.0</ele><time>2026-04-18T14:32:06.999Z</time></trkpt><trkpt lat="38.16300008120389" lon="15.661462275003828"><ele>43.0</ele><time>2026-04-18T14:32:07.999Z</time></trkpt><trkpt lat="38.1627331044189" lon="15.661739167022741"><ele>43.0</ele><time>2026-04-18T14:32:08.999Z</time></trkpt><trkpt lat="38.16241526307976" lon="15.662019908394797"><ele>45.5</ele><time>2026-04-18T14:32:09.999Z</time></trkpt><trkpt lat="38.1621044089929" lon="15.662318868307326"><ele>48.0</ele><time>2026-04-18T14:32:10.999Z</time></trkpt><trkpt lat="38.16182472089165" lon="15.662581862698456"><ele>49.5</ele><time>2026-04-18T14:32:11.999Z</time></trkpt><trkpt lat="38.1615686748352" lon="15.662834028030183"><ele>51.0</ele><time>2026-04-18T14:32:13Z</time></trkpt><trkpt lat="38.16132928260026" lon="15.663063368709572"><ele>51.0</ele><time>2026-04-18T14:32:14Z</time></trkpt><trkpt lat="38.161113766113424" lon="15.663267702411448"><ele>51.0</ele><time>2026-04-18T14:32:15Z</time></trkpt><trkpt lat="38.16089332371554" lon="15.663475083698506"><ele>52.5</ele><time>2026-04-18T14:32:16Z</time></trkpt><trkpt lat="38.1606553028305" lon="15.663703055519331"><ele>54.0</ele><time>2026-04-18T14:32:17Z</time></trkpt><trkpt lat="38.16039897429873" lon="15.66394014245603"><ele>54.0</ele><time>2026-04-18T14:32:18Z</time></trkpt><trkpt lat="38.16015457879421" lon="15.664166394721272"><ele>54.0</ele><time>2026-04-18T14:32:19Z</time></trkpt><trkpt lat="38.15993467512195" lon="15.664380966667927"><ele>53.0</ele><time>2026-04-18T14:32:20Z</time></trkpt><trkpt lat="38.159712544075134" lon="15.664600258322814"><ele>52.0</ele><time>2026-04-18T14:32:21Z</time></trkpt><trkpt lat="38.15949144557949" lon="15.66481633100936"><ele>52.0</ele><time>2026-04-18T14:32:22Z</time></trkpt><trkpt lat="38.159235830120636" lon="15.665054693006807"><ele>52.0</ele><time>2026-04-18T14:32:23Z</time></trkpt><trkpt lat="38.15894061020868" lon="15.665329409284885"><ele>53.5</ele><time>2026-04-18T14:32:24Z</time></trkpt><trkpt lat="38.15864911061002" lon="15.665591953166201"><ele>55.0</ele><time>2026-04-18T14:32:25Z</time></trkpt><trkpt lat="38.158341752973946" lon="15.665847054639558"><ele>55.5</ele><time>2026-04-18T14:32:26Z</time></trkpt><trkpt lat="38.15801325238424" lon="15.666097201335573"><ele>56.0</ele><time>2026-04-18T14:32:27Z</time></trkpt><trkpt lat="38.15767831716706" lon="15.666287733162216"><ele>57.0</ele><time>2026-04-18T14:32:28Z</time></trkpt><trkpt lat="38.1573307242116" lon="15.666462780437918"><ele>58.0</ele><time>2026-04-18T14:32:29Z</time></trkpt><trkpt lat="38.15695970802122" lon="15.666612689841784"><ele>58.0</ele><time>2026-04-18T14:32:30Z</time></trkpt><trkpt lat="38.1565639318814" lon="15.666740952180021"><ele>58.0</ele><time>2026-04-18T14:32:31Z</time></trkpt><trkpt lat="38.156150610951556" lon="15.666867740261456"><ele>59.5</ele><time>2026-04-18T14:32:32Z</time></trkpt><trkpt lat="38.15572395643445" lon="15.666998515098284"><ele>61.0</ele><time>2026-04-18T14:32:33Z</time></trkpt><trkpt lat="38.15528484815565" lon="15.667141993693054"><ele>62.0</ele><time>2026-04-18T14:32:34Z</time></trkpt><trkpt lat="38.15485207985595" lon="15.667284411402838"><ele>63.0</ele><time>2026-04-18T14:32:35Z</time></trkpt><trkpt lat="38.15443982918846" lon="15.667420651169248"><ele>63.0</ele><time>2026-04-18T14:32:36Z</time></trkpt><trkpt lat="38.154043624804494" lon="15.667561728172373"><ele>63.0</ele><time>2026-04-18T14:32:37Z</time></trkpt><trkpt lat="38.153656461831154" lon="15.667691463268085"><ele>70.5</ele><time>2026-04-18T14:32:38Z</time></trkpt><trkpt lat="38.153271875033" lon="15.667821457628088"><ele>78.0</ele><time>2026-04-18T14:32:39Z</time></trkpt><trkpt lat="38.1529079578722" lon="15.667941309694903"><ele>78.0</ele><time>2026-04-18T14:32:40Z</time></trkpt><trkpt lat="38.15256467472054" lon="15.668049301984475"><ele>78.0</ele><time>2026-04-18T14:32:41Z</time></trkpt><trkpt lat="38.15223043484236" lon="15.668141238456656"><ele>77.5</ele><time>2026-04-18T14:32:42Z</time></trkpt><trkpt lat="38.15188392859561" lon="15.668227424193477"><ele>77.0</ele><time>2026-04-18T14:32:43Z</time></trkpt><trkpt lat="38.15155499536519" lon="15.668263505344807"><ele>77.0</ele><time>2026-04-18T14:32:44Z</time></trkpt><trkpt lat="38.151215367839534" lon="15.668301896176278"><ele>77.0</ele><time>2026-04-18T14:32:45Z</time></trkpt><trkpt lat="38.150876018622384" lon="15.668321779607718"><ele>76.0</ele><time>2026-04-18T14:32:46Z</time></trkpt><trkpt lat="38.15051617582254" lon="15.668324459453851"><ele>75.0</ele><time>2026-04-18T14:32:47Z</time></trkpt><trkpt lat="38.150138954258516" lon="15.668305489352845"><ele>80.0</ele><time>2026-04-18T14:32:48Z</time></trkpt><trkpt lat="38.149746572746594" lon="15.668268656949056"><ele>85.0</ele><time>2026-04-18T14:32:49Z</time></trkpt><trkpt lat="38.149342299941836" lon="15.668217119462813"><ele>88.0</ele><time>2026-04-18T14:32:50Z</time></trkpt><trkpt lat="38.14892169641803" lon="15.668152430270132"><ele>91.0</ele><time>2026-04-18T14:32:51Z</time></trkpt><trkpt lat="38.148499666298925" lon="15.668091192032135"><ele>94.5</ele><time>2026-04-18T14:32:52Z</time></trkpt><trkpt lat="38.14809237206589" lon="15.668033051297583"><ele>98.0</ele><time>2026-04-18T14:32:53Z</time></trkpt><trkpt lat="38.14771500881003" lon="15.667982551592917"><ele>103.5</ele><time>2026-04-18T14:32:54Z</time></trkpt><trkpt lat="38.14736015596314" lon="15.667936634770884"><ele>109.0</ele><time>2026-04-18T14:32:55Z</time></trkpt><trkpt lat="38.1470181586182" lon="15.66790489662927"><ele>109.0</ele><time>2026-04-18T14:32:56Z</time></trkpt><trkpt lat="38.14668345742386" lon="15.667883658570766"><ele>109.0</ele><time>2026-04-18T14:32:57Z</time></trkpt><trkpt lat="38.14634347558611" lon="15.667872969132569"><ele>111.5</ele><time>2026-04-18T14:32:58Z</time></trkpt><trkpt lat="38.14600737573591" lon="15.667783666322139"><ele>114.0</ele><time>2026-04-18T14:32:59.017Z</time></trkpt><trkpt lat="38.14568101272283" lon="15.667665952335337"><ele>101.0</ele><time>2026-04-18T14:33:00.016Z</time></trkpt><trkpt lat="38.1453626562057" lon="15.66753374060886"><ele>88.0</ele><time>2026-04-18T14:33:01.019Z</time></trkpt><trkpt lat="38.14508675197668" lon="15.667373885932104"><ele>78.5</ele><time>2026-04-18T14:33:02Z</time></trkpt><trkpt lat="38.144788569384716" lon="15.667092659529683"><ele>69.0</ele><time>2026-04-18T14:33:03Z</time></trkpt><trkpt lat="38.14453840121846" lon="15.666832705762365"><ele>69.0</ele><time>2026-04-18T14:33:04Z</time></trkpt><trkpt lat="38.14429417074162" lon="15.666530962297196"><ele>69.0</ele><time>2026-04-18T14:33:05Z</time></trkpt><trkpt lat="38.1440701820082" lon="15.666198563842329"><ele>64.5</ele><time>2026-04-18T14:33:06Z</time></trkpt><trkpt lat="38.14385712614373" lon="15.665832952209756"><ele>60.0</ele><time>2026-04-18T14:33:07Z</time></trkpt><trkpt lat="38.14364601883921" lon="15.665466683618583"><ele>62.5</ele><time>2026-04-18T14:33:08Z</time></trkpt><trkpt lat="38.14343675257933" lon="15.665102657095096"><ele>65.0</ele><time>2026-04-18T14:33:09Z</time></trkpt><trkpt lat="38.14322279016626" lon="15.664735586982426"><ele>72.5</ele><time>2026-04-18T14:33:10Z</time></trkpt><trkpt lat="38.14299260192985" lon="15.664359870738666"><ele>80.0</ele><time>2026-04-18T14:33:11Z</time></trkpt><trkpt lat="38.142737200063536" lon="15.663973920698929"><ele>82.0</ele><time>2026-04-18T14:33:12Z</time></trkpt><trkpt lat="38.14245720492311" lon="15.663582698466024"><ele>84.0</ele><time>2026-04-18T14:33:13Z</time></trkpt><trkpt lat="38.142152400527394" lon="15.663204763458861"><ele>84.0</ele><time>2026-04-18T14:33:14Z</time></trkpt><trkpt lat="38.141819039568986" lon="15.662858690965523"><ele>84.0</ele><time>2026-04-18T14:33:15Z</time></trkpt><trkpt lat="38.14146153004202" lon="15.662544023547035"><ele>82.0</ele><time>2026-04-18T14:33:16Z</time></trkpt><trkpt lat="38.14108014166069" lon="15.66225096120715"><ele>80.0</ele><time>2026-04-18T14:33:17Z</time></trkpt><trkpt lat="38.140687134499906" lon="15.661976123582816"><ele>74.0</ele><time>2026-04-18T14:33:18Z</time></trkpt><trkpt lat="38.140271609984886" lon="15.66172805355416"><ele>70.0</ele><time>2026-04-18T14:33:19Z</time></trkpt><trkpt lat="38.13983706286563" lon="15.661496415314549"><ele>70.0</ele><time>2026-04-18T14:33:20Z</time></trkpt><trkpt lat="38.139390623610424" lon="15.661273760783672"><ele>66.0</ele><time>2026-04-18T14:33:21Z</time></trkpt><trkpt lat="38.138929897975665" lon="15.661031801001672"><ele>66.0</ele><time>2026-04-18T14:33:22Z</time></trkpt><trkpt lat="38.13846153944508" lon="15.660781891178587"><ele>79.0</ele><time>2026-04-18T14:33:23Z</time></trkpt><trkpt lat="38.13798584454969" lon="15.660527993919874"><ele>79.0</ele><time>2026-04-18T14:33:24Z</time></trkpt><trkpt lat="38.13753939403074" lon="15.660285660088501"><ele>68.0</ele><time>2026-04-18T14:33:25Z</time></trkpt><trkpt lat="38.1371254442088" lon="15.660055483462994"><ele>68.0</ele><time>2026-04-18T14:33:26Z</time></trkpt><trkpt lat="38.136732234552284" lon="15.659835109856118"><ele>68.0</ele><time>2026-04-18T14:33:27Z</time></trkpt><trkpt lat="38.1363682857632" lon="15.659631936924757"><ele>69.0</ele><time>2026-04-18T14:33:28Z</time></trkpt><trkpt lat="38.13604260526093" lon="15.659457023716104"><ele>70.0</ele><time>2026-04-18T14:33:29Z</time></trkpt><trkpt lat="38.13572194118817" lon="15.659294535921775"><ele>60.0</ele><time>2026-04-18T14:33:30Z</time></trkpt><trkpt lat="38.13539184910389" lon="15.65912796438131"><ele>50.0</ele><time>2026-04-18T14:33:31Z</time></trkpt><trkpt lat="38.13504334649732" lon="15.658940883884114"><ele>46.5</ele><time>2026-04-18T14:33:31.999Z</time></trkpt><trkpt lat="38.13465652941853" lon="15.658734308021652"><ele>43.0</ele><time>2026-04-18T14:33:32.999Z</time></trkpt><trkpt lat="38.134329074530136" lon="15.658555747161133"><ele>51.5</ele><time>2026-04-18T14:33:33.999Z</time></trkpt><trkpt lat="38.13402604108746" lon="15.658386597632983"><ele>60.0</ele><time>2026-04-18T14:33:34.999Z</time></trkpt><trkpt lat="38.13374208418915" lon="15.658233777595939"><ele>60.0</ele><time>2026-04-18T14:33:35.999Z</time></trkpt><trkpt lat="38.1334786338794" lon="15.65809011934696"><ele>60.0</ele><time>2026-04-18T14:33:36.999Z</time></trkpt><trkpt lat="38.13326646762101" lon="15.657965452084634"><ele>62.0</ele><time>2026-04-18T14:33:37.999Z</time></trkpt><trkpt lat="38.13308334798727" lon="15.65783464708552"><ele>64.0</ele><time>2026-04-18T14:33:38.999Z</time></trkpt><trkpt lat="38.132930354213144" lon="15.6577491882982"><ele>66.0</ele><time>2026-04-18T14:33:39.999Z</time></trkpt><trkpt lat="38.13285648327797" lon="15.657586033337365"><ele>61.75</ele><time>2026-04-18T14:33:40.999Z</time></trkpt><trkpt lat="38.132782895749926" lon="15.657498701883023"><ele>57.5</ele><time>2026-04-18T14:33:41.999Z</time></trkpt><trkpt lat="38.13268493574097" lon="15.657392427372645"><ele>53.25</ele><time>2026-04-18T14:33:42.999Z</time></trkpt><trkpt lat="38.13257406886478" lon="15.657276920459543"><ele>49.0</ele><time>2026-04-18T14:33:43.999Z</time></trkpt><trkpt lat="38.13245874119703" lon="15.657147422798811"><ele>49.75</ele><time>2026-04-18T14:33:44.999Z</time></trkpt><trkpt lat="38.13235795620703" lon="15.657052329374359"><ele>50.5</ele><time>2026-04-18T14:33:45.999Z</time></trkpt><trkpt lat="38.13224287207537" lon="15.657000902805937"><ele>51.25</ele><time>2026-04-18T14:33:46.999Z</time></trkpt><trkpt lat="38.13212530319022" lon="15.656993661639422"><ele>52.0</ele><time>2026-04-18T14:33:47.999Z</time></trkpt><trkpt lat="38.13201522887362" lon="15.656998323026814"><ele>52.0</ele><time>2026-04-18T14:33:48.999Z</time></trkpt><trkpt lat="38.131910836420495" lon="15.657029641943375"><ele>52.0</ele><time>2026-04-18T14:33:49.999Z</time></trkpt><trkpt lat="38.13179860588922" lon="15.65709191776867"><ele>52.0</ele><time>2026-04-18T14:33:50.999Z</time></trkpt><trkpt lat="38.13167464378931" lon="15.657196212481917"><ele>52.0</ele><time>2026-04-18T14:33:51.999Z</time></trkpt><trkpt lat="38.1314979781047" lon="15.65732639716028"><ele>57.5</ele><time>2026-04-18T14:33:52.999Z</time></trkpt><trkpt lat="38.131267603003224" lon="15.657481924044266"><ele>63.0</ele><time>2026-04-18T14:33:53.999Z</time></trkpt><trkpt lat="38.13103496965058" lon="15.657637722585957"><ele>68.0</ele><time>2026-04-18T14:33:54.999Z</time></trkpt><trkpt lat="38.13081036598873" lon="15.657792465941906"><ele>73.0</ele><time>2026-04-18T14:33:55.999Z</time></trkpt><trkpt lat="38.13053889334562" lon="15.657964940561802"><ele>73.0</ele><time>2026-04-18T14:33:56.999Z</time></trkpt><trkpt lat="38.130238198140304" lon="15.658165804341518"><ele>73.0</ele><time>2026-04-18T14:33:57.999Z</time></trkpt><trkpt lat="38.12998612933369" lon="15.658333173522315"><ele>71.0</ele><time>2026-04-18T14:33:58.999Z</time></trkpt><trkpt lat="38.12975978083709" lon="15.65846878298518"><ele>69.0</ele><time>2026-04-18T14:33:59.999Z</time></trkpt><trkpt lat="38.129521316479774" lon="15.65862122883476"><ele>72.5</ele><time>2026-04-18T14:34:00.999Z</time></trkpt><trkpt lat="38.12923457550807" lon="15.658803095639167"><ele>76.0</ele><time>2026-04-18T14:34:01.999Z</time></trkpt><trkpt lat="38.128910981861274" lon="15.659006799616659"><ele>76.0</ele><time>2026-04-18T14:34:02.999Z</time></trkpt><trkpt lat="38.12856968866891" lon="15.65923284746466"><ele>76.0</ele><time>2026-04-18T14:34:03.999Z</time></trkpt><trkpt lat="38.12821250048414" lon="15.659464973365496"><ele>79.0</ele><time>2026-04-18T14:34:04.999Z</time></trkpt><trkpt lat="38.12785200724237" lon="15.659707362959237"><ele>82.0</ele><time>2026-04-18T14:34:05.999Z</time></trkpt><trkpt lat="38.12747669687411" lon="15.659950045874554"><ele>80.0</ele><time>2026-04-18T14:34:06.999Z</time></trkpt><trkpt lat="38.12710789096835" lon="15.660192708135138"><ele>78.0</ele><time>2026-04-18T14:34:07.999Z</time></trkpt><trkpt lat="38.126751704548" lon="15.660432294209091"><ele>75.0</ele><time>2026-04-18T14:34:08.999Z</time></trkpt><trkpt lat="38.12641381881203" lon="15.660680731962689"><ele>72.0</ele><time>2026-04-18T14:34:09.999Z</time></trkpt><trkpt lat="38.12611429995937" lon="15.660965897728506"><ele>68.5</ele><time>2026-04-18T14:34:10.999Z</time></trkpt><trkpt lat="38.12584744003166" lon="15.661298563426163"><ele>65.0</ele><time>2026-04-18T14:34:11.999Z</time></trkpt><trkpt lat="38.125599529003345" lon="15.661654661642146"><ele>69.5</ele><time>2026-04-18T14:34:12.999Z</time></trkpt><trkpt lat="38.12537292901795" lon="15.662076080497712"><ele>74.0</ele><time>2026-04-18T14:34:13.999Z</time></trkpt><trkpt lat="38.1251544736847" lon="15.662463040095995"><ele>74.0</ele><time>2026-04-18T14:34:14.999Z</time></trkpt><trkpt lat="38.124933798951744" lon="15.662798716529185"><ele>74.0</ele><time>2026-04-18T14:34:15.999Z</time></trkpt><trkpt lat="38.124674135835214" lon="15.663100071890748"><ele>74.0</ele><time>2026-04-18T14:34:16.999Z</time></trkpt><trkpt lat="38.12438085315703" lon="15.66336390276018"><ele>74.0</ele><time>2026-04-18T14:34:17.999Z</time></trkpt><trkpt lat="38.124069774342615" lon="15.66357742306493"><ele>67.5</ele><time>2026-04-18T14:34:19Z</time></trkpt><trkpt lat="38.12375081156671" lon="15.663740822965844"><ele>61.0</ele><time>2026-04-18T14:34:20Z</time></trkpt><trkpt lat="38.123430996461735" lon="15.663861316351227"><ele>61.0</ele><time>2026-04-18T14:34:21Z</time></trkpt><trkpt lat="38.123097211292084" lon="15.663914688589426"><ele>61.0</ele><time>2026-04-18T14:34:22Z</time></trkpt><trkpt lat="38.122761234387156" lon="15.663931510174411"><ele>61.0</ele><time>2026-04-18T14:34:23Z</time></trkpt><trkpt lat="38.12242568347833" lon="15.66389103787823"><ele>61.0</ele><time>2026-04-18T14:34:24Z</time></trkpt><trkpt lat="38.12208301096591" lon="15.663806049351878"><ele>68.5</ele><time>2026-04-18T14:34:25Z</time></trkpt><trkpt lat="38.121745928814846" lon="15.663684941158191"><ele>76.0</ele><time>2026-04-18T14:34:26Z</time></trkpt><trkpt lat="38.121408659633886" lon="15.663533361439162"><ele>86.0</ele><time>2026-04-18T14:34:27Z</time></trkpt><trkpt lat="38.12108736187074" lon="15.663361378656415"><ele>96.0</ele><time>2026-04-18T14:34:28Z</time></trkpt><trkpt lat="38.120784661999444" lon="15.663198588712149"><ele>95.5</ele><time>2026-04-18T14:34:29Z</time></trkpt><trkpt lat="38.12049723102963" lon="15.663051684144229"><ele>95.0</ele><time>2026-04-18T14:34:30Z</time></trkpt><trkpt lat="38.12023253445217" lon="15.662920969001293"><ele>95.0</ele><time>2026-04-18T14:34:31Z</time></trkpt><trkpt lat="38.11998986776413" lon="15.662822857523103"><ele>95.0</ele><time>2026-04-18T14:34:32Z</time></trkpt><trkpt lat="38.11975732145578" lon="15.66274754129683"><ele>90.0</ele><time>2026-04-18T14:34:33Z</time></trkpt><trkpt lat="38.11953353095345" lon="15.662692283558734"><ele>85.0</ele><time>2026-04-18T14:34:34Z</time></trkpt><trkpt lat="38.11930952771921" lon="15.662652704069107"><ele>85.0</ele><time>2026-04-18T14:34:35Z</time></trkpt><trkpt lat="38.11907096375069" lon="15.662616255731978"><ele>85.0</ele><time>2026-04-18T14:34:36Z</time></trkpt><trkpt lat="38.118799032679576" lon="15.662598427591254"><ele>85.0</ele><time>2026-04-18T14:34:37Z</time></trkpt><trkpt lat="38.11850664011301" lon="15.662588392926162"><ele>85.0</ele><time>2026-04-18T14:34:38Z</time></trkpt><trkpt lat="38.118177676886425" lon="15.662600577139207"><ele>85.0</ele><time>2026-04-18T14:34:39Z</time></trkpt><trkpt lat="38.11783053850555" lon="15.662625717409078"><ele>85.0</ele><time>2026-04-18T14:34:40Z</time></trkpt><trkpt lat="38.117468106988795" lon="15.662652847974528"><ele>86.0</ele><time>2026-04-18T14:34:41Z</time></trkpt><trkpt lat="38.117098149421594" lon="15.662677639069033"><ele>87.0</ele><time>2026-04-18T14:34:42Z</time></trkpt><trkpt lat="38.1167390869787" lon="15.662699659712494"><ele>87.0</ele><time>2026-04-18T14:34:43Z</time></trkpt><trkpt lat="38.116376456103374" lon="15.662705048131476"><ele>87.0</ele><time>2026-04-18T14:34:44Z</time></trkpt><trkpt lat="38.116015133692834" lon="15.662673815006418"><ele>85.5</ele><time>2026-04-18T14:34:45Z</time></trkpt><trkpt lat="38.11565338107109" lon="15.662608882743836"><ele>84.0</ele><time>2026-04-18T14:34:46Z</time></trkpt><trkpt lat="38.11532418628477" lon="15.662530826203215"><ele>84.0</ele><time>2026-04-18T14:34:47Z</time></trkpt><trkpt lat="38.11502555580555" lon="15.662464171544892"><ele>84.0</ele><time>2026-04-18T14:34:48Z</time></trkpt><trkpt lat="38.11474869270864" lon="15.662404773513098"><ele>88.5</ele><time>2026-04-18T14:34:49Z</time></trkpt><trkpt lat="38.1144585935711" lon="15.662344168217832"><ele>93.0</ele><time>2026-04-18T14:34:50Z</time></trkpt><trkpt lat="38.11413495450078" lon="15.662266993484236"><ele>93.5</ele><time>2026-04-18T14:34:51Z</time></trkpt><trkpt lat="38.11378230396265" lon="15.662182793928913"><ele>94.0</ele><time>2026-04-18T14:34:52Z</time></trkpt><trkpt lat="38.1134178843945" lon="15.66209418816541"><ele>94.5</ele><time>2026-04-18T14:34:53Z</time></trkpt><trkpt lat="38.113048859854956" lon="15.661993879485996"><ele>95.0</ele><time>2026-04-18T14:34:54Z</time></trkpt><trkpt lat="38.11269295760958" lon="15.661892789100243"><ele>100.0</ele><time>2026-04-18T14:34:55Z</time></trkpt><trkpt lat="38.1123448332969" lon="15.661786535148732"><ele>105.0</ele><time>2026-04-18T14:34:56Z</time></trkpt><trkpt lat="38.112011882528876" lon="15.661685533926061"><ele>105.0</ele><time>2026-04-18T14:34:57Z</time></trkpt><trkpt lat="38.11168992141106" lon="15.66159070802701"><ele>105.0</ele><time>2026-04-18T14:34:58Z</time></trkpt><trkpt lat="38.111358676748765" lon="15.661466658887642"><ele>107.5</ele><time>2026-04-18T14:34:59Z</time></trkpt><trkpt lat="38.11103604161857" lon="15.661385707673787"><ele>110.0</ele><time>2026-04-18T14:35:00Z</time></trkpt><trkpt lat="38.11071394462338" lon="15.661286004701552"><ele>112.5</ele><time>2026-04-18T14:35:01Z</time></trkpt><trkpt lat="38.11038955955644" lon="15.66118236887086"><ele>115.0</ele><time>2026-04-18T14:35:02Z</time></trkpt><trkpt lat="38.11008744644027" lon="15.661086031066665"><ele>113.5</ele><time>2026-04-18T14:35:03Z</time></trkpt><trkpt lat="38.109796174483996" lon="15.660993256491052"><ele>112.0</ele><time>2026-04-18T14:35:04Z</time></trkpt><trkpt lat="38.109509812093705" lon="15.660902858195415"><ele>112.0</ele><time>2026-04-18T14:35:05Z</time></trkpt><trkpt lat="38.109235708205226" lon="15.660817930779196"><ele>112.0</ele><time>2026-04-18T14:35:06Z</time></trkpt><trkpt lat="38.108978966976665" lon="15.660742406244985"><ele>118.0</ele><time>2026-04-18T14:35:07Z</time></trkpt><trkpt lat="38.10872632216401" lon="15.660667870773647"><ele>124.0</ele><time>2026-04-18T14:35:08Z</time></trkpt><trkpt lat="38.10846425441884" lon="15.660590204664778"><ele>124.5</ele><time>2026-04-18T14:35:09.021Z</time></trkpt><trkpt lat="38.10820797078745" lon="15.660513287489618"><ele>125.0</ele><time>2026-04-18T14:35:10.017Z</time></trkpt><trkpt lat="38.107956447348215" lon="15.660438034929072"><ele>125.0</ele><time>2026-04-18T14:35:11.017Z</time></trkpt><trkpt lat="38.107703988100894" lon="15.660362540892153"><ele>125.0</ele><time>2026-04-18T14:35:12.018Z</time></trkpt><trkpt lat="38.107447172379416" lon="15.66028557203098"><ele>85.0</ele><time>2026-04-18T14:35:13.018Z</time></trkpt><trkpt lat="38.105682176573296" lon="15.659755803659241"><ele>85.0</ele><time>2026-04-18T14:35:20Z</time></trkpt><trkpt lat="38.105446899296126" lon="15.659690856164797"><ele>85.0</ele><time>2026-04-18T14:35:21Z</time></trkpt><trkpt lat="38.10523281920679" lon="15.659657313190646"><ele>85.0</ele><time>2026-04-18T14:35:22Z</time></trkpt><trkpt lat="38.10501197830721" lon="15.659634749870136"><ele>85.0</ele><time>2026-04-18T14:35:23Z</time></trkpt><trkpt lat="38.10478552170398" lon="15.659610792304074"><ele>85.0</ele><time>2026-04-18T14:35:24Z</time></trkpt><trkpt lat="38.1045757525998" lon="15.659603350059434"><ele>81.33333333333333</ele><time>2026-04-18T14:35:25Z</time></trkpt><trkpt lat="38.104357598598924" lon="15.65959933698724"><ele>77.66666666666667</ele><time>2026-04-18T14:35:26Z</time></trkpt><trkpt lat="38.10413519573685" lon="15.65960830147529"><ele>74.0</ele><time>2026-04-18T14:35:27Z</time></trkpt><trkpt lat="38.10389567248862" lon="15.659610642433595"><ele>70.0</ele><time>2026-04-18T14:35:28Z</time></trkpt><trkpt lat="38.10366759670471" lon="15.65961734907832"><ele>66.0</ele><time>2026-04-18T14:35:29Z</time></trkpt><trkpt lat="38.10341556979698" lon="15.659612316129481"><ele>64.5</ele><time>2026-04-18T14:35:30Z</time></trkpt><trkpt lat="38.103168847467906" lon="15.65960886376674"><ele>63.0</ele><time>2026-04-18T14:35:31Z</time></trkpt><trkpt lat="38.10292500391045" lon="15.65960395219368"><ele>63.0</ele><time>2026-04-18T14:35:32Z</time></trkpt><trkpt lat="38.10265792993989" lon="15.659608781110496"><ele>63.0</ele><time>2026-04-18T14:35:33Z</time></trkpt><trkpt lat="38.10239841997567" lon="15.659613129640537"><ele>64.0</ele><time>2026-04-18T14:35:34Z</time></trkpt><trkpt lat="38.102135191058785" lon="15.659612937266504"><ele>65.0</ele><time>2026-04-18T14:35:35Z</time></trkpt><trkpt lat="38.10187121104907" lon="15.659608844732228"><ele>65.0</ele><time>2026-04-18T14:35:36Z</time></trkpt><trkpt lat="38.101595564539174" lon="15.659607495197148"><ele>65.0</ele><time>2026-04-18T14:35:37Z</time></trkpt><trkpt lat="38.10132388478784" lon="15.659607784362395"><ele>65.5</ele><time>2026-04-18T14:35:38Z</time></trkpt><trkpt lat="38.10104728189829" lon="15.65961125506511"><ele>66.0</ele><time>2026-04-18T14:35:39Z</time></trkpt><trkpt lat="38.100764306377485" lon="15.659611122640763"><ele>68.0</ele><time>2026-04-18T14:35:40Z</time></trkpt><trkpt lat="38.10049936068176" lon="15.659608836438572"><ele>70.0</ele><time>2026-04-18T14:35:41Z</time></trkpt><trkpt lat="38.10022605080774" lon="15.65960527321428"><ele>70.0</ele><time>2026-04-18T14:35:42Z</time></trkpt><trkpt lat="38.09996919066554" lon="15.659599911888408"><ele>70.0</ele><time>2026-04-18T14:35:43Z</time></trkpt><trkpt lat="38.09972452898522" lon="15.659594463038436"><ele>75.0</ele><time>2026-04-18T14:35:44Z</time></trkpt><trkpt lat="38.099475439411236" lon="15.659592709711069"><ele>80.0</ele><time>2026-04-18T14:35:45Z</time></trkpt><trkpt lat="38.09922490115612" lon="15.659590737504898"><ele>83.5</ele><time>2026-04-18T14:35:46Z</time></trkpt><trkpt lat="38.09897267148377" lon="15.659586832584251"><ele>87.0</ele><time>2026-04-18T14:35:47Z</time></trkpt><trkpt lat="38.09873118203756" lon="15.659572798921564"><ele>87.0</ele><time>2026-04-18T14:35:48Z</time></trkpt><trkpt lat="38.09849332311608" lon="15.659549367782022"><ele>87.0</ele><time>2026-04-18T14:35:49Z</time></trkpt><trkpt lat="38.098257306605575" lon="15.65952164734637"><ele>87.0</ele><time>2026-04-18T14:35:50Z</time></trkpt><trkpt lat="38.09799991042697" lon="15.659481514395823"><ele>87.0</ele><time>2026-04-18T14:35:51Z</time></trkpt><trkpt lat="38.09770822001268" lon="15.659421911326382"><ele>91.5</ele><time>2026-04-18T14:35:52Z</time></trkpt><trkpt lat="38.097391380990395" lon="15.659343479423795"><ele>96.0</ele><time>2026-04-18T14:35:53Z</time></trkpt><trkpt lat="38.09705999421002" lon="15.659254208877195"><ele>96.0</ele><time>2026-04-18T14:35:54Z</time></trkpt><trkpt lat="38.09673006011919" lon="15.659172272601046"><ele>96.0</ele><time>2026-04-18T14:35:55Z</time></trkpt><trkpt lat="38.096428485808715" lon="15.659111122147563"><ele>97.5</ele><time>2026-04-18T14:35:56Z</time></trkpt><trkpt lat="38.0961594397573" lon="15.659041989006852"><ele>99.0</ele><time>2026-04-18T14:35:57Z</time></trkpt><trkpt lat="38.09590057238701" lon="15.658987619806139"><ele>100.5</ele><time>2026-04-18T14:35:58Z</time></trkpt><trkpt lat="38.09565580100758" lon="15.65894659638017"><ele>102.0</ele><time>2026-04-18T14:35:59Z</time></trkpt><trkpt lat="38.09541190970893" lon="15.658924419718108"><ele>102.0</ele><time>2026-04-18T14:36:00Z</time></trkpt><trkpt lat="38.09515061573478" lon="15.658930429368366"><ele>102.0</ele><time>2026-04-18T14:36:01Z</time></trkpt><trkpt lat="38.09488473157468" lon="15.65894934350405"><ele>101.0</ele><time>2026-04-18T14:36:02Z</time></trkpt><trkpt lat="38.0946026472044" lon="15.658998691652078"><ele>100.0</ele><time>2026-04-18T14:36:03Z</time></trkpt><trkpt lat="38.094309345526426" lon="15.65906560541048"><ele>99.5</ele><time>2026-04-18T14:36:04Z</time></trkpt><trkpt lat="38.09403229393041" lon="15.659135397746589"><ele>99.0</ele><time>2026-04-18T14:36:05Z</time></trkpt><trkpt lat="38.093725069804435" lon="15.659249554400986"><ele>99.0</ele><time>2026-04-18T14:36:05.999Z</time></trkpt><trkpt lat="38.09341235629426" lon="15.659341503769486"><ele>99.0</ele><time>2026-04-18T14:36:06.999Z</time></trkpt><trkpt lat="38.093112165782465" lon="15.659439435931748"><ele>98.5</ele><time>2026-04-18T14:36:07.999Z</time></trkpt><trkpt lat="38.09283921186545" lon="15.659510600234425"><ele>98.0</ele><time>2026-04-18T14:36:08.999Z</time></trkpt><trkpt lat="38.09256139731247" lon="15.659583878347897"><ele>96.5</ele><time>2026-04-18T14:36:09.999Z</time></trkpt><trkpt lat="38.09228089417139" lon="15.659679492780766"><ele>95.0</ele><time>2026-04-18T14:36:10.999Z</time></trkpt><trkpt lat="38.09200804122535" lon="15.659796074590693"><ele>95.0</ele><time>2026-04-18T14:36:11.999Z</time></trkpt><trkpt lat="38.09174315041184" lon="15.659953256859819"><ele>95.0</ele><time>2026-04-18T14:36:12.999Z</time></trkpt><trkpt lat="38.091442358638645" lon="15.660143914935174"><ele>89.0</ele><time>2026-04-18T14:36:13.999Z</time></trkpt><trkpt lat="38.09114274999957" lon="15.66029655213301"><ele>83.0</ele><time>2026-04-18T14:36:14.999Z</time></trkpt><trkpt lat="38.09085270833269" lon="15.660475094403125"><ele>80.5</ele><time>2026-04-18T14:36:15.999Z</time></trkpt><trkpt lat="38.09057727746863" lon="15.660651626457488"><ele>78.0</ele><time>2026-04-18T14:36:16.999Z</time></trkpt><trkpt lat="38.09030780833809" lon="15.660826981665469"><ele>78.0</ele><time>2026-04-18T14:36:17.999Z</time></trkpt><trkpt lat="38.09005426481259" lon="15.66099139084105"><ele>78.0</ele><time>2026-04-18T14:36:18.999Z</time></trkpt><trkpt lat="38.08980645738843" lon="15.661150970575704"><ele>78.0</ele><time>2026-04-18T14:36:19.999Z</time></trkpt><trkpt lat="38.08956539234784" lon="15.661305313806018"><ele>78.0</ele><time>2026-04-18T14:36:20.999Z</time></trkpt><trkpt lat="38.08931838909025" lon="15.66146192101869"><ele>75.0</ele><time>2026-04-18T14:36:21.999Z</time></trkpt><trkpt lat="38.08907077063404" lon="15.661620496381987"><ele>72.0</ele><time>2026-04-18T14:36:22.999Z</time></trkpt><trkpt lat="38.08881645097493" lon="15.66178745157665"><ele>72.0</ele><time>2026-04-18T14:36:23.999Z</time></trkpt><trkpt lat="38.08856139691043" lon="15.661949386778195"><ele>72.0</ele><time>2026-04-18T14:36:25Z</time></trkpt><trkpt lat="38.08830176924136" lon="15.662111793070311"><ele>71.0</ele><time>2026-04-18T14:36:26Z</time></trkpt><trkpt lat="38.08803360792172" lon="15.662287329530256"><ele>70.0</ele><time>2026-04-18T14:36:27Z</time></trkpt><trkpt lat="38.08775041624023" lon="15.66247426629975"><ele>70.0</ele><time>2026-04-18T14:36:28Z</time></trkpt><trkpt lat="38.087455034251185" lon="15.662662868920453"><ele>70.0</ele><time>2026-04-18T14:36:29Z</time></trkpt><trkpt lat="38.08714967605829" lon="15.66285495312185"><ele>70.5</ele><time>2026-04-18T14:36:30Z</time></trkpt><trkpt lat="38.08683648260071" lon="15.663050426527317"><ele>71.0</ele><time>2026-04-18T14:36:31Z</time></trkpt><trkpt lat="38.08651533451187" lon="15.66325306178782"><ele>71.5</ele><time>2026-04-18T14:36:32Z</time></trkpt><trkpt lat="38.0861940563247" lon="15.663454577196942"><ele>72.0</ele><time>2026-04-18T14:36:33Z</time></trkpt><trkpt lat="38.08587150751192" lon="15.663649756756755"><ele>76.5</ele><time>2026-04-18T14:36:34Z</time></trkpt><trkpt lat="38.08554869264002" lon="15.663837936344182"><ele>81.0</ele><time>2026-04-18T14:36:35Z</time></trkpt><trkpt lat="38.08521325263481" lon="15.663991323900094"><ele>79.5</ele><time>2026-04-18T14:36:36Z</time></trkpt><trkpt lat="38.08488163100049" lon="15.664116528952453"><ele>78.0</ele><time>2026-04-18T14:36:37Z</time></trkpt><trkpt lat="38.084572764177715" lon="15.664179636127908"><ele>78.0</ele><time>2026-04-18T14:36:38Z</time></trkpt><trkpt lat="38.08427705870864" lon="15.664241914228578"><ele>78.0</ele><time>2026-04-18T14:36:39Z</time></trkpt><trkpt lat="38.08398222659935" lon="15.66427721223738"><ele>76.5</ele><time>2026-04-18T14:36:40Z</time></trkpt><trkpt lat="38.08368408661273" lon="15.664287316035747"><ele>75.0</ele><time>2026-04-18T14:36:41Z</time></trkpt><trkpt lat="38.08339665446302" lon="15.664285992862546"><ele>73.0</ele><time>2026-04-18T14:36:42Z</time></trkpt><trkpt lat="38.08311041300036" lon="15.664291675764503"><ele>71.0</ele><time>2026-04-18T14:36:43Z</time></trkpt><trkpt lat="38.08283718011081" lon="15.664301399164911"><ele>71.0</ele><time>2026-04-18T14:36:44Z</time></trkpt><trkpt lat="38.08256207543096" lon="15.664312791661356"><ele>71.0</ele><time>2026-04-18T14:36:45Z</time></trkpt><trkpt lat="38.08228498620645" lon="15.664327500471884"><ele>70.5</ele><time>2026-04-18T14:36:46Z</time></trkpt><trkpt lat="38.08200633555606" lon="15.664339400488139"><ele>70.0</ele><time>2026-04-18T14:36:47Z</time></trkpt><trkpt lat="38.08173128456794" lon="15.664350788995131"><ele>69.5</ele><time>2026-04-18T14:36:48Z</time></trkpt><trkpt lat="38.0814560059717" lon="15.664361994030422"><ele>69.0</ele><time>2026-04-18T14:36:49Z</time></trkpt><trkpt lat="38.08116409095842" lon="15.664371908458165"><ele>69.0</ele><time>2026-04-18T14:36:50Z</time></trkpt><trkpt lat="38.080836976876064" lon="15.66438197996729"><ele>69.0</ele><time>2026-04-18T14:36:51Z</time></trkpt><trkpt lat="38.08048852467098" lon="15.664387701066119"><ele>67.0</ele><time>2026-04-18T14:36:52Z</time></trkpt><trkpt lat="38.080123752148566" lon="15.664398495874307"><ele>65.0</ele><time>2026-04-18T14:36:53Z</time></trkpt><trkpt lat="38.079767624745315" lon="15.66441399542506"><ele>64.5</ele><time>2026-04-18T14:36:54Z</time></trkpt><trkpt lat="38.07942301984938" lon="15.664433123776513"><ele>64.0</ele><time>2026-04-18T14:36:55Z</time></trkpt><trkpt lat="38.07907261539339" lon="15.664446640816227"><ele>64.0</ele><time>2026-04-18T14:36:56Z</time></trkpt><trkpt lat="38.078720642266184" lon="15.664454602829466"><ele>64.0</ele><time>2026-04-18T14:36:57Z</time></trkpt><trkpt lat="38.07835889137443" lon="15.664462595434307"><ele>61.5</ele><time>2026-04-18T14:36:58Z</time></trkpt><trkpt lat="38.07798064622865" lon="15.664468454896015"><ele>59.0</ele><time>2026-04-18T14:36:59Z</time></trkpt><trkpt lat="38.077586882131996" lon="15.664477972566017"><ele>54.5</ele><time>2026-04-18T14:37:00Z</time></trkpt><trkpt lat="38.077196501707036" lon="15.66448529380395"><ele>50.0</ele><time>2026-04-18T14:37:01Z</time></trkpt><trkpt lat="38.0768290191097" lon="15.664461542164846"><ele>51.0</ele><time>2026-04-18T14:37:02Z</time></trkpt><trkpt lat="38.07647873647387" lon="15.664432363784298"><ele>52.0</ele><time>2026-04-18T14:37:03Z</time></trkpt><trkpt lat="38.076159045606616" lon="15.664386678041138"><ele>52.0</ele><time>2026-04-18T14:37:04Z</time></trkpt><trkpt lat="38.07583666911252" lon="15.664319018622072"><ele>52.0</ele><time>2026-04-18T14:37:05Z</time></trkpt><trkpt lat="38.075520684050886" lon="15.664250787026543"><ele>47.0</ele><time>2026-04-18T14:37:06Z</time></trkpt><trkpt lat="38.07520829284169" lon="15.66416291358238"><ele>42.0</ele><time>2026-04-18T14:37:07Z</time></trkpt><trkpt lat="38.07487697009371" lon="15.664053333032765"><ele>39.0</ele><time>2026-04-18T14:37:08Z</time></trkpt><trkpt lat="38.074521545831445" lon="15.663924842625036"><ele>36.0</ele><time>2026-04-18T14:37:09Z</time></trkpt><trkpt lat="38.074143363665584" lon="15.663786797180734"><ele>36.0</ele><time>2026-04-18T14:37:10Z</time></trkpt><trkpt lat="38.07375915130974" lon="15.663645505579971"><ele>36.0</ele><time>2026-04-18T14:37:11Z</time></trkpt><trkpt lat="38.07336688036282" lon="15.66351010149089"><ele>34.5</ele><time>2026-04-18T14:37:12Z</time></trkpt><trkpt lat="38.07299766243647" lon="15.663389821712732"><ele>33.0</ele><time>2026-04-18T14:37:13Z</time></trkpt><trkpt lat="38.07266452940274" lon="15.663305950118225"><ele>33.0</ele><time>2026-04-18T14:37:14Z</time></trkpt><trkpt lat="38.072348455053444" lon="15.66325816205177"><ele>33.0</ele><time>2026-04-18T14:37:15Z</time></trkpt><trkpt lat="38.07205821738385" lon="15.663228879174023"><ele>33.0</ele><time>2026-04-18T14:37:16Z</time></trkpt><trkpt lat="38.07178555209303" lon="15.663215105925195"><ele>33.0</ele><time>2026-04-18T14:37:17Z</time></trkpt><trkpt lat="38.071518566175016" lon="15.663211282290122"><ele>34.5</ele><time>2026-04-18T14:37:18Z</time></trkpt><trkpt lat="38.071205524647475" lon="15.6632092075629"><ele>36.0</ele><time>2026-04-18T14:37:19Z</time></trkpt><trkpt lat="38.07086237023642" lon="15.66320279685099"><ele>36.0</ele><time>2026-04-18T14:37:20Z</time></trkpt><trkpt lat="38.07049496913386" lon="15.663206473187179"><ele>36.0</ele><time>2026-04-18T14:37:21Z</time></trkpt><trkpt lat="38.0701273468691" lon="15.663213388087176"><ele>36.5</ele><time>2026-04-18T14:37:22Z</time></trkpt><trkpt lat="38.06978225695251" lon="15.663212461416833"><ele>37.0</ele><time>2026-04-18T14:37:23Z</time></trkpt><trkpt lat="38.06947328113816" lon="15.66319360292994"><ele>37.0</ele><time>2026-04-18T14:37:24Z</time></trkpt><trkpt lat="38.069185338793794" lon="15.663164733492914"><ele>37.0</ele><time>2026-04-18T14:37:25Z</time></trkpt><trkpt lat="38.068913504410475" lon="15.663139583668443"><ele>37.5</ele><time>2026-04-18T14:37:26Z</time></trkpt><trkpt lat="38.06865778229239" lon="15.663110808308927"><ele>38.0</ele><time>2026-04-18T14:37:27Z</time></trkpt><trkpt lat="38.068419785594116" lon="15.663082946711741"><ele>39.5</ele><time>2026-04-18T14:37:28Z</time></trkpt><trkpt lat="38.06819520617276" lon="15.663060951741679"><ele>41.0</ele><time>2026-04-18T14:37:29Z</time></trkpt><trkpt lat="38.06796743537687" lon="15.663035270056877"><ele>41.0</ele><time>2026-04-18T14:37:30Z</time></trkpt><trkpt lat="38.067714411512874" lon="15.662979635226343"><ele>41.0</ele><time>2026-04-18T14:37:31Z</time></trkpt><trkpt lat="38.067381516161745" lon="15.66293689886954"><ele>41.5</ele><time>2026-04-18T14:37:32Z</time></trkpt><trkpt lat="38.06709834245608" lon="15.662902228983782"><ele>42.0</ele><time>2026-04-18T14:37:33Z</time></trkpt><trkpt lat="38.06681358487878" lon="15.662892818070079"><ele>42.5</ele><time>2026-04-18T14:37:34Z</time></trkpt><trkpt lat="38.06649295945198" lon="15.662839448840701"><ele>43.0</ele><time>2026-04-18T14:37:35Z</time></trkpt><trkpt lat="38.06616473908101" lon="15.66278486440263"><ele>42.0</ele><time>2026-04-18T14:37:36Z</time></trkpt><trkpt lat="38.06584058539547" lon="15.662756357897829"><ele>41.0</ele><time>2026-04-18T14:37:37Z</time></trkpt><trkpt lat="38.06551758870633" lon="15.662714448551794"><ele>41.0</ele><time>2026-04-18T14:37:38Z</time></trkpt><trkpt lat="38.065173312835846" lon="15.662673959293267"><ele>41.0</ele><time>2026-04-18T14:37:39Z</time></trkpt><trkpt lat="38.0648102885294" lon="15.662632729649191"><ele>41.0</ele><time>2026-04-18T14:37:40Z</time></trkpt><trkpt lat="38.06443055660516" lon="15.662589676560637"><ele>41.0</ele><time>2026-04-18T14:37:41Z</time></trkpt><trkpt lat="38.063678069139876" lon="15.662486880380644"><ele>41.5</ele><time>2026-04-18T14:37:43Z</time></trkpt><trkpt lat="38.0633317244342" lon="15.662437463641833"><ele>42.0</ele><time>2026-04-18T14:37:44Z</time></trkpt><trkpt lat="38.063033339147836" lon="15.662406087045525"><ele>42.0</ele><time>2026-04-18T14:37:45Z</time></trkpt><trkpt lat="38.06276826220734" lon="15.662375833828001"><ele>42.0</ele><time>2026-04-18T14:37:46Z</time></trkpt><trkpt lat="38.06246551537096" lon="15.662336631687799"><ele>43.0</ele><time>2026-04-18T14:37:47Z</time></trkpt><trkpt lat="38.06217537748069" lon="15.662298734257986"><ele>44.0</ele><time>2026-04-18T14:37:48Z</time></trkpt><trkpt lat="38.061932246977335" lon="15.662177122123316"><ele>44.0</ele><time>2026-04-18T14:37:49Z</time></trkpt><trkpt lat="38.06167269215882" lon="15.662115198413446"><ele>44.0</ele><time>2026-04-18T14:37:50Z</time></trkpt><trkpt lat="38.061429884098565" lon="15.661985168155688"><ele>41.5</ele><time>2026-04-18T14:37:51Z</time></trkpt><trkpt lat="38.06119754837106" lon="15.661852960593835"><ele>39.0</ele><time>2026-04-18T14:37:52Z</time></trkpt><trkpt lat="38.06099669867384" lon="15.661742840183608"><ele>39.0</ele><time>2026-04-18T14:37:53Z</time></trkpt><trkpt lat="38.0607982191001" lon="15.6616618687502"><ele>39.0</ele><time>2026-04-18T14:37:54Z</time></trkpt><trkpt lat="38.06061137793348" lon="15.66158728764191"><ele>39.0</ele><time>2026-04-18T14:37:55Z</time></trkpt><trkpt lat="38.06044039190965" lon="15.661511151692405"><ele>39.8</ele><time>2026-04-18T14:37:56Z</time></trkpt><trkpt lat="38.06029603772219" lon="15.66146144945243"><ele>40.599999999999994</ele><time>2026-04-18T14:37:57Z</time></trkpt><trkpt lat="38.060191577704224" lon="15.661419214824525"><ele>41.4</ele><time>2026-04-18T14:37:58Z</time></trkpt><trkpt lat="38.06011585355467" lon="15.661397606411889"><ele>42.199999999999996</ele><time>2026-04-18T14:37:59Z</time></trkpt><trkpt lat="38.06001861059879" lon="15.661425921499443"><ele>43.0</ele><time>2026-04-18T14:38:01Z</time></trkpt><trkpt lat="38.059947136830175" lon="15.661409161647242"><ele>43.0</ele><time>2026-04-18T14:38:02.999Z</time></trkpt><trkpt lat="38.05985212626288" lon="15.661495249100387"><ele>43.0</ele><time>2026-04-18T14:38:04.999Z</time></trkpt><trkpt lat="38.05977385927186" lon="15.661505652857164"><ele>43.0</ele><time>2026-04-18T14:38:05.999Z</time></trkpt><trkpt lat="38.059688369176456" lon="15.661458882831266"><ele>43.0</ele><time>2026-04-18T14:38:06.999Z</time></trkpt><trkpt lat="38.059608915795934" lon="15.661418608135575"><ele>43.0</ele><time>2026-04-18T14:38:07.999Z</time></trkpt><trkpt lat="38.059503113126944" lon="15.661524037639362"><ele>43.0</ele><time>2026-04-18T14:38:09.999Z</time></trkpt><trkpt lat="38.05943390583792" lon="15.6616379571973"><ele>43.0</ele><time>2026-04-18T14:38:10.999Z</time></trkpt><trkpt lat="38.059373627306854" lon="15.661754892888277"><ele>43.0</ele><time>2026-04-18T14:38:11.999Z</time></trkpt><trkpt lat="38.059310837871436" lon="15.661854072214918"><ele>43.0</ele><time>2026-04-18T14:38:12.999Z</time></trkpt><trkpt lat="38.05923483367733" lon="15.661947374541207"><ele>43.0</ele><time>2026-04-18T14:38:13.999Z</time></trkpt><trkpt lat="38.05914810440519" lon="15.66203271166672"><ele>43.8</ele><time>2026-04-18T14:38:14.999Z</time></trkpt><trkpt lat="38.05909537139311" lon="15.662134188516013"><ele>44.599999999999994</ele><time>2026-04-18T14:38:15.999Z</time></trkpt><trkpt lat="38.059030086164434" lon="15.662233653522485"><ele>45.400000000000006</ele><time>2026-04-18T14:38:16.999Z</time></trkpt><trkpt lat="38.058955720474295" lon="15.662346931801018"><ele>46.2</ele><time>2026-04-18T14:38:17.999Z</time></trkpt><trkpt lat="38.058893732037006" lon="15.662458099409516"><ele>47.0</ele><time>2026-04-18T14:38:18.999Z</time></trkpt><trkpt lat="38.058830781496795" lon="15.662565716113551"><ele>47.0</ele><time>2026-04-18T14:38:19.999Z</time></trkpt><trkpt lat="38.05875143172039" lon="15.66270344265941"><ele>47.0</ele><time>2026-04-18T14:38:20.999Z</time></trkpt><trkpt lat="38.058691059807735" lon="15.662825412279497"><ele>47.0</ele><time>2026-04-18T14:38:21.999Z</time></trkpt><trkpt lat="38.058643775306365" lon="15.662945740584346"><ele>47.0</ele><time>2026-04-18T14:38:22.999Z</time></trkpt><trkpt lat="38.058607778465415" lon="15.663089877237885"><ele>49.0</ele><time>2026-04-18T14:38:23.999Z</time></trkpt><trkpt lat="38.05853788662516" lon="15.66325946108921"><ele>51.0</ele><time>2026-04-18T14:38:24.999Z</time></trkpt><trkpt lat="38.05848448406104" lon="15.663422663080215"><ele>53.0</ele><time>2026-04-18T14:38:25.999Z</time></trkpt><trkpt lat="38.05845744408624" lon="15.663557619058265"><ele>55.0</ele><time>2026-04-18T14:38:26.999Z</time></trkpt><trkpt lat="38.058417575963965" lon="15.66367667920671"><ele>55.0</ele><time>2026-04-18T14:38:27.999Z</time></trkpt><trkpt lat="38.05838679979008" lon="15.663774598013532"><ele>55.0</ele><time>2026-04-18T14:38:28.999Z</time></trkpt><trkpt lat="38.058339134911684" lon="15.663903142842829"><ele>55.0</ele><time>2026-04-18T14:38:29.999Z</time></trkpt><trkpt lat="38.05826683268819" lon="15.664082788466546"><ele>55.0</ele><time>2026-04-18T14:38:31Z</time></trkpt><trkpt lat="38.05816872389698" lon="15.664298737764847"><ele>57.0</ele><time>2026-04-18T14:38:32Z</time></trkpt><trkpt lat="38.05806943911221" lon="15.664538714758788"><ele>59.0</ele><time>2026-04-18T14:38:33Z</time></trkpt><trkpt lat="38.05798939964713" lon="15.664786547239189"><ele>61.0</ele><time>2026-04-18T14:38:34Z</time></trkpt><trkpt lat="38.05792345940544" lon="15.665023841492504"><ele>61.0</ele><time>2026-04-18T14:38:35Z</time></trkpt><trkpt lat="38.05785372622163" lon="15.665230120616453"><ele>61.0</ele><time>2026-04-18T14:38:36Z</time></trkpt><trkpt lat="38.057798684239806" lon="15.665408932867921"><ele>61.0</ele><time>2026-04-18T14:38:37Z</time></trkpt><trkpt lat="38.05775762225382" lon="15.665581997696185"><ele>63.0</ele><time>2026-04-18T14:38:38Z</time></trkpt><trkpt lat="38.05774152089803" lon="15.665765393871759"><ele>65.0</ele><time>2026-04-18T14:38:39Z</time></trkpt><trkpt lat="38.057759203244515" lon="15.665985228599954"><ele>67.0</ele><time>2026-04-18T14:38:40Z</time></trkpt><trkpt lat="38.057759814481024" lon="15.666181089959315"><ele>69.66666666666666</ele><time>2026-04-18T14:38:41Z</time></trkpt><trkpt lat="38.05770396164858" lon="15.666342567640235"><ele>72.33333333333333</ele><time>2026-04-18T14:38:42Z</time></trkpt><trkpt lat="38.05762878253425" lon="15.666536019582935"><ele>75.0</ele><time>2026-04-18T14:38:43Z</time></trkpt><trkpt lat="38.057556164792516" lon="15.66672970782053"><ele>75.0</ele><time>2026-04-18T14:38:44Z</time></trkpt><trkpt lat="38.05749785950822" lon="15.666903314919958"><ele>75.0</ele><time>2026-04-18T14:38:45Z</time></trkpt><trkpt lat="38.05738200815436" lon="15.667000263031575"><ele>75.0</ele><time>2026-04-18T14:38:46Z</time></trkpt><trkpt lat="38.05726865316007" lon="15.667125143463439"><ele>75.0</ele><time>2026-04-18T14:38:47Z</time></trkpt><trkpt lat="38.057189127333565" lon="15.667321498512587"><ele>73.66666666666667</ele><time>2026-04-18T14:38:48Z</time></trkpt><trkpt lat="38.05712576681317" lon="15.667517470834422"><ele>72.33333333333334</ele><time>2026-04-18T14:38:49Z</time></trkpt><trkpt lat="38.05708812608793" lon="15.667716187980355"><ele>71.0</ele><time>2026-04-18T14:38:50Z</time></trkpt><trkpt lat="38.05704645982723" lon="15.667907203148578"><ele>73.5</ele><time>2026-04-18T14:38:51Z</time></trkpt><trkpt lat="38.05700763792351" lon="15.668072931110625"><ele>76.0</ele><time>2026-04-18T14:38:52Z</time></trkpt><trkpt lat="38.056968922653155" lon="15.668145643072867"><ele>78.5</ele><time>2026-04-18T14:38:53Z</time></trkpt><trkpt lat="38.05693337971188" lon="15.668304725595192"><ele>81.0</ele><time>2026-04-18T14:38:58Z</time></trkpt><trkpt lat="38.056913807688645" lon="15.668486650612234"><ele>84.5</ele><time>2026-04-18T14:38:59Z</time></trkpt><trkpt lat="38.05686720091839" lon="15.668745988253317"><ele>88.0</ele><time>2026-04-18T14:39:00Z</time></trkpt><trkpt lat="38.05680650819963" lon="15.669041137849579"><ele>88.0</ele><time>2026-04-18T14:39:01Z</time></trkpt><trkpt lat="38.05676111715323" lon="15.669326271000592"><ele>88.0</ele><time>2026-04-18T14:39:02Z</time></trkpt><trkpt lat="38.0567328145437" lon="15.669554354850328"><ele>88.0</ele><time>2026-04-18T14:39:03Z</time></trkpt><trkpt lat="38.05668076430047" lon="15.669773641182005"><ele>87.0</ele><time>2026-04-18T14:39:04Z</time></trkpt><trkpt lat="38.05665248501641" lon="15.669985365479254"><ele>86.0</ele><time>2026-04-18T14:39:05Z</time></trkpt><trkpt lat="38.056628224086616" lon="15.670170286610556"><ele>85.0</ele><time>2026-04-18T14:39:06Z</time></trkpt><trkpt lat="38.05659942845159" lon="15.670354541215872"><ele>85.0</ele><time>2026-04-18T14:39:07Z</time></trkpt><trkpt lat="38.05657339690101" lon="15.670525515436605"><ele>85.0</ele><time>2026-04-18T14:39:08Z</time></trkpt><trkpt lat="38.056552845700146" lon="15.670684250813231"><ele>85.0</ele><time>2026-04-18T14:39:09Z</time></trkpt><trkpt lat="38.056540593009984" lon="15.670808210883651"><ele>85.0</ele><time>2026-04-18T14:39:10Z</time></trkpt><trkpt lat="38.05652835759381" lon="15.670936848527976"><ele>85.0</ele><time>2026-04-18T14:39:11Z</time></trkpt><trkpt lat="38.05651657861789" lon="15.671054698209689"><ele>85.0</ele><time>2026-04-18T14:39:12Z</time></trkpt><trkpt lat="38.05649783317504" lon="15.671169597376382"><ele>85.0</ele><time>2026-04-18T14:39:13Z</time></trkpt><trkpt lat="38.056487989222056" lon="15.67128871146089"><ele>85.0</ele><time>2026-04-18T14:39:14Z</time></trkpt><trkpt lat="38.05643858694325" lon="15.671403456782494"><ele>85.0</ele><time>2026-04-18T14:39:15Z</time></trkpt><trkpt lat="38.05640260312574" lon="15.671510948515227"><ele>86.8</ele><time>2026-04-18T14:39:16Z</time></trkpt><trkpt lat="38.056361778620065" lon="15.671611024624854"><ele>88.6</ele><time>2026-04-18T14:39:17Z</time></trkpt><trkpt lat="38.05632862098651" lon="15.671751273480531"><ele>90.4</ele><time>2026-04-18T14:39:18Z</time></trkpt><trkpt lat="38.05634478296103" lon="15.671883882819799"><ele>92.2</ele><time>2026-04-18T14:39:19Z</time></trkpt><trkpt lat="38.05632714354056" lon="15.672052811495291"><ele>94.0</ele><time>2026-04-18T14:39:20Z</time></trkpt><trkpt lat="38.0562986678994" lon="15.672235126321477"><ele>95.33333333333333</ele><time>2026-04-18T14:39:21Z</time></trkpt><trkpt lat="38.05625596175654" lon="15.672403948004833"><ele>96.66666666666666</ele><time>2026-04-18T14:39:22Z</time></trkpt><trkpt lat="38.056217685729564" lon="15.67258726052565"><ele>98.0</ele><time>2026-04-18T14:39:23Z</time></trkpt><trkpt lat="38.05618595345949" lon="15.672787949132443"><ele>99.66666666666666</ele><time>2026-04-18T14:39:24Z</time></trkpt><trkpt lat="38.0561469780198" lon="15.672972014233775"><ele>101.33333333333334</ele><time>2026-04-18T14:39:25Z</time></trkpt><trkpt lat="38.056111274388286" lon="15.673164582465205"><ele>103.0</ele><time>2026-04-18T14:39:26Z</time></trkpt><trkpt lat="38.05605893814354" lon="15.673363120866753"><ele>103.0</ele><time>2026-04-18T14:39:27Z</time></trkpt><trkpt lat="38.05600074998139" lon="15.67356531473854"><ele>103.0</ele><time>2026-04-18T14:39:28Z</time></trkpt><trkpt lat="38.05594613361357" lon="15.673768932517259"><ele>103.0</ele><time>2026-04-18T14:39:29Z</time></trkpt><trkpt lat="38.055892797735986" lon="15.673961617268032"><ele>105.0</ele><time>2026-04-18T14:39:30Z</time></trkpt><trkpt lat="38.05585488745428" lon="15.674144365431507"><ele>107.0</ele><time>2026-04-18T14:39:31Z</time></trkpt><trkpt lat="38.055843885670534" lon="15.674305096278175"><ele>109.0</ele><time>2026-04-18T14:39:32Z</time></trkpt><trkpt lat="38.05583339191028" lon="15.67446331603788"><ele>111.0</ele><time>2026-04-18T14:39:33Z</time></trkpt><trkpt lat="38.05579423505453" lon="15.674604625864202"><ele>110.0</ele><time>2026-04-18T14:39:34Z</time></trkpt><trkpt lat="38.055682749913586" lon="15.674728518012042"><ele>109.0</ele><time>2026-04-18T14:39:35Z</time></trkpt><trkpt lat="38.05556227005656" lon="15.674886619340278"><ele>108.0</ele><time>2026-04-18T14:39:36Z</time></trkpt><trkpt lat="38.05543357571223" lon="15.675058178306971"><ele>108.0</ele><time>2026-04-18T14:39:37Z</time></trkpt><trkpt lat="38.05533692896636" lon="15.675268563548027"><ele>108.0</ele><time>2026-04-18T14:39:38Z</time></trkpt><trkpt lat="38.05524792541846" lon="15.675481008761952"><ele>108.0</ele><time>2026-04-18T14:39:39Z</time></trkpt><trkpt lat="38.05515320594026" lon="15.675692707785709"><ele>107.33333333333334</ele><time>2026-04-18T14:39:40Z</time></trkpt><trkpt lat="38.055043412854225" lon="15.675874849064126"><ele>106.66666666666667</ele><time>2026-04-18T14:39:41Z</time></trkpt><trkpt lat="38.054932100668" lon="15.676057955277418"><ele>106.0</ele><time>2026-04-18T14:39:42Z</time></trkpt><trkpt lat="38.05482053423425" lon="15.676239717819"><ele>109.66666666666667</ele><time>2026-04-18T14:39:43Z</time></trkpt><trkpt lat="38.054716789933785" lon="15.676421833828753"><ele>113.33333333333334</ele><time>2026-04-18T14:39:44Z</time></trkpt><trkpt lat="38.054630816086544" lon="15.67659196284823"><ele>117.0</ele><time>2026-04-18T14:39:45Z</time></trkpt><trkpt lat="38.05455613451518" lon="15.676743154628312"><ele>117.0</ele><time>2026-04-18T14:39:46Z</time></trkpt><trkpt lat="38.05451196813436" lon="15.676891868533822"><ele>117.0</ele><time>2026-04-18T14:39:47Z</time></trkpt><trkpt lat="38.05451364471298" lon="15.677042012546817"><ele>117.0</ele><time>2026-04-18T14:39:48Z</time></trkpt><trkpt lat="38.054566245883386" lon="15.67718850201159"><ele>117.0</ele><time>2026-04-18T14:39:49Z</time></trkpt><trkpt lat="38.05463197651887" lon="15.677334823938583"><ele>118.0</ele><time>2026-04-18T14:39:50Z</time></trkpt><trkpt lat="38.0546945269946" lon="15.677472246634549"><ele>118.99999999999999</ele><time>2026-04-18T14:39:51Z</time></trkpt><trkpt lat="38.054728850695454" lon="15.67758327662452"><ele>119.99999999999999</ele><time>2026-04-18T14:39:52Z</time></trkpt><trkpt lat="38.0547295671141" lon="15.677716246984222"><ele>121.0</ele><time>2026-04-18T14:39:53Z</time></trkpt><trkpt lat="38.05469599101214" lon="15.677866111104063"><ele>122.0</ele><time>2026-04-18T14:39:54Z</time></trkpt><trkpt lat="38.05466617552922" lon="15.678038155958774"><ele>124.5</ele><time>2026-04-18T14:39:55Z</time></trkpt><trkpt lat="38.05464694604073" lon="15.678205314944677"><ele>127.0</ele><time>2026-04-18T14:39:56Z</time></trkpt><trkpt lat="38.05462643976252" lon="15.678384365013676"><ele>129.5</ele><time>2026-04-18T14:39:57Z</time></trkpt><trkpt lat="38.054617197970884" lon="15.678525878463827"><ele>132.0</ele><time>2026-04-18T14:39:58Z</time></trkpt><trkpt lat="38.05461990146029" lon="15.678628525120226"><ele>134.0</ele><time>2026-04-18T14:39:59Z</time></trkpt><trkpt lat="38.0545730380251" lon="15.678707820314207"><ele>136.0</ele><time>2026-04-18T14:40:02Z</time></trkpt><trkpt lat="38.054495581939044" lon="15.678742765947268"><ele>138.0</ele><time>2026-04-18T14:40:03Z</time></trkpt><trkpt lat="38.05439026479819" lon="15.678802974638248"><ele>140.0</ele><time>2026-04-18T14:40:04Z</time></trkpt><trkpt lat="38.05430962322053" lon="15.67887305460994"><ele>142.0</ele><time>2026-04-18T14:40:05Z</time></trkpt><trkpt lat="38.05422561736037" lon="15.678869185251866"><ele>142.0</ele><time>2026-04-18T14:40:06Z</time></trkpt><trkpt lat="38.054123879711405" lon="15.678871672978472"><ele>142.0</ele><time>2026-04-18T14:40:07Z</time></trkpt><trkpt lat="38.05398853318953" lon="15.678906836267222"><ele>142.0</ele><time>2026-04-18T14:40:08Z</time></trkpt><trkpt lat="38.05382766748403" lon="15.67903040191692"><ele>142.0</ele><time>2026-04-18T14:40:09Z</time></trkpt><trkpt lat="38.05369198311258" lon="15.679170601166966"><ele>140.66666666666669</ele><time>2026-04-18T14:40:10Z</time></trkpt><trkpt lat="38.05357865129813" lon="15.679327023135164"><ele>139.33333333333334</ele><time>2026-04-18T14:40:11Z</time></trkpt><trkpt lat="38.05346723533777" lon="15.679463900647216"><ele>138.0</ele><time>2026-04-18T14:40:12Z</time></trkpt><trkpt lat="38.0533831236026" lon="15.679611035583727"><ele>138.0</ele><time>2026-04-18T14:40:13Z</time></trkpt><trkpt lat="38.053311517711904" lon="15.679766921948847"><ele>138.0</ele><time>2026-04-18T14:40:14Z</time></trkpt><trkpt lat="38.05326610002728" lon="15.679938017305615"><ele>138.0</ele><time>2026-04-18T14:40:15Z</time></trkpt><trkpt lat="38.053234440251735" lon="15.680137080555346"><ele>138.0</ele><time>2026-04-18T14:40:15.999Z</time></trkpt><trkpt lat="38.05321388610663" lon="15.680340265242823"><ele>135.25</ele><time>2026-04-18T14:40:16.999Z</time></trkpt><trkpt lat="38.05318360110836" lon="15.680531144269848"><ele>132.5</ele><time>2026-04-18T14:40:17.999Z</time></trkpt><trkpt lat="38.05314511156506" lon="15.680704987701695"><ele>129.75</ele><time>2026-04-18T14:40:18.999Z</time></trkpt><trkpt lat="38.053093897305665" lon="15.680873530390318"><ele>127.0</ele><time>2026-04-18T14:40:19.999Z</time></trkpt><trkpt lat="38.05301893254401" lon="15.681037990901567"><ele>129.0</ele><time>2026-04-18T14:40:20.999Z</time></trkpt><trkpt lat="38.05292549875356" lon="15.681207460504577"><ele>131.0</ele><time>2026-04-18T14:40:21.999Z</time></trkpt><trkpt lat="38.05283738651375" lon="15.681382149117054"><ele>133.0</ele><time>2026-04-18T14:40:22.999Z</time></trkpt><trkpt lat="38.05276078739583" lon="15.681568452978258"><ele>133.0</ele><time>2026-04-18T14:40:23.999Z</time></trkpt><trkpt lat="38.052694927687604" lon="15.68173310160229"><ele>133.0</ele><time>2026-04-18T14:40:24.999Z</time></trkpt><trkpt lat="38.05263337587185" lon="15.681877947602436"><ele>133.0</ele><time>2026-04-18T14:40:25.999Z</time></trkpt><trkpt lat="38.05255697005968" lon="15.681998420367695"><ele>133.0</ele><time>2026-04-18T14:40:26.999Z</time></trkpt><trkpt lat="38.05247243513832" lon="15.682106465707403"><ele>133.33333333333334</ele><time>2026-04-18T14:40:27.999Z</time></trkpt><trkpt lat="38.05235074202945" lon="15.682167693758453"><ele>133.66666666666666</ele><time>2026-04-18T14:40:28.999Z</time></trkpt><trkpt lat="38.05220206516665" lon="15.682238141052832"><ele>134.0</ele><time>2026-04-18T14:40:29.999Z</time></trkpt><trkpt lat="38.05205538752313" lon="15.68232810473164"><ele>134.0</ele><time>2026-04-18T14:40:30.999Z</time></trkpt><trkpt lat="38.05191408029494" lon="15.6824193008531"><ele>134.0</ele><time>2026-04-18T14:40:31.999Z</time></trkpt><trkpt lat="38.051776176904276" lon="15.682503552629095"><ele>134.0</ele><time>2026-04-18T14:40:32.999Z</time></trkpt><trkpt lat="38.05164850527454" lon="15.682610529006537"><ele>134.25</ele><time>2026-04-18T14:40:33.999Z</time></trkpt><trkpt lat="38.051517083824145" lon="15.682711542163332"><ele>134.5</ele><time>2026-04-18T14:40:34.999Z</time></trkpt><trkpt lat="38.051401339330596" lon="15.68281418517887"><ele>134.75</ele><time>2026-04-18T14:40:35.999Z</time></trkpt><trkpt lat="38.051288268578446" lon="15.682917532828712"><ele>135.0</ele><time>2026-04-18T14:40:37Z</time></trkpt><trkpt lat="38.05118947679335" lon="15.683018941129324"><ele>135.5</ele><time>2026-04-18T14:40:38Z</time></trkpt><trkpt lat="38.05111195448339" lon="15.683156760803383"><ele>136.0</ele><time>2026-04-18T14:40:39Z</time></trkpt><trkpt lat="38.05106952348407" lon="15.683340235942318"><ele>136.5</ele><time>2026-04-18T14:40:40Z</time></trkpt><trkpt lat="38.0510433723921" lon="15.683543738037262"><ele>137.0</ele><time>2026-04-18T14:40:41Z</time></trkpt><trkpt lat="38.05101547075579" lon="15.683766246306588"><ele>138.33333333333331</ele><time>2026-04-18T14:40:42Z</time></trkpt><trkpt lat="38.05099843126335" lon="15.683981972323709"><ele>139.66666666666666</ele><time>2026-04-18T14:40:43Z</time></trkpt><trkpt lat="38.05099532038628" lon="15.684200659363315"><ele>141.0</ele><time>2026-04-18T14:40:44Z</time></trkpt><trkpt lat="38.0509934695996" lon="15.684384491275859"><ele>142.25</ele><time>2026-04-18T14:40:45Z</time></trkpt><trkpt lat="38.05099085066785" lon="15.684559389227894"><ele>143.5</ele><time>2026-04-18T14:40:46Z</time></trkpt><trkpt lat="38.050973457100305" lon="15.684703328268206"><ele>144.75</ele><time>2026-04-18T14:40:47Z</time></trkpt><trkpt lat="38.05093851869975" lon="15.684826992936122"><ele>146.0</ele><time>2026-04-18T14:40:48Z</time></trkpt><trkpt lat="38.05087886001441" lon="15.68492688765942"><ele>146.0</ele><time>2026-04-18T14:40:49Z</time></trkpt><trkpt lat="38.05080816131443" lon="15.684991810239977"><ele>146.0</ele><time>2026-04-18T14:40:50Z</time></trkpt><trkpt lat="38.05069691111544" lon="15.684996227730222"><ele>146.0</ele><time>2026-04-18T14:40:51Z</time></trkpt><trkpt lat="38.050585642478154" lon="15.684995023046657"><ele>146.0</ele><time>2026-04-18T14:40:52Z</time></trkpt><trkpt lat="38.0504648191008" lon="15.684977003417025"><ele>146.0</ele><time>2026-04-18T14:40:53Z</time></trkpt><trkpt lat="38.0503318126487" lon="15.684927286091"><ele>146.0</ele><time>2026-04-18T14:40:54Z</time></trkpt><trkpt lat="38.05018138640494" lon="15.684862376579375"><ele>146.0</ele><time>2026-04-18T14:40:55Z</time></trkpt><trkpt lat="38.05005609384728" lon="15.684795397796806"><ele>146.0</ele><time>2026-04-18T14:40:56Z</time></trkpt><trkpt lat="38.04993205066398" lon="15.684737433586335"><ele>146.0</ele><time>2026-04-18T14:40:57Z</time></trkpt><trkpt lat="38.049812479075136" lon="15.68469506323411"><ele>146.5</ele><time>2026-04-18T14:40:58Z</time></trkpt><trkpt lat="38.0496289656542" lon="15.684627874032293"><ele>147.0</ele><time>2026-04-18T14:40:59Z</time></trkpt><trkpt lat="38.04949789184113" lon="15.684593889838835"><ele>147.5</ele><time>2026-04-18T14:41:00Z</time></trkpt><trkpt lat="38.04937650599237" lon="15.68459567706896"><ele>148.0</ele><time>2026-04-18T14:41:01Z</time></trkpt><trkpt lat="38.049252579668625" lon="15.684655270589415"><ele>148.0</ele><time>2026-04-18T14:41:02Z</time></trkpt><trkpt lat="38.04914279449305" lon="15.684757933699892"><ele>148.0</ele><time>2026-04-18T14:41:03Z</time></trkpt><trkpt lat="38.049048217722984" lon="15.684890081925047"><ele>148.0</ele><time>2026-04-18T14:41:04Z</time></trkpt><trkpt lat="38.04897442281667" lon="15.685057425900082"><ele>148.0</ele><time>2026-04-18T14:41:05Z</time></trkpt><trkpt lat="38.048902110899526" lon="15.685261433172307"><ele>149.0</ele><time>2026-04-18T14:41:06Z</time></trkpt><trkpt lat="38.04881779058085" lon="15.685481133303416"><ele>150.0</ele><time>2026-04-18T14:41:07Z</time></trkpt><trkpt lat="38.04872385322952" lon="15.68569784732337"><ele>151.0</ele><time>2026-04-18T14:41:08Z</time></trkpt><trkpt lat="38.04863491043828" lon="15.685909603261255"><ele>153.0</ele><time>2026-04-18T14:41:09Z</time></trkpt><trkpt lat="38.04855108549057" lon="15.686121584323029"><ele>155.0</ele><time>2026-04-18T14:41:10Z</time></trkpt><trkpt lat="38.04846871049167" lon="15.686335408082153"><ele>157.0</ele><time>2026-04-18T14:41:11Z</time></trkpt><trkpt lat="38.048395862848906" lon="15.686560371939553"><ele>157.0</ele><time>2026-04-18T14:41:12Z</time></trkpt><trkpt lat="38.04833560179029" lon="15.686795150058696"><ele>157.0</ele><time>2026-04-18T14:41:13Z</time></trkpt><trkpt lat="38.0482817305304" lon="15.687035379805778"><ele>157.0</ele><time>2026-04-18T14:41:14Z</time></trkpt><trkpt lat="38.0482322248803" lon="15.68727933063859"><ele>157.33333333333334</ele><time>2026-04-18T14:41:15Z</time></trkpt><trkpt lat="38.04818772844999" lon="15.687523867032587"><ele>157.66666666666666</ele><time>2026-04-18T14:41:16Z</time></trkpt><trkpt lat="38.04815825151688" lon="15.68777319541303"><ele>158.0</ele><time>2026-04-18T14:41:17Z</time></trkpt><trkpt lat="38.04814158753666" lon="15.68802917398398"><ele>159.66666666666666</ele><time>2026-04-18T14:41:18Z</time></trkpt><trkpt lat="38.04813460072516" lon="15.688295154539182"><ele>161.33333333333334</ele><time>2026-04-18T14:41:19Z</time></trkpt><trkpt lat="38.0481316301602" lon="15.688561124707348"><ele>163.0</ele><time>2026-04-18T14:41:20Z</time></trkpt><trkpt lat="38.04812501306362" lon="15.688823098649618"><ele>163.66666666666669</ele><time>2026-04-18T14:41:21Z</time></trkpt><trkpt lat="38.04811424722485" lon="15.68908051541234"><ele>164.33333333333334</ele><time>2026-04-18T14:41:22Z</time></trkpt><trkpt lat="38.04810330646075" lon="15.68933718792668"><ele>165.0</ele><time>2026-04-18T14:41:23Z</time></trkpt><trkpt lat="38.048095028569605" lon="15.68959221643896"><ele>166.33333333333334</ele><time>2026-04-18T14:41:24Z</time></trkpt><trkpt lat="38.048088221475815" lon="15.689850277847592"><ele>167.66666666666669</ele><time>2026-04-18T14:41:25Z</time></trkpt><trkpt lat="38.04808236078385" lon="15.690108303858691"><ele>169.0</ele><time>2026-04-18T14:41:26Z</time></trkpt><trkpt lat="38.04807239060882" lon="15.69035205034561"><ele>171.33333333333334</ele><time>2026-04-18T14:41:27Z</time></trkpt><trkpt lat="38.04806258064772" lon="15.69058535279741"><ele>173.66666666666666</ele><time>2026-04-18T14:41:28Z</time></trkpt><trkpt lat="38.04805121541062" lon="15.690794392727295"><ele>176.0</ele><time>2026-04-18T14:41:29Z</time></trkpt><trkpt lat="38.048036998474174" lon="15.690989577443416"><ele>177.33333333333331</ele><time>2026-04-18T14:41:30Z</time></trkpt><trkpt lat="38.04801289815508" lon="15.691181893888327"><ele>178.66666666666666</ele><time>2026-04-18T14:41:31Z</time></trkpt><trkpt lat="38.04795513215189" lon="15.691376372469577"><ele>180.0</ele><time>2026-04-18T14:41:32Z</time></trkpt><trkpt lat="38.04794282692403" lon="15.691615395446778"><ele>180.0</ele><time>2026-04-18T14:41:33Z</time></trkpt><trkpt lat="38.047924965018034" lon="15.691848313406597"><ele>180.0</ele><time>2026-04-18T14:41:34Z</time></trkpt><trkpt lat="38.04791423252123" lon="15.692088854042167"><ele>180.0</ele><time>2026-04-18T14:41:35Z</time></trkpt><trkpt lat="38.04790837268727" lon="15.692295842073401"><ele>181.66666666666666</ele><time>2026-04-18T14:41:36Z</time></trkpt><trkpt lat="38.04791593122303" lon="15.692495205042151"><ele>183.33333333333331</ele><time>2026-04-18T14:41:37Z</time></trkpt><trkpt lat="38.047957767479886" lon="15.692701515273077"><ele>185.0</ele><time>2026-04-18T14:41:38Z</time></trkpt><trkpt lat="38.04801556427381" lon="15.692927264201359"><ele>186.66666666666666</ele><time>2026-04-18T14:41:39Z</time></trkpt><trkpt lat="38.04806969500947" lon="15.693167346176455"><ele>188.33333333333334</ele><time>2026-04-18T14:41:40Z</time></trkpt><trkpt lat="38.04811508348221" lon="15.693413031544194"><ele>190.0</ele><time>2026-04-18T14:41:41Z</time></trkpt><trkpt lat="38.04815672458268" lon="15.693667518150175"><ele>191.0</ele><time>2026-04-18T14:41:42Z</time></trkpt><trkpt lat="38.04820381092564" lon="15.693917705696816"><ele>192.0</ele><time>2026-04-18T14:41:43Z</time></trkpt><trkpt lat="38.04825367249269" lon="15.694155872932114"><ele>193.0</ele><time>2026-04-18T14:41:44Z</time></trkpt><trkpt lat="38.0483026547304" lon="15.694384521146267"><ele>196.33333333333331</ele><time>2026-04-18T14:41:45Z</time></trkpt><trkpt lat="38.048351878397604" lon="15.694605768117832"><ele>199.66666666666669</ele><time>2026-04-18T14:41:46Z</time></trkpt><trkpt lat="38.04839432163725" lon="15.694819247096813"><ele>203.0</ele><time>2026-04-18T14:41:47Z</time></trkpt><trkpt lat="38.04842723945531" lon="15.69502186871901"><ele>203.0</ele><time>2026-04-18T14:41:48Z</time></trkpt><trkpt lat="38.04846291805823" lon="15.695193535202423"><ele>203.0</ele><time>2026-04-18T14:41:49Z</time></trkpt><trkpt lat="38.048487196749" lon="15.695373224008005"><ele>203.0</ele><time>2026-04-18T14:41:50Z</time></trkpt><trkpt lat="38.04848331991581" lon="15.695576569847887"><ele>203.0</ele><time>2026-04-18T14:41:51Z</time></trkpt><trkpt lat="38.048490452731826" lon="15.695766148608982"><ele>204.75</ele><time>2026-04-18T14:41:52Z</time></trkpt><trkpt lat="38.048530152596356" lon="15.695964827231572"><ele>206.5</ele><time>2026-04-18T14:41:53Z</time></trkpt><trkpt lat="38.04854286593313" lon="15.696123312141443"><ele>208.25</ele><time>2026-04-18T14:41:54Z</time></trkpt><trkpt lat="38.048535313064015" lon="15.696287855534091"><ele>210.0</ele><time>2026-04-18T14:41:55Z</time></trkpt><trkpt lat="38.048526775703714" lon="15.696472352408906"><ele>210.0</ele><time>2026-04-18T14:41:56Z</time></trkpt><trkpt lat="38.0485036382144" lon="15.696664291645671"><ele>210.0</ele><time>2026-04-18T14:41:57Z</time></trkpt><trkpt lat="38.04846482336963" lon="15.696865178116665"><ele>210.0</ele><time>2026-04-18T14:41:58Z</time></trkpt><trkpt lat="38.048413864524484" lon="15.697063154188799"><ele>209.66666666666669</ele><time>2026-04-18T14:41:59Z</time></trkpt><trkpt lat="38.04836372312565" lon="15.697255272222446"><ele>209.33333333333334</ele><time>2026-04-18T14:42:00Z</time></trkpt><trkpt lat="38.04831537008481" lon="15.697451479496815"><ele>209.0</ele><time>2026-04-18T14:42:01Z</time></trkpt><trkpt lat="38.048263401085784" lon="15.697642214411037"><ele>210.0</ele><time>2026-04-18T14:42:02Z</time></trkpt><trkpt lat="38.04821137353004" lon="15.697841658974774"><ele>211.0</ele><time>2026-04-18T14:42:03Z</time></trkpt><trkpt lat="38.04816431483685" lon="15.698048598259604"><ele>212.0</ele><time>2026-04-18T14:42:04Z</time></trkpt><trkpt lat="38.048125511219155" lon="15.698262518259236"><ele>212.0</ele><time>2026-04-18T14:42:05Z</time></trkpt><trkpt lat="38.04810948276061" lon="15.698481182881634"><ele>212.0</ele><time>2026-04-18T14:42:06Z</time></trkpt><trkpt lat="38.04812296236282" lon="15.698693921509284"><ele>212.0</ele><time>2026-04-18T14:42:07Z</time></trkpt><trkpt lat="38.04811722393758" lon="15.698940861302086"><ele>213.0</ele><time>2026-04-18T14:42:07.999Z</time></trkpt><trkpt lat="38.048115929620444" lon="15.699177684424185"><ele>214.0</ele><time>2026-04-18T14:42:08.999Z</time></trkpt><trkpt lat="38.048111636828516" lon="15.699412135283167"><ele>215.0</ele><time>2026-04-18T14:42:09.999Z</time></trkpt><trkpt lat="38.04810481437069" lon="15.699651122081326"><ele>215.66666666666669</ele><time>2026-04-18T14:42:10.999Z</time></trkpt><trkpt lat="38.048096396320894" lon="15.699889940714675"><ele>216.33333333333331</ele><time>2026-04-18T14:42:11.999Z</time></trkpt><trkpt lat="38.048088334867174" lon="15.70012811128697"><ele>217.0</ele><time>2026-04-18T14:42:12.999Z</time></trkpt><trkpt lat="38.048064889704904" lon="15.700359945208417"><ele>218.0</ele><time>2026-04-18T14:42:13.999Z</time></trkpt><trkpt lat="38.04805772510739" lon="15.700578317142375"><ele>219.0</ele><time>2026-04-18T14:42:14.999Z</time></trkpt><trkpt lat="38.048049622894325" lon="15.700797270447325"><ele>220.0</ele><time>2026-04-18T14:42:15.999Z</time></trkpt><trkpt lat="38.04804112298314" lon="15.701015508307401"><ele>222.33333333333331</ele><time>2026-04-18T14:42:16.999Z</time></trkpt><trkpt lat="38.04803204860401" lon="15.701235621753447"><ele>224.66666666666669</ele><time>2026-04-18T14:42:17.999Z</time></trkpt><trkpt lat="38.04802436887974" lon="15.701453334726132"><ele>227.0</ele><time>2026-04-18T14:42:18.999Z</time></trkpt><trkpt lat="38.048011474851336" lon="15.701660042505528"><ele>227.0</ele><time>2026-04-18T14:42:19.999Z</time></trkpt><trkpt lat="38.047977029992836" lon="15.70184832577457"><ele>227.0</ele><time>2026-04-18T14:42:20.999Z</time></trkpt><trkpt lat="38.04792985659644" lon="15.702044055387285"><ele>227.0</ele><time>2026-04-18T14:42:21.999Z</time></trkpt><trkpt lat="38.04787739613519" lon="15.702239459060527"><ele>228.0</ele><time>2026-04-18T14:42:22.999Z</time></trkpt><trkpt lat="38.0478374217397" lon="15.70244660326667"><ele>229.0</ele><time>2026-04-18T14:42:23.999Z</time></trkpt><trkpt lat="38.04778338124044" lon="15.702652429386294"><ele>230.0</ele><time>2026-04-18T14:42:24.999Z</time></trkpt><trkpt lat="38.047728130498584" lon="15.702859755553245"><ele>230.66666666666669</ele><time>2026-04-18T14:42:25.999Z</time></trkpt><trkpt lat="38.04767584292181" lon="15.703061804662092"><ele>231.33333333333331</ele><time>2026-04-18T14:42:26.999Z</time></trkpt><trkpt lat="38.04763679850023" lon="15.703269960809841"><ele>232.0</ele><time>2026-04-18T14:42:27.999Z</time></trkpt><trkpt lat="38.04760904398434" lon="15.703481544602242"><ele>233.66666666666666</ele><time>2026-04-18T14:42:28.999Z</time></trkpt><trkpt lat="38.04757867245393" lon="15.703693111275046"><ele>235.33333333333331</ele><time>2026-04-18T14:42:29.999Z</time></trkpt><trkpt lat="38.04754202219606" lon="15.703896973577065"><ele>237.0</ele><time>2026-04-18T14:42:30.999Z</time></trkpt><trkpt lat="38.047511464783796" lon="15.704084162779909"><ele>237.0</ele><time>2026-04-18T14:42:31.999Z</time></trkpt><trkpt lat="38.0474909217041" lon="15.704248771716783"><ele>237.0</ele><time>2026-04-18T14:42:32.999Z</time></trkpt><trkpt lat="38.04748198352575" lon="15.704390762030497"><ele>237.0</ele><time>2026-04-18T14:42:33.999Z</time></trkpt><trkpt lat="38.04749682812678" lon="15.704519873878787"><ele>237.0</ele><time>2026-04-18T14:42:34.999Z</time></trkpt><trkpt lat="38.047548592962265" lon="15.704637563215519"><ele>238.75</ele><time>2026-04-18T14:42:35.999Z</time></trkpt><trkpt lat="38.04761449945138" lon="15.704770477441384"><ele>240.5</ele><time>2026-04-18T14:42:36.999Z</time></trkpt><trkpt lat="38.047695108428165" lon="15.704900430206342"><ele>242.25</ele><time>2026-04-18T14:42:37.999Z</time></trkpt><trkpt lat="38.04776720427858" lon="15.705020890549026"><ele>244.0</ele><time>2026-04-18T14:42:38.999Z</time></trkpt><trkpt lat="38.04780387003491" lon="15.705164309119489"><ele>246.0</ele><time>2026-04-18T14:42:39.999Z</time></trkpt><trkpt lat="38.04781781925462" lon="15.705316646778828"><ele>248.0</ele><time>2026-04-18T14:42:40.999Z</time></trkpt><trkpt lat="38.04779225723052" lon="15.7054692310979"><ele>250.0</ele><time>2026-04-18T14:42:41.999Z</time></trkpt><trkpt lat="38.04776120407461" lon="15.705659784605198"><ele>252.0</ele><time>2026-04-18T14:42:43Z</time></trkpt><trkpt lat="38.047742949872216" lon="15.705841894126861"><ele>252.0</ele><time>2026-04-18T14:42:44Z</time></trkpt><trkpt lat="38.04772854881348" lon="15.706040023253816"><ele>252.0</ele><time>2026-04-18T14:42:45Z</time></trkpt><trkpt lat="38.04771688376458" lon="15.706245945573727"><ele>252.0</ele><time>2026-04-18T14:42:46Z</time></trkpt><trkpt lat="38.047699141558645" lon="15.706433034794195"><ele>253.5</ele><time>2026-04-18T14:42:47Z</time></trkpt><trkpt lat="38.04766676090233" lon="15.706605761496467"><ele>255.0</ele><time>2026-04-18T14:42:48Z</time></trkpt><trkpt lat="38.047629787250465" lon="15.70678901174653"><ele>256.5</ele><time>2026-04-18T14:42:49Z</time></trkpt><trkpt lat="38.04760508770754" lon="15.706949710431351"><ele>258.0</ele><time>2026-04-18T14:42:50Z</time></trkpt><trkpt lat="38.04758271434694" lon="15.707086332780333"><ele>259.1666666666667</ele><time>2026-04-18T14:42:51Z</time></trkpt><trkpt lat="38.04756361106651" lon="15.707188974200422"><ele>260.3333333333333</ele><time>2026-04-18T14:42:52Z</time></trkpt><trkpt lat="38.047575734570984" lon="15.707271676195473"><ele>261.5</ele><time>2026-04-18T14:42:53Z</time></trkpt><trkpt lat="38.04762812095691" lon="15.707340023997505"><ele>262.66666666666663</ele><time>2026-04-18T14:42:54Z</time></trkpt><trkpt lat="38.04771644829794" lon="15.707362128046272"><ele>263.8333333333333</ele><time>2026-04-18T14:42:55Z</time></trkpt><trkpt lat="38.04779924416643" lon="15.707304411670373"><ele>265.0</ele><time>2026-04-18T14:42:56Z</time></trkpt><trkpt lat="38.04784927785631" lon="15.707193796941896"><ele>265.0</ele><time>2026-04-18T14:42:57Z</time></trkpt><trkpt lat="38.047851002370976" lon="15.707069762027519"><ele>265.0</ele><time>2026-04-18T14:42:58Z</time></trkpt><trkpt lat="38.047880310819835" lon="15.70693976022563"><ele>265.0</ele><time>2026-04-18T14:43:00Z</time></trkpt><trkpt lat="38.04795589438152" lon="15.706960331542094"><ele>265.0</ele><time>2026-04-18T14:43:01Z</time></trkpt><trkpt lat="38.04801788063045" lon="15.70698290425789"><ele>265.0</ele><time>2026-04-18T14:43:02Z</time></trkpt><trkpt lat="38.04804548362182" lon="15.707074645860517"><ele>265.0</ele><time>2026-04-18T14:43:03Z</time></trkpt><trkpt lat="38.048031671294304" lon="15.707164755029453"><ele>265.0</ele><time>2026-04-18T14:43:04Z</time></trkpt><trkpt lat="38.047968405485264" lon="15.707286973677213"><ele>265.0</ele><time>2026-04-18T14:43:05Z</time></trkpt><trkpt lat="38.04792217704126" lon="15.707395712672382"><ele>265.0</ele><time>2026-04-18T14:43:06Z</time></trkpt><trkpt lat="38.04787692273883" lon="15.707503677470042"><ele>265.0</ele><time>2026-04-18T14:43:07Z</time></trkpt><trkpt lat="38.047829037636234" lon="15.707608248781355"><ele>265.0</ele><time>2026-04-18T14:43:08Z</time></trkpt><trkpt lat="38.04776791436038" lon="15.707722056172743"><ele>270.8</ele><time>2026-04-18T14:43:09Z</time></trkpt><trkpt lat="38.047689350522624" lon="15.707818311967076"><ele>276.6</ele><time>2026-04-18T14:43:10Z</time></trkpt><trkpt lat="38.04760236625672" lon="15.707866540245503"><ele>282.4</ele><time>2026-04-18T14:43:11Z</time></trkpt><trkpt lat="38.04751640020957" lon="15.707904346245309"><ele>288.2</ele><time>2026-04-18T14:43:12Z</time></trkpt><trkpt lat="38.04740825858539" lon="15.707892635458965"><ele>294.0</ele><time>2026-04-18T14:43:13Z</time></trkpt><trkpt lat="38.04732130436639" lon="15.707811102019585"><ele>290.75</ele><time>2026-04-18T14:43:14Z</time></trkpt><trkpt lat="38.04720398799168" lon="15.70772719918883"><ele>287.5</ele><time>2026-04-18T14:43:15Z</time></trkpt><trkpt lat="38.04708253769675" lon="15.70765255106226"><ele>284.25</ele><time>2026-04-18T14:43:16Z</time></trkpt><trkpt lat="38.046976977747455" lon="15.707548208334902"><ele>281.0</ele><time>2026-04-18T14:43:17Z</time></trkpt><trkpt lat="38.04688173678737" lon="15.707424184072742"><ele>281.0</ele><time>2026-04-18T14:43:18Z</time></trkpt><trkpt lat="38.04679971305781" lon="15.707290650833285"><ele>281.0</ele><time>2026-04-18T14:43:19Z</time></trkpt><trkpt lat="38.046726446873855" lon="15.707176235644559"><ele>281.0</ele><time>2026-04-18T14:43:20Z</time></trkpt><trkpt lat="38.04664173330111" lon="15.707107209376106"><ele>281.0</ele><time>2026-04-18T14:43:21Z</time></trkpt><trkpt lat="38.04653934816129" lon="15.707083369792967"><ele>278.5</ele><time>2026-04-18T14:43:22Z</time></trkpt><trkpt lat="38.04641601916356" lon="15.707115408233886"><ele>276.0</ele><time>2026-04-18T14:43:23Z</time></trkpt><trkpt lat="38.04627959265521" lon="15.707208562237566"><ele>273.5</ele><time>2026-04-18T14:43:24Z</time></trkpt><trkpt lat="38.04617426051113" lon="15.707256653704253"><ele>271.0</ele><time>2026-04-18T14:43:25Z</time></trkpt><trkpt lat="38.04607875652311" lon="15.70732560736475"><ele>271.0</ele><time>2026-04-18T14:43:26Z</time></trkpt><trkpt lat="38.04598624394315" lon="15.707388109923174"><ele>271.0</ele><time>2026-04-18T14:43:27Z</time></trkpt><trkpt lat="38.045939248792884" lon="15.70754119608941"><ele>271.0</ele><time>2026-04-18T14:43:28Z</time></trkpt><trkpt lat="38.04592599021216" lon="15.707722592114253"><ele>271.0</ele><time>2026-04-18T14:43:29Z</time></trkpt><trkpt lat="38.04591952179624" lon="15.707911885927498"><ele>273.75</ele><time>2026-04-18T14:43:30Z</time></trkpt><trkpt lat="38.045917078799235" lon="15.708082412287299"><ele>276.5</ele><time>2026-04-18T14:43:31Z</time></trkpt><trkpt lat="38.04593492204768" lon="15.708218588916617"><ele>279.25</ele><time>2026-04-18T14:43:32Z</time></trkpt><trkpt lat="38.04595489573823" lon="15.708358916135566"><ele>282.0</ele><time>2026-04-18T14:43:33Z</time></trkpt><trkpt lat="38.04602799136006" lon="15.70846769071174"><ele>282.0</ele><time>2026-04-18T14:43:34Z</time></trkpt><trkpt lat="38.04609925939458" lon="15.70857036735716"><ele>282.0</ele><time>2026-04-18T14:43:35Z</time></trkpt><trkpt lat="38.04610973586559" lon="15.708665064712301"><ele>282.0</ele><time>2026-04-18T14:43:36Z</time></trkpt><trkpt lat="38.04609580994546" lon="15.708762035438104"><ele>282.0</ele><time>2026-04-18T14:43:37Z</time></trkpt><trkpt lat="38.046102240519865" lon="15.708878319821668"><ele>282.0</ele><time>2026-04-18T14:43:38Z</time></trkpt><trkpt lat="38.046095767103665" lon="15.709011461109968"><ele>281.5</ele><time>2026-04-18T14:43:39Z</time></trkpt><trkpt lat="38.046125875856795" lon="15.709149667971795"><ele>281.0</ele><time>2026-04-18T14:43:40Z</time></trkpt><trkpt lat="38.04618655340632" lon="15.709283319263731"><ele>280.5</ele><time>2026-04-18T14:43:41Z</time></trkpt><trkpt lat="38.046252883174986" lon="15.709392196344702"><ele>280.0</ele><time>2026-04-18T14:43:42Z</time></trkpt><trkpt lat="38.04633330815469" lon="15.709532836734057"><ele>280.0</ele><time>2026-04-18T14:43:43Z</time></trkpt><trkpt lat="38.04636162930186" lon="15.709670979323244"><ele>280.0</ele><time>2026-04-18T14:43:44Z</time></trkpt><trkpt lat="38.0463788882032" lon="15.709818194914378"><ele>280.0</ele><time>2026-04-18T14:43:45Z</time></trkpt><trkpt lat="38.046381108752634" lon="15.709969064484218"><ele>280.0</ele><time>2026-04-18T14:43:46Z</time></trkpt><trkpt lat="38.046372435114385" lon="15.710120716594858"><ele>280.0</ele><time>2026-04-18T14:43:47Z</time></trkpt><trkpt lat="38.04631142458596" lon="15.710232874209858"><ele>280.0</ele><time>2026-04-18T14:43:48Z</time></trkpt><trkpt lat="38.046232266946035" lon="15.71032550113044"><ele>280.0</ele><time>2026-04-18T14:43:49Z</time></trkpt><trkpt lat="38.046182189134605" lon="15.710430886905169"><ele>280.0</ele><time>2026-04-18T14:43:50Z</time></trkpt><trkpt lat="38.046190204011765" lon="15.710581236985734"><ele>280.0</ele><time>2026-04-18T14:43:51Z</time></trkpt><trkpt lat="38.046260421357964" lon="15.710727322243605"><ele>282.5</ele><time>2026-04-18T14:43:52Z</time></trkpt><trkpt lat="38.046329868155546" lon="15.710861475642465"><ele>285.0</ele><time>2026-04-18T14:43:53Z</time></trkpt><trkpt lat="38.046319933738026" lon="15.711000487951592"><ele>287.5</ele><time>2026-04-18T14:43:54Z</time></trkpt><trkpt lat="38.04628845297644" lon="15.711149416293402"><ele>290.0</ele><time>2026-04-18T14:43:55Z</time></trkpt><trkpt lat="38.04625619867322" lon="15.711318275921679"><ele>291.0</ele><time>2026-04-18T14:43:56Z</time></trkpt><trkpt lat="38.04624852855577" lon="15.711471054026093"><ele>292.0</ele><time>2026-04-18T14:43:57Z</time></trkpt><trkpt lat="38.04625502046493" lon="15.711599708227547"><ele>293.0</ele><time>2026-04-18T14:43:58Z</time></trkpt><trkpt lat="38.04631330786834" lon="15.71171845449833"><ele>294.0</ele><time>2026-04-18T14:43:59Z</time></trkpt><trkpt lat="38.04641927411766" lon="15.711795785865704"><ele>294.0</ele><time>2026-04-18T14:44:00Z</time></trkpt><trkpt lat="38.04655225824305" lon="15.711851949183798"><ele>294.0</ele><time>2026-04-18T14:44:01Z</time></trkpt><trkpt lat="38.04667532735834" lon="15.711928857375874"><ele>294.0</ele><time>2026-04-18T14:44:02Z</time></trkpt><trkpt lat="38.04677918543043" lon="15.712008137262076"><ele>294.0</ele><time>2026-04-18T14:44:03Z</time></trkpt><trkpt lat="38.04684613850693" lon="15.712089067680667"><ele>297.6666666666667</ele><time>2026-04-18T14:44:04Z</time></trkpt><trkpt lat="38.04689519469762" lon="15.712158506134998"><ele>301.3333333333333</ele><time>2026-04-18T14:44:04.999Z</time></trkpt><trkpt lat="38.046932643186295" lon="15.7122254647763"><ele>305.0</ele><time>2026-04-18T14:44:05.999Z</time></trkpt><trkpt lat="38.04694420225463" lon="15.71232388966842"><ele>308.66666666666663</ele><time>2026-04-18T14:44:06.999Z</time></trkpt><trkpt lat="38.04688364857381" lon="15.712379827770462"><ele>312.3333333333333</ele><time>2026-04-18T14:44:07.999Z</time></trkpt><trkpt lat="38.04677284727338" lon="15.712429987847488"><ele>316.0</ele><time>2026-04-18T14:44:09.999Z</time></trkpt><trkpt lat="38.046696882584115" lon="15.712419715483232"><ele>312.16666666666663</ele><time>2026-04-18T14:44:10.999Z</time></trkpt><trkpt lat="38.046608732994684" lon="15.712397892384372"><ele>308.3333333333333</ele><time>2026-04-18T14:44:11.999Z</time></trkpt><trkpt lat="38.04652683072481" lon="15.71240031053322"><ele>304.5</ele><time>2026-04-18T14:44:12.999Z</time></trkpt><trkpt lat="38.046457754360226" lon="15.712382798653183"><ele>300.6666666666667</ele><time>2026-04-18T14:44:13.999Z</time></trkpt><trkpt lat="38.04639233520534" lon="15.712377409540535"><ele>296.83333333333337</ele><time>2026-04-18T14:44:14.999Z</time></trkpt><trkpt lat="38.046321071097495" lon="15.71247163782437"><ele>293.0</ele><time>2026-04-18T14:44:16.999Z</time></trkpt><trkpt lat="38.04632011933563" lon="15.712618799279715"><ele>293.0</ele><time>2026-04-18T14:44:18.999Z</time></trkpt><trkpt lat="38.04638263511223" lon="15.712692773602516"><ele>293.0</ele><time>2026-04-18T14:44:19.999Z</time></trkpt><trkpt lat="38.04645379166357" lon="15.712749092256468"><ele>293.0</ele><time>2026-04-18T14:44:20.999Z</time></trkpt><trkpt lat="38.04649571274987" lon="15.712820488928422"><ele>293.0</ele><time>2026-04-18T14:44:21.999Z</time></trkpt><trkpt lat="38.04654804669859" lon="15.712870258942514"><ele>293.0</ele><time>2026-04-18T14:44:22.999Z</time></trkpt><trkpt lat="38.04654858769667" lon="15.712973230895445"><ele>293.0</ele><time>2026-04-18T14:44:23.999Z</time></trkpt><trkpt lat="38.04651800723936" lon="15.713074465887958"><ele>294.0</ele><time>2026-04-18T14:44:24.999Z</time></trkpt><trkpt lat="38.04646466777459" lon="15.713183117434724"><ele>295.0</ele><time>2026-04-18T14:44:25.999Z</time></trkpt><trkpt lat="38.04641484553396" lon="15.713329409058238"><ele>296.0</ele><time>2026-04-18T14:44:26.999Z</time></trkpt><trkpt lat="38.04635077290467" lon="15.713507576944378"><ele>297.0</ele><time>2026-04-18T14:44:27.999Z</time></trkpt><trkpt lat="38.04626101685992" lon="15.713736149356263"><ele>300.0</ele><time>2026-04-18T14:44:28.999Z</time></trkpt><trkpt lat="38.046185443680905" lon="15.713927231517518"><ele>303.0</ele><time>2026-04-18T14:44:29.999Z</time></trkpt><trkpt lat="38.04613648235587" lon="15.714084621903986"><ele>306.0</ele><time>2026-04-18T14:44:30.999Z</time></trkpt><trkpt lat="38.046104490543364" lon="15.71423037171873"><ele>309.0</ele><time>2026-04-18T14:44:31.999Z</time></trkpt><trkpt lat="38.04611071847256" lon="15.71438309707157"><ele>310.5</ele><time>2026-04-18T14:44:32.999Z</time></trkpt><trkpt lat="38.04610936382405" lon="15.714545921749787"><ele>312.0</ele><time>2026-04-18T14:44:33.999Z</time></trkpt><trkpt lat="38.046032128983015" lon="15.7146771451658"><ele>313.5</ele><time>2026-04-18T14:44:34.999Z</time></trkpt><trkpt lat="38.04596030759538" lon="15.714843810183815"><ele>315.0</ele><time>2026-04-18T14:44:35.999Z</time></trkpt><trkpt lat="38.04592755112815" lon="15.715024232011345"><ele>315.0</ele><time>2026-04-18T14:44:36.999Z</time></trkpt><trkpt lat="38.04591190642275" lon="15.715223321021135"><ele>315.0</ele><time>2026-04-18T14:44:37.999Z</time></trkpt><trkpt lat="38.04591951304371" lon="15.715398386121613"><ele>315.0</ele><time>2026-04-18T14:44:38.999Z</time></trkpt><trkpt lat="38.045901962183464" lon="15.71554633242917"><ele>315.0</ele><time>2026-04-18T14:44:39.999Z</time></trkpt><trkpt lat="38.045884662653506" lon="15.715664142305025"><ele>314.2</ele><time>2026-04-18T14:44:40.999Z</time></trkpt><trkpt lat="38.04585971978423" lon="15.715771139288"><ele>313.4</ele><time>2026-04-18T14:44:41.999Z</time></trkpt><trkpt lat="38.04578699831085" lon="15.7158387504304"><ele>312.6</ele><time>2026-04-18T14:44:42.999Z</time></trkpt><trkpt lat="38.04567752053124" lon="15.715846117107418"><ele>311.8</ele><time>2026-04-18T14:44:43.999Z</time></trkpt><trkpt lat="38.045569698723426" lon="15.715844994205964"><ele>311.0</ele><time>2026-04-18T14:44:44.999Z</time></trkpt><trkpt lat="38.04548550495131" lon="15.715865877180363"><ele>311.0</ele><time>2026-04-18T14:44:45.999Z</time></trkpt><trkpt lat="38.045393238124724" lon="15.715955859778978"><ele>311.0</ele><time>2026-04-18T14:44:46.999Z</time></trkpt><trkpt lat="38.04535364252295" lon="15.716089941451703"><ele>311.0</ele><time>2026-04-18T14:44:47.999Z</time></trkpt><trkpt lat="38.045352665448256" lon="15.716259011059828"><ele>311.0</ele><time>2026-04-18T14:44:49Z</time></trkpt><trkpt lat="38.04537867096215" lon="15.716434906917263"><ele>312.40000000000003</ele><time>2026-04-18T14:44:50Z</time></trkpt><trkpt lat="38.04542386601" lon="15.71658512950872"><ele>313.8</ele><time>2026-04-18T14:44:51Z</time></trkpt><trkpt lat="38.045434132534545" lon="15.716706743826046"><ele>315.20000000000005</ele><time>2026-04-18T14:44:52Z</time></trkpt><trkpt lat="38.04542196476578" lon="15.716825645160752"><ele>316.6</ele><time>2026-04-18T14:44:53Z</time></trkpt><trkpt lat="38.04535614195258" lon="15.716937856270544"><ele>318.0</ele><time>2026-04-18T14:44:54Z</time></trkpt><trkpt lat="38.04529734177384" lon="15.717049193982396"><ele>321.5</ele><time>2026-04-18T14:44:55Z</time></trkpt><trkpt lat="38.045184726228555" lon="15.717080662782479"><ele>325.0</ele><time>2026-04-18T14:44:56Z</time></trkpt><trkpt lat="38.04509269809763" lon="15.717154792098485"><ele>328.5</ele><time>2026-04-18T14:44:57Z</time></trkpt><trkpt lat="38.0450123343975" lon="15.717262699715958"><ele>332.0</ele><time>2026-04-18T14:44:58Z</time></trkpt><trkpt lat="38.044971732686896" lon="15.717416514835815"><ele>332.0</ele><time>2026-04-18T14:44:59Z</time></trkpt><trkpt lat="38.04497587612306" lon="15.71756848529434"><ele>332.0</ele><time>2026-04-18T14:45:00Z</time></trkpt><trkpt lat="38.04502168240186" lon="15.71772793300716"><ele>332.0</ele><time>2026-04-18T14:45:01Z</time></trkpt><trkpt lat="38.04504477898687" lon="15.71789823317873"><ele>332.0</ele><time>2026-04-18T14:45:02Z</time></trkpt><trkpt lat="38.04504503382126" lon="15.718038717254766"><ele>330.8</ele><time>2026-04-18T14:45:03Z</time></trkpt><trkpt lat="38.04501695362247" lon="15.718165249577877"><ele>329.6</ele><time>2026-04-18T14:45:04Z</time></trkpt><trkpt lat="38.04496332814643" lon="15.71825039641079"><ele>328.40000000000003</ele><time>2026-04-18T14:45:05Z</time></trkpt><trkpt lat="38.04487049928101" lon="15.71829937448745"><ele>327.20000000000005</ele><time>2026-04-18T14:45:06Z</time></trkpt><trkpt lat="38.04477487323628" lon="15.718384411217142"><ele>326.0</ele><time>2026-04-18T14:45:07Z</time></trkpt><trkpt lat="38.044707453648" lon="15.71848706766532"><ele>329.0</ele><time>2026-04-18T14:45:08Z</time></trkpt><trkpt lat="38.044684908094716" lon="15.718625170749977"><ele>332.0</ele><time>2026-04-18T14:45:09Z</time></trkpt><trkpt lat="38.044671704158816" lon="15.71878505314545"><ele>335.0</ele><time>2026-04-18T14:45:10Z</time></trkpt><trkpt lat="38.04462819150593" lon="15.71892729409867"><ele>338.0</ele><time>2026-04-18T14:45:11Z</time></trkpt><trkpt lat="38.04455971142589" lon="15.719036329825126"><ele>338.0</ele><time>2026-04-18T14:45:12Z</time></trkpt><trkpt lat="38.044501581901955" lon="15.71916116848759"><ele>338.0</ele><time>2026-04-18T14:45:13Z</time></trkpt><trkpt lat="38.04446317056188" lon="15.719269772811083"><ele>338.0</ele><time>2026-04-18T14:45:14Z</time></trkpt><trkpt lat="38.04447004512951" lon="15.71936832527157"><ele>338.0</ele><time>2026-04-18T14:45:15Z</time></trkpt><trkpt lat="38.0444668986307" lon="15.71951381022877"><ele>338.0</ele><time>2026-04-18T14:45:16Z</time></trkpt><trkpt lat="38.04441521863223" lon="15.719586797734413"><ele>339.59999999999997</ele><time>2026-04-18T14:45:17Z</time></trkpt><trkpt lat="38.04432941392778" lon="15.719616438238392"><ele>341.2</ele><time>2026-04-18T14:45:18Z</time></trkpt><trkpt lat="38.044226399397104" lon="15.719575682113126"><ele>342.8</ele><time>2026-04-18T14:45:19Z</time></trkpt><trkpt lat="38.04413023765888" lon="15.71952331230779"><ele>344.4</ele><time>2026-04-18T14:45:20Z</time></trkpt><trkpt lat="38.04402544046776" lon="15.719501121433733"><ele>346.0</ele><time>2026-04-18T14:45:21Z</time></trkpt><trkpt lat="38.04391037167722" lon="15.719540448045153"><ele>346.0</ele><time>2026-04-18T14:45:22Z</time></trkpt><trkpt lat="38.04381176925443" lon="15.719641950407794"><ele>346.0</ele><time>2026-04-18T14:45:23Z</time></trkpt><trkpt lat="38.04373416163008" lon="15.719794443967787"><ele>346.0</ele><time>2026-04-18T14:45:24Z</time></trkpt><trkpt lat="38.043649044486266" lon="15.719935248753162"><ele>346.0</ele><time>2026-04-18T14:45:25Z</time></trkpt><trkpt lat="38.04353909125109" lon="15.72002526428054"><ele>346.0</ele><time>2026-04-18T14:45:26Z</time></trkpt><trkpt lat="38.04341141586773" lon="15.720099672321334"><ele>346.0</ele><time>2026-04-18T14:45:27Z</time></trkpt><trkpt lat="38.04331189718152" lon="15.720166663395146"><ele>346.0</ele><time>2026-04-18T14:45:28Z</time></trkpt><trkpt lat="38.04326154352766" lon="15.720260117290199"><ele>346.0</ele><time>2026-04-18T14:45:29Z</time></trkpt><trkpt lat="38.04326117931817" lon="15.720377197688737"><ele>346.0</ele><time>2026-04-18T14:45:30Z</time></trkpt><trkpt lat="38.04330029075189" lon="15.720519630310227"><ele>348.75</ele><time>2026-04-18T14:45:31Z</time></trkpt><trkpt lat="38.043336595604735" lon="15.720684902663853"><ele>351.5</ele><time>2026-04-18T14:45:32Z</time></trkpt><trkpt lat="38.043361959168664" lon="15.720857620463205"><ele>354.25</ele><time>2026-04-18T14:45:33Z</time></trkpt><trkpt lat="38.04337882473765" lon="15.721033849640401"><ele>357.0</ele><time>2026-04-18T14:45:34Z</time></trkpt><trkpt lat="38.043400843756" lon="15.721215799910317"><ele>357.3333333333333</ele><time>2026-04-18T14:45:35Z</time></trkpt><trkpt lat="38.043414177784825" lon="15.721408580490245"><ele>357.66666666666663</ele><time>2026-04-18T14:45:36Z</time></trkpt><trkpt lat="38.04344225600895" lon="15.72160514592806"><ele>358.0</ele><time>2026-04-18T14:45:37Z</time></trkpt><trkpt lat="38.04346929386613" lon="15.721797981938247"><ele>357.0</ele><time>2026-04-18T14:45:38Z</time></trkpt><trkpt lat="38.04349386513795" lon="15.721988701256075"><ele>356.0</ele><time>2026-04-18T14:45:39Z</time></trkpt><trkpt lat="38.04351343888266" lon="15.722168785233519"><ele>355.0</ele><time>2026-04-18T14:45:40Z</time></trkpt><trkpt lat="38.04353229834451" lon="15.722324430665623"><ele>354.0</ele><time>2026-04-18T14:45:41Z</time></trkpt><trkpt lat="38.04354648999311" lon="15.72246434735358"><ele>354.0</ele><time>2026-04-18T14:45:42Z</time></trkpt><trkpt lat="38.04351074960986" lon="15.722594946300791"><ele>354.0</ele><time>2026-04-18T14:45:43Z</time></trkpt><trkpt lat="38.04345534899315" lon="15.722698543916614"><ele>354.0</ele><time>2026-04-18T14:45:44Z</time></trkpt><trkpt lat="38.04337600270258" lon="15.72281158072514"><ele>354.0</ele><time>2026-04-18T14:45:45Z</time></trkpt><trkpt lat="38.04326331148747" lon="15.72291592746307"><ele>354.5</ele><time>2026-04-18T14:45:46Z</time></trkpt><trkpt lat="38.04315482676511" lon="15.723041910990926"><ele>355.0</ele><time>2026-04-18T14:45:47Z</time></trkpt><trkpt lat="38.043051548086034" lon="15.723162925994728"><ele>355.5</ele><time>2026-04-18T14:45:48Z</time></trkpt><trkpt lat="38.04294954448331" lon="15.723293852623858"><ele>356.0</ele><time>2026-04-18T14:45:49Z</time></trkpt><trkpt lat="38.04284247142044" lon="15.72341815352134"><ele>356.0</ele><time>2026-04-18T14:45:50Z</time></trkpt><trkpt lat="38.04273705745102" lon="15.723540528532702"><ele>356.0</ele><time>2026-04-18T14:45:51Z</time></trkpt><trkpt lat="38.04262926557757" lon="15.723662037700754"><ele>356.0</ele><time>2026-04-18T14:45:52Z</time></trkpt><trkpt lat="38.042522750740446" lon="15.72378159871534"><ele>356.0</ele><time>2026-04-18T14:45:53Z</time></trkpt><trkpt lat="38.042417388960565" lon="15.723904588169177"><ele>358.5</ele><time>2026-04-18T14:45:54Z</time></trkpt><trkpt lat="38.04231262392557" lon="15.72402740463859"><ele>361.0</ele><time>2026-04-18T14:45:55Z</time></trkpt><trkpt lat="38.04221185121068" lon="15.724146328940254"><ele>363.5</ele><time>2026-04-18T14:45:56Z</time></trkpt><trkpt lat="38.04211060909503" lon="15.72426128099686"><ele>366.0</ele><time>2026-04-18T14:45:57Z</time></trkpt><trkpt lat="38.04200837667602" lon="15.724382770199615"><ele>366.20000000000005</ele><time>2026-04-18T14:45:58Z</time></trkpt><trkpt lat="38.04191603433471" lon="15.724497160543644"><ele>366.40000000000003</ele><time>2026-04-18T14:45:59Z</time></trkpt><trkpt lat="38.041838389859954" lon="15.724589591560333"><ele>366.6</ele><time>2026-04-18T14:46:00Z</time></trkpt><trkpt lat="38.04177663844994" lon="15.724666366152215"><ele>366.8</ele><time>2026-04-18T14:46:01Z</time></trkpt><trkpt lat="38.0417181303239" lon="15.724724344675955"><ele>367.0</ele><time>2026-04-18T14:46:02Z</time></trkpt><trkpt lat="38.041656009752884" lon="15.72476561895791"><ele>367.8</ele><time>2026-04-18T14:46:03Z</time></trkpt><trkpt lat="38.04156147860631" lon="15.724676135315901"><ele>368.6</ele><time>2026-04-18T14:46:05Z</time></trkpt><trkpt lat="38.0414944273391" lon="15.724593474685614"><ele>369.40000000000003</ele><time>2026-04-18T14:46:06Z</time></trkpt><trkpt lat="38.04143743947297" lon="15.724523219848086"><ele>370.20000000000005</ele><time>2026-04-18T14:46:07Z</time></trkpt><trkpt lat="38.041351561779884" lon="15.724416674584452"><ele>371.0</ele><time>2026-04-18T14:46:09Z</time></trkpt><trkpt lat="38.04129545100018" lon="15.724371977019073"><ele>371.0</ele><time>2026-04-18T14:46:10Z</time></trkpt><trkpt lat="38.04125035130301" lon="15.724297599568452"><ele>371.0</ele><time>2026-04-18T14:46:11Z</time></trkpt><trkpt lat="38.041201676451884" lon="15.72424358601633"><ele>371.0</ele><time>2026-04-18T14:46:12Z</time></trkpt><trkpt lat="38.04113721011625" lon="15.72415699214126"><ele>371.0</ele><time>2026-04-18T14:46:14Z</time></trkpt><trkpt lat="38.041207902803784" lon="15.72404158038702"><ele>371.0</ele><time>2026-04-18T14:46:16Z</time></trkpt><trkpt lat="38.0412679569825" lon="15.723951056784186"><ele>371.0</ele><time>2026-04-18T14:46:17Z</time></trkpt><trkpt lat="38.04133045785981" lon="15.723847914120883"><ele>371.0</ele><time>2026-04-18T14:46:18Z</time></trkpt><trkpt lat="38.0414004536745" lon="15.723743992768293"><ele>371.0</ele><time>2026-04-18T14:46:19Z</time></trkpt><trkpt lat="38.041479523467174" lon="15.72361647522934"><ele>371.0</ele><time>2026-04-18T14:46:20Z</time></trkpt><trkpt lat="38.041565234029896" lon="15.723480132530678"><ele>371.0</ele><time>2026-04-18T14:46:21Z</time></trkpt><trkpt lat="38.041653266990465" lon="15.723338163511853"><ele>369.0</ele><time>2026-04-18T14:46:22Z</time></trkpt><trkpt lat="38.041741580721144" lon="15.723206443432451"><ele>367.0</ele><time>2026-04-18T14:46:23Z</time></trkpt><trkpt lat="38.041834200475165" lon="15.723088892445707"><ele>365.0</ele><time>2026-04-18T14:46:24Z</time></trkpt><trkpt lat="38.041918383461244" lon="15.722941374672585"><ele>363.0</ele><time>2026-04-18T14:46:25Z</time></trkpt><trkpt lat="38.041998640085616" lon="15.722796438428704"><ele>361.5</ele><time>2026-04-18T14:46:26Z</time></trkpt><trkpt lat="38.042088185749726" lon="15.722653574701793"><ele>360.0</ele><time>2026-04-18T14:46:27Z</time></trkpt><trkpt lat="38.0421802404939" lon="15.722520892154682"><ele>358.5</ele><time>2026-04-18T14:46:28Z</time></trkpt><trkpt lat="38.04226278310507" lon="15.722394994458199"><ele>357.0</ele><time>2026-04-18T14:46:29Z</time></trkpt><trkpt lat="38.04233210687589" lon="15.722278318416276"><ele>357.0</ele><time>2026-04-18T14:46:30Z</time></trkpt><trkpt lat="38.04239338663759" lon="15.722145558517454"><ele>357.0</ele><time>2026-04-18T14:46:31Z</time></trkpt><trkpt lat="38.042440354284466" lon="15.721987126346555"><ele>357.0</ele><time>2026-04-18T14:46:32Z</time></trkpt><trkpt lat="38.04246993484927" lon="15.721825321811469"><ele>357.0</ele><time>2026-04-18T14:46:33Z</time></trkpt><trkpt lat="38.04250695017618" lon="15.721683247700074"><ele>354.75</ele><time>2026-04-18T14:46:34Z</time></trkpt><trkpt lat="38.04254737129968" lon="15.721560212970367"><ele>352.5</ele><time>2026-04-18T14:46:35Z</time></trkpt><trkpt lat="38.04258393363137" lon="15.721424197532963"><ele>350.25</ele><time>2026-04-18T14:46:36Z</time></trkpt><trkpt lat="38.042615493630215" lon="15.721287606313147"><ele>348.0</ele><time>2026-04-18T14:46:37Z</time></trkpt><trkpt lat="38.04263110316378" lon="15.721136021233194"><ele>346.75</ele><time>2026-04-18T14:46:38Z</time></trkpt><trkpt lat="38.042620199294255" lon="15.720966352511235"><ele>345.5</ele><time>2026-04-18T14:46:39Z</time></trkpt><trkpt lat="38.04261141533483" lon="15.720802344776478"><ele>344.25</ele><time>2026-04-18T14:46:40Z</time></trkpt><trkpt lat="38.04259978192603" lon="15.720653422020018"><ele>343.0</ele><time>2026-04-18T14:46:41Z</time></trkpt><trkpt lat="38.04258828367701" lon="15.720506229304705"><ele>343.0</ele><time>2026-04-18T14:46:42Z</time></trkpt><trkpt lat="38.04257514605866" lon="15.720361632711873"><ele>343.0</ele><time>2026-04-18T14:46:43Z</time></trkpt><trkpt lat="38.042566288313026" lon="15.72023779350418"><ele>343.0</ele><time>2026-04-18T14:46:44Z</time></trkpt><trkpt lat="38.04255239366825" lon="15.720114669462157"><ele>343.0</ele><time>2026-04-18T14:46:45Z</time></trkpt><trkpt lat="38.0425200088704" lon="15.719978262523519"><ele>343.0</ele><time>2026-04-18T14:46:46Z</time></trkpt><trkpt lat="38.042469310821716" lon="15.719824354140085"><ele>340.3333333333333</ele><time>2026-04-18T14:46:47Z</time></trkpt><trkpt lat="38.042405459419925" lon="15.719654005800967"><ele>337.6666666666667</ele><time>2026-04-18T14:46:48Z</time></trkpt><trkpt lat="38.04235319395701" lon="15.719478205624828"><ele>335.0</ele><time>2026-04-18T14:46:49Z</time></trkpt><trkpt lat="38.04230148121593" lon="15.719293959809827"><ele>334.0</ele><time>2026-04-18T14:46:50Z</time></trkpt><trkpt lat="38.042255131726684" lon="15.719108662468045"><ele>333.0</ele><time>2026-04-18T14:46:51Z</time></trkpt><trkpt lat="38.04220571974464" lon="15.718932803556468"><ele>332.0</ele><time>2026-04-18T14:46:52Z</time></trkpt><trkpt lat="38.0421679918072" lon="15.7187581456129"><ele>331.0</ele><time>2026-04-18T14:46:53Z</time></trkpt><trkpt lat="38.0421317164696" lon="15.71859574581431"><ele>330.5</ele><time>2026-04-18T14:46:54Z</time></trkpt><trkpt lat="38.04210190796416" lon="15.718447121210772"><ele>330.0</ele><time>2026-04-18T14:46:55Z</time></trkpt><trkpt lat="38.04206778278996" lon="15.718302256452974"><ele>329.5</ele><time>2026-04-18T14:46:56Z</time></trkpt><trkpt lat="38.04203083877244" lon="15.718148121440722"><ele>329.0</ele><time>2026-04-18T14:46:57Z</time></trkpt><trkpt lat="38.04199301181659" lon="15.717984699191184"><ele>329.0</ele><time>2026-04-18T14:46:58Z</time></trkpt><trkpt lat="38.04196437084912" lon="15.717834047432067"><ele>329.0</ele><time>2026-04-18T14:46:59Z</time></trkpt><trkpt lat="38.04194842347408" lon="15.71770247719375"><ele>329.0</ele><time>2026-04-18T14:47:00Z</time></trkpt><trkpt lat="38.041958269966216" lon="15.717615299373652"><ele>329.0</ele><time>2026-04-18T14:47:01Z</time></trkpt><trkpt lat="38.04195316843226" lon="15.717528850744596"><ele>329.0</ele><time>2026-04-18T14:47:04Z</time></trkpt><trkpt lat="38.0419365627808" lon="15.717450058118326"><ele>329.0</ele><time>2026-04-18T14:47:06Z</time></trkpt><trkpt lat="38.0419085132556" lon="15.717365704961708"><ele>328.6666666666667</ele><time>2026-04-18T14:47:07Z</time></trkpt><trkpt lat="38.04190962459575" lon="15.7172737180806"><ele>328.33333333333337</ele><time>2026-04-18T14:47:08Z</time></trkpt><trkpt lat="38.041903244003194" lon="15.717188210954008"><ele>328.0</ele><time>2026-04-18T14:47:09Z</time></trkpt><trkpt lat="38.041897400850615" lon="15.71710568062295"><ele>327.6666666666667</ele><time>2026-04-18T14:47:10Z</time></trkpt><trkpt lat="38.04189019307281" lon="15.716984101577868"><ele>327.3333333333333</ele><time>2026-04-18T14:47:12Z</time></trkpt><trkpt lat="38.041889366231906" lon="15.716860612099541"><ele>327.0</ele><time>2026-04-18T14:47:14Z</time></trkpt><trkpt lat="38.041889366233654" lon="15.716759845522322"><ele>327.0</ele><time>2026-04-18T14:47:16Z</time></trkpt><trkpt lat="38.041821700912884" lon="15.71669641941832"><ele>327.0</ele><time>2026-04-18T14:47:18Z</time></trkpt><trkpt lat="38.04177664481274" lon="15.716786371730262"><ele>327.0</ele><time>2026-04-18T14:47:20Z</time></trkpt><trkpt lat="38.04173468170982" lon="15.716938270012916"><ele>327.0</ele><time>2026-04-18T14:47:23Z</time></trkpt><trkpt lat="38.04170950140394" lon="15.717021918856156"><ele>327.0</ele><time>2026-04-18T14:47:24Z</time></trkpt><trkpt lat="38.04163878218515" lon="15.717180759913262"><ele>328.20000000000005</ele><time>2026-04-18T14:47:25Z</time></trkpt><trkpt lat="38.04158467248987" lon="15.71728376433026"><ele>329.4</ele><time>2026-04-18T14:47:26Z</time></trkpt><trkpt lat="38.04152203044248" lon="15.717368951978555"><ele>330.6</ele><time>2026-04-18T14:47:27Z</time></trkpt><trkpt lat="38.041463311796285" lon="15.71746328980312"><ele>331.79999999999995</ele><time>2026-04-18T14:47:28Z</time></trkpt><trkpt lat="38.04137866992154" lon="15.717510470852286"><ele>333.0</ele><time>2026-04-18T14:47:29Z</time></trkpt><trkpt lat="38.041297692516494" lon="15.7175386949127"><ele>333.0</ele><time>2026-04-18T14:47:30Z</time></trkpt><trkpt lat="38.041218143469074" lon="15.717570000139071"><ele>333.0</ele><time>2026-04-18T14:47:31Z</time></trkpt><trkpt lat="38.04114628248559" lon="15.717600485237734"><ele>333.0</ele><time>2026-04-18T14:47:32Z</time></trkpt><trkpt lat="38.04107593795655" lon="15.717628843827695"><ele>333.0</ele><time>2026-04-18T14:47:33Z</time></trkpt><trkpt lat="38.04097860206746" lon="15.717681381947115"><ele>333.0</ele><time>2026-04-18T14:47:34Z</time></trkpt><trkpt lat="38.040881359140116" lon="15.717708432215707"><ele>333.0</ele><time>2026-04-18T14:47:35Z</time></trkpt><trkpt lat="38.04077101191445" lon="15.717725801346296"><ele>336.25</ele><time>2026-04-18T14:47:36Z</time></trkpt><trkpt lat="38.04064065175884" lon="15.717748055556536"><ele>339.5</ele><time>2026-04-18T14:47:37Z</time></trkpt><trkpt lat="38.040509407424445" lon="15.717770427567729"><ele>342.75</ele><time>2026-04-18T14:47:38Z</time></trkpt><trkpt lat="38.04037261050411" lon="15.717825059869112"><ele>346.0</ele><time>2026-04-18T14:47:39Z</time></trkpt><trkpt lat="38.040517654921764" lon="15.717773515079562"><ele>346.0</ele><time>2026-04-18T14:47:40Z</time></trkpt><trkpt lat="38.04045761900313" lon="15.717799067193468"><ele>346.0</ele><time>2026-04-18T14:47:42Z</time></trkpt><trkpt lat="38.040342553917235" lon="15.717850386559595"><ele>346.0</ele><time>2026-04-18T14:47:44Z</time></trkpt><trkpt lat="38.04027283553367" lon="15.71788016187328"><ele>346.0</ele><time>2026-04-18T14:47:45Z</time></trkpt><trkpt lat="38.0401925095172" lon="15.717895227726395"><ele>346.0</ele><time>2026-04-18T14:47:46Z</time></trkpt><trkpt lat="38.04010574668086" lon="15.7179011176164"><ele>346.0</ele><time>2026-04-18T14:47:47Z</time></trkpt><trkpt lat="38.04002624627355" lon="15.717916982642508"><ele>350.3333333333333</ele><time>2026-04-18T14:47:48Z</time></trkpt><trkpt lat="38.03995228777773" lon="15.717915894372013"><ele>354.66666666666663</ele><time>2026-04-18T14:47:49Z</time></trkpt><trkpt lat="38.039865708616546" lon="15.717916892499574"><ele>359.0</ele><time>2026-04-18T14:47:50Z</time></trkpt><trkpt lat="38.039777889289766" lon="15.71791952372115"><ele>363.3333333333333</ele><time>2026-04-18T14:47:51Z</time></trkpt><trkpt lat="38.03969291772873" lon="15.71791942095263"><ele>367.6666666666667</ele><time>2026-04-18T14:47:52Z</time></trkpt><trkpt lat="38.03961240323535" lon="15.717920172397339"><ele>372.0</ele><time>2026-04-18T14:47:53Z</time></trkpt><trkpt lat="38.03953145049147" lon="15.717936080146933"><ele>372.0</ele><time>2026-04-18T14:47:54Z</time></trkpt><trkpt lat="38.03945285275471" lon="15.717952864867522"><ele>372.0</ele><time>2026-04-18T14:47:55Z</time></trkpt><trkpt lat="38.039370180769964" lon="15.717966986698247"><ele>372.0</ele><time>2026-04-18T14:47:56Z</time></trkpt><trkpt lat="38.039291804961344" lon="15.71798279571781"><ele>372.0</ele><time>2026-04-18T14:47:57Z</time></trkpt><trkpt lat="38.03922183563674" lon="15.718016279502544"><ele>372.0</ele><time>2026-04-18T14:47:58Z</time></trkpt><trkpt lat="38.039165152337205" lon="15.718072674721135"><ele>372.0</ele><time>2026-04-18T14:47:59Z</time></trkpt><trkpt lat="38.03911170515509" lon="15.718144380864691"><ele>377.6666666666667</ele><time>2026-04-18T14:48:00Z</time></trkpt><trkpt lat="38.039062671223995" lon="15.718223844162514"><ele>383.33333333333337</ele><time>2026-04-18T14:48:01Z</time></trkpt><trkpt lat="38.03901781096783" lon="15.718312095931172"><ele>389.0</ele><time>2026-04-18T14:48:02Z</time></trkpt><trkpt lat="38.03897248044233" lon="15.718409109170121"><ele>394.6666666666667</ele><time>2026-04-18T14:48:03Z</time></trkpt><trkpt lat="38.038958915564244" lon="15.71851332496288"><ele>400.33333333333337</ele><time>2026-04-18T14:48:04Z</time></trkpt><trkpt lat="38.03893522209321" lon="15.718639394451218"><ele>406.0</ele><time>2026-04-18T14:48:06Z</time></trkpt><trkpt lat="38.03887002918973" lon="15.718545245524753"><ele>410.4</ele><time>2026-04-18T14:48:10Z</time></trkpt><trkpt lat="38.038894177893525" lon="15.718461967625935"><ele>414.8</ele><time>2026-04-18T14:48:11Z</time></trkpt><trkpt lat="38.03892856683784" lon="15.718330401517855"><ele>419.19999999999993</ele><time>2026-04-18T14:48:12Z</time></trkpt><trkpt lat="38.0389474178765" lon="15.718197036650079"><ele>423.59999999999997</ele><time>2026-04-18T14:48:13Z</time></trkpt><trkpt lat="38.038923533730916" lon="15.718103230536906"><ele>428.0</ele><time>2026-04-18T14:48:15Z</time></trkpt><trkpt lat="38.038809914885526" lon="15.718145249379067"><ele>428.0</ele><time>2026-04-18T14:48:17Z</time></trkpt><trkpt lat="38.03882164880346" lon="15.718340270937528"><ele>427.99999999999994</ele><time>2026-04-18T14:48:19Z</time></trkpt><trkpt lat="38.038790743677104" lon="15.718445695409052"><ele>427.99999999999994</ele><time>2026-04-18T14:48:20Z</time></trkpt><trkpt lat="38.038748950298505" lon="15.71852750969215"><ele>428.0</ele><time>2026-04-18T14:48:21Z</time></trkpt><trkpt lat="38.03868628220469" lon="15.718630557734947"><ele>428.0</ele><time>2026-04-18T14:48:22Z</time></trkpt><trkpt lat="38.03863776224405" lon="15.71875722942906"><ele>423.59999999999997</ele><time>2026-04-18T14:48:23Z</time></trkpt><trkpt lat="38.038631488773795" lon="15.718842706064219"><ele>419.19999999999993</ele><time>2026-04-18T14:48:24Z</time></trkpt><trkpt lat="38.03862699806307" lon="15.718975501682603"><ele>414.8</ele><time>2026-04-18T14:48:25Z</time></trkpt><trkpt lat="38.03860651314044" lon="15.719080229271615"><ele>410.4</ele><time>2026-04-18T14:48:26Z</time></trkpt><trkpt lat="38.038535184017476" lon="15.719208385869518"><ele>406.0</ele><time>2026-04-18T14:48:28Z</time></trkpt><trkpt lat="38.03858422331328" lon="15.719128960189662"><ele>406.00000000000006</ele><time>2026-04-18T14:48:34Z</time></trkpt><trkpt lat="38.03858230439547" lon="15.718983541919968"><ele>406.0</ele><time>2026-04-18T14:48:35Z</time></trkpt><trkpt lat="38.03858126797588" lon="15.718892918885663"><ele>406.0</ele><time>2026-04-18T14:48:36Z</time></trkpt><trkpt lat="38.03854666477697" lon="15.718787941127824"><ele>406.0</ele><time>2026-04-18T14:48:37Z</time></trkpt><trkpt lat="38.03851847622295" lon="15.718686171961526"><ele>406.00000000000006</ele><time>2026-04-18T14:48:38Z</time></trkpt><trkpt lat="38.03852105270238" lon="15.718604133561472"><ele>406.0</ele><time>2026-04-18T14:48:39Z</time></trkpt><trkpt lat="38.038561221843665" lon="15.718512815766875"><ele>409.6666666666667</ele><time>2026-04-18T14:48:40Z</time></trkpt><trkpt lat="38.03860869670301" lon="15.718415536044484"><ele>413.33333333333337</ele><time>2026-04-18T14:48:41Z</time></trkpt><trkpt lat="38.03861779921445" lon="15.718311242290604"><ele>417.0</ele><time>2026-04-18T14:48:42Z</time></trkpt><trkpt lat="38.0386082020449" lon="15.718194197268845"><ele>420.66666666666663</ele><time>2026-04-18T14:48:43Z</time></trkpt><trkpt lat="38.03860113540633" lon="15.718097951169787"><ele>424.3333333333333</ele><time>2026-04-18T14:48:44Z</time></trkpt><trkpt lat="38.038621241350256" lon="15.718008528878325"><ele>428.0</ele><time>2026-04-18T14:48:45Z</time></trkpt><trkpt lat="38.03866969414779" lon="15.717937163676591"><ele>427.99999999999994</ele><time>2026-04-18T14:48:46Z</time></trkpt><trkpt lat="38.038706491277495" lon="15.71787177778551"><ele>428.0</ele><time>2026-04-18T14:48:47Z</time></trkpt><trkpt lat="38.03879969035862" lon="15.717803145236754"><ele>428.0</ele><time>2026-04-18T14:48:49Z</time></trkpt><trkpt lat="38.03885453834538" lon="15.717741524929012"><ele>428.0</ele><time>2026-04-18T14:48:50Z</time></trkpt><trkpt lat="38.03893977821127" lon="15.717692569673158"><ele>427.99999999999994</ele><time>2026-04-18T14:48:51Z</time></trkpt><trkpt lat="38.03898542750809" lon="15.717598395213987"><ele>428.0</ele><time>2026-04-18T14:48:52Z</time></trkpt><trkpt lat="38.039007416887706" lon="15.717491377828344"><ele>430.49999999999994</ele><time>2026-04-18T14:48:53Z</time></trkpt><trkpt lat="38.038995083791505" lon="15.717393468540639"><ele>433.0</ele><time>2026-04-18T14:48:54Z</time></trkpt><trkpt lat="38.038933520132" lon="15.717307025747708"><ele>435.5</ele><time>2026-04-18T14:48:55Z</time></trkpt><trkpt lat="38.038888383776744" lon="15.717217486698662"><ele>438.0</ele><time>2026-04-18T14:48:56Z</time></trkpt><trkpt lat="38.03884299260669" lon="15.71713111054998"><ele>440.49999999999994</ele><time>2026-04-18T14:48:57Z</time></trkpt><trkpt lat="38.038810002231976" lon="15.717034186637786"><ele>443.0</ele><time>2026-04-18T14:48:58Z</time></trkpt><trkpt lat="38.038754245659845" lon="15.716965207045842"><ele>442.49999999999994</ele><time>2026-04-18T14:48:59Z</time></trkpt><trkpt lat="38.03871870083582" lon="15.716894017979966"><ele>442.0</ele><time>2026-04-18T14:49:00Z</time></trkpt><trkpt lat="38.03868720337924" lon="15.71679633190489"><ele>441.5</ele><time>2026-04-18T14:49:01Z</time></trkpt><trkpt lat="38.03864959461783" lon="15.71670354653669"><ele>441.0</ele><time>2026-04-18T14:49:02Z</time></trkpt><trkpt lat="38.03861711352009" lon="15.716605974917742"><ele>440.49999999999994</ele><time>2026-04-18T14:49:03Z</time></trkpt><trkpt lat="38.03858947496025" lon="15.716514082747429"><ele>440.0</ele><time>2026-04-18T14:49:04Z</time></trkpt><trkpt lat="38.038556425852676" lon="15.716438578199423"><ele>439.99999999999994</ele><time>2026-04-18T14:49:05Z</time></trkpt><trkpt lat="38.0384975028353" lon="15.716394786616545"><ele>440.0</ele><time>2026-04-18T14:49:06Z</time></trkpt><trkpt lat="38.038418064494984" lon="15.716381068789756"><ele>440.0</ele><time>2026-04-18T14:49:07Z</time></trkpt><trkpt lat="38.03831458408715" lon="15.716352395857562"><ele>440.0</ele><time>2026-04-18T14:49:09Z</time></trkpt><trkpt lat="38.038270826571086" lon="15.71644061961302"><ele>439.99999999999994</ele><time>2026-04-18T14:49:11Z</time></trkpt><trkpt lat="38.03832217073165" lon="15.716514192947653"><ele>440.0</ele><time>2026-04-18T14:49:12Z</time></trkpt><trkpt lat="38.03838698020587" lon="15.71656263622368"><ele>440.0</ele><time>2026-04-18T14:49:13Z</time></trkpt><trkpt lat="38.038445712614696" lon="15.716630225898616"><ele>440.0</ele><time>2026-04-18T14:49:14Z</time></trkpt><trkpt lat="38.038488925722234" lon="15.716722074942268"><ele>440.0</ele><time>2026-04-18T14:49:15Z</time></trkpt><trkpt lat="38.038498896579725" lon="15.716835176768539"><ele>440.0</ele><time>2026-04-18T14:49:16Z</time></trkpt><trkpt lat="38.038520422624714" lon="15.716992350953133"><ele>440.0</ele><time>2026-04-18T14:49:17Z</time></trkpt><trkpt lat="38.03853784053619" lon="15.71718968215335"><ele>440.49999999999994</ele><time>2026-04-18T14:49:18Z</time></trkpt><trkpt lat="38.03853536637574" lon="15.717294439619192"><ele>441.0</ele><time>2026-04-18T14:49:19Z</time></trkpt><trkpt lat="38.03852134103404" lon="15.71738534178626"><ele>441.5</ele><time>2026-04-18T14:49:20Z</time></trkpt><trkpt lat="38.038460002848424" lon="15.717449901671603"><ele>442.0</ele><time>2026-04-18T14:49:21Z</time></trkpt><trkpt lat="38.038394575787216" lon="15.717523774028416"><ele>442.49999999999994</ele><time>2026-04-18T14:49:22Z</time></trkpt><trkpt lat="38.03831703369385" lon="15.717584846853025"><ele>443.0</ele><time>2026-04-18T14:49:23Z</time></trkpt><trkpt lat="38.03823796726505" lon="15.717640680116798"><ele>447.3333333333333</ele><time>2026-04-18T14:49:24Z</time></trkpt><trkpt lat="38.03813696827308" lon="15.71772000932094"><ele>451.66666666666663</ele><time>2026-04-18T14:49:26Z</time></trkpt><trkpt lat="38.03813051486703" lon="15.717830917434576"><ele>456.0</ele><time>2026-04-18T14:49:27Z</time></trkpt><trkpt lat="38.038110809497105" lon="15.717960866041347"><ele>460.33333333333337</ele><time>2026-04-18T14:49:28Z</time></trkpt><trkpt lat="38.038095690409236" lon="15.718047937412319"><ele>464.6666666666667</ele><time>2026-04-18T14:49:29Z</time></trkpt><trkpt lat="38.03804811695375" lon="15.718100469213075"><ele>469.0</ele><time>2026-04-18T14:49:30Z</time></trkpt><trkpt lat="38.037991895878754" lon="15.718169959168298"><ele>469.00000000000006</ele><time>2026-04-18T14:49:31Z</time></trkpt><trkpt lat="38.03795384047722" lon="15.718279660909241"><ele>469.0</ele><time>2026-04-18T14:49:32Z</time></trkpt><trkpt lat="38.03791722554747" lon="15.718375116098393"><ele>469.0</ele><time>2026-04-18T14:49:33Z</time></trkpt><trkpt lat="38.037873047540636" lon="15.71849553473911"><ele>469.0</ele><time>2026-04-18T14:49:35Z</time></trkpt><trkpt lat="38.03780850385824" lon="15.718516941629023"><ele>469.00000000000006</ele><time>2026-04-18T14:49:38Z</time></trkpt><trkpt lat="38.03781064819621" lon="15.718395087916964"><ele>469.0</ele><time>2026-04-18T14:49:40Z</time></trkpt><trkpt lat="38.03785013342829" lon="15.71828944847943"><ele>469.00000000000006</ele><time>2026-04-18T14:49:42Z</time></trkpt><trkpt lat="38.03789404200631" lon="15.718208059190921"><ele>469.0</ele><time>2026-04-18T14:49:43Z</time></trkpt><trkpt lat="38.03794214320336" lon="15.718058514035873"><ele>469.0</ele><time>2026-04-18T14:49:45Z</time></trkpt><trkpt lat="38.03797414369527" lon="15.717980273859029"><ele>469.0</ele><time>2026-04-18T14:49:46Z</time></trkpt><trkpt lat="38.037996303282775" lon="15.717886135654533"><ele>469.00000000000006</ele><time>2026-04-18T14:49:47Z</time></trkpt><trkpt lat="38.037997395232566" lon="15.717772260373176"><ele>469.0</ele><time>2026-04-18T14:49:48Z</time></trkpt><trkpt lat="38.03799815296668" lon="15.717654997897625"><ele>474.79999999999995</ele><time>2026-04-18T14:49:49Z</time></trkpt><trkpt lat="38.03802201064783" lon="15.717540672807218"><ele>480.59999999999997</ele><time>2026-04-18T14:49:50Z</time></trkpt><trkpt lat="38.038057724523874" lon="15.71741894194342"><ele>486.4</ele><time>2026-04-18T14:49:51Z</time></trkpt><trkpt lat="38.03810895297829" lon="15.717310209210794"><ele>492.2</ele><time>2026-04-18T14:49:52Z</time></trkpt><trkpt lat="38.03814415275104" lon="15.717213227413511"><ele>498.0</ele><time>2026-04-18T14:49:53Z</time></trkpt><trkpt lat="38.03815128641651" lon="15.717099812555645"><ele>498.0</ele><time>2026-04-18T14:49:54Z</time></trkpt><trkpt lat="38.03811971347551" lon="15.716994229670828"><ele>497.99999999999994</ele><time>2026-04-18T14:49:55Z</time></trkpt><trkpt lat="38.038052269670736" lon="15.716914393030693"><ele>497.99999999999994</ele><time>2026-04-18T14:49:56Z</time></trkpt><trkpt lat="38.03796705360621" lon="15.716835880616303"><ele>498.0</ele><time>2026-04-18T14:49:57Z</time></trkpt><trkpt lat="38.03787350360251" lon="15.716789427665342"><ele>498.0</ele><time>2026-04-18T14:49:58Z</time></trkpt><trkpt lat="38.03780118212352" lon="15.716745731040907"><ele>498.8333333333333</ele><time>2026-04-18T14:49:59Z</time></trkpt><trkpt lat="38.03774311372654" lon="15.716678620455395"><ele>499.66666666666663</ele><time>2026-04-18T14:50:00Z</time></trkpt><trkpt lat="38.03770068624023" lon="15.716593137613266"><ele>500.5</ele><time>2026-04-18T14:50:01Z</time></trkpt><trkpt lat="38.037697902502345" lon="15.71648908232613"><ele>501.3333333333333</ele><time>2026-04-18T14:50:02Z</time></trkpt><trkpt lat="38.03767349488881" lon="15.71636705799911"><ele>502.16666666666663</ele><time>2026-04-18T14:50:03Z</time></trkpt><trkpt lat="38.037702403792096" lon="15.716263726874748"><ele>503.0</ele><time>2026-04-18T14:50:04Z</time></trkpt><trkpt lat="38.03770277764863" lon="15.716160032433843"><ele>503.0</ele><time>2026-04-18T14:50:05Z</time></trkpt><trkpt lat="38.037653870485144" lon="15.716050752362433"><ele>502.99999999999994</ele><time>2026-04-18T14:50:07Z</time></trkpt><trkpt lat="38.03756722620569" lon="15.716098721607034"><ele>502.99999999999994</ele><time>2026-04-18T14:50:09Z</time></trkpt><trkpt lat="38.03757565213382" lon="15.716206272322028"><ele>503.0</ele><time>2026-04-18T14:50:10Z</time></trkpt><trkpt lat="38.03758294490038" lon="15.71630332646546"><ele>503.0</ele><time>2026-04-18T14:50:11Z</time></trkpt><trkpt lat="38.037579363370064" lon="15.716450470697488"><ele>503.0</ele><time>2026-04-18T14:50:12Z</time></trkpt><trkpt lat="38.037583824362436" lon="15.716646988839885"><ele>503.0</ele><time>2026-04-18T14:50:13Z</time></trkpt><trkpt lat="38.03760567050583" lon="15.716761619647832"><ele>503.0</ele><time>2026-04-18T14:50:14Z</time></trkpt><trkpt lat="38.037652806513634" lon="15.716887101409425"><ele>503.0</ele><time>2026-04-18T14:50:15Z</time></trkpt><trkpt lat="38.03772290620112" lon="15.716988156173477"><ele>502.16666666666663</ele><time>2026-04-18T14:50:16Z</time></trkpt><trkpt lat="38.03774102336288" lon="15.717075744773435"><ele>501.3333333333333</ele><time>2026-04-18T14:50:17Z</time></trkpt><trkpt lat="38.03771576463861" lon="15.717186798079538"><ele>500.5</ele><time>2026-04-18T14:50:19Z</time></trkpt><trkpt lat="38.037653960701434" lon="15.717248699710765"><ele>499.66666666666663</ele><time>2026-04-18T14:50:20Z</time></trkpt><trkpt lat="38.03759448861226" lon="15.71733108981143"><ele>498.8333333333333</ele><time>2026-04-18T14:50:21Z</time></trkpt><trkpt lat="38.03753021503631" lon="15.717423516722375"><ele>498.0</ele><time>2026-04-18T14:50:22Z</time></trkpt><trkpt lat="38.03746559626777" lon="15.717519836154985"><ele>500.2</ele><time>2026-04-18T14:50:23Z</time></trkpt><trkpt lat="38.03737886439084" lon="15.717662497161085"><ele>502.4</ele><time>2026-04-18T14:50:24Z</time></trkpt><trkpt lat="38.0373089414922" lon="15.717772747986665"><ele>504.59999999999997</ele><time>2026-04-18T14:50:25Z</time></trkpt><trkpt lat="38.03725268826129" lon="15.717853622292894"><ele>506.79999999999995</ele><time>2026-04-18T14:50:26Z</time></trkpt><trkpt lat="38.03717782466024" lon="15.717921519514343"><ele>509.0</ele><time>2026-04-18T14:50:27Z</time></trkpt><trkpt lat="38.037066035371936" lon="15.717968750639717"><ele>509.0</ele><time>2026-04-18T14:50:28Z</time></trkpt><trkpt lat="38.03695452288077" lon="15.718020331618089"><ele>509.0</ele><time>2026-04-18T14:50:29Z</time></trkpt><trkpt lat="38.03683960156242" lon="15.718041966068037"><ele>509.0</ele><time>2026-04-18T14:50:30Z</time></trkpt><trkpt lat="38.036743167640054" lon="15.7180840778063"><ele>509.0</ele><time>2026-04-18T14:50:31Z</time></trkpt><trkpt lat="38.036668176246756" lon="15.718168956838666"><ele>509.0</ele><time>2026-04-18T14:50:32Z</time></trkpt><trkpt lat="38.0366075696341" lon="15.718285754372488"><ele>513.6</ele><time>2026-04-18T14:50:33Z</time></trkpt><trkpt lat="38.03653524277247" lon="15.718404715184823"><ele>518.2</ele><time>2026-04-18T14:50:34Z</time></trkpt><trkpt lat="38.036450901451126" lon="15.718472838750445"><ele>522.8000000000001</ele><time>2026-04-18T14:50:35Z</time></trkpt><trkpt lat="38.036383408800106" lon="15.718521966811666"><ele>527.4</ele><time>2026-04-18T14:50:36Z</time></trkpt><trkpt lat="38.03631505009271" lon="15.718547105987444"><ele>532.0</ele><time>2026-04-18T14:50:38Z</time></trkpt><trkpt lat="38.03633042068114" lon="15.718435118039785"><ele>532.0</ele><time>2026-04-18T14:50:40Z</time></trkpt><trkpt lat="38.03641115337314" lon="15.718386087375407"><ele>532.0</ele><time>2026-04-18T14:50:41Z</time></trkpt><trkpt lat="38.03646023542511" lon="15.718304481003806"><ele>532.0</ele><time>2026-04-18T14:50:42Z</time></trkpt><trkpt lat="38.036515992869894" lon="15.718221555500728"><ele>532.0</ele><time>2026-04-18T14:50:43Z</time></trkpt><trkpt lat="38.03657243351279" lon="15.71811116416241"><ele>532.0</ele><time>2026-04-18T14:50:44Z</time></trkpt><trkpt lat="38.03662763373751" lon="15.718002376278434"><ele>534.4</ele><time>2026-04-18T14:50:45Z</time></trkpt><trkpt lat="38.03667532202097" lon="15.717897680120489"><ele>536.8000000000001</ele><time>2026-04-18T14:50:46Z</time></trkpt><trkpt lat="38.03675704219211" lon="15.71780736414647"><ele>539.2</ele><time>2026-04-18T14:50:47Z</time></trkpt><trkpt lat="38.03684792238885" lon="15.71774665752566"><ele>541.6</ele><time>2026-04-18T14:50:48Z</time></trkpt><trkpt lat="38.036938469950925" lon="15.717678900293638"><ele>544.0</ele><time>2026-04-18T14:50:49Z</time></trkpt><trkpt lat="38.03700291097158" lon="15.717545226420407"><ele>544.0</ele><time>2026-04-18T14:50:50Z</time></trkpt><trkpt lat="38.037072738077576" lon="15.717424246766662"><ele>544.0</ele><time>2026-04-18T14:50:51Z</time></trkpt><trkpt lat="38.03711944501388" lon="15.717283540925745"><ele>544.0</ele><time>2026-04-18T14:50:52Z</time></trkpt><trkpt lat="38.037162068376375" lon="15.717178549250564"><ele>544.0</ele><time>2026-04-18T14:50:53Z</time></trkpt><trkpt lat="38.03720132451424" lon="15.717076550280282"><ele>544.0</ele><time>2026-04-18T14:50:54Z</time></trkpt><trkpt lat="38.03719390805715" lon="15.716963245135423"><ele>548.75</ele><time>2026-04-18T14:50:55Z</time></trkpt><trkpt lat="38.03714860806295" lon="15.7168593578505"><ele>553.5</ele><time>2026-04-18T14:50:56Z</time></trkpt><trkpt lat="38.03708460702096" lon="15.716743892616181"><ele>558.25</ele><time>2026-04-18T14:50:57Z</time></trkpt><trkpt lat="38.0370364460174" lon="15.716592851898346"><ele>563.0</ele><time>2026-04-18T14:50:58Z</time></trkpt><trkpt lat="38.037006044362" lon="15.716433322869646"><ele>563.0</ele><time>2026-04-18T14:50:59Z</time></trkpt><trkpt lat="38.03696988002322" lon="15.716260092645397"><ele>563.0</ele><time>2026-04-18T14:51:00Z</time></trkpt><trkpt lat="38.03693845952335" lon="15.71612712162968"><ele>563.0</ele><time>2026-04-18T14:51:01Z</time></trkpt><trkpt lat="38.0368487993777" lon="15.715999171425473"><ele>563.0</ele><time>2026-04-18T14:51:03Z</time></trkpt><trkpt lat="38.03676665775389" lon="15.715913019423938"><ele>558.8</ele><time>2026-04-18T14:51:04Z</time></trkpt><trkpt lat="38.036658734267796" lon="15.715863521227945"><ele>554.5999999999999</ele><time>2026-04-18T14:51:05Z</time></trkpt><trkpt lat="38.03655516872761" lon="15.715808020676713"><ele>550.4000000000001</ele><time>2026-04-18T14:51:06Z</time></trkpt><trkpt lat="38.036484577217465" lon="15.715718167164825"><ele>546.2</ele><time>2026-04-18T14:51:07Z</time></trkpt><trkpt lat="38.03641827186072" lon="15.715648992511932"><ele>542.0</ele><time>2026-04-18T14:51:08Z</time></trkpt><trkpt lat="38.03636956682734" lon="15.715576714949234"><ele>553.8000000000001</ele><time>2026-04-18T14:51:09Z</time></trkpt><trkpt lat="38.03638356566463" lon="15.715429263703554"><ele>565.6</ele><time>2026-04-18T14:51:11Z</time></trkpt><trkpt lat="38.03640950216604" lon="15.715331489352282"><ele>577.4000000000001</ele><time>2026-04-18T14:51:12Z</time></trkpt><trkpt lat="38.03640284987943" lon="15.715224842558136"><ele>589.2</ele><time>2026-04-18T14:51:13Z</time></trkpt><trkpt lat="38.036375960035556" lon="15.715105912148962"><ele>601.0</ele><time>2026-04-18T14:51:14Z</time></trkpt><trkpt lat="38.03630411727259" lon="15.715010824755932"><ele>601.0</ele><time>2026-04-18T14:51:15Z</time></trkpt><trkpt lat="38.036236715989546" lon="15.714918689212562"><ele>601.0</ele><time>2026-04-18T14:51:16Z</time></trkpt><trkpt lat="38.03619427254259" lon="15.714839045861261"><ele>601.0</ele><time>2026-04-18T14:51:17Z</time></trkpt><trkpt lat="38.03620325352887" lon="15.714758542641272"><ele>601.0</ele><time>2026-04-18T14:51:18Z</time></trkpt><trkpt lat="38.036214059121754" lon="15.71464055321854"><ele>601.0</ele><time>2026-04-18T14:51:19Z</time></trkpt><trkpt lat="38.03628704210022" lon="15.714521205970676"><ele>601.0</ele><time>2026-04-18T14:51:21Z</time></trkpt><trkpt lat="38.03628988222784" lon="15.714420982704477"><ele>601.0</ele><time>2026-04-18T14:51:22Z</time></trkpt><trkpt lat="38.036268745902404" lon="15.714307968036596"><ele>601.0</ele><time>2026-04-18T14:51:23Z</time></trkpt><trkpt lat="38.036240242594424" lon="15.714212589429723"><ele>601.0</ele><time>2026-04-18T14:51:24Z</time></trkpt><trkpt lat="38.03628052108325" lon="15.714133632223207"><ele>601.0</ele><time>2026-04-18T14:51:25Z</time></trkpt><trkpt lat="38.036341309257175" lon="15.714056758510575"><ele>601.0</ele><time>2026-04-18T14:51:26Z</time></trkpt><trkpt lat="38.03636245745966" lon="15.713943960566189"><ele>600.4</ele><time>2026-04-18T14:51:27Z</time></trkpt><trkpt lat="38.03638053292007" lon="15.713831199405755"><ele>599.8</ele><time>2026-04-18T14:51:28Z</time></trkpt><trkpt lat="38.036366512251504" lon="15.713703380161915"><ele>599.1999999999999</ele><time>2026-04-18T14:51:29Z</time></trkpt><trkpt lat="38.03637401799733" lon="15.713584200016923"><ele>598.6</ele><time>2026-04-18T14:51:30Z</time></trkpt><trkpt lat="38.03639749182997" lon="15.713482431064588"><ele>598.0</ele><time>2026-04-18T14:51:31Z</time></trkpt><trkpt lat="38.03638772555732" lon="15.713344594781248"><ele>597.1666666666667</ele><time>2026-04-18T14:51:33Z</time></trkpt><trkpt lat="38.0363114820862" lon="15.713303750740634"><ele>596.3333333333334</ele><time>2026-04-18T14:51:34Z</time></trkpt><trkpt lat="38.03621012358858" lon="15.713289572918377"><ele>595.5</ele><time>2026-04-18T14:51:35Z</time></trkpt><trkpt lat="38.03615988923721" lon="15.713225054749453"><ele>594.6666666666666</ele><time>2026-04-18T14:51:36Z</time></trkpt><trkpt lat="38.03614880884439" lon="15.71313655582767"><ele>593.8333333333333</ele><time>2026-04-18T14:51:37Z</time></trkpt><trkpt lat="38.03612088054097" lon="15.71302319985469"><ele>593.0</ele><time>2026-04-18T14:51:38Z</time></trkpt><trkpt lat="38.0360788456059" lon="15.712916007504143"><ele>593.0</ele><time>2026-04-18T14:51:39Z</time></trkpt><trkpt lat="38.036045681632366" lon="15.712814034043578"><ele>593.0</ele><time>2026-04-18T14:51:40Z</time></trkpt><trkpt lat="38.035989327818434" lon="15.712727587944924"><ele>593.0</ele><time>2026-04-18T14:51:41Z</time></trkpt><trkpt lat="38.035913551899384" lon="15.712659431101603"><ele>593.0</ele><time>2026-04-18T14:51:42Z</time></trkpt><trkpt lat="38.035887447445276" lon="15.712565275061186"><ele>593.0</ele><time>2026-04-18T14:51:43Z</time></trkpt><trkpt lat="38.035872186407744" lon="15.712466182106851"><ele>593.0</ele><time>2026-04-18T14:51:44Z</time></trkpt><trkpt lat="38.03582336354164" lon="15.712353563832457"><ele>597.1666666666666</ele><time>2026-04-18T14:51:45Z</time></trkpt><trkpt lat="38.03577458548148" lon="15.712251786289464"><ele>601.3333333333333</ele><time>2026-04-18T14:51:46Z</time></trkpt><trkpt lat="38.03570464684202" lon="15.712178703171666"><ele>605.5</ele><time>2026-04-18T14:51:47Z</time></trkpt><trkpt lat="38.03564578446345" lon="15.712104892257663"><ele>609.6666666666666</ele><time>2026-04-18T14:51:48Z</time></trkpt><trkpt lat="38.03563678270763" lon="15.712017442616803"><ele>613.8333333333334</ele><time>2026-04-18T14:51:49Z</time></trkpt><trkpt lat="38.03564240018697" lon="15.711922401856349"><ele>618.0</ele><time>2026-04-18T14:51:50Z</time></trkpt><trkpt lat="38.035607395049986" lon="15.711832006641012"><ele>618.0</ele><time>2026-04-18T14:51:51Z</time></trkpt><trkpt lat="38.03555918417424" lon="15.711747086336958"><ele>618.0</ele><time>2026-04-18T14:51:52Z</time></trkpt><trkpt lat="38.03549711884663" lon="15.71164506419301"><ele>618.0</ele><time>2026-04-18T14:51:53Z</time></trkpt><trkpt lat="38.03545545974057" lon="15.711561228614388"><ele>618.0</ele><time>2026-04-18T14:51:54Z</time></trkpt><trkpt lat="38.03532357948506" lon="15.711439718219369"><ele>618.0</ele><time>2026-04-18T14:51:56Z</time></trkpt><trkpt lat="38.035254488110226" lon="15.711380647831211"><ele>618.0</ele><time>2026-04-18T14:51:57Z</time></trkpt><trkpt lat="38.03519639627771" lon="15.711288167098036"><ele>618.0</ele><time>2026-04-18T14:51:58Z</time></trkpt><trkpt lat="38.03513823938154" lon="15.711201288514987"><ele>618.0</ele><time>2026-04-18T14:51:59Z</time></trkpt><trkpt lat="38.035100443873176" lon="15.711126193214996"><ele>618.0</ele><time>2026-04-18T14:52:00Z</time></trkpt><trkpt lat="38.03506048856457" lon="15.710980282460852"><ele>618.0</ele><time>2026-04-18T14:52:02Z</time></trkpt><trkpt lat="38.035037542503396" lon="15.710890592744962"><ele>618.0</ele><time>2026-04-18T14:52:03Z</time></trkpt><trkpt lat="38.03503798294897" lon="15.710799737648443"><ele>617.8</ele><time>2026-04-18T14:52:04Z</time></trkpt><trkpt lat="38.03502548082624" lon="15.710682645980556"><ele>617.5999999999999</ele><time>2026-04-18T14:52:06Z</time></trkpt><trkpt lat="38.034897617544146" lon="15.710754336286398"><ele>617.4000000000001</ele><time>2026-04-18T14:52:09Z</time></trkpt><trkpt lat="38.03493472174957" lon="15.710877262466258"><ele>617.2</ele><time>2026-04-18T14:52:10Z</time></trkpt><trkpt lat="38.034921390751165" lon="15.711007567046211"><ele>617.0</ele><time>2026-04-18T14:52:11Z</time></trkpt><trkpt lat="38.03490969098534" lon="15.71111210223081"><ele>617.1666666666666</ele><time>2026-04-18T14:52:12Z</time></trkpt><trkpt lat="38.03488744254433" lon="15.711216144992315"><ele>617.3333333333333</ele><time>2026-04-18T14:52:13Z</time></trkpt><trkpt lat="38.034883313141506" lon="15.711313302098233"><ele>617.5</ele><time>2026-04-18T14:52:14Z</time></trkpt><trkpt lat="38.034935028485165" lon="15.711395932989186"><ele>617.6666666666666</ele><time>2026-04-18T14:52:15Z</time></trkpt><trkpt lat="38.03496013487412" lon="15.711503389270097"><ele>617.8333333333334</ele><time>2026-04-18T14:52:16Z</time></trkpt><trkpt lat="38.03501189784885" lon="15.711618833393947"><ele>618.0</ele><time>2026-04-18T14:52:17Z</time></trkpt><trkpt lat="38.03506013212556" lon="15.71172406100842"><ele>618.0</ele><time>2026-04-18T14:52:18Z</time></trkpt><trkpt lat="38.035105631138585" lon="15.711824045615252"><ele>618.0</ele><time>2026-04-18T14:52:19Z</time></trkpt><trkpt lat="38.03514469117651" lon="15.711910028999576"><ele>618.0</ele><time>2026-04-18T14:52:20Z</time></trkpt><trkpt lat="38.035169502707305" lon="15.712084336677401"><ele>618.0</ele><time>2026-04-18T14:52:22Z</time></trkpt><trkpt lat="38.035163225160005" lon="15.712189925998414"><ele>618.0</ele><time>2026-04-18T14:52:23Z</time></trkpt><trkpt lat="38.035171893033244" lon="15.71230343098494"><ele>623.2</ele><time>2026-04-18T14:52:24Z</time></trkpt><trkpt lat="38.035223314883964" lon="15.712427795183123"><ele>628.4</ele><time>2026-04-18T14:52:25Z</time></trkpt><trkpt lat="38.035282272766544" lon="15.712563213443259"><ele>633.6</ele><time>2026-04-18T14:52:26Z</time></trkpt><trkpt lat="38.03534085871702" lon="15.712685853918247"><ele>638.8000000000001</ele><time>2026-04-18T14:52:27Z</time></trkpt><trkpt lat="38.03537551236355" lon="15.712756252745146"><ele>644.0</ele><time>2026-04-18T14:52:28Z</time></trkpt><trkpt lat="38.035309466110604" lon="15.712746474848203"><ele>644.0</ele><time>2026-04-18T14:52:33Z</time></trkpt><trkpt lat="38.03525355677713" lon="15.712646618947437"><ele>644.0</ele><time>2026-04-18T14:52:34Z</time></trkpt><trkpt lat="38.03518496006276" lon="15.712555148767526"><ele>644.0</ele><time>2026-04-18T14:52:35Z</time></trkpt><trkpt lat="38.035126231936914" lon="15.712471662631943"><ele>644.0</ele><time>2026-04-18T14:52:36Z</time></trkpt><trkpt lat="38.0350708600548" lon="15.7123849593152"><ele>644.0</ele><time>2026-04-18T14:52:37Z</time></trkpt><trkpt lat="38.03502929333851" lon="15.712273762173332"><ele>644.0</ele><time>2026-04-18T14:52:38Z</time></trkpt><trkpt lat="38.034982342487076" lon="15.712146959800211"><ele>644.0</ele><time>2026-04-18T14:52:39Z</time></trkpt><trkpt lat="38.0349320919779" lon="15.712041286456266"><ele>644.0</ele><time>2026-04-18T14:52:40Z</time></trkpt><trkpt lat="38.03486963367286" lon="15.7119738076269"><ele>644.0</ele><time>2026-04-18T14:52:41Z</time></trkpt><trkpt lat="38.03480460519553" lon="15.711971599603126"><ele>644.0</ele><time>2026-04-18T14:52:43Z</time></trkpt><trkpt lat="38.03479877407677" lon="15.712068807730377"><ele>644.0</ele><time>2026-04-18T14:52:44Z</time></trkpt><trkpt lat="38.03482236361037" lon="15.712155387688796"><ele>646.3333333333333</ele><time>2026-04-18T14:52:45Z</time></trkpt><trkpt lat="38.034887624470024" lon="15.712242651417741"><ele>648.6666666666666</ele><time>2026-04-18T14:52:46Z</time></trkpt><trkpt lat="38.034897862404755" lon="15.712350817499843"><ele>651.0</ele><time>2026-04-18T14:52:47Z</time></trkpt><trkpt lat="38.03490070061735" lon="15.712459514643342"><ele>653.3333333333334</ele><time>2026-04-18T14:52:48Z</time></trkpt><trkpt lat="38.03492165987404" lon="15.712571626938143"><ele>655.6666666666667</ele><time>2026-04-18T14:52:49Z</time></trkpt><trkpt lat="38.034970117532474" lon="15.712649677087352"><ele>658.0</ele><time>2026-04-18T14:52:50Z</time></trkpt><trkpt lat="38.035016131931904" lon="15.712745354469595"><ele>658.0</ele><time>2026-04-18T14:52:51Z</time></trkpt><trkpt lat="38.035065799151326" lon="15.712841618775178"><ele>658.0</ele><time>2026-04-18T14:52:52Z</time></trkpt><trkpt lat="38.035106370854876" lon="15.71293223292169"><ele>658.0</ele><time>2026-04-18T14:52:53Z</time></trkpt><trkpt lat="38.03513043007869" lon="15.713017522304165"><ele>658.0</ele><time>2026-04-18T14:52:54Z</time></trkpt><trkpt lat="38.03515051979303" lon="15.713118795472056"><ele>658.0</ele><time>2026-04-18T14:52:55Z</time></trkpt><trkpt lat="38.035162844566855" lon="15.713213296628442"><ele>658.0</ele><time>2026-04-18T14:52:56Z</time></trkpt><trkpt lat="38.035169226833055" lon="15.713301788311995"><ele>658.0</ele><time>2026-04-18T14:52:57Z</time></trkpt><trkpt lat="38.0351631313956" lon="15.713399459422936"><ele>658.0</ele><time>2026-04-18T14:52:58Z</time></trkpt><trkpt lat="38.035149078054026" lon="15.713511521428044"><ele>658.0</ele><time>2026-04-18T14:52:59Z</time></trkpt><trkpt lat="38.03512669298547" lon="15.71363324740113"><ele>658.0</ele><time>2026-04-18T14:53:00Z</time></trkpt><trkpt lat="38.03510409073863" lon="15.713764878769085"><ele>658.0</ele><time>2026-04-18T14:53:01Z</time></trkpt><trkpt lat="38.035094505157254" lon="15.713896983668526"><ele>660.2</ele><time>2026-04-18T14:53:02Z</time></trkpt><trkpt lat="38.0350894845474" lon="15.714038665992266"><ele>662.4</ele><time>2026-04-18T14:53:03Z</time></trkpt><trkpt lat="38.03510680414757" lon="15.714181161654912"><ele>664.6</ele><time>2026-04-18T14:53:04Z</time></trkpt><trkpt lat="38.03508619310843" lon="15.714313023244875"><ele>666.8000000000001</ele><time>2026-04-18T14:53:05Z</time></trkpt><trkpt lat="38.03505449282151" lon="15.714435133977148"><ele>669.0</ele><time>2026-04-18T14:53:06Z</time></trkpt><trkpt lat="38.03505275392047" lon="15.714565173653677"><ele>670.2</ele><time>2026-04-18T14:53:07Z</time></trkpt><trkpt lat="38.03503901911491" lon="15.714660863676885"><ele>671.4000000000001</ele><time>2026-04-18T14:53:08Z</time></trkpt><trkpt lat="38.03505740373808" lon="15.714847226645487"><ele>672.6</ele><time>2026-04-18T14:53:09Z</time></trkpt><trkpt lat="38.03509919224996" lon="15.71496917416714"><ele>673.8</ele><time>2026-04-18T14:53:10Z</time></trkpt><trkpt lat="38.03510405788553" lon="15.715062946986905"><ele>675.0</ele><time>2026-04-18T14:53:11Z</time></trkpt><trkpt lat="38.035093710049665" lon="15.715162382291545"><ele>675.0</ele><time>2026-04-18T14:53:13Z</time></trkpt><trkpt lat="38.034978799801024" lon="15.715221874205175"><ele>675.0</ele><time>2026-04-18T14:53:15Z</time></trkpt><trkpt lat="38.03492510460481" lon="15.715300171595274"><ele>675.0</ele><time>2026-04-18T14:53:16Z</time></trkpt><trkpt lat="38.03488839802738" lon="15.715392506807378"><ele>675.0</ele><time>2026-04-18T14:53:17Z</time></trkpt><trkpt lat="38.03488088283385" lon="15.715497854890023"><ele>675.0</ele><time>2026-04-18T14:53:18Z</time></trkpt><trkpt lat="38.034910863179455" lon="15.715616804165341"><ele>678.6</ele><time>2026-04-18T14:53:19Z</time></trkpt><trkpt lat="38.03494511598718" lon="15.715714582029056"><ele>682.2</ele><time>2026-04-18T14:53:20Z</time></trkpt><trkpt lat="38.03495084986108" lon="15.715869255050992"><ele>685.8</ele><time>2026-04-18T14:53:21Z</time></trkpt><trkpt lat="38.03495623455948" lon="15.716001737898218"><ele>689.4</ele><time>2026-04-18T14:53:22Z</time></trkpt><trkpt lat="38.03496517010089" lon="15.716108543971044"><ele>693.0</ele><time>2026-04-18T14:53:23Z</time></trkpt><trkpt lat="38.034961487568474" lon="15.716212078727557"><ele>693.0</ele><time>2026-04-18T14:53:25Z</time></trkpt><trkpt lat="38.034884237497316" lon="15.716233808733744"><ele>693.0</ele><time>2026-04-18T14:53:28Z</time></trkpt><trkpt lat="38.03480206645641" lon="15.71619769249146"><ele>693.0</ele><time>2026-04-18T14:53:29Z</time></trkpt><trkpt lat="38.03470881007362" lon="15.716171767485704"><ele>693.0</ele><time>2026-04-18T14:53:30Z</time></trkpt><trkpt lat="38.03461374751399" lon="15.716172607251638"><ele>693.0</ele><time>2026-04-18T14:53:31Z</time></trkpt><trkpt lat="38.03452378495418" lon="15.716201478643667"><ele>693.0</ele><time>2026-04-18T14:53:32Z</time></trkpt><trkpt lat="38.034433671958375" lon="15.716213877785062"><ele>693.0</ele><time>2026-04-18T14:53:33Z</time></trkpt><trkpt lat="38.034340409273575" lon="15.716278245308601"><ele>693.0</ele><time>2026-04-18T14:53:34Z</time></trkpt><trkpt lat="38.034265428465055" lon="15.716394704116398"><ele>693.0</ele><time>2026-04-18T14:53:35Z</time></trkpt><trkpt lat="38.03419789837176" lon="15.716480764325224"><ele>693.0</ele><time>2026-04-18T14:53:36Z</time></trkpt><trkpt lat="38.03415556298246" lon="15.716562512612127"><ele>693.0</ele><time>2026-04-18T14:53:37Z</time></trkpt><trkpt lat="38.034176012343295" lon="15.716688710558103"><ele>693.0</ele><time>2026-04-18T14:53:38Z</time></trkpt><trkpt lat="38.034155457380606" lon="15.716807876173938"><ele>693.0</ele><time>2026-04-18T14:53:39Z</time></trkpt><trkpt lat="38.03412847125086" lon="15.716925553573901"><ele>693.0</ele><time>2026-04-18T14:53:40Z</time></trkpt><trkpt lat="38.034095726846815" lon="15.717040719182497"><ele>693.0</ele><time>2026-04-18T14:53:41Z</time></trkpt><trkpt lat="38.03405472269564" lon="15.717129081183487"><ele>693.0</ele><time>2026-04-18T14:53:42Z</time></trkpt><trkpt lat="38.03399901495727" lon="15.717209016854797"><ele>690.1666666666666</ele><time>2026-04-18T14:53:43Z</time></trkpt><trkpt lat="38.03392157089098" lon="15.717257768771871"><ele>687.3333333333334</ele><time>2026-04-18T14:53:44Z</time></trkpt><trkpt lat="38.033823621011166" lon="15.717312147783753"><ele>684.5</ele><time>2026-04-18T14:53:45Z</time></trkpt><trkpt lat="38.033744472123985" lon="15.717357480247056"><ele>681.6666666666667</ele><time>2026-04-18T14:53:46Z</time></trkpt><trkpt lat="38.03368552449975" lon="15.717413521547227"><ele>678.8333333333334</ele><time>2026-04-18T14:53:47Z</time></trkpt><trkpt lat="38.03363297456615" lon="15.717463377089834"><ele>676.0</ele><time>2026-04-18T14:53:49Z</time></trkpt><trkpt lat="38.03363242804038" lon="15.717578492606332"><ele>676.0</ele><time>2026-04-18T14:53:52Z</time></trkpt><trkpt lat="38.03363932751472" lon="15.717689474466683"><ele>676.0</ele><time>2026-04-18T14:53:53Z</time></trkpt><trkpt lat="38.033626850717695" lon="15.717795892142872"><ele>676.0</ele><time>2026-04-18T14:53:54Z</time></trkpt><trkpt lat="38.03361768820624" lon="15.717910318448073"><ele>676.0</ele><time>2026-04-18T14:53:55Z</time></trkpt><trkpt lat="38.03360131763663" lon="15.71801037592883"><ele>676.0</ele><time>2026-04-18T14:53:56Z</time></trkpt><trkpt lat="38.03355847363974" lon="15.71810167937167"><ele>676.0</ele><time>2026-04-18T14:53:57Z</time></trkpt><trkpt lat="38.03351845584679" lon="15.718187805673587"><ele>675.6666666666667</ele><time>2026-04-18T14:53:58Z</time></trkpt><trkpt lat="38.033483282863564" lon="15.718279930824673"><ele>675.3333333333334</ele><time>2026-04-18T14:53:59Z</time></trkpt><trkpt lat="38.033423657965855" lon="15.718346335746064"><ele>675.0</ele><time>2026-04-18T14:54:00Z</time></trkpt><trkpt lat="38.03335386684709" lon="15.718406438954684"><ele>674.6666666666666</ele><time>2026-04-18T14:54:01Z</time></trkpt><trkpt lat="38.03328906129102" lon="15.71847446230955"><ele>674.3333333333333</ele><time>2026-04-18T14:54:02Z</time></trkpt><trkpt lat="38.03326333690508" lon="15.718575287152877"><ele>674.0</ele><time>2026-04-18T14:54:03Z</time></trkpt><trkpt lat="38.03327571671207" lon="15.71869173012877"><ele>673.8000000000001</ele><time>2026-04-18T14:54:04Z</time></trkpt><trkpt lat="38.03328805594681" lon="15.718806367953853"><ele>673.6</ele><time>2026-04-18T14:54:05Z</time></trkpt><trkpt lat="38.0332872478418" lon="15.718913345346833"><ele>673.4</ele><time>2026-04-18T14:54:06Z</time></trkpt><trkpt lat="38.033272890028734" lon="15.719036393681762"><ele>673.2</ele><time>2026-04-18T14:54:07Z</time></trkpt><trkpt lat="38.03325004682425" lon="15.719168806963484"><ele>673.0</ele><time>2026-04-18T14:54:08Z</time></trkpt><trkpt lat="38.03321303628725" lon="15.719290138083833"><ele>675.5999999999999</ele><time>2026-04-18T14:54:09Z</time></trkpt><trkpt lat="38.03318971356054" lon="15.71940217477363"><ele>678.1999999999999</ele><time>2026-04-18T14:54:10Z</time></trkpt><trkpt lat="38.03318284608744" lon="15.719492406197535"><ele>680.8</ele><time>2026-04-18T14:54:11Z</time></trkpt><trkpt lat="38.03316536922054" lon="15.719639029291608"><ele>683.4</ele><time>2026-04-18T14:54:13Z</time></trkpt><trkpt lat="38.03324085261654" lon="15.71974251646457"><ele>686.0</ele><time>2026-04-18T14:54:14Z</time></trkpt><trkpt lat="38.03328748823897" lon="15.719833992238568"><ele>686.0</ele><time>2026-04-18T14:54:15Z</time></trkpt><trkpt lat="38.03334270245564" lon="15.719918595689538"><ele>686.0</ele><time>2026-04-18T14:54:16Z</time></trkpt><trkpt lat="38.03335989596714" lon="15.7200383752995"><ele>686.0</ele><time>2026-04-18T14:54:17Z</time></trkpt><trkpt lat="38.03336615450123" lon="15.720161223107462"><ele>686.0</ele><time>2026-04-18T14:54:18Z</time></trkpt><trkpt lat="38.03339133570303" lon="15.720266356471267"><ele>686.0</ele><time>2026-04-18T14:54:19Z</time></trkpt><trkpt lat="38.03341435348376" lon="15.72038522589103"><ele>686.0</ele><time>2026-04-18T14:54:20Z</time></trkpt><trkpt lat="38.03343247789942" lon="15.720474574129097"><ele>686.0</ele><time>2026-04-18T14:54:21Z</time></trkpt><trkpt lat="38.033403522895654" lon="15.72056431483025"><ele>686.0</ele><time>2026-04-18T14:54:22Z</time></trkpt><trkpt lat="38.03337572030811" lon="15.720666321523503"><ele>686.0</ele><time>2026-04-18T14:54:23Z</time></trkpt><trkpt lat="38.03333989799435" lon="15.720756898152912"><ele>686.0</ele><time>2026-04-18T14:54:24Z</time></trkpt><trkpt lat="38.03328943483266" lon="15.720836379831082"><ele>686.0</ele><time>2026-04-18T14:54:25Z</time></trkpt><trkpt lat="38.03325308055312" lon="15.720921010523385"><ele>688.0</ele><time>2026-04-18T14:54:26Z</time></trkpt><trkpt lat="38.033226816689655" lon="15.721004046328105"><ele>690.0</ele><time>2026-04-18T14:54:27Z</time></trkpt><trkpt lat="38.0332412518752" lon="15.721101626678022"><ele>692.0</ele><time>2026-04-18T14:54:28Z</time></trkpt><trkpt lat="38.03326256791168" lon="15.721183244779496"><ele>694.0</ele><time>2026-04-18T14:54:29Z</time></trkpt><trkpt lat="38.03335609585072" lon="15.721218673184222"><ele>696.0</ele><time>2026-04-18T14:54:30Z</time></trkpt><trkpt lat="38.033393070827685" lon="15.721297168763677"><ele>698.0</ele><time>2026-04-18T14:54:31Z</time></trkpt><trkpt lat="38.03339181167701" lon="15.72143538038466"><ele>697.9999999999999</ele><time>2026-04-18T14:54:33Z</time></trkpt><trkpt lat="38.03337261218765" lon="15.721518918155596"><ele>698.0</ele><time>2026-04-18T14:54:34Z</time></trkpt><trkpt lat="38.033352087997045" lon="15.721606299148295"><ele>698.0</ele><time>2026-04-18T14:54:35Z</time></trkpt><trkpt lat="38.03331761738077" lon="15.721692328855903"><ele>698.0</ele><time>2026-04-18T14:54:36Z</time></trkpt><trkpt lat="38.033271450559695" lon="15.721767864254721"><ele>698.0</ele><time>2026-04-18T14:54:37Z</time></trkpt><trkpt lat="38.03321184725532" lon="15.721825712194143"><ele>697.9999999999999</ele><time>2026-04-18T14:54:38Z</time></trkpt><trkpt lat="38.03316026275424" lon="15.721894083067893"><ele>698.0</ele><time>2026-04-18T14:54:39Z</time></trkpt><trkpt lat="38.03312775229949" lon="15.721996963740319"><ele>699.5</ele><time>2026-04-18T14:54:41Z</time></trkpt><trkpt lat="38.033133912336105" lon="15.722107156228665"><ele>701.0</ele><time>2026-04-18T14:54:43Z</time></trkpt><trkpt lat="38.03318493573761" lon="15.722213405133962"><ele>702.5</ele><time>2026-04-18T14:54:45Z</time></trkpt><trkpt lat="38.033249508871506" lon="15.722246204367796"><ele>704.0</ele><time>2026-04-18T14:54:46Z</time></trkpt><trkpt lat="38.03328697238337" lon="15.722314201898135"><ele>705.5</ele><time>2026-04-18T14:54:47Z</time></trkpt><trkpt lat="38.03332256812768" lon="15.72238228967162"><ele>707.0</ele><time>2026-04-18T14:54:48Z</time></trkpt><trkpt lat="38.03335186606505" lon="15.722457597479206"><ele>707.8</ele><time>2026-04-18T14:54:49Z</time></trkpt><trkpt lat="38.03337948407997" lon="15.722529481113344"><ele>708.6</ele><time>2026-04-18T14:54:50Z</time></trkpt><trkpt lat="38.03340537891343" lon="15.722647809666189"><ele>709.4</ele><time>2026-04-18T14:54:52Z</time></trkpt><trkpt lat="38.03338867719917" lon="15.722769474008258"><ele>710.1999999999999</ele><time>2026-04-18T14:54:54Z</time></trkpt><trkpt lat="38.0333970067073" lon="15.722895908063624"><ele>711.0</ele><time>2026-04-18T14:54:56Z</time></trkpt><trkpt lat="38.03337586544777" lon="15.723023080677928"><ele>711.0</ele><time>2026-04-18T14:54:58Z</time></trkpt><trkpt lat="38.033371892317376" lon="15.723149159483752"><ele>711.0</ele><time>2026-04-18T14:55:00Z</time></trkpt><trkpt lat="38.03337962240814" lon="15.72324172984928"><ele>711.0</ele><time>2026-04-18T14:55:02Z</time></trkpt><trkpt lat="38.03340634065762" lon="15.723333775516865"><ele>711.0</ele><time>2026-04-18T14:55:04Z</time></trkpt><trkpt lat="38.03343540621241" lon="15.723414793450113"><ele>711.0</ele><time>2026-04-18T14:55:06Z</time></trkpt><trkpt lat="38.03346929188426" lon="15.723495616202621"><ele>711.0</ele><time>2026-04-18T14:55:08Z</time></trkpt><trkpt lat="38.03350339772221" lon="15.723574442254684"><ele>710.8</ele><time>2026-04-18T14:55:10Z</time></trkpt><trkpt lat="38.033525869981545" lon="15.723649251313919"><ele>710.5999999999999</ele><time>2026-04-18T14:55:12Z</time></trkpt><trkpt lat="38.033555164915846" lon="15.723758224002069"><ele>710.4</ele><time>2026-04-18T14:56:53Z</time></trkpt><trkpt lat="38.0335261739758" lon="15.723895924557848"><ele>710.2</ele><time>2026-04-18T14:56:55Z</time></trkpt><trkpt lat="38.03344482895091" lon="15.724003927894938"><ele>710.0</ele><time>2026-04-18T14:56:57Z</time></trkpt><trkpt lat="38.03336814295088" lon="15.724018793029954"><ele>712.2</ele><time>2026-04-18T14:56:58Z</time></trkpt><trkpt lat="38.03326379356139" lon="15.72411766645016"><ele>714.4</ele><time>2026-04-18T14:57:00Z</time></trkpt><trkpt lat="38.03321105679599" lon="15.72416481864738"><ele>716.5999999999999</ele><time>2026-04-18T14:57:01Z</time></trkpt><trkpt lat="38.0331521814501" lon="15.724213198356203"><ele>718.8</ele><time>2026-04-18T14:57:02Z</time></trkpt><trkpt lat="38.03309267655861" lon="15.72424536346852"><ele>721.0</ele><time>2026-04-18T14:57:03Z</time></trkpt><trkpt lat="38.0329671654778" lon="15.724246664713007"><ele>721.0</ele><time>2026-04-18T14:57:05Z</time></trkpt><trkpt lat="38.03289545552985" lon="15.724241829152335"><ele>721.0</ele><time>2026-04-18T14:57:06Z</time></trkpt><trkpt lat="38.03281700294126" lon="15.724265715628718"><ele>721.0</ele><time>2026-04-18T14:57:07Z</time></trkpt><trkpt lat="38.03273746393584" lon="15.72427236380233"><ele>721.0</ele><time>2026-04-18T14:57:08Z</time></trkpt><trkpt lat="38.03265299287741" lon="15.724277103031714"><ele>721.0</ele><time>2026-04-18T14:57:08.999Z</time></trkpt><trkpt lat="38.032578416845" lon="15.72428566423901"><ele>721.0</ele><time>2026-04-18T14:57:09.999Z</time></trkpt><trkpt lat="38.032491011567956" lon="15.72432735204133"><ele>720.6666666666667</ele><time>2026-04-18T14:57:11.999Z</time></trkpt><trkpt lat="38.032521911065515" lon="15.724466614328914"><ele>720.3333333333334</ele><time>2026-04-18T14:57:13.999Z</time></trkpt><trkpt lat="38.032600425703535" lon="15.72448124724075"><ele>720.0</ele><time>2026-04-18T14:57:14.999Z</time></trkpt><trkpt lat="38.03265639645475" lon="15.724532666838497"><ele>719.6666666666666</ele><time>2026-04-18T14:57:15.999Z</time></trkpt><trkpt lat="38.03272433627421" lon="15.72462185849761"><ele>719.3333333333333</ele><time>2026-04-18T14:57:17.999Z</time></trkpt><trkpt lat="38.032691617981236" lon="15.724702593182856"><ele>719.0</ele><time>2026-04-18T14:57:19.999Z</time></trkpt><trkpt lat="38.032584839895755" lon="15.724668868657186"><ele>723.8000000000001</ele><time>2026-04-18T14:58:25.999Z</time></trkpt><trkpt lat="38.03246551986392" lon="15.724655017545338"><ele>728.6</ele><time>2026-04-18T14:58:27.999Z</time></trkpt><trkpt lat="38.0323996416932" lon="15.724666524476579"><ele>733.4</ele><time>2026-04-18T14:58:28.999Z</time></trkpt><trkpt lat="38.032266582797305" lon="15.724666164661356"><ele>738.2</ele><time>2026-04-18T14:58:30.999Z</time></trkpt><trkpt lat="38.03219535079302" lon="15.724663343713377"><ele>743.0</ele><time>2026-04-18T14:58:31.999Z</time></trkpt><trkpt lat="38.032131054888396" lon="15.72467694248008"><ele>743.0</ele><time>2026-04-18T14:58:32.999Z</time></trkpt><trkpt lat="38.03205322857019" lon="15.724718053183324"><ele>743.0</ele><time>2026-04-18T14:58:34.999Z</time></trkpt><trkpt lat="38.03206177940191" lon="15.72483613787907"><ele>743.0</ele><time>2026-04-18T14:58:37.999Z</time></trkpt><trkpt lat="38.0321901327335" lon="15.72481559395819"><ele>743.0</ele><time>2026-04-18T14:58:39.999Z</time></trkpt><trkpt lat="38.03223009276089" lon="15.724879032136462"><ele>743.0</ele><time>2026-04-18T14:58:41.999Z</time></trkpt><trkpt lat="38.03213572454304" lon="15.724927533778443"><ele>743.0</ele><time>2026-04-18T14:58:43.999Z</time></trkpt><trkpt lat="38.0320112157607" lon="15.7249582019204"><ele>743.0</ele><time>2026-04-18T14:58:45.999Z</time></trkpt><trkpt lat="38.03194197509217" lon="15.724963914919792"><ele>743.0</ele><time>2026-04-18T14:58:46.999Z</time></trkpt><trkpt lat="38.031878970342675" lon="15.724982686281018"><ele>743.0</ele><time>2026-04-18T14:58:47.999Z</time></trkpt><trkpt lat="38.03181478412839" lon="15.725016631462404"><ele>743.0</ele><time>2026-04-18T14:58:48.999Z</time></trkpt><trkpt lat="38.03175063576909" lon="15.72506035264517"><ele>743.0</ele><time>2026-04-18T14:58:49.999Z</time></trkpt><trkpt lat="38.03168143034422" lon="15.725087701380682"><ele>745.6666666666666</ele><time>2026-04-18T14:58:50.999Z</time></trkpt><trkpt lat="38.031618524859404" lon="15.725133361861776"><ele>748.3333333333333</ele><time>2026-04-18T14:58:51.999Z</time></trkpt><trkpt lat="38.03156438237136" lon="15.725177169998666"><ele>751.0</ele><time>2026-04-18T14:58:52.999Z</time></trkpt><trkpt lat="38.031474422732536" lon="15.725263479856757"><ele>753.6666666666666</ele><time>2026-04-18T14:58:54.999Z</time></trkpt><trkpt lat="38.03138614841175" lon="15.72532490149438"><ele>756.3333333333334</ele><time>2026-04-18T14:58:56.999Z</time></trkpt><trkpt lat="38.03130474376192" lon="15.725342547457512"><ele>759.0</ele><time>2026-04-18T14:58:58.999Z</time></trkpt><trkpt lat="38.031198713116915" lon="15.725360529011638"><ele>759.0</ele><time>2026-04-18T14:59:00.999Z</time></trkpt><trkpt lat="38.031095437453196" lon="15.72535887211"><ele>759.0</ele><time>2026-04-18T14:59:02.999Z</time></trkpt><trkpt lat="38.03102998597689" lon="15.725373910324715"><ele>759.0</ele><time>2026-04-18T14:59:03.999Z</time></trkpt><trkpt lat="38.03095753347918" lon="15.725385744382024"><ele>759.0</ele><time>2026-04-18T14:59:04.999Z</time></trkpt><trkpt lat="38.03088516727083" lon="15.725419425971555"><ele>759.0</ele><time>2026-04-18T14:59:05.999Z</time></trkpt><trkpt lat="38.030819844841886" lon="15.725443767091871"><ele>759.0</ele><time>2026-04-18T14:59:06.999Z</time></trkpt><trkpt lat="38.030780726335436" lon="15.72552951918834"><ele>762.0</ele><time>2026-04-18T14:59:07.999Z</time></trkpt><trkpt lat="38.0307501316331" lon="15.725619491529049"><ele>765.0</ele><time>2026-04-18T14:59:08.999Z</time></trkpt><trkpt lat="38.030720844802445" lon="15.725707563021533"><ele>768.0</ele><time>2026-04-18T14:59:09.999Z</time></trkpt><trkpt lat="38.030679668105336" lon="15.725796878303942"><ele>771.0</ele><time>2026-04-18T14:59:10.999Z</time></trkpt><trkpt lat="38.03062071587406" lon="15.725853082788012"><ele>774.0</ele><time>2026-04-18T14:59:11.999Z</time></trkpt><trkpt lat="38.030562415119675" lon="15.725927365681843"><ele>777.0</ele><time>2026-04-18T14:59:12.999Z</time></trkpt><trkpt lat="38.03051876561377" lon="15.726004847579466"><ele>778.3333333333334</ele><time>2026-04-18T14:59:13.999Z</time></trkpt><trkpt lat="38.030516361785075" lon="15.726120412172282"><ele>779.6666666666667</ele><time>2026-04-18T14:59:14.999Z</time></trkpt><trkpt lat="38.03049843049261" lon="15.726214219098065"><ele>781.0</ele><time>2026-04-18T14:59:15.999Z</time></trkpt><trkpt lat="38.03045431574789" lon="15.726300163304863"><ele>782.3333333333334</ele><time>2026-04-18T14:59:16.999Z</time></trkpt><trkpt lat="38.03041823664945" lon="15.726366708965026"><ele>783.6666666666667</ele><time>2026-04-18T14:59:17.999Z</time></trkpt><trkpt lat="38.03035113611918" lon="15.726469361249665"><ele>785.0</ele><time>2026-04-18T14:59:19.999Z</time></trkpt><trkpt lat="38.03029099729465" lon="15.726527014703233"><ele>785.0000000000001</ele><time>2026-04-18T14:59:20.999Z</time></trkpt><trkpt lat="38.03022116894139" lon="15.726567683151277"><ele>785.0</ele><time>2026-04-18T14:59:21.999Z</time></trkpt><trkpt lat="38.03015990201667" lon="15.726634689426227"><ele>785.0</ele><time>2026-04-18T14:59:22.999Z</time></trkpt><trkpt lat="38.03009939277152" lon="15.726712636847008"><ele>785.0</ele><time>2026-04-18T14:59:23.999Z</time></trkpt><trkpt lat="38.030040750433244" lon="15.726784884065246"><ele>785.0000000000001</ele><time>2026-04-18T14:59:24.999Z</time></trkpt><trkpt lat="38.02997889592098" lon="15.726852865256998"><ele>785.0</ele><time>2026-04-18T14:59:25.999Z</time></trkpt><trkpt lat="38.029941193368174" lon="15.726957769288182"><ele>786.6666666666667</ele><time>2026-04-18T14:59:26.999Z</time></trkpt><trkpt lat="38.029900530201495" lon="15.72704197487297"><ele>788.3333333333334</ele><time>2026-04-18T14:59:27.999Z</time></trkpt><trkpt lat="38.02984434709213" lon="15.727097468371912"><ele>790.0</ele><time>2026-04-18T14:59:28.999Z</time></trkpt><trkpt lat="38.02974247594785" lon="15.727153054381859"><ele>791.6666666666667</ele><time>2026-04-18T14:59:30.999Z</time></trkpt><trkpt lat="38.0296776189178" lon="15.727208919448781"><ele>793.3333333333334</ele><time>2026-04-18T14:59:31.999Z</time></trkpt><trkpt lat="38.02960840210369" lon="15.727249257409845"><ele>795.0</ele><time>2026-04-18T14:59:32.999Z</time></trkpt><trkpt lat="38.02955442489624" lon="15.727293272283719"><ele>795.0</ele><time>2026-04-18T14:59:33.999Z</time></trkpt><trkpt lat="38.0294875272465" lon="15.727321773301242"><ele>795.0</ele><time>2026-04-18T14:59:34.999Z</time></trkpt><trkpt lat="38.029416904624384" lon="15.727339884529776"><ele>795.0</ele><time>2026-04-18T14:59:35.999Z</time></trkpt><trkpt lat="38.02932579419343" lon="15.72736665975891"><ele>795.0</ele><time>2026-04-18T14:59:36.999Z</time></trkpt><trkpt lat="38.02924595102435" lon="15.72739424327521"><ele>795.0</ele><time>2026-04-18T14:59:37.999Z</time></trkpt><trkpt lat="38.02916065007102" lon="15.727440004592367"><ele>795.0</ele><time>2026-04-18T14:59:38.999Z</time></trkpt><trkpt lat="38.02907546652702" lon="15.727497715762311"><ele>795.5</ele><time>2026-04-18T14:59:39.999Z</time></trkpt><trkpt lat="38.028991211343204" lon="15.727557222867695"><ele>796.0</ele><time>2026-04-18T14:59:40.999Z</time></trkpt><trkpt lat="38.028911398324716" lon="15.72759556963616"><ele>796.5</ele><time>2026-04-18T14:59:41.999Z</time></trkpt><trkpt lat="38.02884456660396" lon="15.72763217620899"><ele>797.0</ele><time>2026-04-18T14:59:42.999Z</time></trkpt><trkpt lat="38.02876221420206" lon="15.727656907712662"><ele>797.5</ele><time>2026-04-18T14:59:43.999Z</time></trkpt><trkpt lat="38.02869090519923" lon="15.72768395537069"><ele>798.0</ele><time>2026-04-18T14:59:44.999Z</time></trkpt><trkpt lat="38.02861449498487" lon="15.727728377098993"><ele>798.6666666666666</ele><time>2026-04-18T14:59:45.999Z</time></trkpt><trkpt lat="38.028553828572676" lon="15.727791592721479"><ele>799.3333333333333</ele><time>2026-04-18T14:59:46.999Z</time></trkpt><trkpt lat="38.028473374462415" lon="15.72786001599517"><ele>800.0</ele><time>2026-04-18T14:59:47.999Z</time></trkpt><trkpt lat="38.02841369378372" lon="15.727940532230672"><ele>800.6666666666666</ele><time>2026-04-18T14:59:48.999Z</time></trkpt><trkpt lat="38.02835202669549" lon="15.728006687992279"><ele>801.3333333333333</ele><time>2026-04-18T14:59:49.999Z</time></trkpt><trkpt lat="38.02827879426461" lon="15.728057634522118"><ele>802.0</ele><time>2026-04-18T14:59:50.999Z</time></trkpt><trkpt lat="38.028189858646556" lon="15.72803285180975"><ele>803.2</ele><time>2026-04-18T14:59:51.999Z</time></trkpt><trkpt lat="38.02809983656059" lon="15.728136638504314"><ele>804.4000000000001</ele><time>2026-04-18T14:59:52.999Z</time></trkpt><trkpt lat="38.02800661516961" lon="15.728168305109564"><ele>805.5999999999999</ele><time>2026-04-18T14:59:53.999Z</time></trkpt><trkpt lat="38.02791914158115" lon="15.72820733161689"><ele>806.8</ele><time>2026-04-18T14:59:54.999Z</time></trkpt><trkpt lat="38.027829699009025" lon="15.728256493802295"><ele>808.0</ele><time>2026-04-18T14:59:55.999Z</time></trkpt><trkpt lat="38.02773775223712" lon="15.728296158492675"><ele>807.9999999999999</ele><time>2026-04-18T14:59:56.999Z</time></trkpt><trkpt lat="38.02767426851266" lon="15.728376730064987"><ele>808.0</ele><time>2026-04-18T14:59:57.999Z</time></trkpt><trkpt lat="38.02761754788735" lon="15.728453934459733"><ele>808.0</ele><time>2026-04-18T14:59:58.999Z</time></trkpt><trkpt lat="38.02758305044225" lon="15.728544180443793"><ele>808.0</ele><time>2026-04-18T14:59:59.999Z</time></trkpt><trkpt lat="38.02756477178996" lon="15.728641135960823"><ele>807.9999999999999</ele><time>2026-04-18T15:00:00.999Z</time></trkpt><trkpt lat="38.027573767591925" lon="15.728749545297182"><ele>808.0</ele><time>2026-04-18T15:00:01.999Z</time></trkpt><trkpt lat="38.0276063711725" lon="15.728831521792912"><ele>808.3333333333333</ele><time>2026-04-18T15:00:02.999Z</time></trkpt><trkpt lat="38.027667233035466" lon="15.728969210691337"><ele>808.6666666666666</ele><time>2026-04-18T15:00:05Z</time></trkpt><trkpt lat="38.027711909979246" lon="15.72904360183675"><ele>809.0</ele><time>2026-04-18T15:00:06Z</time></trkpt><trkpt lat="38.027760815257984" lon="15.729099155578188"><ele>809.3333333333333</ele><time>2026-04-18T15:00:07Z</time></trkpt><trkpt lat="38.02781451372993" lon="15.72914671929735"><ele>809.6666666666666</ele><time>2026-04-18T15:00:08Z</time></trkpt><trkpt lat="38.02785739823773" lon="15.729213245611911"><ele>810.0</ele><time>2026-04-18T15:00:09Z</time></trkpt><trkpt lat="38.02790372071466" lon="15.729279189426446"><ele>810.0</ele><time>2026-04-18T15:00:10Z</time></trkpt><trkpt lat="38.02796025348282" lon="15.72934555359612"><ele>810.0</ele><time>2026-04-18T15:00:11Z</time></trkpt><trkpt lat="38.02802217312337" lon="15.729400306279686"><ele>810.0</ele><time>2026-04-18T15:00:12Z</time></trkpt><trkpt lat="38.0280998239987" lon="15.729433967924182"><ele>810.0</ele><time>2026-04-18T15:00:13Z</time></trkpt><trkpt lat="38.02817448685101" lon="15.729485289801511"><ele>810.0</ele><time>2026-04-18T15:00:14Z</time></trkpt><trkpt lat="38.02824381502347" lon="15.729514941480227"><ele>810.0</ele><time>2026-04-18T15:00:15Z</time></trkpt><trkpt lat="38.0283090392495" lon="15.72956560643812"><ele>809.8333333333334</ele><time>2026-04-18T15:00:16Z</time></trkpt><trkpt lat="38.028364698719464" lon="15.729641563644444"><ele>809.6666666666667</ele><time>2026-04-18T15:00:17Z</time></trkpt><trkpt lat="38.02840629340925" lon="15.729725207236195"><ele>809.5</ele><time>2026-04-18T15:00:18Z</time></trkpt><trkpt lat="38.02844214038506" lon="15.729817369524435"><ele>809.3333333333334</ele><time>2026-04-18T15:00:19Z</time></trkpt><trkpt lat="38.02847201676884" lon="15.729911063220632"><ele>809.1666666666667</ele><time>2026-04-18T15:00:20Z</time></trkpt><trkpt lat="38.02849611782054" lon="15.730006430124181"><ele>809.0</ele><time>2026-04-18T15:00:21Z</time></trkpt><trkpt lat="38.02850345296382" lon="15.730098553156273"><ele>809.0000000000001</ele><time>2026-04-18T15:00:22Z</time></trkpt><trkpt lat="38.02851540062221" lon="15.730196450129556"><ele>809.0</ele><time>2026-04-18T15:00:23Z</time></trkpt><trkpt lat="38.02849776242321" lon="15.730293678983381"><ele>809.0</ele><time>2026-04-18T15:00:24Z</time></trkpt><trkpt lat="38.02846294614395" lon="15.730384012013038"><ele>809.0</ele><time>2026-04-18T15:00:25Z</time></trkpt><trkpt lat="38.02844385170935" lon="15.730479753665152"><ele>809.0000000000001</ele><time>2026-04-18T15:00:26Z</time></trkpt><trkpt lat="38.02841708751965" lon="15.730631852203924"><ele>809.0</ele><time>2026-04-18T15:00:28Z</time></trkpt><trkpt lat="38.02843717892656" lon="15.73073160557978"><ele>808.1666666666667</ele><time>2026-04-18T15:00:29Z</time></trkpt><trkpt lat="38.02843160648353" lon="15.730831998536072"><ele>807.3333333333334</ele><time>2026-04-18T15:00:30Z</time></trkpt><trkpt lat="38.02844099446787" lon="15.730927803635787"><ele>806.5</ele><time>2026-04-18T15:00:31Z</time></trkpt><trkpt lat="38.02847019579347" lon="15.731023449210584"><ele>805.6666666666667</ele><time>2026-04-18T15:00:32Z</time></trkpt><trkpt lat="38.02849492018345" lon="15.731116721048695"><ele>804.8333333333334</ele><time>2026-04-18T15:00:33Z</time></trkpt><trkpt lat="38.02854215981754" lon="15.731197585243843"><ele>804.0</ele><time>2026-04-18T15:00:34Z</time></trkpt><trkpt lat="38.02860870157206" lon="15.731254281769527"><ele>803.0</ele><time>2026-04-18T15:00:35Z</time></trkpt><trkpt lat="38.0286602792319" lon="15.731323841439243"><ele>802.0</ele><time>2026-04-18T15:00:36Z</time></trkpt><trkpt lat="38.028712800283834" lon="15.731394022172855"><ele>801.0</ele><time>2026-04-18T15:00:37Z</time></trkpt><trkpt lat="38.02875574710328" lon="15.731479245302033"><ele>800.0</ele><time>2026-04-18T15:00:38Z</time></trkpt><trkpt lat="38.02878776529569" lon="15.731583960210976"><ele>799.0</ele><time>2026-04-18T15:00:39Z</time></trkpt><trkpt lat="38.02882906582854" lon="15.731679560939721"><ele>798.0</ele><time>2026-04-18T15:00:40Z</time></trkpt><trkpt lat="38.02885907327992" lon="15.731754887592754"><ele>798.0</ele><time>2026-04-18T15:00:41Z</time></trkpt><trkpt lat="38.028873458834745" lon="15.73183376683991"><ele>798.0</ele><time>2026-04-18T15:00:42Z</time></trkpt><trkpt lat="38.02886045292565" lon="15.731918294812518"><ele>798.0</ele><time>2026-04-18T15:00:43Z</time></trkpt><trkpt lat="38.028842282982794" lon="15.732019247954323"><ele>798.0</ele><time>2026-04-18T15:00:44Z</time></trkpt><trkpt lat="38.0288208096184" lon="15.732120056856406"><ele>798.0</ele><time>2026-04-18T15:00:45Z</time></trkpt><trkpt lat="38.028790305087504" lon="15.732214113570501"><ele>798.0</ele><time>2026-04-18T15:00:46Z</time></trkpt><trkpt lat="38.02876223650828" lon="15.732304764158645"><ele>798.6666666666666</ele><time>2026-04-18T15:00:47Z</time></trkpt><trkpt lat="38.02872907610039" lon="15.732380286857397"><ele>799.3333333333333</ele><time>2026-04-18T15:00:48Z</time></trkpt><trkpt lat="38.02868450949847" lon="15.732462277524142"><ele>800.0</ele><time>2026-04-18T15:00:49Z</time></trkpt><trkpt lat="38.028643909973944" lon="15.732565933240405"><ele>800.6666666666666</ele><time>2026-04-18T15:00:50Z</time></trkpt><trkpt lat="38.028577725859314" lon="15.732648736150747"><ele>801.3333333333333</ele><time>2026-04-18T15:00:51Z</time></trkpt><trkpt lat="38.02853145908203" lon="15.732737269570011"><ele>802.0</ele><time>2026-04-18T15:00:52Z</time></trkpt><trkpt lat="38.02849012553411" lon="15.732819900486936"><ele>802.3333333333333</ele><time>2026-04-18T15:00:53Z</time></trkpt><trkpt lat="38.02843749158558" lon="15.732865792622302"><ele>802.6666666666666</ele><time>2026-04-18T15:00:54Z</time></trkpt><trkpt lat="38.0283309194335" lon="15.732954597356896"><ele>803.0</ele><time>2026-04-18T15:00:56Z</time></trkpt><trkpt lat="38.02826214221273" lon="15.733010550101191"><ele>803.3333333333333</ele><time>2026-04-18T15:00:57Z</time></trkpt><trkpt lat="38.02818576712026" lon="15.733046212255271"><ele>803.6666666666666</ele><time>2026-04-18T15:00:58Z</time></trkpt><trkpt lat="38.0281132305676" lon="15.733084653871495"><ele>804.0</ele><time>2026-04-18T15:00:59Z</time></trkpt><trkpt lat="38.02804422852446" lon="15.733135311641723"><ele>802.5</ele><time>2026-04-18T15:01:00Z</time></trkpt><trkpt lat="38.02797321096787" lon="15.733193900982524"><ele>801.0</ele><time>2026-04-18T15:01:01Z</time></trkpt><trkpt lat="38.02790080871174" lon="15.733251382291204"><ele>799.5</ele><time>2026-04-18T15:01:02Z</time></trkpt><trkpt lat="38.0278292975581" lon="15.733321651227616"><ele>798.0</ele><time>2026-04-18T15:01:03Z</time></trkpt><trkpt lat="38.02776347639477" lon="15.733396626359252"><ele>796.5</ele><time>2026-04-18T15:01:04Z</time></trkpt><trkpt lat="38.027699951172046" lon="15.733473086405267"><ele>795.0</ele><time>2026-04-18T15:01:05Z</time></trkpt><trkpt lat="38.02763537374418" lon="15.733543006656532"><ele>794.5</ele><time>2026-04-18T15:01:06Z</time></trkpt><trkpt lat="38.02756352964126" lon="15.733601312917209"><ele>794.0</ele><time>2026-04-18T15:01:07Z</time></trkpt><trkpt lat="38.02748760751664" lon="15.733650829713131"><ele>793.5</ele><time>2026-04-18T15:01:08Z</time></trkpt><trkpt lat="38.027406657020286" lon="15.733696539324457"><ele>793.0</ele><time>2026-04-18T15:01:09Z</time></trkpt><trkpt lat="38.02732532833975" lon="15.733738465055907"><ele>792.5</ele><time>2026-04-18T15:01:10Z</time></trkpt><trkpt lat="38.02724476127916" lon="15.733787181144152"><ele>792.0</ele><time>2026-04-18T15:01:11Z</time></trkpt><trkpt lat="38.02715735187398" lon="15.733844679771934"><ele>790.2</ele><time>2026-04-18T15:01:12Z</time></trkpt><trkpt lat="38.02706180766109" lon="15.733904757938841"><ele>788.4000000000001</ele><time>2026-04-18T15:01:13Z</time></trkpt><trkpt lat="38.026973182287925" lon="15.733968079472813"><ele>786.5999999999999</ele><time>2026-04-18T15:01:14Z</time></trkpt><trkpt lat="38.02689647568722" lon="15.73403293197222"><ele>784.8</ele><time>2026-04-18T15:01:15Z</time></trkpt><trkpt lat="38.02682790013865" lon="15.734105758616863"><ele>783.0</ele><time>2026-04-18T15:01:16Z</time></trkpt><trkpt lat="38.0267747642506" lon="15.73417767715906"><ele>783.0</ele><time>2026-04-18T15:01:17Z</time></trkpt><trkpt lat="38.02672645340953" lon="15.73424480651937"><ele>783.0</ele><time>2026-04-18T15:01:18Z</time></trkpt><trkpt lat="38.02666961029229" lon="15.734305058827928"><ele>783.0</ele><time>2026-04-18T15:01:19Z</time></trkpt><trkpt lat="38.02660553753066" lon="15.734361274996136"><ele>783.0</ele><time>2026-04-18T15:01:20Z</time></trkpt><trkpt lat="38.026541264495314" lon="15.734409207926896"><ele>783.0</ele><time>2026-04-18T15:01:21Z</time></trkpt><trkpt lat="38.026476919978414" lon="15.73448262746256"><ele>783.0</ele><time>2026-04-18T15:01:22Z</time></trkpt><trkpt lat="38.02641416062112" lon="15.734530359877112"><ele>785.3333333333334</ele><time>2026-04-18T15:01:23Z</time></trkpt><trkpt lat="38.02635447499654" lon="15.734585237370778"><ele>787.6666666666667</ele><time>2026-04-18T15:01:24Z</time></trkpt><trkpt lat="38.026299466770176" lon="15.734639551500408"><ele>790.0</ele><time>2026-04-18T15:01:25Z</time></trkpt><trkpt lat="38.0262394694188" lon="15.734695265274791"><ele>792.3333333333334</ele><time>2026-04-18T15:01:26Z</time></trkpt><trkpt lat="38.026156910617495" lon="15.734723404557341"><ele>794.6666666666667</ele><time>2026-04-18T15:01:27Z</time></trkpt><trkpt lat="38.02607495616172" lon="15.73471471437068"><ele>797.0</ele><time>2026-04-18T15:01:28Z</time></trkpt><trkpt lat="38.025989659188056" lon="15.734692672334274"><ele>797.0000000000001</ele><time>2026-04-18T15:01:29Z</time></trkpt><trkpt lat="38.02590583614051" lon="15.73469286886121"><ele>797.0</ele><time>2026-04-18T15:01:30Z</time></trkpt><trkpt lat="38.02582190797902" lon="15.734710453646963"><ele>797.0</ele><time>2026-04-18T15:01:31Z</time></trkpt><trkpt lat="38.02577205056119" lon="15.734781931855645"><ele>797.0</ele><time>2026-04-18T15:01:32Z</time></trkpt><trkpt lat="38.02573817467993" lon="15.73485898149807"><ele>797.0000000000001</ele><time>2026-04-18T15:01:33Z</time></trkpt><trkpt lat="38.025689395679024" lon="15.734951877227944"><ele>797.0</ele><time>2026-04-18T15:01:34Z</time></trkpt><trkpt lat="38.025648140323575" lon="15.735055815299315"><ele>797.2</ele><time>2026-04-18T15:01:35Z</time></trkpt><trkpt lat="38.02558335170562" lon="15.735131187060405"><ele>797.4000000000001</ele><time>2026-04-18T15:01:36Z</time></trkpt><trkpt lat="38.02550021246744" lon="15.735189783806975"><ele>797.5999999999999</ele><time>2026-04-18T15:01:37Z</time></trkpt><trkpt lat="38.02540760152367" lon="15.73525102457752"><ele>797.8</ele><time>2026-04-18T15:01:38Z</time></trkpt><trkpt lat="38.02531215921866" lon="15.735297152965016"><ele>798.0</ele><time>2026-04-18T15:01:39Z</time></trkpt><trkpt lat="38.02522049895736" lon="15.73534331051351"><ele>798.1428571428571</ele><time>2026-04-18T15:01:40Z</time></trkpt><trkpt lat="38.025147407467344" lon="15.735390124505411"><ele>798.2857142857142</ele><time>2026-04-18T15:01:41Z</time></trkpt><trkpt lat="38.025102051510146" lon="15.735458043770441"><ele>798.4285714285714</ele><time>2026-04-18T15:01:42Z</time></trkpt><trkpt lat="38.02505292450257" lon="15.735509660745224"><ele>798.5714285714286</ele><time>2026-04-18T15:01:43Z</time></trkpt><trkpt lat="38.025007368219235" lon="15.735565281247878"><ele>798.7142857142857</ele><time>2026-04-18T15:01:44Z</time></trkpt><trkpt lat="38.0249560424178" lon="15.73562653423527"><ele>798.8571428571429</ele><time>2026-04-18T15:01:45Z</time></trkpt><trkpt lat="38.02490653954668" lon="15.735694503787489"><ele>799.0</ele><time>2026-04-18T15:01:46Z</time></trkpt><trkpt lat="38.02482909998931" lon="15.735808898645272"><ele>798.9999999999999</ele><time>2026-04-18T15:01:48Z</time></trkpt><trkpt lat="38.02479466712443" lon="15.735877871247888"><ele>799.0</ele><time>2026-04-18T15:01:49Z</time></trkpt><trkpt lat="38.02475946912417" lon="15.735995944863314"><ele>799.0</ele><time>2026-04-18T15:01:51Z</time></trkpt><trkpt lat="38.02474506775109" lon="15.736091170798511"><ele>799.0</ele><time>2026-04-18T15:01:52Z</time></trkpt><trkpt lat="38.02472850431333" lon="15.736181420930826"><ele>798.9999999999999</ele><time>2026-04-18T15:01:53Z</time></trkpt><trkpt lat="38.02472100365169" lon="15.73626182404557"><ele>799.0</ele><time>2026-04-18T15:01:54Z</time></trkpt><trkpt lat="38.02470275221227" lon="15.736399404654422"><ele>800.6</ele><time>2026-04-18T15:01:56Z</time></trkpt><trkpt lat="38.02466752019398" lon="15.736524923649265"><ele>802.2</ele><time>2026-04-18T15:01:58Z</time></trkpt><trkpt lat="38.02458302551808" lon="15.736607216448606"><ele>803.8000000000001</ele><time>2026-04-18T15:02:00Z</time></trkpt><trkpt lat="38.024514630278446" lon="15.736640658545689"><ele>805.4000000000001</ele><time>2026-04-18T15:02:01Z</time></trkpt><trkpt lat="38.024430265477186" lon="15.736730492312995"><ele>807.0</ele><time>2026-04-18T15:02:03Z</time></trkpt><trkpt lat="38.02434244198607" lon="15.736794013040575"><ele>807.0</ele><time>2026-04-18T15:02:05Z</time></trkpt><trkpt lat="38.02429093517443" lon="15.736840353415856"><ele>807.0</ele><time>2026-04-18T15:02:06Z</time></trkpt><trkpt lat="38.0242329858871" lon="15.73689265808038"><ele>807.0</ele><time>2026-04-18T15:02:07Z</time></trkpt><trkpt lat="38.02415145718175" lon="15.736959245868059"><ele>807.0</ele><time>2026-04-18T15:02:08Z</time></trkpt><trkpt lat="38.024073491634084" lon="15.737016633000696"><ele>807.0</ele><time>2026-04-18T15:02:09Z</time></trkpt><trkpt lat="38.02397236464064" lon="15.737078023958592"><ele>807.0</ele><time>2026-04-18T15:02:11Z</time></trkpt><trkpt lat="38.02389454755872" lon="15.73719679631404"><ele>809.6</ele><time>2026-04-18T15:02:13Z</time></trkpt><trkpt lat="38.02384539493549" lon="15.737295721768113"><ele>812.2</ele><time>2026-04-18T15:02:15Z</time></trkpt><trkpt lat="38.02375389595815" lon="15.73732727914858"><ele>814.8</ele><time>2026-04-18T15:02:17Z</time></trkpt><trkpt lat="38.023639588685086" lon="15.737316294125991"><ele>817.4</ele><time>2026-04-18T15:02:19Z</time></trkpt><trkpt lat="38.02352481300759" lon="15.737290690864418"><ele>820.0</ele><time>2026-04-18T15:02:21Z</time></trkpt><trkpt lat="38.023406419203134" lon="15.737260361434073"><ele>820.0</ele><time>2026-04-18T15:02:23Z</time></trkpt><trkpt lat="38.0233352009734" lon="15.73721730837119"><ele>820.0</ele><time>2026-04-18T15:02:24Z</time></trkpt><trkpt lat="38.02326861143239" lon="15.737170046486803"><ele>820.0</ele><time>2026-04-18T15:02:25Z</time></trkpt><trkpt lat="38.023197805276695" lon="15.737130738921318"><ele>820.0</ele><time>2026-04-18T15:02:26Z</time></trkpt><trkpt lat="38.02312975637783" lon="15.737100347863292"><ele>820.0</ele><time>2026-04-18T15:02:27Z</time></trkpt><trkpt lat="38.02306379454684" lon="15.737072858893974"><ele>820.0</ele><time>2026-04-18T15:02:28Z</time></trkpt><trkpt lat="38.023001898123816" lon="15.737047981185402"><ele>820.0</ele><time>2026-04-18T15:02:29Z</time></trkpt><trkpt lat="38.02289032487803" lon="15.73703586314559"><ele>818.6666666666666</ele><time>2026-04-18T15:02:31Z</time></trkpt><trkpt lat="38.022782472641424" lon="15.73705112181055"><ele>817.3333333333333</ele><time>2026-04-18T15:02:33Z</time></trkpt><trkpt lat="38.02269627995906" lon="15.737030976076314"><ele>816.0</ele><time>2026-04-18T15:02:35Z</time></trkpt><trkpt lat="38.02264119010422" lon="15.73697086667507"><ele>814.6666666666667</ele><time>2026-04-18T15:02:37Z</time></trkpt><trkpt lat="38.0225776804146" lon="15.736887655273076"><ele>813.3333333333334</ele><time>2026-04-18T15:02:39Z</time></trkpt><trkpt lat="38.022505703635744" lon="15.736824929762696"><ele>812.0</ele><time>2026-04-18T15:02:41Z</time></trkpt><trkpt lat="38.02243520886707" lon="15.736771930704714"><ele>810.0</ele><time>2026-04-18T15:02:43Z</time></trkpt><trkpt lat="38.02235544718633" lon="15.736720138706914"><ele>808.0</ele><time>2026-04-18T15:02:45Z</time></trkpt><trkpt lat="38.02227387330254" lon="15.73669683048391"><ele>806.0</ele><time>2026-04-18T15:02:47Z</time></trkpt><trkpt lat="38.02216186540348" lon="15.736679347229643"><ele>804.0</ele><time>2026-04-18T15:02:49Z</time></trkpt><trkpt lat="38.022043314792946" lon="15.736672915549546"><ele>802.0</ele><time>2026-04-18T15:02:51Z</time></trkpt><trkpt lat="38.02197339626594" lon="15.736664634119391"><ele>802.0</ele><time>2026-04-18T15:02:52Z</time></trkpt><trkpt lat="38.02188075360756" lon="15.736661051329802"><ele>802.0</ele><time>2026-04-18T15:02:54Z</time></trkpt><trkpt lat="38.0217904888627" lon="15.73666883458056"><ele>802.0</ele><time>2026-04-18T15:02:56Z</time></trkpt><trkpt lat="38.02167503584937" lon="15.736715612835228"><ele>802.0</ele><time>2026-04-18T15:02:58Z</time></trkpt><trkpt lat="38.021622446766074" lon="15.73676946013745"><ele>802.0</ele><time>2026-04-18T15:02:59Z</time></trkpt><trkpt lat="38.02151194729255" lon="15.736877946675033"><ele>800.8333333333333</ele><time>2026-04-18T15:03:01Z</time></trkpt><trkpt lat="38.021449726508635" lon="15.736929890027584"><ele>799.6666666666666</ele><time>2026-04-18T15:03:02Z</time></trkpt><trkpt lat="38.021383981725165" lon="15.73696782905144"><ele>798.5</ele><time>2026-04-18T15:03:03Z</time></trkpt><trkpt lat="38.02132554316501" lon="15.737003821028724"><ele>797.3333333333333</ele><time>2026-04-18T15:03:04Z</time></trkpt><trkpt lat="38.021274362011795" lon="15.737122897835974"><ele>796.1666666666666</ele><time>2026-04-18T15:03:06Z</time></trkpt><trkpt lat="38.02126022623966" lon="15.7372676144735"><ele>795.0</ele><time>2026-04-18T15:03:08Z</time></trkpt><trkpt lat="38.021239175492966" lon="15.737399445204773"><ele>795.0</ele><time>2026-04-18T15:03:10Z</time></trkpt><trkpt lat="38.02113291744032" lon="15.737494831026815"><ele>795.0</ele><time>2026-04-18T15:03:12Z</time></trkpt><trkpt lat="38.02102968560091" lon="15.737524971347868"><ele>795.0</ele><time>2026-04-18T15:03:14Z</time></trkpt><trkpt lat="38.02090842538438" lon="15.737477907817942"><ele>795.0</ele><time>2026-04-18T15:03:16Z</time></trkpt><trkpt lat="38.020845014262804" lon="15.737456991089427"><ele>795.0</ele><time>2026-04-18T15:03:17Z</time></trkpt><trkpt lat="38.020726652495966" lon="15.737407680354945"><ele>796.8333333333334</ele><time>2026-04-18T15:03:19Z</time></trkpt><trkpt lat="38.02060385529816" lon="15.737372987555963"><ele>798.6666666666667</ele><time>2026-04-18T15:03:21Z</time></trkpt><trkpt lat="38.020537802603926" lon="15.737367845329903"><ele>800.5</ele><time>2026-04-18T15:03:22Z</time></trkpt><trkpt lat="38.020471357270104" lon="15.73737402738211"><ele>802.3333333333334</ele><time>2026-04-18T15:03:23Z</time></trkpt><trkpt lat="38.02041185469833" lon="15.737404662108457"><ele>804.1666666666667</ele><time>2026-04-18T15:03:24Z</time></trkpt><trkpt lat="38.02036599146627" lon="15.737473140670605"><ele>806.0</ele><time>2026-04-18T15:03:25Z</time></trkpt><trkpt lat="38.02032804334006" lon="15.737558365988344"><ele>806.0000000000001</ele><time>2026-04-18T15:03:26Z</time></trkpt><trkpt lat="38.020289669728555" lon="15.73765214007312"><ele>806.0</ele><time>2026-04-18T15:03:27Z</time></trkpt><trkpt lat="38.02024468201612" lon="15.737748131913419"><ele>806.0</ele><time>2026-04-18T15:03:28Z</time></trkpt><trkpt lat="38.0201921420219" lon="15.7378379671048"><ele>806.0</ele><time>2026-04-18T15:03:29Z</time></trkpt><trkpt lat="38.02013657772203" lon="15.737914312204722"><ele>806.0000000000001</ele><time>2026-04-18T15:03:30Z</time></trkpt><trkpt lat="38.020079371087014" lon="15.73799024349771"><ele>806.0</ele><time>2026-04-18T15:03:31Z</time></trkpt><trkpt lat="38.02001937193972" lon="15.738066241616956"><ele>806.3333333333334</ele><time>2026-04-18T15:03:32Z</time></trkpt><trkpt lat="38.01996524063766" lon="15.738145626867176"><ele>806.6666666666667</ele><time>2026-04-18T15:03:33Z</time></trkpt><trkpt lat="38.019912297515205" lon="15.738228341413043"><ele>807.0</ele><time>2026-04-18T15:03:34Z</time></trkpt><trkpt lat="38.01984977346798" lon="15.738303689849424"><ele>807.3333333333333</ele><time>2026-04-18T15:03:35Z</time></trkpt><trkpt lat="38.01977956084606" lon="15.738373308192763"><ele>807.6666666666666</ele><time>2026-04-18T15:03:36Z</time></trkpt><trkpt lat="38.01969981113905" lon="15.738427955460116"><ele>808.0</ele><time>2026-04-18T15:03:37Z</time></trkpt><trkpt lat="38.019624115974594" lon="15.738472167608462"><ele>807.9999999999999</ele><time>2026-04-18T15:03:38Z</time></trkpt><trkpt lat="38.0195518449454" lon="15.738519657555663"><ele>808.0</ele><time>2026-04-18T15:03:39Z</time></trkpt><trkpt lat="38.01948501425166" lon="15.738565001063769"><ele>808.0</ele><time>2026-04-18T15:03:40Z</time></trkpt><trkpt lat="38.019425962401" lon="15.738625012481284"><ele>808.0</ele><time>2026-04-18T15:03:41Z</time></trkpt><trkpt lat="38.019369976579014" lon="15.738712376668335"><ele>807.9999999999999</ele><time>2026-04-18T15:03:42Z</time></trkpt><trkpt lat="38.01931440763023" lon="15.738806460204462"><ele>808.0</ele><time>2026-04-18T15:03:43.001Z</time></trkpt><trkpt lat="38.019256123659424" lon="15.738864007250488"><ele>807.9999999999999</ele><time>2026-04-18T15:03:44.001Z</time></trkpt><trkpt lat="38.019200781699595" lon="15.73892011701929"><ele>808.0</ele><time>2026-04-18T15:03:45.001Z</time></trkpt><trkpt lat="38.01915173468709" lon="15.738983579898807"><ele>808.0</ele><time>2026-04-18T15:03:47.001Z</time></trkpt><trkpt lat="38.01903683481557" lon="15.73896449125401"><ele>808.0</ele><time>2026-04-18T15:04:02Z</time></trkpt><trkpt lat="38.01897921711114" lon="15.738911638058855"><ele>807.9999999999999</ele><time>2026-04-18T15:04:03Z</time></trkpt><trkpt lat="38.0189261869385" lon="15.738858254428662"><ele>808.0</ele><time>2026-04-18T15:04:04Z</time></trkpt><trkpt lat="38.01885976610679" lon="15.738809928026948"><ele>811.5999999999999</ele><time>2026-04-18T15:04:05Z</time></trkpt><trkpt lat="38.01879610734584" lon="15.738769044510466"><ele>815.1999999999999</ele><time>2026-04-18T15:04:06Z</time></trkpt><trkpt lat="38.01872061101792" lon="15.738733737128006"><ele>818.8</ele><time>2026-04-18T15:04:07Z</time></trkpt><trkpt lat="38.018650961477455" lon="15.738709561091373"><ele>822.4</ele><time>2026-04-18T15:04:08Z</time></trkpt><trkpt lat="38.01848643107649" lon="15.738701255927987"><ele>826.0</ele><time>2026-04-18T15:04:10Z</time></trkpt><trkpt lat="38.018378153296545" lon="15.73865500271435"><ele>829.0</ele><time>2026-04-18T15:04:11Z</time></trkpt><trkpt lat="38.01829594144444" lon="15.738617858062465"><ele>832.0</ele><time>2026-04-18T15:04:12Z</time></trkpt><trkpt lat="38.01823181134312" lon="15.73859871669685"><ele>835.0</ele><time>2026-04-18T15:04:13Z</time></trkpt><trkpt lat="38.0181528043785" lon="15.73855704064501"><ele>838.0</ele><time>2026-04-18T15:04:15Z</time></trkpt><trkpt lat="38.01816000828066" lon="15.738435973839625"><ele>841.0</ele><time>2026-04-18T15:04:17Z</time></trkpt><trkpt lat="38.018243276967844" lon="15.738282286130632"><ele>841.4999999999999</ele><time>2026-04-18T15:04:19Z</time></trkpt><trkpt lat="38.018316406058624" lon="15.738212042821104"><ele>842.0</ele><time>2026-04-18T15:04:20Z</time></trkpt><trkpt lat="38.0183693214882" lon="15.738135904848424"><ele>842.5</ele><time>2026-04-18T15:04:21Z</time></trkpt><trkpt lat="38.01839010143382" lon="15.738041080886765"><ele>843.0</ele><time>2026-04-18T15:04:22Z</time></trkpt><trkpt lat="38.018391948898646" lon="15.73792966235238"><ele>843.4999999999999</ele><time>2026-04-18T15:04:23Z</time></trkpt><trkpt lat="38.018367657858064" lon="15.737814704633534"><ele>844.0</ele><time>2026-04-18T15:04:24Z</time></trkpt><trkpt lat="38.018356391500966" lon="15.737678624190368"><ele>844.6</ele><time>2026-04-18T15:04:25Z</time></trkpt><trkpt lat="38.01833247985318" lon="15.737576932778783"><ele>845.2</ele><time>2026-04-18T15:04:26Z</time></trkpt><trkpt lat="38.01830706514833" lon="15.737485024781376"><ele>845.8000000000001</ele><time>2026-04-18T15:04:27Z</time></trkpt><trkpt lat="38.01824871456475" lon="15.737365259183077"><ele>846.4000000000001</ele><time>2026-04-18T15:04:29Z</time></trkpt><trkpt lat="38.01814971870976" lon="15.737246558158917"><ele>847.0</ele><time>2026-04-18T15:04:31Z</time></trkpt><trkpt lat="38.018089767072354" lon="15.737165590809678"><ele>846.9999999999999</ele><time>2026-04-18T15:04:32Z</time></trkpt><trkpt lat="38.01804497625022" lon="15.73709930562728"><ele>847.0</ele><time>2026-04-18T15:04:33Z</time></trkpt><trkpt lat="38.01798759093156" lon="15.736995194284944"><ele>847.0</ele><time>2026-04-18T15:04:34Z</time></trkpt><trkpt lat="38.01793551858574" lon="15.736905426021734"><ele>847.0</ele><time>2026-04-18T15:04:35Z</time></trkpt><trkpt lat="38.017883487460026" lon="15.736806816271054"><ele>846.9999999999999</ele><time>2026-04-18T15:04:36Z</time></trkpt><trkpt lat="38.01783137679218" lon="15.736717191815158"><ele>847.0</ele><time>2026-04-18T15:04:37Z</time></trkpt><trkpt lat="38.01778130705995" lon="15.73661898505353"><ele>845.4000000000001</ele><time>2026-04-18T15:04:38Z</time></trkpt><trkpt lat="38.01773045904985" lon="15.736500784253588"><ele>843.8000000000001</ele><time>2026-04-18T15:04:39Z</time></trkpt><trkpt lat="38.01768355301597" lon="15.73640297233353"><ele>842.2</ele><time>2026-04-18T15:04:40Z</time></trkpt><trkpt lat="38.01764251197759" lon="15.736298459553273"><ele>840.6</ele><time>2026-04-18T15:04:41Z</time></trkpt><trkpt lat="38.01759058352047" lon="15.736119760263152"><ele>839.0</ele><time>2026-04-18T15:04:42Z</time></trkpt><trkpt lat="38.01756494090804" lon="15.736011868189454"><ele>837.8000000000001</ele><time>2026-04-18T15:04:43Z</time></trkpt><trkpt lat="38.017553529621736" lon="15.735895489730614"><ele>836.6</ele><time>2026-04-18T15:04:44Z</time></trkpt><trkpt lat="38.017535661804466" lon="15.735764137660325"><ele>835.4</ele><time>2026-04-18T15:04:45Z</time></trkpt><trkpt lat="38.01751411280745" lon="15.735632031545268"><ele>834.2</ele><time>2026-04-18T15:04:46Z</time></trkpt><trkpt lat="38.017482348158595" lon="15.735509277625688"><ele>833.0</ele><time>2026-04-18T15:04:47Z</time></trkpt><trkpt lat="38.017449756984114" lon="15.735415662195534"><ele>833.0000000000001</ele><time>2026-04-18T15:04:48Z</time></trkpt><trkpt lat="38.01740416652971" lon="15.735360185884788"><ele>833.0</ele><time>2026-04-18T15:04:51Z</time></trkpt><trkpt lat="38.01737743782207" lon="15.735451926245023"><ele>833.0</ele><time>2026-04-18T15:04:54Z</time></trkpt><trkpt lat="38.017379648179656" lon="15.735535945588653"><ele>833.0</ele><time>2026-04-18T15:04:55Z</time></trkpt><trkpt lat="38.01737578551837" lon="15.735636228136702"><ele>833.0000000000001</ele><time>2026-04-18T15:04:56Z</time></trkpt><trkpt lat="38.01737921550828" lon="15.735742809141733"><ele>833.0</ele><time>2026-04-18T15:04:57Z</time></trkpt><trkpt lat="38.017380918013906" lon="15.735856824182711"><ele>833.0</ele><time>2026-04-18T15:04:58Z</time></trkpt><trkpt lat="38.01738159001226" lon="15.735967017123599"><ele>833.0</ele><time>2026-04-18T15:04:59Z</time></trkpt><trkpt lat="38.01737570143348" lon="15.73608750139482"><ele>833.0</ele><time>2026-04-18T15:05:00Z</time></trkpt><trkpt lat="38.01737341900238" lon="15.736207625815217"><ele>833.0</ele><time>2026-04-18T15:05:01Z</time></trkpt><trkpt lat="38.0173714481213" lon="15.736329111496257"><ele>833.0</ele><time>2026-04-18T15:05:02Z</time></trkpt><trkpt lat="38.01738082607913" lon="15.736456866398685"><ele>835.0</ele><time>2026-04-18T15:05:03Z</time></trkpt><trkpt lat="38.01737379563089" lon="15.736578558389875"><ele>837.0</ele><time>2026-04-18T15:05:04Z</time></trkpt><trkpt lat="38.017367596032834" lon="15.736703835850125"><ele>839.0</ele><time>2026-04-18T15:05:05Z</time></trkpt><trkpt lat="38.01737903899189" lon="15.736825502257865"><ele>841.0</ele><time>2026-04-18T15:05:06Z</time></trkpt><trkpt lat="38.01737982267611" lon="15.73694558820251"><ele>843.0</ele><time>2026-04-18T15:05:07Z</time></trkpt><trkpt lat="38.01736339882285" lon="15.737067799179858"><ele>844.2</ele><time>2026-04-18T15:05:08Z</time></trkpt><trkpt lat="38.01735428985805" lon="15.737195351849078"><ele>845.4</ele><time>2026-04-18T15:05:09Z</time></trkpt><trkpt lat="38.01733670015482" lon="15.737314354691609"><ele>846.6</ele><time>2026-04-18T15:05:10Z</time></trkpt><trkpt lat="38.01730973633326" lon="15.73742882883413"><ele>847.8000000000001</ele><time>2026-04-18T15:05:11Z</time></trkpt><trkpt lat="38.01728183621838" lon="15.737551033165758"><ele>849.0</ele><time>2026-04-18T15:05:12Z</time></trkpt><trkpt lat="38.01726803481031" lon="15.73767704418891"><ele>849.8000000000001</ele><time>2026-04-18T15:05:13Z</time></trkpt><trkpt lat="38.01724713017689" lon="15.737799602813705"><ele>850.6</ele><time>2026-04-18T15:05:14Z</time></trkpt><trkpt lat="38.01722989401688" lon="15.737920320606706"><ele>851.4</ele><time>2026-04-18T15:05:15Z</time></trkpt><trkpt lat="38.0172011493028" lon="15.738018767056705"><ele>852.2</ele><time>2026-04-18T15:05:16Z</time></trkpt><trkpt lat="38.01713364224715" lon="15.73811556211514"><ele>853.0</ele><time>2026-04-18T15:05:17Z</time></trkpt><trkpt lat="38.017087358684485" lon="15.738218427061273"><ele>853.0</ele><time>2026-04-18T15:05:18Z</time></trkpt><trkpt lat="38.01703494359998" lon="15.738318988856419"><ele>853.0</ele><time>2026-04-18T15:05:19Z</time></trkpt><trkpt lat="38.01696522485191" lon="15.738435856711332"><ele>853.0</ele><time>2026-04-18T15:05:20Z</time></trkpt><trkpt lat="38.01690427634922" lon="15.738531707566445"><ele>853.0</ele><time>2026-04-18T15:05:21Z</time></trkpt><trkpt lat="38.01685271160098" lon="15.73862701282322"><ele>853.0</ele><time>2026-04-18T15:05:22Z</time></trkpt><trkpt lat="38.01683178608468" lon="15.738737171233469"><ele>853.5999999999999</ele><time>2026-04-18T15:05:23Z</time></trkpt><trkpt lat="38.016795105153314" lon="15.73886609942839"><ele>854.1999999999999</ele><time>2026-04-18T15:05:24Z</time></trkpt><trkpt lat="38.016749460487134" lon="15.738985772619237"><ele>854.8</ele><time>2026-04-18T15:05:25Z</time></trkpt><trkpt lat="38.01672360800658" lon="15.739102435008974"><ele>855.4</ele><time>2026-04-18T15:05:26Z</time></trkpt><trkpt lat="38.01669330232567" lon="15.739226975601138"><ele>856.0</ele><time>2026-04-18T15:05:27Z</time></trkpt><trkpt lat="38.01668620831031" lon="15.739361616672168"><ele>856.4</ele><time>2026-04-18T15:05:28Z</time></trkpt><trkpt lat="38.01667882977818" lon="15.739485074860537"><ele>856.8</ele><time>2026-04-18T15:05:29Z</time></trkpt><trkpt lat="38.01665328508846" lon="15.739610169973213"><ele>857.1999999999999</ele><time>2026-04-18T15:05:30Z</time></trkpt><trkpt lat="38.016590408659184" lon="15.739725778715009"><ele>857.5999999999999</ele><time>2026-04-18T15:05:31Z</time></trkpt><trkpt lat="38.01657155229915" lon="15.739842441265903"><ele>858.0</ele><time>2026-04-18T15:05:32Z</time></trkpt><trkpt lat="38.0165460831563" lon="15.739948972535503"><ele>857.4</ele><time>2026-04-18T15:05:33Z</time></trkpt><trkpt lat="38.01652245491186" lon="15.740038282992987"><ele>856.8</ele><time>2026-04-18T15:05:34Z</time></trkpt><trkpt lat="38.0165240574635" lon="15.74015659664152"><ele>856.2</ele><time>2026-04-18T15:05:35Z</time></trkpt><trkpt lat="38.01648048567749" lon="15.740292653601134"><ele>855.6</ele><time>2026-04-18T15:05:36Z</time></trkpt><trkpt lat="38.016441485112075" lon="15.740448086786765"><ele>855.0</ele><time>2026-04-18T15:05:38Z</time></trkpt><trkpt lat="38.0164275027322" lon="15.740547530371247"><ele>855.0</ele><time>2026-04-18T15:05:39Z</time></trkpt><trkpt lat="38.01641127080353" lon="15.740637034990058"><ele>855.0</ele><time>2026-04-18T15:05:40Z</time></trkpt><trkpt lat="38.01640703964298" lon="15.740754662462844"><ele>855.0</ele><time>2026-04-18T15:05:41Z</time></trkpt><trkpt lat="38.01643317942958" lon="15.740841747722502"><ele>855.0</ele><time>2026-04-18T15:05:42Z</time></trkpt><trkpt lat="38.01644277004058" lon="15.7409322586034"><ele>855.0</ele><time>2026-04-18T15:05:43Z</time></trkpt><trkpt lat="38.01643425413895" lon="15.741016161665776"><ele>855.0</ele><time>2026-04-18T15:05:44Z</time></trkpt><trkpt lat="38.01639869079889" lon="15.741087562780631"><ele>855.0</ele><time>2026-04-18T15:05:45Z</time></trkpt><trkpt lat="38.01634679685075" lon="15.741162899194842"><ele>856.8333333333334</ele><time>2026-04-18T15:05:46Z</time></trkpt><trkpt lat="38.01628538407435" lon="15.741232958886197"><ele>858.6666666666667</ele><time>2026-04-18T15:05:47Z</time></trkpt><trkpt lat="38.01623398831595" lon="15.741318273854338"><ele>860.5</ele><time>2026-04-18T15:05:48Z</time></trkpt><trkpt lat="38.01618130008514" lon="15.741420381055283"><ele>862.3333333333334</ele><time>2026-04-18T15:05:49.001Z</time></trkpt><trkpt lat="38.016126917613995" lon="15.741494625359502"><ele>864.1666666666667</ele><time>2026-04-18T15:05:50.001Z</time></trkpt><trkpt lat="38.016068604832164" lon="15.741568652770932"><ele>866.0</ele><time>2026-04-18T15:05:51.001Z</time></trkpt><trkpt lat="38.01601881654153" lon="15.741657561260132"><ele>866.0</ele><time>2026-04-18T15:05:52.001Z</time></trkpt><trkpt lat="38.01594446588375" lon="15.741740707297335"><ele>865.9999999999999</ele><time>2026-04-18T15:05:54.001Z</time></trkpt><trkpt lat="38.015816486547095" lon="15.741787123383576"><ele>865.9999999999999</ele><time>2026-04-18T15:05:56.001Z</time></trkpt><trkpt lat="38.01574879532783" lon="15.741772781854507"><ele>866.0</ele><time>2026-04-18T15:05:57.001Z</time></trkpt><trkpt lat="38.015660643971934" lon="15.74177856635395"><ele>866.0</ele><time>2026-04-18T15:05:58.001Z</time></trkpt><trkpt lat="38.01559159837282" lon="15.741761489713257"><ele>866.6666666666667</ele><time>2026-04-18T15:05:59.001Z</time></trkpt><trkpt lat="38.0155582953187" lon="15.74167207822423"><ele>867.3333333333334</ele><time>2026-04-18T15:06:00.001Z</time></trkpt><trkpt lat="38.015494143416184" lon="15.741633628648172"><ele>868.0</ele><time>2026-04-18T15:06:01.001Z</time></trkpt><trkpt lat="38.015419101240056" lon="15.741615839637651"><ele>868.6666666666667</ele><time>2026-04-18T15:06:02.001Z</time></trkpt><trkpt lat="38.01533762872734" lon="15.741614756562406"><ele>869.3333333333334</ele><time>2026-04-18T15:06:03.001Z</time></trkpt><trkpt lat="38.015265557037715" lon="15.741639141707937"><ele>870.0</ele><time>2026-04-18T15:06:04.001Z</time></trkpt><trkpt lat="38.01513163425229" lon="15.741661905008979"><ele>870.0</ele><time>2026-04-18T15:06:06.001Z</time></trkpt><trkpt lat="38.01503483045581" lon="15.74167360208076"><ele>870.0</ele><time>2026-04-18T15:06:07.001Z</time></trkpt><trkpt lat="38.01495096412409" lon="15.741714239390046"><ele>870.0</ele><time>2026-04-18T15:06:08.001Z</time></trkpt><trkpt lat="38.01485152865821" lon="15.741738588498999"><ele>870.0</ele><time>2026-04-18T15:06:09.001Z</time></trkpt><trkpt lat="38.01476630289891" lon="15.74175257264232"><ele>870.0</ele><time>2026-04-18T15:06:10Z</time></trkpt><trkpt lat="38.014672848294474" lon="15.741783135914028"><ele>869.0</ele><time>2026-04-18T15:06:11Z</time></trkpt><trkpt lat="38.01458098022181" lon="15.741772890782224"><ele>868.0</ele><time>2026-04-18T15:06:12Z</time></trkpt><trkpt lat="38.01448279567792" lon="15.74177684795475"><ele>867.0</ele><time>2026-04-18T15:06:13Z</time></trkpt><trkpt lat="38.01438825686651" lon="15.741773725175625"><ele>866.0</ele><time>2026-04-18T15:06:14Z</time></trkpt><trkpt lat="38.01429604848049" lon="15.74179183340976"><ele>865.0</ele><time>2026-04-18T15:06:15Z</time></trkpt><trkpt lat="38.014202664948215" lon="15.741775422159959"><ele>864.8333333333333</ele><time>2026-04-18T15:06:16Z</time></trkpt><trkpt lat="38.014115124632035" lon="15.741766131664843"><ele>864.6666666666666</ele><time>2026-04-18T15:06:17Z</time></trkpt><trkpt lat="38.0140339845527" lon="15.74176565859899"><ele>864.5</ele><time>2026-04-18T15:06:18Z</time></trkpt><trkpt lat="38.01395800681766" lon="15.741770118417133"><ele>864.3333333333333</ele><time>2026-04-18T15:06:19Z</time></trkpt><trkpt lat="38.01389549386759" lon="15.741748851036604"><ele>864.1666666666666</ele><time>2026-04-18T15:06:20Z</time></trkpt><trkpt lat="38.013781737810476" lon="15.74171131916436"><ele>864.0</ele><time>2026-04-18T15:06:22Z</time></trkpt><trkpt lat="38.013654541951674" lon="15.741655391998448"><ele>864.0</ele><time>2026-04-18T15:06:24Z</time></trkpt><trkpt lat="38.013589910513986" lon="15.74163042075618"><ele>864.0</ele><time>2026-04-18T15:06:25Z</time></trkpt><trkpt lat="38.01349797549464" lon="15.74160885813357"><ele>864.0</ele><time>2026-04-18T15:06:27Z</time></trkpt><trkpt lat="38.01341747488585" lon="15.741580904546677"><ele>864.0</ele><time>2026-04-18T15:06:29Z</time></trkpt><trkpt lat="38.013335533021596" lon="15.741619246908508"><ele>864.0</ele><time>2026-04-18T15:06:31Z</time></trkpt><trkpt lat="38.01328266505312" lon="15.74166507225661"><ele>864.0</ele><time>2026-04-18T15:06:32Z</time></trkpt><trkpt lat="38.01321326428807" lon="15.741726476737837"><ele>865.6</ele><time>2026-04-18T15:06:33Z</time></trkpt><trkpt lat="38.013164110153774" lon="15.74180855756841"><ele>867.2</ele><time>2026-04-18T15:06:34Z</time></trkpt><trkpt lat="38.01312927741261" lon="15.741899982557088"><ele>868.8000000000001</ele><time>2026-04-18T15:06:35Z</time></trkpt><trkpt lat="38.01308110283246" lon="15.7419826290138"><ele>870.4000000000001</ele><time>2026-04-18T15:06:36Z</time></trkpt><trkpt lat="38.01303608833688" lon="15.742058539834902"><ele>872.0</ele><time>2026-04-18T15:06:37Z</time></trkpt><trkpt lat="38.01295587618102" lon="15.74223872300912"><ele>872.0000000000001</ele><time>2026-04-18T15:06:39Z</time></trkpt><trkpt lat="38.01292745584918" lon="15.742361254732485"><ele>872.0</ele><time>2026-04-18T15:06:40Z</time></trkpt><trkpt lat="38.01291532332074" lon="15.742458439849022"><ele>872.0</ele><time>2026-04-18T15:06:41Z</time></trkpt><trkpt lat="38.012901980394254" lon="15.742543852189621"><ele>872.0</ele><time>2026-04-18T15:06:42Z</time></trkpt><trkpt lat="38.01283608730997" lon="15.74260409693444"><ele>872.0000000000001</ele><time>2026-04-18T15:06:44Z</time></trkpt><trkpt lat="38.01276006294899" lon="15.742614297417344"><ele>872.0</ele><time>2026-04-18T15:06:46Z</time></trkpt><trkpt lat="38.01259291938163" lon="15.742573631743388"><ele>872.0000000000001</ele><time>2026-04-18T15:06:48Z</time></trkpt><trkpt lat="38.0125178294122" lon="15.742573973633329"><ele>872.0</ele><time>2026-04-18T15:06:49Z</time></trkpt><trkpt lat="38.012425017843306" lon="15.742575158154184"><ele>872.0</ele><time>2026-04-18T15:06:50Z</time></trkpt><trkpt lat="38.01235183326955" lon="15.742548392703826"><ele>872.0</ele><time>2026-04-18T15:06:51Z</time></trkpt><trkpt lat="38.012239886245396" lon="15.742521771395284"><ele>872.0000000000001</ele><time>2026-04-18T15:06:52Z</time></trkpt><trkpt lat="38.012151688770864" lon="15.742507947162428"><ele>872.0</ele><time>2026-04-18T15:06:53Z</time></trkpt><trkpt lat="38.01208068622252" lon="15.742469354464891"><ele>873.0</ele><time>2026-04-18T15:06:54Z</time></trkpt><trkpt lat="38.0120064356381" lon="15.742464548016411"><ele>874.0</ele><time>2026-04-18T15:06:55Z</time></trkpt><trkpt lat="38.01194912409217" lon="15.742418881980727"><ele>875.0</ele><time>2026-04-18T15:06:56Z</time></trkpt><trkpt lat="38.01188322433267" lon="15.742394201814987"><ele>876.0</ele><time>2026-04-18T15:06:57Z</time></trkpt><trkpt lat="38.01181425963074" lon="15.742355436580043"><ele>877.0</ele><time>2026-04-18T15:06:58Z</time></trkpt><trkpt lat="38.01176014529447" lon="15.742303696286958"><ele>878.0</ele><time>2026-04-18T15:06:59Z</time></trkpt><trkpt lat="38.01169669531179" lon="15.742266491106395"><ele>879.0</ele><time>2026-04-18T15:07:00Z</time></trkpt><trkpt lat="38.01161907567331" lon="15.742214074636166"><ele>879.1666666666666</ele><time>2026-04-18T15:07:01Z</time></trkpt><trkpt lat="38.01153668134124" lon="15.742166971586537"><ele>879.3333333333333</ele><time>2026-04-18T15:07:02Z</time></trkpt><trkpt lat="38.01145599235834" lon="15.742124157396963"><ele>879.5</ele><time>2026-04-18T15:07:03Z</time></trkpt><trkpt lat="38.0113769266949" lon="15.742081018587115"><ele>879.6666666666666</ele><time>2026-04-18T15:07:04Z</time></trkpt><trkpt lat="38.0113107870948" lon="15.742029689371394"><ele>879.8333333333333</ele><time>2026-04-18T15:07:05Z</time></trkpt><trkpt lat="38.01125101592557" lon="15.741997785115588"><ele>880.0</ele><time>2026-04-18T15:07:06Z</time></trkpt><trkpt lat="38.01120229041455" lon="15.741934723772156"><ele>879.9999999999999</ele><time>2026-04-18T15:07:10Z</time></trkpt><trkpt lat="38.01111891379891" lon="15.741925345684843"><ele>880.0</ele><time>2026-04-18T15:07:13Z</time></trkpt><trkpt lat="38.01104921112516" lon="15.741912694117278"><ele>880.0</ele><time>2026-04-18T15:07:14Z</time></trkpt><trkpt lat="38.010970068235295" lon="15.74188093135845"><ele>880.0</ele><time>2026-04-18T15:07:15Z</time></trkpt><trkpt lat="38.01090661708086" lon="15.741862968369098"><ele>879.9999999999999</ele><time>2026-04-18T15:07:16Z</time></trkpt><trkpt lat="38.01082269376076" lon="15.741842083130463"><ele>880.0</ele><time>2026-04-18T15:07:17Z</time></trkpt><trkpt lat="38.010744477432965" lon="15.741819551255908"><ele>878.4999999999999</ele><time>2026-04-18T15:07:18Z</time></trkpt><trkpt lat="38.010670321496946" lon="15.741788308071312"><ele>877.0</ele><time>2026-04-18T15:07:19Z</time></trkpt><trkpt lat="38.01059387348008" lon="15.741734695916922"><ele>875.5</ele><time>2026-04-18T15:07:20Z</time></trkpt><trkpt lat="38.01051746974634" lon="15.741677683213586"><ele>874.0</ele><time>2026-04-18T15:07:21Z</time></trkpt><trkpt lat="38.010451198091204" lon="15.741614113967705"><ele>872.4999999999999</ele><time>2026-04-18T15:07:22Z</time></trkpt><trkpt lat="38.010377137218796" lon="15.741552500711135"><ele>871.0</ele><time>2026-04-18T15:07:23Z</time></trkpt><trkpt lat="38.01030806313335" lon="15.74149031476555"><ele>870.9999999999999</ele><time>2026-04-18T15:07:24Z</time></trkpt><trkpt lat="38.0102439392524" lon="15.741437123725143"><ele>871.0</ele><time>2026-04-18T15:07:25Z</time></trkpt><trkpt lat="38.01018008032749" lon="15.741389509524325"><ele>871.0</ele><time>2026-04-18T15:07:26Z</time></trkpt><trkpt lat="38.01011297462657" lon="15.74134839802739"><ele>871.0</ele><time>2026-04-18T15:07:27Z</time></trkpt><trkpt lat="38.01003710014029" lon="15.741329734743399"><ele>870.9999999999999</ele><time>2026-04-18T15:07:28Z</time></trkpt><trkpt lat="38.009958777556825" lon="15.741322033582527"><ele>871.0</ele><time>2026-04-18T15:07:29Z</time></trkpt><trkpt lat="38.00988394465149" lon="15.741310912032162"><ele>869.3333333333333</ele><time>2026-04-18T15:07:30Z</time></trkpt><trkpt lat="38.00979854152695" lon="15.741294323974115"><ele>867.6666666666666</ele><time>2026-04-18T15:07:31Z</time></trkpt><trkpt lat="38.00972201930072" lon="15.74127616202108"><ele>866.0</ele><time>2026-04-18T15:07:32Z</time></trkpt><trkpt lat="38.00964618513269" lon="15.741266086647247"><ele>864.3333333333333</ele><time>2026-04-18T15:07:33Z</time></trkpt><trkpt lat="38.009571635039364" lon="15.74126593220884"><ele>862.6666666666666</ele><time>2026-04-18T15:07:34Z</time></trkpt><trkpt lat="38.009499631066554" lon="15.74124335594222"><ele>861.0</ele><time>2026-04-18T15:07:35Z</time></trkpt><trkpt lat="38.00942061212979" lon="15.741221078520313"><ele>861.0</ele><time>2026-04-18T15:07:36Z</time></trkpt><trkpt lat="38.00934544075232" lon="15.741206123275655"><ele>861.0</ele><time>2026-04-18T15:07:37Z</time></trkpt><trkpt lat="38.00926916290402" lon="15.741186776971604"><ele>861.0</ele><time>2026-04-18T15:07:38Z</time></trkpt><trkpt lat="38.009212972462805" lon="15.741139188317806"><ele>861.0</ele><time>2026-04-18T15:07:39Z</time></trkpt><trkpt lat="38.009137992813635" lon="15.741107618570732"><ele>861.0</ele><time>2026-04-18T15:07:40Z</time></trkpt><trkpt lat="38.00906576849826" lon="15.741033716551911"><ele>861.0</ele><time>2026-04-18T15:07:41Z</time></trkpt><trkpt lat="38.008999277246176" lon="15.740971026588578"><ele>862.3333333333334</ele><time>2026-04-18T15:07:42Z</time></trkpt><trkpt lat="38.00893037883953" lon="15.740931654926692"><ele>863.6666666666667</ele><time>2026-04-18T15:07:43Z</time></trkpt><trkpt lat="38.00886904533909" lon="15.74090028578453"><ele>865.0</ele><time>2026-04-18T15:07:44Z</time></trkpt><trkpt lat="38.008826052433115" lon="15.74083557358027"><ele>866.3333333333334</ele><time>2026-04-18T15:07:45Z</time></trkpt><trkpt lat="38.00876185949181" lon="15.740795720358406"><ele>867.6666666666667</ele><time>2026-04-18T15:07:46Z</time></trkpt><trkpt lat="38.00873029638264" lon="15.740701271649625"><ele>869.0</ele><time>2026-04-18T15:07:47Z</time></trkpt><trkpt lat="38.008664122760585" lon="15.740622710576055"><ele>869.0</ele><time>2026-04-18T15:07:48Z</time></trkpt><trkpt lat="38.00859365237732" lon="15.740542740916794"><ele>869.0000000000001</ele><time>2026-04-18T15:07:49Z</time></trkpt><trkpt lat="38.00852485714557" lon="15.740480018868059"><ele>869.0000000000001</ele><time>2026-04-18T15:07:50Z</time></trkpt><trkpt lat="38.00845844030811" lon="15.740399916758227"><ele>869.0</ele><time>2026-04-18T15:07:51Z</time></trkpt><trkpt lat="38.008382355129655" lon="15.74032880825816"><ele>869.0</ele><time>2026-04-18T15:07:52Z</time></trkpt><trkpt lat="38.00829837876749" lon="15.740251028821715"><ele>867.1666666666667</ele><time>2026-04-18T15:07:53Z</time></trkpt><trkpt lat="38.008213577685986" lon="15.74019771312405"><ele>865.3333333333334</ele><time>2026-04-18T15:07:54Z</time></trkpt><trkpt lat="38.00814484188387" lon="15.74013635077506"><ele>863.5</ele><time>2026-04-18T15:07:55.001Z</time></trkpt><trkpt lat="38.00807844665149" lon="15.740053439302324"><ele>861.6666666666667</ele><time>2026-04-18T15:07:56.001Z</time></trkpt><trkpt lat="38.008009839855355" lon="15.739997305476578"><ele>859.8333333333334</ele><time>2026-04-18T15:07:57.001Z</time></trkpt><trkpt lat="38.007935723107636" lon="15.739962412664429"><ele>858.0</ele><time>2026-04-18T15:07:58.001Z</time></trkpt><trkpt lat="38.00786966394722" lon="15.739908838821062"><ele>858.0</ele><time>2026-04-18T15:07:59.001Z</time></trkpt><trkpt lat="38.00778597408472" lon="15.739858188304163"><ele>858.0</ele><time>2026-04-18T15:08:00.001Z</time></trkpt><trkpt lat="38.007727903566774" lon="15.739826996532269"><ele>858.0</ele><time>2026-04-18T15:08:01.001Z</time></trkpt><trkpt lat="38.007632373805556" lon="15.739811847240388"><ele>858.0</ele><time>2026-04-18T15:08:02.001Z</time></trkpt><trkpt lat="38.00753941805625" lon="15.739812234998016"><ele>858.0</ele><time>2026-04-18T15:08:03.001Z</time></trkpt><trkpt lat="38.007445949043735" lon="15.739813138789902"><ele>858.0</ele><time>2026-04-18T15:08:04.001Z</time></trkpt><trkpt lat="38.00735372922261" lon="15.739839990586065"><ele>855.8</ele><time>2026-04-18T15:08:05.001Z</time></trkpt><trkpt lat="38.00726146597276" lon="15.739843171245868"><ele>853.5999999999999</ele><time>2026-04-18T15:08:06.001Z</time></trkpt><trkpt lat="38.00716269577803" lon="15.739867516765104"><ele>851.4000000000001</ele><time>2026-04-18T15:08:07.001Z</time></trkpt><trkpt lat="38.00707334701673" lon="15.73988906193747"><ele>849.2</ele><time>2026-04-18T15:08:08.001Z</time></trkpt><trkpt lat="38.00698825829054" lon="15.73992804819867"><ele>847.0</ele><time>2026-04-18T15:08:09.001Z</time></trkpt><trkpt lat="38.00690145797331" lon="15.73992893056281"><ele>846.9999999999999</ele><time>2026-04-18T15:08:10.001Z</time></trkpt><trkpt lat="38.006812733937466" lon="15.73992946852381"><ele>847.0</ele><time>2026-04-18T15:08:11.001Z</time></trkpt><trkpt lat="38.006717547907776" lon="15.739922449623124"><ele>847.0</ele><time>2026-04-18T15:08:12.001Z</time></trkpt><trkpt lat="38.006635899137706" lon="15.739917745770924"><ele>847.0</ele><time>2026-04-18T15:08:13.001Z</time></trkpt><trkpt lat="38.006548275259874" lon="15.739915138815956"><ele>846.9999999999999</ele><time>2026-04-18T15:08:14Z</time></trkpt><trkpt lat="38.006468104038134" lon="15.73990818935913"><ele>847.0</ele><time>2026-04-18T15:08:15Z</time></trkpt><trkpt lat="38.00639670681239" lon="15.739893762727702"><ele>845.1666666666666</ele><time>2026-04-18T15:08:16Z</time></trkpt><trkpt lat="38.00631809435168" lon="15.739888524881335"><ele>843.3333333333333</ele><time>2026-04-18T15:08:17Z</time></trkpt><trkpt lat="38.006231395578936" lon="15.739895660582626"><ele>841.5</ele><time>2026-04-18T15:08:18Z</time></trkpt><trkpt lat="38.00615384534566" lon="15.739950647969387"><ele>839.6666666666667</ele><time>2026-04-18T15:08:19Z</time></trkpt><trkpt lat="38.00606294797673" lon="15.739988951251084"><ele>837.8333333333334</ele><time>2026-04-18T15:08:20Z</time></trkpt><trkpt lat="38.00598389235881" lon="15.740033683577456"><ele>836.0</ele><time>2026-04-18T15:08:21Z</time></trkpt><trkpt lat="38.00589410317843" lon="15.740069418731851"><ele>834.8</ele><time>2026-04-18T15:08:22Z</time></trkpt><trkpt lat="38.00580685532409" lon="15.74012876322703"><ele>833.5999999999999</ele><time>2026-04-18T15:08:23Z</time></trkpt><trkpt lat="38.0057212093754" lon="15.740168301004642"><ele>832.4</ele><time>2026-04-18T15:08:24Z</time></trkpt><trkpt lat="38.00563645441811" lon="15.74022042155209"><ele>831.2</ele><time>2026-04-18T15:08:25Z</time></trkpt><trkpt lat="38.00555007052314" lon="15.740258882643843"><ele>830.0</ele><time>2026-04-18T15:08:26Z</time></trkpt><trkpt lat="38.00546101627392" lon="15.740291402985365"><ele>828.5000000000001</ele><time>2026-04-18T15:08:27Z</time></trkpt><trkpt lat="38.00537630658705" lon="15.740307109092857"><ele>827.0</ele><time>2026-04-18T15:08:28Z</time></trkpt><trkpt lat="38.00530014193627" lon="15.740327315235053"><ele>825.5</ele><time>2026-04-18T15:08:29Z</time></trkpt><trkpt lat="38.00521887552065" lon="15.740358672418546"><ele>824.0</ele><time>2026-04-18T15:08:30Z</time></trkpt><trkpt lat="38.005142290718254" lon="15.740380460365362"><ele>822.5000000000001</ele><time>2026-04-18T15:08:31Z</time></trkpt><trkpt lat="38.00507121563856" lon="15.74040477087695"><ele>821.0</ele><time>2026-04-18T15:08:32Z</time></trkpt><trkpt lat="38.0050024665382" lon="15.740410781559527"><ele>821.6666666666667</ele><time>2026-04-18T15:08:33Z</time></trkpt><trkpt lat="38.0049370269402" lon="15.740389378744878"><ele>822.3333333333334</ele><time>2026-04-18T15:08:34Z</time></trkpt><trkpt lat="38.00486118845211" lon="15.740353085960072"><ele>823.0</ele><time>2026-04-18T15:08:35Z</time></trkpt><trkpt lat="38.0047885792067" lon="15.740315397242542"><ele>823.6666666666667</ele><time>2026-04-18T15:08:36Z</time></trkpt><trkpt lat="38.00470265434351" lon="15.740283569686088"><ele>824.3333333333334</ele><time>2026-04-18T15:08:37Z</time></trkpt><trkpt lat="38.004618766493635" lon="15.740223983545494"><ele>825.0</ele><time>2026-04-18T15:08:38Z</time></trkpt><trkpt lat="38.00453843246591" lon="15.74018375858437"><ele>825.0</ele><time>2026-04-18T15:08:39Z</time></trkpt><trkpt lat="38.00444058317658" lon="15.740172659916068"><ele>825.0</ele><time>2026-04-18T15:08:40Z</time></trkpt><trkpt lat="38.00435467525248" lon="15.740120034573117"><ele>825.0</ele><time>2026-04-18T15:08:41Z</time></trkpt><trkpt lat="38.00427572724876" lon="15.740084585991186"><ele>825.0</ele><time>2026-04-18T15:08:42Z</time></trkpt><trkpt lat="38.00418932799197" lon="15.740050760443909"><ele>825.0</ele><time>2026-04-18T15:08:43Z</time></trkpt><trkpt lat="38.00409636639613" lon="15.740029734211411"><ele>824.4</ele><time>2026-04-18T15:08:44Z</time></trkpt><trkpt lat="38.004002982106456" lon="15.739998389709188"><ele>823.8</ele><time>2026-04-18T15:08:45Z</time></trkpt><trkpt lat="38.00391379276741" lon="15.739968334252994"><ele>823.2</ele><time>2026-04-18T15:08:46Z</time></trkpt><trkpt lat="38.00383742157122" lon="15.739928782476"><ele>822.6</ele><time>2026-04-18T15:08:47Z</time></trkpt><trkpt lat="38.003750286203505" lon="15.73989370305147"><ele>822.0</ele><time>2026-04-18T15:08:48Z</time></trkpt><trkpt lat="38.00366232932578" lon="15.73984728653313"><ele>822.0</ele><time>2026-04-18T15:08:49Z</time></trkpt><trkpt lat="38.00358284676812" lon="15.739819866573251"><ele>822.0</ele><time>2026-04-18T15:08:50Z</time></trkpt><trkpt lat="38.00350301312498" lon="15.73979407994163"><ele>822.0</ele><time>2026-04-18T15:08:51Z</time></trkpt><trkpt lat="38.00341278332076" lon="15.739767901770616"><ele>822.0</ele><time>2026-04-18T15:08:52Z</time></trkpt><trkpt lat="38.00332320936086" lon="15.739762075751056"><ele>822.0</ele><time>2026-04-18T15:08:53Z</time></trkpt><trkpt lat="38.0032267559245" lon="15.73976388798735"><ele>822.0</ele><time>2026-04-18T15:08:54Z</time></trkpt><trkpt lat="38.00313434767526" lon="15.739761845198782"><ele>821.0</ele><time>2026-04-18T15:08:55Z</time></trkpt><trkpt lat="38.00304280981784" lon="15.739762144485475"><ele>820.0</ele><time>2026-04-18T15:08:56Z</time></trkpt><trkpt lat="38.00296752927678" lon="15.739756233229782"><ele>819.0</ele><time>2026-04-18T15:08:57Z</time></trkpt><trkpt lat="38.00288561229872" lon="15.739740888914964"><ele>818.0</ele><time>2026-04-18T15:08:58Z</time></trkpt><trkpt lat="38.00280442849286" lon="15.739709717298588"><ele>817.0</ele><time>2026-04-18T15:08:59Z</time></trkpt><trkpt lat="38.002729125251115" lon="15.73966253718288"><ele>816.0</ele><time>2026-04-18T15:09:00Z</time></trkpt><trkpt lat="38.002655553444036" lon="15.739593791843248"><ele>816.0</ele><time>2026-04-18T15:09:01Z</time></trkpt><trkpt lat="38.002583844697845" lon="15.739502377182031"><ele>816.0</ele><time>2026-04-18T15:09:02Z</time></trkpt><trkpt lat="38.0025084386463" lon="15.739413344431114"><ele>816.0</ele><time>2026-04-18T15:09:03Z</time></trkpt><trkpt lat="38.002433097148206" lon="15.73934008656367"><ele>816.0</ele><time>2026-04-18T15:09:04Z</time></trkpt><trkpt lat="38.0023636684568" lon="15.73926966588884"><ele>816.0</ele><time>2026-04-18T15:09:05Z</time></trkpt><trkpt lat="38.00229935789229" lon="15.739181922686237"><ele>818.3333333333334</ele><time>2026-04-18T15:09:06Z</time></trkpt><trkpt lat="38.002243035294505" lon="15.739086029774453"><ele>820.6666666666667</ele><time>2026-04-18T15:09:07Z</time></trkpt><trkpt lat="38.00219112582191" lon="15.738983179565698"><ele>823.0</ele><time>2026-04-18T15:09:08Z</time></trkpt><trkpt lat="38.002139909724434" lon="15.738889463071393"><ele>825.3333333333334</ele><time>2026-04-18T15:09:09Z</time></trkpt><trkpt lat="38.00209192740964" lon="15.738796706624745"><ele>827.6666666666667</ele><time>2026-04-18T15:09:10Z</time></trkpt><trkpt lat="38.002048939786576" lon="15.73870863019598"><ele>830.0</ele><time>2026-04-18T15:09:11Z</time></trkpt><trkpt lat="38.00199790509655" lon="15.738612439174965"><ele>829.6</ele><time>2026-04-18T15:09:12Z</time></trkpt><trkpt lat="38.001957705682855" lon="15.738510740524415"><ele>829.2</ele><time>2026-04-18T15:09:13Z</time></trkpt><trkpt lat="38.00191480367139" lon="15.738413334085138"><ele>828.8</ele><time>2026-04-18T15:09:14Z</time></trkpt><trkpt lat="38.001854680367174" lon="15.738318749615338"><ele>828.4</ele><time>2026-04-18T15:09:15Z</time></trkpt><trkpt lat="38.00177078768615" lon="15.738251182668723"><ele>828.0</ele><time>2026-04-18T15:09:16Z</time></trkpt><trkpt lat="38.0016777359555" lon="15.73820799093068"><ele>826.1666666666666</ele><time>2026-04-18T15:09:17Z</time></trkpt><trkpt lat="38.00158775138076" lon="15.738181720461107"><ele>824.3333333333333</ele><time>2026-04-18T15:09:18Z</time></trkpt><trkpt lat="38.001491570369915" lon="15.738172306042667"><ele>822.5</ele><time>2026-04-18T15:09:19Z</time></trkpt><trkpt lat="38.00140611508439" lon="15.738188605762158"><ele>820.6666666666666</ele><time>2026-04-18T15:09:20Z</time></trkpt><trkpt lat="38.00132265585176" lon="15.73819404462427"><ele>818.8333333333333</ele><time>2026-04-18T15:09:21Z</time></trkpt><trkpt lat="38.00124303134922" lon="15.738190646043503"><ele>817.0</ele><time>2026-04-18T15:09:22Z</time></trkpt><trkpt lat="38.0011675743797" lon="15.738187112928445"><ele>817.0</ele><time>2026-04-18T15:09:23Z</time></trkpt><trkpt lat="38.001083929622645" lon="15.73814713113879"><ele>817.0</ele><time>2026-04-18T15:09:24Z</time></trkpt><trkpt lat="38.00099085719894" lon="15.738108501516395"><ele>817.0</ele><time>2026-04-18T15:09:25Z</time></trkpt><trkpt lat="38.000895585850564" lon="15.738069665761778"><ele>817.0</ele><time>2026-04-18T15:09:26Z</time></trkpt><trkpt lat="38.000807015918056" lon="15.738031813930998"><ele>817.0</ele><time>2026-04-18T15:09:27Z</time></trkpt><trkpt lat="38.000713800658616" lon="15.737995391672305"><ele>815.4999999999999</ele><time>2026-04-18T15:09:28Z</time></trkpt><trkpt lat="38.000619383472404" lon="15.737951599979366"><ele>814.0</ele><time>2026-04-18T15:09:29Z</time></trkpt><trkpt lat="38.00053294613704" lon="15.737924206664442"><ele>812.5</ele><time>2026-04-18T15:09:30Z</time></trkpt><trkpt lat="38.000453410362944" lon="15.737892493754174"><ele>811.0</ele><time>2026-04-18T15:09:31Z</time></trkpt><trkpt lat="38.000360205740634" lon="15.737855395621722"><ele>809.4999999999999</ele><time>2026-04-18T15:09:32Z</time></trkpt><trkpt lat="38.00029406027925" lon="15.737815260163142"><ele>808.0</ele><time>2026-04-18T15:09:33Z</time></trkpt><trkpt lat="38.00022313357328" lon="15.73777053304912"><ele>808.8333333333333</ele><time>2026-04-18T15:09:34Z</time></trkpt><trkpt lat="38.00016045023169" lon="15.737709754565667"><ele>809.6666666666666</ele><time>2026-04-18T15:09:35Z</time></trkpt><trkpt lat="38.00009592036846" lon="15.737635895524972"><ele>810.5</ele><time>2026-04-18T15:09:36Z</time></trkpt><trkpt lat="38.00002850639797" lon="15.737539853655495"><ele>811.3333333333333</ele><time>2026-04-18T15:09:37Z</time></trkpt><trkpt lat="37.9999682240056" lon="15.73747967337533"><ele>812.1666666666666</ele><time>2026-04-18T15:09:38Z</time></trkpt><trkpt lat="37.99987969851886" lon="15.73745087250178"><ele>813.0</ele><time>2026-04-18T15:09:40Z</time></trkpt><trkpt lat="37.999817232569335" lon="15.737472206471567"><ele>813.0</ele><time>2026-04-18T15:09:41Z</time></trkpt><trkpt lat="37.999742329196344" lon="15.737510045437425"><ele>813.0</ele><time>2026-04-18T15:09:42Z</time></trkpt><trkpt lat="37.99966037499081" lon="15.737563591691172"><ele>813.0</ele><time>2026-04-18T15:09:43Z</time></trkpt><trkpt lat="37.999578190278" lon="15.737610534096865"><ele>813.0</ele><time>2026-04-18T15:09:44Z</time></trkpt><trkpt lat="37.999490718096226" lon="15.737625224900395"><ele>813.0</ele><time>2026-04-18T15:09:45Z</time></trkpt><trkpt lat="37.999407866492035" lon="15.737627014721106"><ele>813.0</ele><time>2026-04-18T15:09:46Z</time></trkpt><trkpt lat="37.99932898883691" lon="15.7376502166793"><ele>813.0</ele><time>2026-04-18T15:09:47Z</time></trkpt><trkpt lat="37.999257911634395" lon="15.737692556911766"><ele>813.0</ele><time>2026-04-18T15:09:48Z</time></trkpt><trkpt lat="37.99919025322019" lon="15.737770922987913"><ele>813.0</ele><time>2026-04-18T15:09:49Z</time></trkpt><trkpt lat="37.99912407323267" lon="15.737832769647637"><ele>813.0</ele><time>2026-04-18T15:09:50Z</time></trkpt><trkpt lat="37.999040876816885" lon="15.737876693934679"><ele>813.0</ele><time>2026-04-18T15:09:51Z</time></trkpt><trkpt lat="37.99896335971906" lon="15.737883546536814"><ele>813.0</ele><time>2026-04-18T15:09:52Z</time></trkpt><trkpt lat="37.99887149075095" lon="15.737859060338105"><ele>810.6666666666666</ele><time>2026-04-18T15:09:53Z</time></trkpt><trkpt lat="37.99878242727146" lon="15.737851713827085"><ele>808.3333333333333</ele><time>2026-04-18T15:09:54Z</time></trkpt><trkpt lat="37.99870560037485" lon="15.737874574448716"><ele>806.0</ele><time>2026-04-18T15:09:55Z</time></trkpt><trkpt lat="37.99861108696401" lon="15.73790538920549"><ele>803.6666666666666</ele><time>2026-04-18T15:09:56Z</time></trkpt><trkpt lat="37.99853037085902" lon="15.73792622324448"><ele>801.3333333333333</ele><time>2026-04-18T15:09:57Z</time></trkpt><trkpt lat="37.99845295254222" lon="15.737946750190629"><ele>799.0</ele><time>2026-04-18T15:09:58Z</time></trkpt><trkpt lat="37.998357263910236" lon="15.737959879676087"><ele>798.8000000000001</ele><time>2026-04-18T15:09:59Z</time></trkpt><trkpt lat="37.99825751344078" lon="15.737906597378393"><ele>798.6</ele><time>2026-04-18T15:10:00Z</time></trkpt><trkpt lat="37.99815708675264" lon="15.737877938845122"><ele>798.4</ele><time>2026-04-18T15:10:01.001Z</time></trkpt><trkpt lat="37.99804712541601" lon="15.737849518001163"><ele>798.2</ele><time>2026-04-18T15:10:02.001Z</time></trkpt><trkpt lat="37.99793943680902" lon="15.737824484138576"><ele>798.0</ele><time>2026-04-18T15:10:03.001Z</time></trkpt><trkpt lat="37.99784040663286" lon="15.737816876702281"><ele>798.0</ele><time>2026-04-18T15:10:04.001Z</time></trkpt><trkpt lat="37.99773602117357" lon="15.737804626074185"><ele>798.0</ele><time>2026-04-18T15:10:05.001Z</time></trkpt><trkpt lat="37.99763727913365" lon="15.737798382968714"><ele>798.0</ele><time>2026-04-18T15:10:06.001Z</time></trkpt><trkpt lat="37.99754347169699" lon="15.737795168869013"><ele>798.0</ele><time>2026-04-18T15:10:07.001Z</time></trkpt><trkpt lat="37.997446035941" lon="15.737805502852892"><ele>798.0</ele><time>2026-04-18T15:10:08.001Z</time></trkpt><trkpt lat="37.99734855197742" lon="15.737839402792488"><ele>797.0</ele><time>2026-04-18T15:10:09.001Z</time></trkpt><trkpt lat="37.997246593028606" lon="15.737889441450594"><ele>796.0</ele><time>2026-04-18T15:10:10.001Z</time></trkpt><trkpt lat="37.99714705794973" lon="15.737931730852717"><ele>795.0</ele><time>2026-04-18T15:10:11.001Z</time></trkpt><trkpt lat="37.99704936188723" lon="15.737962314079436"><ele>794.0</ele><time>2026-04-18T15:10:12.001Z</time></trkpt><trkpt lat="37.996942738533996" lon="15.737985283960706"><ele>793.0</ele><time>2026-04-18T15:10:13.001Z</time></trkpt><trkpt lat="37.99683367656931" lon="15.737998827249424"><ele>793.0</ele><time>2026-04-18T15:10:14.001Z</time></trkpt><trkpt lat="37.99672245364304" lon="15.738015108928884"><ele>793.0</ele><time>2026-04-18T15:10:15.001Z</time></trkpt><trkpt lat="37.99661426079335" lon="15.738033598367036"><ele>793.0</ele><time>2026-04-18T15:10:16Z</time></trkpt><trkpt lat="37.99649625784165" lon="15.738038490633205"><ele>793.0</ele><time>2026-04-18T15:10:17Z</time></trkpt><trkpt lat="37.9963884501047" lon="15.738030866386476"><ele>793.0</ele><time>2026-04-18T15:10:18Z</time></trkpt><trkpt lat="37.996277251819116" lon="15.738016834843233"><ele>792.4</ele><time>2026-04-18T15:10:19Z</time></trkpt><trkpt lat="37.99616743128604" lon="15.737998611990925"><ele>791.8</ele><time>2026-04-18T15:10:20Z</time></trkpt><trkpt lat="37.99606185674986" lon="15.737982459093633"><ele>791.2</ele><time>2026-04-18T15:10:21Z</time></trkpt><trkpt lat="37.99595908449181" lon="15.737965699838739"><ele>790.6</ele><time>2026-04-18T15:10:22Z</time></trkpt><trkpt lat="37.99585794046791" lon="15.73794172836565"><ele>790.0</ele><time>2026-04-18T15:10:23Z</time></trkpt><trkpt lat="37.995763850302815" lon="15.737909616653535"><ele>786.5</ele><time>2026-04-18T15:10:24Z</time></trkpt><trkpt lat="37.99566413376889" lon="15.737859285615011"><ele>783.0</ele><time>2026-04-18T15:10:25Z</time></trkpt><trkpt lat="37.99557069421733" lon="15.737793039826977"><ele>779.5</ele><time>2026-04-18T15:10:26Z</time></trkpt><trkpt lat="37.99546815898575" lon="15.737717819964267"><ele>776.0</ele><time>2026-04-18T15:10:27Z</time></trkpt><trkpt lat="37.99536541645522" lon="15.737637183364194"><ele>775.0</ele><time>2026-04-18T15:10:28Z</time></trkpt><trkpt lat="37.995273679019384" lon="15.737551068073408"><ele>774.0</ele><time>2026-04-18T15:10:29Z</time></trkpt><trkpt lat="37.995194563468004" lon="15.737472592442979"><ele>773.0</ele><time>2026-04-18T15:10:30Z</time></trkpt><trkpt lat="37.99510886562365" lon="15.737399207918504"><ele>772.0</ele><time>2026-04-18T15:10:31Z</time></trkpt><trkpt lat="37.99502213131903" lon="15.737334588755413"><ele>771.0</ele><time>2026-04-18T15:10:32Z</time></trkpt><trkpt lat="37.994941338835254" lon="15.73726846076943"><ele>769.8</ele><time>2026-04-18T15:10:33Z</time></trkpt><trkpt lat="37.994851079074955" lon="15.737213592508297"><ele>768.5999999999999</ele><time>2026-04-18T15:10:34Z</time></trkpt><trkpt lat="37.994760734199026" lon="15.737174724577143"><ele>767.4</ele><time>2026-04-18T15:10:35Z</time></trkpt><trkpt lat="37.99465594136471" lon="15.73713992263047"><ele>766.2</ele><time>2026-04-18T15:10:36Z</time></trkpt><trkpt lat="37.994552337548996" lon="15.737114603307093"><ele>765.0</ele><time>2026-04-18T15:10:37Z</time></trkpt><trkpt lat="37.99445954870793" lon="15.737085070830515"><ele>765.0</ele><time>2026-04-18T15:10:38Z</time></trkpt><trkpt lat="37.99436900218648" lon="15.737052868992537"><ele>765.0</ele><time>2026-04-18T15:10:39Z</time></trkpt><trkpt lat="37.99428749177263" lon="15.737013254057796"><ele>765.0</ele><time>2026-04-18T15:10:40Z</time></trkpt><trkpt lat="37.994206809660405" lon="15.73696060944165"><ele>765.0</ele><time>2026-04-18T15:10:41Z</time></trkpt><trkpt lat="37.994122437169565" lon="15.73689694134627"><ele>765.0</ele><time>2026-04-18T15:10:42Z</time></trkpt><trkpt lat="37.99404187244498" lon="15.73683294558257"><ele>764.0</ele><time>2026-04-18T15:10:43Z</time></trkpt><trkpt lat="37.99395970348113" lon="15.736766254499711"><ele>763.0</ele><time>2026-04-18T15:10:44Z</time></trkpt><trkpt lat="37.99388607423048" lon="15.73669162201249"><ele>762.0</ele><time>2026-04-18T15:10:45Z</time></trkpt><trkpt lat="37.9938229893014" lon="15.736596491911522"><ele>761.0</ele><time>2026-04-18T15:10:46Z</time></trkpt><trkpt lat="37.99377519424599" lon="15.736495405039612"><ele>760.0</ele><time>2026-04-18T15:10:47Z</time></trkpt><trkpt lat="37.99372125183271" lon="15.736384235509451"><ele>760.0</ele><time>2026-04-18T15:10:48Z</time></trkpt><trkpt lat="37.99366466319394" lon="15.73627456473041"><ele>760.0</ele><time>2026-04-18T15:10:49Z</time></trkpt><trkpt lat="37.99359755076022" lon="15.736174570976123"><ele>760.0</ele><time>2026-04-18T15:10:50Z</time></trkpt><trkpt lat="37.99353832103373" lon="15.736080318069494"><ele>760.0</ele><time>2026-04-18T15:10:51Z</time></trkpt><trkpt lat="37.993471710333004" lon="15.735981458470828"><ele>760.0</ele><time>2026-04-18T15:10:52Z</time></trkpt><trkpt lat="37.99340939542952" lon="15.73588453519791"><ele>760.0</ele><time>2026-04-18T15:10:53Z</time></trkpt><trkpt lat="37.99334410786485" lon="15.735784838650023"><ele>760.0</ele><time>2026-04-18T15:10:54Z</time></trkpt><trkpt lat="37.993273410269964" lon="15.735682814468225"><ele>760.0</ele><time>2026-04-18T15:10:55Z</time></trkpt><trkpt lat="37.993200263540075" lon="15.735583318502572"><ele>760.0</ele><time>2026-04-18T15:10:56Z</time></trkpt><trkpt lat="37.99313203045013" lon="15.73548810588175"><ele>760.0</ele><time>2026-04-18T15:10:57Z</time></trkpt><trkpt lat="37.99307141736983" lon="15.735393006131286"><ele>760.0</ele><time>2026-04-18T15:10:58Z</time></trkpt><trkpt lat="37.99301345263934" lon="15.735291599553527"><ele>760.0</ele><time>2026-04-18T15:10:59Z</time></trkpt><trkpt lat="37.99296836298568" lon="15.735185931131737"><ele>760.0</ele><time>2026-04-18T15:11:00Z</time></trkpt><trkpt lat="37.99294830116821" lon="15.735083477663279"><ele>760.0</ele><time>2026-04-18T15:11:01Z</time></trkpt><trkpt lat="37.99293826092391" lon="15.735001025086824"><ele>760.0</ele><time>2026-04-18T15:11:02Z</time></trkpt><trkpt lat="37.99292025484375" lon="15.734882086517615"><ele>760.0</ele><time>2026-04-18T15:11:04Z</time></trkpt><trkpt lat="37.99286101747206" lon="15.734819564425585"><ele>759.6666666666667</ele><time>2026-04-18T15:11:06Z</time></trkpt><trkpt lat="37.992788395817" lon="15.734782677528477"><ele>759.3333333333334</ele><time>2026-04-18T15:11:08Z</time></trkpt><trkpt lat="37.99273197828804" lon="15.734737101231872"><ele>759.0</ele><time>2026-04-18T15:11:09Z</time></trkpt><trkpt lat="37.99268329899402" lon="15.734676514687203"><ele>758.6666666666666</ele><time>2026-04-18T15:11:10Z</time></trkpt><trkpt lat="37.99264353887827" lon="15.734588188852715"><ele>758.3333333333333</ele><time>2026-04-18T15:11:11Z</time></trkpt><trkpt lat="37.99261693671976" lon="15.734483989569132"><ele>758.0</ele><time>2026-04-18T15:11:12Z</time></trkpt><trkpt lat="37.992591166251565" lon="15.734373261230596"><ele>756.4</ele><time>2026-04-18T15:11:13Z</time></trkpt><trkpt lat="37.992569582352125" lon="15.73426494968916"><ele>754.8</ele><time>2026-04-18T15:11:14Z</time></trkpt><trkpt lat="37.99253900624449" lon="15.734156645475265"><ele>753.2</ele><time>2026-04-18T15:11:15Z</time></trkpt><trkpt lat="37.99249768023863" lon="15.734050915380962"><ele>751.6</ele><time>2026-04-18T15:11:16Z</time></trkpt><trkpt lat="37.99245448261487" lon="15.73394188021551"><ele>750.0</ele><time>2026-04-18T15:11:17Z</time></trkpt><trkpt lat="37.99240779612433" lon="15.733840839258312"><ele>753.3333333333334</ele><time>2026-04-18T15:11:18Z</time></trkpt><trkpt lat="37.992370455898744" lon="15.733776456116246"><ele>756.6666666666667</ele><time>2026-04-18T15:11:19Z</time></trkpt><trkpt lat="37.99231699792937" lon="15.73368344419129"><ele>760.0</ele><time>2026-04-18T15:11:23Z</time></trkpt><trkpt lat="37.9922667130126" lon="15.733616028347406"><ele>763.3333333333334</ele><time>2026-04-18T15:11:24Z</time></trkpt><trkpt lat="37.99222073853859" lon="15.733534986646047"><ele>766.6666666666667</ele><time>2026-04-18T15:11:25Z</time></trkpt><trkpt lat="37.99219197228312" lon="15.7334512431081"><ele>770.0</ele><time>2026-04-18T15:11:26Z</time></trkpt><trkpt lat="37.992167017398444" lon="15.733320763262022"><ele>770.0000000000001</ele><time>2026-04-18T15:11:28Z</time></trkpt><trkpt lat="37.99215520186617" lon="15.733235364942939"><ele>770.0</ele><time>2026-04-18T15:11:31Z</time></trkpt><trkpt lat="37.9921325555333" lon="15.733159720537952"><ele>770.0</ele><time>2026-04-18T15:13:12Z</time></trkpt><trkpt lat="37.9920853307799" lon="15.733007302035414"><ele>770.0</ele><time>2026-04-18T15:13:14Z</time></trkpt><trkpt lat="37.99205424746176" lon="15.732910545256033"><ele>770.0000000000001</ele><time>2026-04-18T15:13:15Z</time></trkpt><trkpt lat="37.99201545706803" lon="15.732798296877782"><ele>770.0</ele><time>2026-04-18T15:13:16Z</time></trkpt><trkpt lat="37.991970585389375" lon="15.732676716441116"><ele>767.8</ele><time>2026-04-18T15:13:17Z</time></trkpt><trkpt lat="37.99192680628598" lon="15.732552910116638"><ele>765.6</ele><time>2026-04-18T15:13:18Z</time></trkpt><trkpt lat="37.99188425383685" lon="15.732428790049408"><ele>763.4000000000001</ele><time>2026-04-18T15:13:19Z</time></trkpt><trkpt lat="37.99184028945212" lon="15.732296590333886"><ele>761.2</ele><time>2026-04-18T15:13:20Z</time></trkpt><trkpt lat="37.99179769562974" lon="15.732166083385318"><ele>759.0</ele><time>2026-04-18T15:13:21Z</time></trkpt><trkpt lat="37.99175918090784" lon="15.732033718186548"><ele>759.0</ele><time>2026-04-18T15:13:22Z</time></trkpt><trkpt lat="37.99173110333921" lon="15.731903562501369"><ele>759.0</ele><time>2026-04-18T15:13:23Z</time></trkpt><trkpt lat="37.991722444830444" lon="15.731769897320817"><ele>759.0</ele><time>2026-04-18T15:13:24Z</time></trkpt><trkpt lat="37.991721261894895" lon="15.731635816413219"><ele>759.0</ele><time>2026-04-18T15:13:25Z</time></trkpt><trkpt lat="37.99171745509287" lon="15.731505674632047"><ele>759.0</ele><time>2026-04-18T15:13:26Z</time></trkpt><trkpt lat="37.99171994798231" lon="15.731370879726938"><ele>759.0</ele><time>2026-04-18T15:13:27Z</time></trkpt><trkpt lat="37.991720961694355" lon="15.731239644869362"><ele>759.0</ele><time>2026-04-18T15:13:28Z</time></trkpt><trkpt lat="37.99171334628122" lon="15.731118384571095"><ele>759.0</ele><time>2026-04-18T15:13:29Z</time></trkpt><trkpt lat="37.991692504294704" lon="15.731000549737814"><ele>759.0</ele><time>2026-04-18T15:13:30Z</time></trkpt><trkpt lat="37.9916755952457" lon="15.73088643825435"><ele>759.0</ele><time>2026-04-18T15:13:31Z</time></trkpt><trkpt lat="37.991655751919986" lon="15.73076564506756"><ele>759.0</ele><time>2026-04-18T15:13:32Z</time></trkpt><trkpt lat="37.99162719348802" lon="15.7306335598866"><ele>759.0</ele><time>2026-04-18T15:13:33Z</time></trkpt><trkpt lat="37.99159158077988" lon="15.730496816427083"><ele>759.0</ele><time>2026-04-18T15:13:34Z</time></trkpt><trkpt lat="37.991552437650476" lon="15.730362871291023"><ele>759.0</ele><time>2026-04-18T15:13:35Z</time></trkpt><trkpt lat="37.991513125401006" lon="15.730232610014202"><ele>759.0</ele><time>2026-04-18T15:13:35.999Z</time></trkpt><trkpt lat="37.991471262607156" lon="15.730117915746932"><ele>757.2</ele><time>2026-04-18T15:13:36.999Z</time></trkpt><trkpt lat="37.99144643525369" lon="15.72999411566302"><ele>755.4000000000001</ele><time>2026-04-18T15:13:37.999Z</time></trkpt><trkpt lat="37.99145888033161" lon="15.729880977807875"><ele>753.6</ele><time>2026-04-18T15:13:38.999Z</time></trkpt><trkpt lat="37.99149057507508" lon="15.729766062366696"><ele>751.8</ele><time>2026-04-18T15:13:39.999Z</time></trkpt><trkpt lat="37.99150506068172" lon="15.729641237455557"><ele>750.0</ele><time>2026-04-18T15:13:40.999Z</time></trkpt><trkpt lat="37.99151476468828" lon="15.729524609986917"><ele>750.0</ele><time>2026-04-18T15:13:41.999Z</time></trkpt><trkpt lat="37.99151332106533" lon="15.729408609619314"><ele>750.0</ele><time>2026-04-18T15:13:42.999Z</time></trkpt><trkpt lat="37.991428646023635" lon="15.729299412195994"><ele>750.0</ele><time>2026-04-18T15:13:44.999Z</time></trkpt><trkpt lat="37.991358206049114" lon="15.729278126936793"><ele>750.0</ele><time>2026-04-18T15:13:45.999Z</time></trkpt><trkpt lat="37.99128068198676" lon="15.729251988271706"><ele>750.0</ele><time>2026-04-18T15:13:46.999Z</time></trkpt><trkpt lat="37.9912036270143" lon="15.729199774397836"><ele>748.4</ele><time>2026-04-18T15:13:47.999Z</time></trkpt><trkpt lat="37.99112900320114" lon="15.729122247778761"><ele>746.8</ele><time>2026-04-18T15:13:48.999Z</time></trkpt><trkpt lat="37.99106228436479" lon="15.729030186236567"><ele>745.2</ele><time>2026-04-18T15:13:49.999Z</time></trkpt><trkpt lat="37.99099070109501" lon="15.728941297965475"><ele>743.6</ele><time>2026-04-18T15:13:50.999Z</time></trkpt><trkpt lat="37.99091561053924" lon="15.728849905589524"><ele>742.0</ele><time>2026-04-18T15:13:51.999Z</time></trkpt><trkpt lat="37.99084096809627" lon="15.728758356538467"><ele>742.0</ele><time>2026-04-18T15:13:52.999Z</time></trkpt><trkpt lat="37.99076263319608" lon="15.728669092364544"><ele>742.0</ele><time>2026-04-18T15:13:53.999Z</time></trkpt><trkpt lat="37.990688065668735" lon="15.728570305134976"><ele>742.0</ele><time>2026-04-18T15:13:54.999Z</time></trkpt><trkpt lat="37.99062542075654" lon="15.728467207896975"><ele>742.0</ele><time>2026-04-18T15:13:55.999Z</time></trkpt><trkpt lat="37.99057421426575" lon="15.728390625074693"><ele>742.0</ele><time>2026-04-18T15:13:56.999Z</time></trkpt><trkpt lat="37.990520527386614" lon="15.72833314110668"><ele>741.0</ele><time>2026-04-18T15:13:57.999Z</time></trkpt><trkpt lat="37.990443574225424" lon="15.7282897797334"><ele>740.0</ele><time>2026-04-18T15:13:58.999Z</time></trkpt><trkpt lat="37.990356747509495" lon="15.728254683612816"><ele>739.0</ele><time>2026-04-18T15:13:59.999Z</time></trkpt><trkpt lat="37.990262278393814" lon="15.72820475661132"><ele>738.0</ele><time>2026-04-18T15:14:00.999Z</time></trkpt><trkpt lat="37.9901778287313" lon="15.728134605574557"><ele>737.0</ele><time>2026-04-18T15:14:01.999Z</time></trkpt><trkpt lat="37.990091378696" lon="15.728055783398176"><ele>737.0</ele><time>2026-04-18T15:14:02.999Z</time></trkpt><trkpt lat="37.99001344379529" lon="15.727975867351546"><ele>737.0</ele><time>2026-04-18T15:14:03.999Z</time></trkpt><trkpt lat="37.98993450731107" lon="15.727894146909561"><ele>737.0</ele><time>2026-04-18T15:14:04.999Z</time></trkpt><trkpt lat="37.98986082081358" lon="15.727804368901852"><ele>737.0</ele><time>2026-04-18T15:14:05.999Z</time></trkpt><trkpt lat="37.9897928522288" lon="15.72772360737177"><ele>737.0</ele><time>2026-04-18T15:14:06.999Z</time></trkpt><trkpt lat="37.98972434208878" lon="15.727654721753586"><ele>735.5</ele><time>2026-04-18T15:14:07.999Z</time></trkpt><trkpt lat="37.989663917320215" lon="15.727580072641413"><ele>734.0</ele><time>2026-04-18T15:14:08.999Z</time></trkpt><trkpt lat="37.989610517749675" lon="15.727503819348643"><ele>732.5</ele><time>2026-04-18T15:14:09.999Z</time></trkpt><trkpt lat="37.98956161460507" lon="15.727418081762485"><ele>731.0</ele><time>2026-04-18T15:14:10.999Z</time></trkpt><trkpt lat="37.98951580700722" lon="15.727329700052064"><ele>729.5</ele><time>2026-04-18T15:14:11.999Z</time></trkpt><trkpt lat="37.98948082328084" lon="15.727235261551371"><ele>728.0</ele><time>2026-04-18T15:14:13Z</time></trkpt><trkpt lat="37.989444398638526" lon="15.727149853003306"><ele>728.0</ele><time>2026-04-18T15:14:14Z</time></trkpt><trkpt lat="37.98941037909806" lon="15.727061267108898"><ele>728.0</ele><time>2026-04-18T15:14:15Z</time></trkpt><trkpt lat="37.98938252779022" lon="15.726979595440874"><ele>728.0</ele><time>2026-04-18T15:14:16Z</time></trkpt><trkpt lat="37.98939042029029" lon="15.72680768555493"><ele>728.0</ele><time>2026-04-18T15:14:18Z</time></trkpt><trkpt lat="37.98939465201621" lon="15.726709856673219"><ele>728.0</ele><time>2026-04-18T15:14:19Z</time></trkpt><trkpt lat="37.98939628389566" lon="15.726616994645825"><ele>728.0</ele><time>2026-04-18T15:14:20Z</time></trkpt><trkpt lat="37.9893781431644" lon="15.72652945772396"><ele>726.5</ele><time>2026-04-18T15:14:21Z</time></trkpt><trkpt lat="37.98934013025829" lon="15.726447604069165"><ele>725.0</ele><time>2026-04-18T15:14:22Z</time></trkpt><trkpt lat="37.989278014059146" lon="15.726388500764601"><ele>723.5</ele><time>2026-04-18T15:14:23Z</time></trkpt><trkpt lat="37.98922161459541" lon="15.726319046803905"><ele>722.0</ele><time>2026-04-18T15:14:24Z</time></trkpt><trkpt lat="37.98916970399204" lon="15.72624282187899"><ele>720.5</ele><time>2026-04-18T15:14:25Z</time></trkpt><trkpt lat="37.98911894717634" lon="15.726167472616842"><ele>719.0</ele><time>2026-04-18T15:14:26Z</time></trkpt><trkpt lat="37.98902045104365" lon="15.726072583165363"><ele>717.0</ele><time>2026-04-18T15:14:28Z</time></trkpt><trkpt lat="37.988945046425286" lon="15.726025024542208"><ele>715.0</ele><time>2026-04-18T15:14:29Z</time></trkpt><trkpt lat="37.9888629809956" lon="15.725996848819571"><ele>713.0</ele><time>2026-04-18T15:14:30Z</time></trkpt><trkpt lat="37.98879078388669" lon="15.725979162822663"><ele>711.0</ele><time>2026-04-18T15:14:31Z</time></trkpt><trkpt lat="37.98872060734229" lon="15.725960913521504"><ele>709.0</ele><time>2026-04-18T15:14:32Z</time></trkpt><trkpt lat="37.98865738267295" lon="15.725930023539261"><ele>707.0</ele><time>2026-04-18T15:14:33Z</time></trkpt><trkpt lat="37.98860283712102" lon="15.725874622676143"><ele>707.0</ele><time>2026-04-18T15:14:34Z</time></trkpt><trkpt lat="37.98854500066005" lon="15.725815395013793"><ele>707.0</ele><time>2026-04-18T15:14:35Z</time></trkpt><trkpt lat="37.98850396099434" lon="15.725749583928426"><ele>707.0</ele><time>2026-04-18T15:14:36Z</time></trkpt><trkpt lat="37.988427672035144" lon="15.725629419590117"><ele>707.0</ele><time>2026-04-18T15:14:38Z</time></trkpt><trkpt lat="37.98838913394391" lon="15.725553108828011"><ele>707.0</ele><time>2026-04-18T15:14:40Z</time></trkpt><trkpt lat="37.98835377072674" lon="15.725477155830763"><ele>707.0</ele><time>2026-04-18T15:15:17Z</time></trkpt><trkpt lat="37.98830647397102" lon="15.725351344506134"><ele>705.8333333333333</ele><time>2026-04-18T15:15:19Z</time></trkpt><trkpt lat="37.9882748867999" lon="15.72526705453089"><ele>704.6666666666666</ele><time>2026-04-18T15:15:20Z</time></trkpt><trkpt lat="37.98824125352196" lon="15.725176082691023"><ele>703.5</ele><time>2026-04-18T15:15:21Z</time></trkpt><trkpt lat="37.988200198958936" lon="15.725093740607813"><ele>702.3333333333334</ele><time>2026-04-18T15:15:22Z</time></trkpt><trkpt lat="37.98814876398666" lon="15.725017518247565"><ele>701.1666666666667</ele><time>2026-04-18T15:15:22.999Z</time></trkpt><trkpt lat="37.98809187035102" lon="15.724941679623084"><ele>700.0</ele><time>2026-04-18T15:15:23.999Z</time></trkpt><trkpt lat="37.988040000434566" lon="15.724853525999315"><ele>699.0</ele><time>2026-04-18T15:15:24.999Z</time></trkpt><trkpt lat="37.98800158430823" lon="15.72473641293502"><ele>698.0</ele><time>2026-04-18T15:15:25.999Z</time></trkpt><trkpt lat="37.98797508974213" lon="15.724615735727273"><ele>697.0</ele><time>2026-04-18T15:15:26.999Z</time></trkpt><trkpt lat="37.987960002605114" lon="15.724492134688285"><ele>696.0</ele><time>2026-04-18T15:15:27.999Z</time></trkpt><trkpt lat="37.98794799838846" lon="15.724362187827753"><ele>695.0</ele><time>2026-04-18T15:15:28.999Z</time></trkpt><trkpt lat="37.987938632773584" lon="15.724232556943491"><ele>693.4</ele><time>2026-04-18T15:15:29.999Z</time></trkpt><trkpt lat="37.98792524735115" lon="15.72410399425495"><ele>691.8</ele><time>2026-04-18T15:15:30.999Z</time></trkpt><trkpt lat="37.987905511848844" lon="15.72396873462604"><ele>690.2</ele><time>2026-04-18T15:15:31.999Z</time></trkpt><trkpt lat="37.98788059919896" lon="15.723837552471323"><ele>688.6</ele><time>2026-04-18T15:15:32.999Z</time></trkpt><trkpt lat="37.98783461443224" lon="15.723716787614977"><ele>687.0</ele><time>2026-04-18T15:15:33.999Z</time></trkpt><trkpt lat="37.987784908630324" lon="15.723615731293277"><ele>685.3333333333334</ele><time>2026-04-18T15:15:34.999Z</time></trkpt><trkpt lat="37.987739677182226" lon="15.723529822785231"><ele>683.6666666666666</ele><time>2026-04-18T15:15:35.999Z</time></trkpt><trkpt lat="37.987698956708634" lon="15.723448099382065"><ele>682.0</ele><time>2026-04-18T15:15:36.999Z</time></trkpt><trkpt lat="37.9876608786514" lon="15.7233720472965"><ele>680.3333333333333</ele><time>2026-04-18T15:15:37.999Z</time></trkpt><trkpt lat="37.98762629237002" lon="15.72329308532703"><ele>678.6666666666666</ele><time>2026-04-18T15:15:38.999Z</time></trkpt><trkpt lat="37.987571996992344" lon="15.723148839613575"><ele>677.0</ele><time>2026-04-18T15:15:40.999Z</time></trkpt><trkpt lat="37.98751081149657" lon="15.723014709358063"><ele>677.2</ele><time>2026-04-18T15:15:42.999Z</time></trkpt><trkpt lat="37.98744709206418" lon="15.722903978315754"><ele>677.4000000000001</ele><time>2026-04-18T15:15:44.999Z</time></trkpt><trkpt lat="37.987396340300684" lon="15.722796081975503"><ele>677.5999999999999</ele><time>2026-04-18T15:15:46.999Z</time></trkpt><trkpt lat="37.98735892185511" lon="15.72269166777489"><ele>677.8</ele><time>2026-04-18T15:15:48.999Z</time></trkpt><trkpt lat="37.98732559984399" lon="15.722579117721024"><ele>678.0</ele><time>2026-04-18T15:15:50.999Z</time></trkpt><trkpt lat="37.9872847387608" lon="15.722460755479815"><ele>676.8</ele><time>2026-04-18T15:15:52.999Z</time></trkpt><trkpt lat="37.98724746125622" lon="15.722339121078381"><ele>675.5999999999999</ele><time>2026-04-18T15:15:54.999Z</time></trkpt><trkpt lat="37.98721141015404" lon="15.722220670181622"><ele>674.4000000000001</ele><time>2026-04-18T15:15:56.999Z</time></trkpt><trkpt lat="37.98717823336797" lon="15.722102977304203"><ele>673.2</ele><time>2026-04-18T15:15:58.999Z</time></trkpt><trkpt lat="37.98714865059429" lon="15.72198906671169"><ele>672.0</ele><time>2026-04-18T15:16:00.999Z</time></trkpt><trkpt lat="37.987114407312305" lon="15.721868133286875"><ele>670.2</ele><time>2026-04-18T15:16:02.999Z</time></trkpt><trkpt lat="37.98708101939979" lon="15.721741405795242"><ele>668.4000000000001</ele><time>2026-04-18T15:16:04.999Z</time></trkpt><trkpt lat="37.98704213883299" lon="15.721621710153807"><ele>666.5999999999999</ele><time>2026-04-18T15:16:06.999Z</time></trkpt><trkpt lat="37.986971929224296" lon="15.72151301387767"><ele>664.8</ele><time>2026-04-18T15:16:08.999Z</time></trkpt><trkpt lat="37.98691943726691" lon="15.721400068442748"><ele>663.0</ele><time>2026-04-18T15:16:10.999Z</time></trkpt><trkpt lat="37.98687152392342" lon="15.721303163220954"><ele>663.0</ele><time>2026-04-18T15:16:12.999Z</time></trkpt><trkpt lat="37.986817502013935" lon="15.721213048465485"><ele>663.0</ele><time>2026-04-18T15:16:14.999Z</time></trkpt><trkpt lat="37.98676477541235" lon="15.721121496520682"><ele>663.0</ele><time>2026-04-18T15:16:16.999Z</time></trkpt><trkpt lat="37.98671763823308" lon="15.721024380460983"><ele>663.0</ele><time>2026-04-18T15:16:19Z</time></trkpt><trkpt lat="37.98668041158333" lon="15.720929564423713"><ele>663.0</ele><time>2026-04-18T15:16:36Z</time></trkpt><trkpt lat="37.98664987285691" lon="15.720857142246475"><ele>663.0</ele><time>2026-04-18T15:16:37Z</time></trkpt><trkpt lat="37.98661341986473" lon="15.720767734130972"><ele>662.2</ele><time>2026-04-18T15:16:38Z</time></trkpt><trkpt lat="37.98657251491578" lon="15.720665933775239"><ele>661.4</ele><time>2026-04-18T15:16:39Z</time></trkpt><trkpt lat="37.986528788356196" lon="15.720553400266086"><ele>660.6</ele><time>2026-04-18T15:16:40Z</time></trkpt><trkpt lat="37.98648083864333" lon="15.720420080816195"><ele>659.8000000000001</ele><time>2026-04-18T15:16:41Z</time></trkpt><trkpt lat="37.986432489730134" lon="15.72029069354324"><ele>659.0</ele><time>2026-04-18T15:16:42Z</time></trkpt><trkpt lat="37.986384030980766" lon="15.720159437143858"><ele>656.8000000000001</ele><time>2026-04-18T15:16:43Z</time></trkpt><trkpt lat="37.98633593389396" lon="15.72002791708647"><ele>654.6</ele><time>2026-04-18T15:16:44Z</time></trkpt><trkpt lat="37.98629051716899" lon="15.719906361480893"><ele>652.4</ele><time>2026-04-18T15:16:45Z</time></trkpt><trkpt lat="37.98624613495867" lon="15.719788323910084"><ele>650.2</ele><time>2026-04-18T15:16:46Z</time></trkpt><trkpt lat="37.98619977747023" lon="15.71967000329495"><ele>648.0</ele><time>2026-04-18T15:16:47Z</time></trkpt><trkpt lat="37.98615639805623" lon="15.719543761190055"><ele>648.0</ele><time>2026-04-18T15:16:48Z</time></trkpt><trkpt lat="37.98612374572122" lon="15.719412379968153"><ele>648.0</ele><time>2026-04-18T15:16:49Z</time></trkpt><trkpt lat="37.986095450413984" lon="15.719244624657453"><ele>648.0</ele><time>2026-04-18T15:16:50Z</time></trkpt><trkpt lat="37.986064244799806" lon="15.719067981993852"><ele>648.0</ele><time>2026-04-18T15:16:51Z</time></trkpt><trkpt lat="37.98603015736135" lon="15.718900882961043"><ele>642.0</ele><time>2026-04-18T15:16:52Z</time></trkpt><trkpt lat="37.98599928364023" lon="15.718740705543343"><ele>636.0</ele><time>2026-04-18T15:16:53Z</time></trkpt><trkpt lat="37.98597243956791" lon="15.718579202348515"><ele>630.0</ele><time>2026-04-18T15:16:54Z</time></trkpt><trkpt lat="37.985944103926926" lon="15.718424540629599"><ele>624.0</ele><time>2026-04-18T15:16:55Z</time></trkpt><trkpt lat="37.98591751908274" lon="15.718282887287216"><ele>625.2</ele><time>2026-04-18T15:16:56Z</time></trkpt><trkpt lat="37.98588709738742" lon="15.718154561311884"><ele>626.4</ele><time>2026-04-18T15:16:57Z</time></trkpt><trkpt lat="37.98584704075966" lon="15.71804397805762"><ele>627.6</ele><time>2026-04-18T15:16:58Z</time></trkpt><trkpt lat="37.98578970155438" lon="15.717930574882951"><ele>628.8</ele><time>2026-04-18T15:16:59Z</time></trkpt><trkpt lat="37.98574242124436" lon="15.717826079489685"><ele>630.0</ele><time>2026-04-18T15:17:00Z</time></trkpt><trkpt lat="37.98571104054158" lon="15.717714151394329"><ele>630.0</ele><time>2026-04-18T15:17:01Z</time></trkpt><trkpt lat="37.98569675627006" lon="15.717589039932117"><ele>630.0</ele><time>2026-04-18T15:17:02Z</time></trkpt><trkpt lat="37.985696427683855" lon="15.717457686681518"><ele>630.0</ele><time>2026-04-18T15:17:03Z</time></trkpt><trkpt lat="37.98569373364252" lon="15.717313351342625"><ele>630.0</ele><time>2026-04-18T15:17:04Z</time></trkpt><trkpt lat="37.985685478710586" lon="15.717172808593523"><ele>630.0</ele><time>2026-04-18T15:17:05Z</time></trkpt><trkpt lat="37.985659470833085" lon="15.717046834841232"><ele>630.0</ele><time>2026-04-18T15:17:06Z</time></trkpt><trkpt lat="37.98562325187975" lon="15.716954259615624"><ele>630.0</ele><time>2026-04-18T15:17:07Z</time></trkpt><trkpt lat="37.98558838818758" lon="15.716877270859698"><ele>630.0</ele><time>2026-04-18T15:17:08Z</time></trkpt><trkpt lat="37.98554649515538" lon="15.716786224129416"><ele>630.0</ele><time>2026-04-18T15:17:09Z</time></trkpt><trkpt lat="37.985501846319224" lon="15.716705554644152"><ele>630.0</ele><time>2026-04-18T15:17:10Z</time></trkpt><trkpt lat="37.98544556423016" lon="15.716647835421144"><ele>630.0</ele><time>2026-04-18T15:17:11Z</time></trkpt><trkpt lat="37.98539115446349" lon="15.716581035327534"><ele>628.5</ele><time>2026-04-18T15:17:12Z</time></trkpt><trkpt lat="37.98532517381793" lon="15.716542715145177"><ele>627.0</ele><time>2026-04-18T15:17:13Z</time></trkpt><trkpt lat="37.98524541447325" lon="15.716507729070742"><ele>625.5</ele><time>2026-04-18T15:17:14Z</time></trkpt><trkpt lat="37.985162260652565" lon="15.716470897340109"><ele>624.0</ele><time>2026-04-18T15:17:15Z</time></trkpt><trkpt lat="37.98509091338904" lon="15.716422223427301"><ele>622.5</ele><time>2026-04-18T15:17:16Z</time></trkpt><trkpt lat="37.98502152709459" lon="15.716365692809205"><ele>621.0</ele><time>2026-04-18T15:17:17Z</time></trkpt><trkpt lat="37.98495126163454" lon="15.716312531963288"><ele>621.0</ele><time>2026-04-18T15:17:18Z</time></trkpt><trkpt lat="37.984874601576166" lon="15.71625287321782"><ele>621.0</ele><time>2026-04-18T15:17:19Z</time></trkpt><trkpt lat="37.984808476911404" lon="15.716197585465373"><ele>621.0</ele><time>2026-04-18T15:17:20Z</time></trkpt><trkpt lat="37.9847644740115" lon="15.71612569710585"><ele>621.0</ele><time>2026-04-18T15:17:21Z</time></trkpt><trkpt lat="37.98474431530059" lon="15.716046556247498"><ele>621.0</ele><time>2026-04-18T15:17:22Z</time></trkpt><trkpt lat="37.98473201112464" lon="15.715957784004361"><ele>621.0</ele><time>2026-04-18T15:17:23Z</time></trkpt><trkpt lat="37.98473680097477" lon="15.715800836118767"><ele>619.8</ele><time>2026-04-18T15:17:24Z</time></trkpt><trkpt lat="37.984738379698584" lon="15.71562380742298"><ele>618.6</ele><time>2026-04-18T15:17:25Z</time></trkpt><trkpt lat="37.98472861027395" lon="15.715485477787917"><ele>617.4</ele><time>2026-04-18T15:17:26Z</time></trkpt><trkpt lat="37.98472344498329" lon="15.71536977029507"><ele>616.2</ele><time>2026-04-18T15:17:27Z</time></trkpt><trkpt lat="37.98472362547305" lon="15.715242631959978"><ele>615.0</ele><time>2026-04-18T15:17:28Z</time></trkpt><trkpt lat="37.984716404287134" lon="15.71511372229712"><ele>613.6666666666666</ele><time>2026-04-18T15:17:29Z</time></trkpt><trkpt lat="37.98471274719828" lon="15.714987131602589"><ele>612.3333333333334</ele><time>2026-04-18T15:17:30Z</time></trkpt><trkpt lat="37.98472839979949" lon="15.714870717442436"><ele>611.0</ele><time>2026-04-18T15:17:31Z</time></trkpt><trkpt lat="37.984744656894804" lon="15.71478155117842"><ele>609.6666666666667</ele><time>2026-04-18T15:17:32Z</time></trkpt><trkpt lat="37.98476057875843" lon="15.71469979333345"><ele>608.3333333333334</ele><time>2026-04-18T15:17:34Z</time></trkpt><trkpt lat="37.98477603936169" lon="15.714568536943464"><ele>607.0</ele><time>2026-04-18T15:17:36Z</time></trkpt><trkpt lat="37.984773755155956" lon="15.714472672825393"><ele>605.4</ele><time>2026-04-18T15:17:37Z</time></trkpt><trkpt lat="37.98477078749874" lon="15.714366446567709"><ele>603.8000000000001</ele><time>2026-04-18T15:17:38Z</time></trkpt><trkpt lat="37.984748939935784" lon="15.714264520668985"><ele>602.2</ele><time>2026-04-18T15:17:39Z</time></trkpt><trkpt lat="37.984701946205654" lon="15.714164218099729"><ele>600.6</ele><time>2026-04-18T15:17:40Z</time></trkpt><trkpt lat="37.98464224920402" lon="15.714063143173231"><ele>599.0</ele><time>2026-04-18T15:17:41Z</time></trkpt><trkpt lat="37.98457665695241" lon="15.713977128382469"><ele>599.0</ele><time>2026-04-18T15:17:42Z</time></trkpt><trkpt lat="37.98450952878706" lon="15.713909772667366"><ele>599.0</ele><time>2026-04-18T15:17:43Z</time></trkpt><trkpt lat="37.98442400662818" lon="15.713867949651661"><ele>599.0</ele><time>2026-04-18T15:17:44Z</time></trkpt><trkpt lat="37.98432578522982" lon="15.713847272755796"><ele>599.0</ele><time>2026-04-18T15:17:45Z</time></trkpt><trkpt lat="37.984217316202674" lon="15.71382915540193"><ele>599.0</ele><time>2026-04-18T15:17:46Z</time></trkpt><trkpt lat="37.984116824186415" lon="15.713806020712394"><ele>599.8</ele><time>2026-04-18T15:17:47Z</time></trkpt><trkpt lat="37.98403363325299" lon="15.713761338602806"><ele>600.5999999999999</ele><time>2026-04-18T15:17:48Z</time></trkpt><trkpt lat="37.98396549569994" lon="15.7136816102638"><ele>601.4</ele><time>2026-04-18T15:17:49Z</time></trkpt><trkpt lat="37.983889694667994" lon="15.71358087437237"><ele>602.1999999999999</ele><time>2026-04-18T15:17:50Z</time></trkpt><trkpt lat="37.98381239059764" lon="15.713476388972989"><ele>603.0</ele><time>2026-04-18T15:17:51Z</time></trkpt><trkpt lat="37.98373529367449" lon="15.713375927403364"><ele>601.3333333333334</ele><time>2026-04-18T15:17:52Z</time></trkpt><trkpt lat="37.98366790608141" lon="15.713284172912882"><ele>599.6666666666666</ele><time>2026-04-18T15:17:53Z</time></trkpt><trkpt lat="37.98361842446604" lon="15.713184645337353"><ele>598.0</ele><time>2026-04-18T15:17:54Z</time></trkpt><trkpt lat="37.98357801989896" lon="15.713084600344997"><ele>596.3333333333333</ele><time>2026-04-18T15:17:54.999Z</time></trkpt><trkpt lat="37.98353946932806" lon="15.713001254078346"><ele>594.6666666666666</ele><time>2026-04-18T15:17:55.999Z</time></trkpt><trkpt lat="37.983504867112615" lon="15.712920496150462"><ele>593.0</ele><time>2026-04-18T15:17:56.999Z</time></trkpt><trkpt lat="37.98347758550819" lon="15.712834786657199"><ele>593.0</ele><time>2026-04-18T15:17:58.999Z</time></trkpt><trkpt lat="37.983417763986935" lon="15.71274536444139"><ele>593.0</ele><time>2026-04-18T15:18:01.999Z</time></trkpt><trkpt lat="37.983391166670174" lon="15.712667173086754"><ele>593.0</ele><time>2026-04-18T15:18:03.999Z</time></trkpt><trkpt lat="37.98335204301353" lon="15.712585067172713"><ele>593.0</ele><time>2026-04-18T15:18:05.999Z</time></trkpt><trkpt lat="37.98330245026475" lon="15.71249476448049"><ele>593.0</ele><time>2026-04-18T15:18:07.999Z</time></trkpt><trkpt lat="37.98325375578657" lon="15.712363088751035"><ele>593.0</ele><time>2026-04-18T15:18:09.999Z</time></trkpt><trkpt lat="37.983199859505405" lon="15.71222265343426"><ele>590.75</ele><time>2026-04-18T15:18:11.999Z</time></trkpt><trkpt lat="37.98313806612619" lon="15.712087346159668"><ele>588.5</ele><time>2026-04-18T15:18:13.999Z</time></trkpt><trkpt lat="37.983028128274334" lon="15.712020596973286"><ele>586.25</ele><time>2026-04-18T15:18:15.999Z</time></trkpt><trkpt lat="37.98291541947748" lon="15.712091103059622"><ele>584.0</ele><time>2026-04-18T15:18:17.999Z</time></trkpt><trkpt lat="37.98289199724493" lon="15.712241039145306"><ele>584.0</ele><time>2026-04-18T15:18:19.999Z</time></trkpt><trkpt lat="37.98286268303116" lon="15.71237761656636"><ele>584.0</ele><time>2026-04-18T15:18:21.999Z</time></trkpt><trkpt lat="37.982829093387124" lon="15.712504471294878"><ele>584.0</ele><time>2026-04-18T15:18:23.999Z</time></trkpt><trkpt lat="37.98278021086614" lon="15.712616991661445"><ele>584.0</ele><time>2026-04-18T15:18:26Z</time></trkpt><trkpt lat="37.9826825501089" lon="15.712658551974354"><ele>584.0</ele><time>2026-04-18T15:18:28Z</time></trkpt><trkpt lat="37.98261867811609" lon="15.712636160879637"><ele>584.0</ele><time>2026-04-18T15:18:29Z</time></trkpt><trkpt lat="37.982555731536195" lon="15.712597922575396"><ele>584.0</ele><time>2026-04-18T15:18:30Z</time></trkpt><trkpt lat="37.98249606782216" lon="15.712553581400897"><ele>584.0</ele><time>2026-04-18T15:18:31Z</time></trkpt><trkpt lat="37.98243679453518" lon="15.712513168952439"><ele>584.0</ele><time>2026-04-18T15:18:32Z</time></trkpt><trkpt lat="37.982362656084035" lon="15.712511163588768"><ele>584.0</ele><time>2026-04-18T15:18:33Z</time></trkpt><trkpt lat="37.98229057617612" lon="15.712542189079828"><ele>584.0</ele><time>2026-04-18T15:18:34Z</time></trkpt><trkpt lat="37.98222453821468" lon="15.712575784009811"><ele>584.0</ele><time>2026-04-18T15:18:35Z</time></trkpt><trkpt lat="37.98215588785747" lon="15.712600175181445"><ele>583.5</ele><time>2026-04-18T15:18:36Z</time></trkpt><trkpt lat="37.98209321484607" lon="15.712613115273891"><ele>583.0</ele><time>2026-04-18T15:18:37Z</time></trkpt><trkpt lat="37.98203415204974" lon="15.712714401794374"><ele>582.5</ele><time>2026-04-18T15:18:39Z</time></trkpt><trkpt lat="37.98205171131021" lon="15.71280108861026"><ele>582.0</ele><time>2026-04-18T15:18:40Z</time></trkpt><trkpt lat="37.98208805792751" lon="15.712881654980503"><ele>581.5</ele><time>2026-04-18T15:18:41Z</time></trkpt><trkpt lat="37.982101729673595" lon="15.712961049448095"><ele>581.0</ele><time>2026-04-18T15:18:42Z</time></trkpt><trkpt lat="37.98206963693146" lon="15.713108672660852"><ele>581.0</ele><time>2026-04-18T15:18:44Z</time></trkpt><trkpt lat="37.981990623494774" lon="15.713217035262641"><ele>581.0</ele><time>2026-04-18T15:18:46Z</time></trkpt><trkpt lat="37.98193969566967" lon="15.71333604645996"><ele>581.0</ele><time>2026-04-18T15:18:48Z</time></trkpt><trkpt lat="37.98192231514846" lon="15.71342453623423"><ele>581.0</ele><time>2026-04-18T15:18:50Z</time></trkpt><trkpt lat="37.98187609255653" lon="15.713504903660299"><ele>581.0</ele><time>2026-04-18T15:18:52Z</time></trkpt><trkpt lat="37.98179876512399" lon="15.713497887038766"><ele>581.0</ele><time>2026-04-18T15:18:54Z</time></trkpt><trkpt lat="37.98172913755565" lon="15.713412481507612"><ele>581.0</ele><time>2026-04-18T15:18:56Z</time></trkpt><trkpt lat="37.98167708088154" lon="15.713277104337685"><ele>581.0</ele><time>2026-04-18T15:18:58Z</time></trkpt><trkpt lat="37.98161140164239" lon="15.713163131233076"><ele>581.0</ele><time>2026-04-18T15:19:00Z</time></trkpt><trkpt lat="37.98151468714788" lon="15.713064526382986"><ele>576.3333333333333</ele><time>2026-04-18T15:19:02Z</time></trkpt><trkpt lat="37.98145441829597" lon="15.713010750304706"><ele>571.6666666666666</ele><time>2026-04-18T15:19:03Z</time></trkpt><trkpt lat="37.981390719569596" lon="15.712962536994993"><ele>567.0</ele><time>2026-04-18T15:19:04Z</time></trkpt><trkpt lat="37.981327933082234" lon="15.712946653692866"><ele>562.3333333333334</ele><time>2026-04-18T15:19:05Z</time></trkpt><trkpt lat="37.981221931675776" lon="15.713001197470003"><ele>557.6666666666667</ele><time>2026-04-18T15:19:07Z</time></trkpt><trkpt lat="37.98112664027329" lon="15.713031842568046"><ele>553.0</ele><time>2026-04-18T15:19:09Z</time></trkpt><trkpt lat="37.98106987889793" lon="15.712993155039248"><ele>553.0</ele><time>2026-04-18T15:19:10Z</time></trkpt><trkpt lat="37.981026405965714" lon="15.712922554793126"><ele>553.0</ele><time>2026-04-18T15:19:11Z</time></trkpt><trkpt lat="37.98098818466908" lon="15.712856976219838"><ele>553.0</ele><time>2026-04-18T15:19:12Z</time></trkpt><trkpt lat="37.98093338172091" lon="15.712791072463078"><ele>553.0</ele><time>2026-04-18T15:19:13Z</time></trkpt><trkpt lat="37.98087763153417" lon="15.712722031948694"><ele>553.0</ele><time>2026-04-18T15:19:14Z</time></trkpt><trkpt lat="37.98082914743534" lon="15.71266195340745"><ele>553.0</ele><time>2026-04-18T15:19:15Z</time></trkpt><trkpt lat="37.98073655808735" lon="15.712561424711536"><ele>546.1666666666667</ele><time>2026-04-18T15:19:17Z</time></trkpt><trkpt lat="37.9806674962266" lon="15.712528013076973"><ele>539.3333333333334</ele><time>2026-04-18T15:19:18Z</time></trkpt><trkpt lat="37.980583512102776" lon="15.712517772632873"><ele>532.5</ele><time>2026-04-18T15:19:19Z</time></trkpt><trkpt lat="37.98050117746907" lon="15.71253542317212"><ele>525.6666666666666</ele><time>2026-04-18T15:19:20Z</time></trkpt><trkpt lat="37.98043779155246" lon="15.712558705474857"><ele>518.8333333333333</ele><time>2026-04-18T15:19:21Z</time></trkpt><trkpt lat="37.98036335942412" lon="15.712556260735065"><ele>512.0</ele><time>2026-04-18T15:19:23Z</time></trkpt><trkpt lat="37.98027213673083" lon="15.712482097724859"><ele>511.99999999999994</ele><time>2026-04-18T15:19:25Z</time></trkpt><trkpt lat="37.98021707125713" lon="15.712433243527208"><ele>512.0</ele><time>2026-04-18T15:19:26Z</time></trkpt><trkpt lat="37.980158447658226" lon="15.712391627196112"><ele>512.0</ele><time>2026-04-18T15:19:27Z</time></trkpt><trkpt lat="37.980052166897" lon="15.712303517744784"><ele>512.0</ele><time>2026-04-18T15:19:29Z</time></trkpt><trkpt lat="37.97999321406907" lon="15.712235382143566"><ele>511.99999999999994</ele><time>2026-04-18T15:19:30Z</time></trkpt><trkpt lat="37.97994641634726" lon="15.712162124939988"><ele>512.0</ele><time>2026-04-18T15:19:31Z</time></trkpt><trkpt lat="37.979905716202126" lon="15.712073310320553"><ele>510.0</ele><time>2026-04-18T15:19:32Z</time></trkpt><trkpt lat="37.97986085620995" lon="15.711983737923314"><ele>508.00000000000006</ele><time>2026-04-18T15:19:33Z</time></trkpt><trkpt lat="37.97981098918181" lon="15.71188800129823"><ele>506.00000000000006</ele><time>2026-04-18T15:19:34Z</time></trkpt><trkpt lat="37.97975578624412" lon="15.711796178718174"><ele>504.0</ele><time>2026-04-18T15:19:35Z</time></trkpt><trkpt lat="37.979699473503246" lon="15.711704583872368"><ele>502.0</ele><time>2026-04-18T15:19:36Z</time></trkpt><trkpt lat="37.97964386069468" lon="15.711607671228164"><ele>499.20000000000005</ele><time>2026-04-18T15:19:37Z</time></trkpt><trkpt lat="37.979588634910336" lon="15.711512632666158"><ele>496.40000000000003</ele><time>2026-04-18T15:19:38Z</time></trkpt><trkpt lat="37.97952607019649" lon="15.711438393870091"><ele>493.59999999999997</ele><time>2026-04-18T15:19:39Z</time></trkpt><trkpt lat="37.97944079431603" lon="15.711388899350068"><ele>490.79999999999995</ele><time>2026-04-18T15:19:40Z</time></trkpt><trkpt lat="37.979345635069706" lon="15.711364290332032"><ele>488.0</ele><time>2026-04-18T15:19:41Z</time></trkpt><trkpt lat="37.979265052924845" lon="15.711344714842477"><ele>487.99999999999994</ele><time>2026-04-18T15:19:42Z</time></trkpt><trkpt lat="37.97920681463042" lon="15.711304441242905"><ele>488.0</ele><time>2026-04-18T15:19:43Z</time></trkpt><trkpt lat="37.979164523197944" lon="15.711233310274276"><ele>488.0</ele><time>2026-04-18T15:19:44Z</time></trkpt><trkpt lat="37.97911412408084" lon="15.711146159099243"><ele>488.0</ele><time>2026-04-18T15:19:45Z</time></trkpt><trkpt lat="37.9790600461738" lon="15.711038305174805"><ele>487.99999999999994</ele><time>2026-04-18T15:19:46Z</time></trkpt><trkpt lat="37.97901072249845" lon="15.710925139824466"><ele>488.0</ele><time>2026-04-18T15:19:47Z</time></trkpt><trkpt lat="37.978973564788646" lon="15.710809057495082"><ele>488.59999999999997</ele><time>2026-04-18T15:19:48Z</time></trkpt><trkpt lat="37.97893823913068" lon="15.710688853703983"><ele>489.19999999999993</ele><time>2026-04-18T15:19:49Z</time></trkpt><trkpt lat="37.97890520093006" lon="15.710569043716683"><ele>489.8</ele><time>2026-04-18T15:19:50Z</time></trkpt><trkpt lat="37.97887122877218" lon="15.710448158183057"><ele>490.4</ele><time>2026-04-18T15:19:51Z</time></trkpt><trkpt lat="37.978847466389134" lon="15.710322968748065"><ele>491.0</ele><time>2026-04-18T15:19:52Z</time></trkpt><trkpt lat="37.978824960538454" lon="15.710203717679153"><ele>489.8333333333333</ele><time>2026-04-18T15:19:53Z</time></trkpt><trkpt lat="37.97879124321103" lon="15.710091984471024"><ele>488.66666666666663</ele><time>2026-04-18T15:19:54Z</time></trkpt><trkpt lat="37.97875928071501" lon="15.709984054768118"><ele>487.5</ele><time>2026-04-18T15:19:55Z</time></trkpt><trkpt lat="37.97872071708538" lon="15.709895585083085"><ele>486.33333333333337</ele><time>2026-04-18T15:19:56Z</time></trkpt><trkpt lat="37.97867347572051" lon="15.709823456732822"><ele>485.1666666666667</ele><time>2026-04-18T15:19:57Z</time></trkpt><trkpt lat="37.97862216284097" lon="15.709759390385884"><ele>484.0</ele><time>2026-04-18T15:19:58Z</time></trkpt><trkpt lat="37.97856401512306" lon="15.709697350719418"><ele>484.00000000000006</ele><time>2026-04-18T15:19:59Z</time></trkpt><trkpt lat="37.978497254496794" lon="15.709625896924841"><ele>484.0</ele><time>2026-04-18T15:20:00Z</time></trkpt><trkpt lat="37.97842006756809" lon="15.709552106450984"><ele>484.0</ele><time>2026-04-18T15:20:01Z</time></trkpt><trkpt lat="37.9783454130346" lon="15.709485296185916"><ele>484.0</ele><time>2026-04-18T15:20:02Z</time></trkpt><trkpt lat="37.978285221625846" lon="15.709398385600416"><ele>484.00000000000006</ele><time>2026-04-18T15:20:03Z</time></trkpt><trkpt lat="37.978223337796216" lon="15.709330051287763"><ele>484.0</ele><time>2026-04-18T15:20:04Z</time></trkpt><trkpt lat="37.97816975816874" lon="15.709255581442935"><ele>484.71428571428567</ele><time>2026-04-18T15:20:05Z</time></trkpt><trkpt lat="37.97811883522958" lon="15.709178336613954"><ele>485.4285714285714</ele><time>2026-04-18T15:20:05.999Z</time></trkpt><trkpt lat="37.9780730646981" lon="15.709108220844046"><ele>486.1428571428571</ele><time>2026-04-18T15:20:06.999Z</time></trkpt><trkpt lat="37.97804322333554" lon="15.70902924832347"><ele>486.8571428571429</ele><time>2026-04-18T15:20:07.999Z</time></trkpt><trkpt lat="37.97803986377285" lon="15.708949033839449"><ele>487.5714285714286</ele><time>2026-04-18T15:20:08.999Z</time></trkpt><trkpt lat="37.97805276126133" lon="15.708856453778237"><ele>488.28571428571433</ele><time>2026-04-18T15:20:09.999Z</time></trkpt><trkpt lat="37.978067878593365" lon="15.708756197940046"><ele>489.0</ele><time>2026-04-18T15:20:10.999Z</time></trkpt><trkpt lat="37.97807300365398" lon="15.70865181783326"><ele>487.6666666666667</ele><time>2026-04-18T15:20:11.999Z</time></trkpt><trkpt lat="37.978066823199164" lon="15.708540365288778"><ele>486.33333333333337</ele><time>2026-04-18T15:20:12.999Z</time></trkpt><trkpt lat="37.97804840331197" lon="15.708439110268946"><ele>485.0</ele><time>2026-04-18T15:20:13.999Z</time></trkpt><trkpt lat="37.97802175052927" lon="15.70835065383128"><ele>483.6666666666667</ele><time>2026-04-18T15:20:14.999Z</time></trkpt><trkpt lat="37.978004394247755" lon="15.708267400576105"><ele>482.33333333333337</ele><time>2026-04-18T15:20:15.999Z</time></trkpt><trkpt lat="37.97797876563897" lon="15.708127750354235"><ele>481.0</ele><time>2026-04-18T15:20:17.999Z</time></trkpt><trkpt lat="37.97795764511536" lon="15.708009175568908"><ele>481.00000000000006</ele><time>2026-04-18T15:20:19.999Z</time></trkpt><trkpt lat="37.97792867687142" lon="15.707859507504963"><ele>481.0</ele><time>2026-04-18T15:20:21.999Z</time></trkpt><trkpt lat="37.977912020882535" lon="15.70777114328759"><ele>481.0</ele><time>2026-04-18T15:20:22.999Z</time></trkpt><trkpt lat="37.97789567544559" lon="15.707675511537992"><ele>481.0</ele><time>2026-04-18T15:20:23.999Z</time></trkpt><trkpt lat="37.97787389347164" lon="15.707578718557798"><ele>481.00000000000006</ele><time>2026-04-18T15:20:24.999Z</time></trkpt><trkpt lat="37.977842690713885" lon="15.707462282895275"><ele>481.0</ele><time>2026-04-18T15:20:25.999Z</time></trkpt><trkpt lat="37.97780311068744" lon="15.707349590831761"><ele>479.8</ele><time>2026-04-18T15:20:26.999Z</time></trkpt><trkpt lat="37.97775328276514" lon="15.707240947632288"><ele>478.6</ele><time>2026-04-18T15:20:27.999Z</time></trkpt><trkpt lat="37.97769442975253" lon="15.707127162498448"><ele>477.4</ele><time>2026-04-18T15:20:28.999Z</time></trkpt><trkpt lat="37.97763487563669" lon="15.707000083999102"><ele>476.2</ele><time>2026-04-18T15:20:29.999Z</time></trkpt><trkpt lat="37.97757895434553" lon="15.706871325341911"><ele>475.0</ele><time>2026-04-18T15:20:31.001Z</time></trkpt><trkpt lat="37.97752661910098" lon="15.706744989095675"><ele>474.4</ele><time>2026-04-18T15:20:32.001Z</time></trkpt><trkpt lat="37.97748266745385" lon="15.706619948683368"><ele>473.8</ele><time>2026-04-18T15:20:33.001Z</time></trkpt><trkpt lat="37.977446813666326" lon="15.706494140934625"><ele>473.20000000000005</ele><time>2026-04-18T15:20:34.001Z</time></trkpt><trkpt lat="37.97742819691847" lon="15.706360741486728"><ele>472.6</ele><time>2026-04-18T15:20:35.001Z</time></trkpt><trkpt lat="37.97741822130623" lon="15.706222483705563"><ele>472.0</ele><time>2026-04-18T15:20:36.001Z</time></trkpt><trkpt lat="37.9774079028682" lon="15.706091593279787"><ele>471.8</ele><time>2026-04-18T15:20:37.001Z</time></trkpt><trkpt lat="37.97740175441062" lon="15.70596778041453"><ele>471.6</ele><time>2026-04-18T15:20:38.001Z</time></trkpt><trkpt lat="37.977391559273556" lon="15.705841799741654"><ele>471.40000000000003</ele><time>2026-04-18T15:20:39Z</time></trkpt><trkpt lat="37.97736607065492" lon="15.705712192050004"><ele>471.20000000000005</ele><time>2026-04-18T15:20:40Z</time></trkpt><trkpt lat="37.977313224017614" lon="15.705590073083306"><ele>471.0</ele><time>2026-04-18T15:20:41Z</time></trkpt><trkpt lat="37.97724623205617" lon="15.705476960017416"><ele>471.0</ele><time>2026-04-18T15:20:42Z</time></trkpt><trkpt lat="37.977169986463664" lon="15.70537818347486"><ele>471.0</ele><time>2026-04-18T15:20:43Z</time></trkpt><trkpt lat="37.97709112626388" lon="15.705281973812536"><ele>471.0</ele><time>2026-04-18T15:20:44Z</time></trkpt><trkpt lat="37.97701694311579" lon="15.705176825959345"><ele>471.0</ele><time>2026-04-18T15:20:45Z</time></trkpt><trkpt lat="37.97695020925495" lon="15.705071174994135"><ele>471.0</ele><time>2026-04-18T15:20:46Z</time></trkpt><trkpt lat="37.97689837610779" lon="15.704965623248402"><ele>470.20000000000005</ele><time>2026-04-18T15:20:47Z</time></trkpt><trkpt lat="37.97684753786" lon="15.704845228308365"><ele>469.40000000000003</ele><time>2026-04-18T15:20:48Z</time></trkpt><trkpt lat="37.976784229426606" lon="15.70474976643072"><ele>468.6</ele><time>2026-04-18T15:20:49Z</time></trkpt><trkpt lat="37.976710490417744" lon="15.704678093395575"><ele>467.8</ele><time>2026-04-18T15:20:50Z</time></trkpt><trkpt lat="37.97663147764722" lon="15.704624638740398"><ele>467.0</ele><time>2026-04-18T15:20:51Z</time></trkpt><trkpt lat="37.976541502431886" lon="15.704588626483835"><ele>467.0</ele><time>2026-04-18T15:20:52Z</time></trkpt><trkpt lat="37.97644049919537" lon="15.704569094325326"><ele>467.00000000000006</ele><time>2026-04-18T15:20:53Z</time></trkpt><trkpt lat="37.97634311781796" lon="15.704567426732238"><ele>467.00000000000006</ele><time>2026-04-18T15:20:54Z</time></trkpt><trkpt lat="37.976246614848854" lon="15.70455787512242"><ele>467.0</ele><time>2026-04-18T15:20:55Z</time></trkpt><trkpt lat="37.976161387337314" lon="15.70451013671626"><ele>467.0</ele><time>2026-04-18T15:20:56Z</time></trkpt><trkpt lat="37.976082341139126" lon="15.704447738376388"><ele>467.6</ele><time>2026-04-18T15:20:57Z</time></trkpt><trkpt lat="37.97601239803591" lon="15.70436729559154"><ele>468.20000000000005</ele><time>2026-04-18T15:20:58Z</time></trkpt><trkpt lat="37.97593778546418" lon="15.704282261333551"><ele>468.8</ele><time>2026-04-18T15:20:59Z</time></trkpt><trkpt lat="37.97585427423219" lon="15.704200225503364"><ele>469.4</ele><time>2026-04-18T15:21:00Z</time></trkpt><trkpt lat="37.9757613535206" lon="15.704122514842666"><ele>470.0</ele><time>2026-04-18T15:21:01Z</time></trkpt><trkpt lat="37.97566267884181" lon="15.70405015534933"><ele>467.8</ele><time>2026-04-18T15:21:02Z</time></trkpt><trkpt lat="37.975554654022346" lon="15.703990736824645"><ele>465.6</ele><time>2026-04-18T15:21:03Z</time></trkpt><trkpt lat="37.975442910686404" lon="15.703940468212412"><ele>463.4</ele><time>2026-04-18T15:21:04Z</time></trkpt><trkpt lat="37.97534028738549" lon="15.703886229337899"><ele>461.2</ele><time>2026-04-18T15:21:05Z</time></trkpt><trkpt lat="37.97525469635519" lon="15.703838949494962"><ele>459.0</ele><time>2026-04-18T15:21:06Z</time></trkpt><trkpt lat="37.975172792584445" lon="15.703817857061395"><ele>459.0</ele><time>2026-04-18T15:21:07Z</time></trkpt><trkpt lat="37.97509038422651" lon="15.703827251715204"><ele>459.0</ele><time>2026-04-18T15:21:08Z</time></trkpt><trkpt lat="37.97501663904572" lon="15.70385961902058"><ele>459.0</ele><time>2026-04-18T15:21:09Z</time></trkpt><trkpt lat="37.9749515254954" lon="15.703872767883334"><ele>459.0</ele><time>2026-04-18T15:21:10Z</time></trkpt><trkpt lat="37.97487147712686" lon="15.703785814833557"><ele>459.0</ele><time>2026-04-18T15:21:12Z</time></trkpt><trkpt lat="37.97489178315131" lon="15.703614811821968"><ele>455.6666666666667</ele><time>2026-04-18T15:21:14Z</time></trkpt><trkpt lat="37.974924459506454" lon="15.703513301266371"><ele>452.33333333333337</ele><time>2026-04-18T15:21:15Z</time></trkpt><trkpt lat="37.97495245838421" lon="15.703418232368874"><ele>449.0</ele><time>2026-04-18T15:21:16Z</time></trkpt><trkpt lat="37.974980800221424" lon="15.703325302641742"><ele>445.6666666666667</ele><time>2026-04-18T15:21:17Z</time></trkpt><trkpt lat="37.97501697489899" lon="15.703201298440366"><ele>442.33333333333337</ele><time>2026-04-18T15:21:19Z</time></trkpt><trkpt lat="37.97503248375177" lon="15.703120639687807"><ele>439.0</ele><time>2026-04-18T15:21:23Z</time></trkpt><trkpt lat="37.9749533230333" lon="15.703140332364743"><ele>437.6</ele><time>2026-04-18T15:23:34.999Z</time></trkpt><trkpt lat="37.974879341182955" lon="15.703105771353338"><ele>436.2</ele><time>2026-04-18T15:23:36.999Z</time></trkpt><trkpt lat="37.97475718640914" lon="15.703047880850752"><ele>434.80000000000007</ele><time>2026-04-18T15:23:38.999Z</time></trkpt><trkpt lat="37.97468341559321" lon="15.703001350076315"><ele>433.40000000000003</ele><time>2026-04-18T15:23:39.999Z</time></trkpt><trkpt lat="37.974604544565565" lon="15.702933514640105"><ele>432.0</ele><time>2026-04-18T15:23:40.999Z</time></trkpt><trkpt lat="37.97455435899319" lon="15.702843308785539"><ele>427.20000000000005</ele><time>2026-04-18T15:23:41.999Z</time></trkpt><trkpt lat="37.97450937370565" lon="15.702730287614859"><ele>422.40000000000003</ele><time>2026-04-18T15:23:42.999Z</time></trkpt><trkpt lat="37.97446874921494" lon="15.702623966404733"><ele>417.6</ele><time>2026-04-18T15:23:43.999Z</time></trkpt><trkpt lat="37.97443223714125" lon="15.70252219112058"><ele>412.79999999999995</ele><time>2026-04-18T15:23:44.999Z</time></trkpt><trkpt lat="37.974392628485155" lon="15.70241679025702"><ele>408.0</ele><time>2026-04-18T15:23:45.999Z</time></trkpt><trkpt lat="37.97435258173892" lon="15.702315003945023"><ele>408.0</ele><time>2026-04-18T15:23:46.999Z</time></trkpt><trkpt lat="37.97431280939488" lon="15.7022098441373"><ele>408.0</ele><time>2026-04-18T15:23:47.999Z</time></trkpt><trkpt lat="37.97427254611013" lon="15.702106517615046"><ele>408.0</ele><time>2026-04-18T15:23:48.999Z</time></trkpt><trkpt lat="37.974229008022675" lon="15.702010875833706"><ele>408.0</ele><time>2026-04-18T15:23:49.999Z</time></trkpt><trkpt lat="37.97419159663673" lon="15.70192736152037"><ele>408.0</ele><time>2026-04-18T15:23:50.999Z</time></trkpt><trkpt lat="37.974159213047976" lon="15.701769057300288"><ele>408.8333333333333</ele><time>2026-04-18T15:23:52.999Z</time></trkpt><trkpt lat="37.97417741825209" lon="15.701674679929884"><ele>409.66666666666663</ele><time>2026-04-18T15:23:53.999Z</time></trkpt><trkpt lat="37.974209637953166" lon="15.701585161813567"><ele>410.5</ele><time>2026-04-18T15:23:54.999Z</time></trkpt><trkpt lat="37.974241526331895" lon="15.7014928935391"><ele>411.3333333333333</ele><time>2026-04-18T15:23:55.999Z</time></trkpt><trkpt lat="37.97426427468843" lon="15.701393175256205"><ele>412.16666666666663</ele><time>2026-04-18T15:23:56.999Z</time></trkpt><trkpt lat="37.974257361240056" lon="15.701278592048494"><ele>413.0</ele><time>2026-04-18T15:23:57.999Z</time></trkpt><trkpt lat="37.97423531883582" lon="15.701153413489902"><ele>411.2</ele><time>2026-04-18T15:23:58.999Z</time></trkpt><trkpt lat="37.97420334022252" lon="15.70103147587931"><ele>409.4</ele><time>2026-04-18T15:23:59.999Z</time></trkpt><trkpt lat="37.974186252701024" lon="15.70089456216204"><ele>407.59999999999997</ele><time>2026-04-18T15:24:00.999Z</time></trkpt><trkpt lat="37.97419412617361" lon="15.700757216270699"><ele>405.79999999999995</ele><time>2026-04-18T15:24:01.999Z</time></trkpt><trkpt lat="37.974214475136534" lon="15.700609940938714"><ele>404.0</ele><time>2026-04-18T15:24:02.999Z</time></trkpt><trkpt lat="37.97423739611939" lon="15.700457536083968"><ele>398.0</ele><time>2026-04-18T15:24:03.999Z</time></trkpt><trkpt lat="37.97426112168725" lon="15.700306229225733"><ele>392.0</ele><time>2026-04-18T15:24:04.999Z</time></trkpt><trkpt lat="37.974284588583124" lon="15.700176956568766"><ele>386.0</ele><time>2026-04-18T15:24:05.999Z</time></trkpt><trkpt lat="37.97430688201159" lon="15.700052694861135"><ele>380.0</ele><time>2026-04-18T15:24:06.999Z</time></trkpt><trkpt lat="37.97432038942303" lon="15.699937748203068"><ele>374.0</ele><time>2026-04-18T15:24:07.999Z</time></trkpt><trkpt lat="37.97427896331547" lon="15.699792090527678"><ele>371.33333333333337</ele><time>2026-04-18T15:24:09.999Z</time></trkpt><trkpt lat="37.974206328368936" lon="15.699780099842501"><ele>368.6666666666667</ele><time>2026-04-18T15:24:10.999Z</time></trkpt><trkpt lat="37.97414043393382" lon="15.699807041200394"><ele>366.0</ele><time>2026-04-18T15:24:11.999Z</time></trkpt><trkpt lat="37.97406673021858" lon="15.699851504217111"><ele>363.3333333333333</ele><time>2026-04-18T15:24:12.999Z</time></trkpt><trkpt lat="37.9739797448053" lon="15.69988886428313"><ele>360.66666666666663</ele><time>2026-04-18T15:24:13.999Z</time></trkpt><trkpt lat="37.97389162367112" lon="15.69992358269533"><ele>358.0</ele><time>2026-04-18T15:24:14.999Z</time></trkpt><trkpt lat="37.97380547352912" lon="15.69993160363448"><ele>363.00000000000006</ele><time>2026-04-18T15:24:15.999Z</time></trkpt><trkpt lat="37.973740705445486" lon="15.699947788225794"><ele>368.0</ele><time>2026-04-18T15:24:16.999Z</time></trkpt><trkpt lat="37.973670101523126" lon="15.699915877247932"><ele>373.0</ele><time>2026-04-18T15:24:18.999Z</time></trkpt><trkpt lat="37.97370634676403" lon="15.69981585154676"><ele>378.0</ele><time>2026-04-18T15:24:20.999Z</time></trkpt><trkpt lat="37.97376495623407" lon="15.699776754446594"><ele>383.0</ele><time>2026-04-18T15:24:21.999Z</time></trkpt><trkpt lat="37.973832530902854" lon="15.699749792536679"><ele>388.00000000000006</ele><time>2026-04-18T15:24:22.999Z</time></trkpt><trkpt lat="37.973906927793664" lon="15.699701343705602"><ele>393.0</ele><time>2026-04-18T15:24:23.999Z</time></trkpt><trkpt lat="37.973981518549536" lon="15.69964201002316"><ele>393.0</ele><time>2026-04-18T15:24:24.999Z</time></trkpt><trkpt lat="37.97404077576332" lon="15.699565024731575"><ele>393.0</ele><time>2026-04-18T15:24:25.999Z</time></trkpt><trkpt lat="37.97410584422928" lon="15.699497788859848"><ele>393.0</ele><time>2026-04-18T15:24:26.999Z</time></trkpt><trkpt lat="37.97416773107762" lon="15.6994228705304"><ele>393.0</ele><time>2026-04-18T15:24:27.999Z</time></trkpt><trkpt lat="37.974227969168105" lon="15.699346968029753"><ele>393.0</ele><time>2026-04-18T15:24:28.999Z</time></trkpt><trkpt lat="37.974282221883534" lon="15.699281028875967"><ele>393.0</ele><time>2026-04-18T15:24:29.999Z</time></trkpt><trkpt lat="37.97432942324521" lon="15.69917721002411"><ele>390.3333333333333</ele><time>2026-04-18T15:24:31.999Z</time></trkpt><trkpt lat="37.97425542312037" lon="15.699107418896414"><ele>387.6666666666667</ele><time>2026-04-18T15:24:33.999Z</time></trkpt><trkpt lat="37.974150473662476" lon="15.699183457865153"><ele>385.0</ele><time>2026-04-18T15:24:35.999Z</time></trkpt><trkpt lat="37.974097141112445" lon="15.69924525186069"><ele>382.33333333333337</ele><time>2026-04-18T15:24:36.999Z</time></trkpt><trkpt lat="37.974031786212066" lon="15.699302828833442"><ele>379.6666666666667</ele><time>2026-04-18T15:24:37.999Z</time></trkpt><trkpt lat="37.97395553743814" lon="15.69934510012759"><ele>377.0</ele><time>2026-04-18T15:24:38.999Z</time></trkpt><trkpt lat="37.973871758719184" lon="15.69936519066178"><ele>377.0</ele><time>2026-04-18T15:24:39.999Z</time></trkpt><trkpt lat="37.97378706376346" lon="15.699369708173089"><ele>377.0</ele><time>2026-04-18T15:24:40.999Z</time></trkpt><trkpt lat="37.973702118054334" lon="15.699352677200718"><ele>377.0</ele><time>2026-04-18T15:24:41.999Z</time></trkpt><trkpt lat="37.97360915713293" lon="15.699315834723194"><ele>377.0</ele><time>2026-04-18T15:24:42.999Z</time></trkpt><trkpt lat="37.97351835659723" lon="15.699266258694392"><ele>377.0</ele><time>2026-04-18T15:24:43.999Z</time></trkpt><trkpt lat="37.97343469026701" lon="15.699260166418256"><ele>377.0</ele><time>2026-04-18T15:24:44.999Z</time></trkpt><trkpt lat="37.97336723379679" lon="15.699311536040932"><ele>377.0</ele><time>2026-04-18T15:24:45.999Z</time></trkpt><trkpt lat="37.97329469653405" lon="15.699385671109994"><ele>377.0</ele><time>2026-04-18T15:24:46.999Z</time></trkpt><trkpt lat="37.97325587162301" lon="15.699524899600172"><ele>377.0</ele><time>2026-04-18T15:24:47.999Z</time></trkpt><trkpt lat="37.97318721522616" lon="15.699624203762832"><ele>377.0</ele><time>2026-04-18T15:24:48.999Z</time></trkpt><trkpt lat="37.973077894981536" lon="15.699735663283832"><ele>377.1666666666667</ele><time>2026-04-18T15:24:50.999Z</time></trkpt><trkpt lat="37.97300860780274" lon="15.69980816922764"><ele>377.33333333333337</ele><time>2026-04-18T15:24:51.999Z</time></trkpt><trkpt lat="37.97293859481074" lon="15.699851149488634"><ele>377.5</ele><time>2026-04-18T15:24:52.999Z</time></trkpt><trkpt lat="37.97285720444845" lon="15.699879747093277"><ele>377.6666666666667</ele><time>2026-04-18T15:24:54.999Z</time></trkpt><trkpt lat="37.97283684723059" lon="15.699800749866787"><ele>377.8333333333333</ele><time>2026-04-18T15:24:55.999Z</time></trkpt><trkpt lat="37.97286557313949" lon="15.69972595581895"><ele>378.0</ele><time>2026-04-18T15:24:56.999Z</time></trkpt><trkpt lat="37.9729497105111" lon="15.699675596232773"><ele>378.0</ele><time>2026-04-18T15:24:57.999Z</time></trkpt><trkpt lat="37.973018170270336" lon="15.69958849704851"><ele>378.0</ele><time>2026-04-18T15:24:58.999Z</time></trkpt><trkpt lat="37.97306379519046" lon="15.699469643001006"><ele>378.0</ele><time>2026-04-18T15:24:59.999Z</time></trkpt><trkpt lat="37.97308882794497" lon="15.699336916362718"><ele>378.0</ele><time>2026-04-18T15:25:00.999Z</time></trkpt><trkpt lat="37.97308137846688" lon="15.69917895771197"><ele>378.0</ele><time>2026-04-18T15:25:01.999Z</time></trkpt><trkpt lat="37.97305679667555" lon="15.699021869101554"><ele>374.75</ele><time>2026-04-18T15:25:02.999Z</time></trkpt><trkpt lat="37.97306453534823" lon="15.698873441095756"><ele>371.5</ele><time>2026-04-18T15:25:04Z</time></trkpt><trkpt lat="37.9730626255096" lon="15.698717037820074"><ele>368.25</ele><time>2026-04-18T15:25:05Z</time></trkpt><trkpt lat="37.97301548401394" lon="15.698581052981002"><ele>365.0</ele><time>2026-04-18T15:25:06Z</time></trkpt><trkpt lat="37.97294731173118" lon="15.6984582727221"><ele>362.0</ele><time>2026-04-18T15:25:07Z</time></trkpt><trkpt lat="37.97289647057342" lon="15.698338866190092"><ele>359.0</ele><time>2026-04-18T15:25:08Z</time></trkpt><trkpt lat="37.97286793072705" lon="15.698223383215094"><ele>356.0</ele><time>2026-04-18T15:25:09Z</time></trkpt><trkpt lat="37.97292158818849" lon="15.698124287643825"><ele>353.0</ele><time>2026-04-18T15:25:10Z</time></trkpt><trkpt lat="37.972988059797665" lon="15.698051971155783"><ele>350.0</ele><time>2026-04-18T15:25:11Z</time></trkpt><trkpt lat="37.973055932757106" lon="15.69794430500902"><ele>350.0</ele><time>2026-04-18T15:25:12Z</time></trkpt><trkpt lat="37.97312347096706" lon="15.697820396233883"><ele>350.0</ele><time>2026-04-18T15:25:13Z</time></trkpt><trkpt lat="37.97317127456202" lon="15.697704074288962"><ele>350.0</ele><time>2026-04-18T15:25:14Z</time></trkpt><trkpt lat="37.97318273419058" lon="15.697546797067837"><ele>350.0</ele><time>2026-04-18T15:25:15Z</time></trkpt><trkpt lat="37.97318913507296" lon="15.697378293553243"><ele>346.0</ele><time>2026-04-18T15:25:16Z</time></trkpt><trkpt lat="37.97319856970198" lon="15.69721391083602"><ele>342.0</ele><time>2026-04-18T15:25:17Z</time></trkpt><trkpt lat="37.973211985668364" lon="15.697048039926422"><ele>338.0</ele><time>2026-04-18T15:25:18Z</time></trkpt><trkpt lat="37.97322751726493" lon="15.696880398430407"><ele>334.0</ele><time>2026-04-18T15:25:19Z</time></trkpt><trkpt lat="37.97324551799915" lon="15.696710655298535"><ele>331.2</ele><time>2026-04-18T15:25:20Z</time></trkpt><trkpt lat="37.97325176564196" lon="15.696559881152746"><ele>328.4</ele><time>2026-04-18T15:25:21Z</time></trkpt><trkpt lat="37.97324696396873" lon="15.696413108663128"><ele>325.6</ele><time>2026-04-18T15:25:22Z</time></trkpt><trkpt lat="37.97323254839957" lon="15.696286606455518"><ele>322.8</ele><time>2026-04-18T15:25:23Z</time></trkpt><trkpt lat="37.97317501018851" lon="15.696172233031236"><ele>320.0</ele><time>2026-04-18T15:25:24Z</time></trkpt><trkpt lat="37.97308867404879" lon="15.696079694959522"><ele>319.5</ele><time>2026-04-18T15:25:25Z</time></trkpt><trkpt lat="37.97298658000946" lon="15.695982438305368"><ele>319.0</ele><time>2026-04-18T15:25:26Z</time></trkpt><trkpt lat="37.972888289346386" lon="15.695870727346717"><ele>318.5</ele><time>2026-04-18T15:25:27Z</time></trkpt><trkpt lat="37.97279896848679" lon="15.695754952806974"><ele>318.0</ele><time>2026-04-18T15:25:28Z</time></trkpt><trkpt lat="37.97271537633631" lon="15.69564699960768"><ele>318.0</ele><time>2026-04-18T15:25:29Z</time></trkpt><trkpt lat="37.97263690058217" lon="15.695538414677383"><ele>318.0</ele><time>2026-04-18T15:25:30Z</time></trkpt><trkpt lat="37.97254949773113" lon="15.695442967664729"><ele>318.0</ele><time>2026-04-18T15:25:31Z</time></trkpt><trkpt lat="37.972454640991444" lon="15.69537639951334"><ele>318.0</ele><time>2026-04-18T15:25:32Z</time></trkpt><trkpt lat="37.97235969269238" lon="15.695323022948175"><ele>318.0</ele><time>2026-04-18T15:25:33Z</time></trkpt><trkpt lat="37.97226542926244" lon="15.6953043518596"><ele>317.2</ele><time>2026-04-18T15:25:34Z</time></trkpt><trkpt lat="37.97216619573766" lon="15.695304045537513"><ele>316.4</ele><time>2026-04-18T15:25:34.999Z</time></trkpt><trkpt lat="37.972062612009346" lon="15.69530404553871"><ele>315.59999999999997</ele><time>2026-04-18T15:25:35.999Z</time></trkpt><trkpt lat="37.97196017128137" lon="15.695304045537556"><ele>314.8</ele><time>2026-04-18T15:25:36.999Z</time></trkpt><trkpt lat="37.971859391734505" lon="15.695389857267914"><ele>314.0</ele><time>2026-04-18T15:25:37.999Z</time></trkpt><trkpt lat="37.971772575356624" lon="15.695361291807329"><ele>314.0</ele><time>2026-04-18T15:25:38.999Z</time></trkpt><trkpt lat="37.971698687918106" lon="15.695291207015368"><ele>314.0</ele><time>2026-04-18T15:25:39.999Z</time></trkpt><trkpt lat="37.971635839325835" lon="15.695183429928615"><ele>314.0</ele><time>2026-04-18T15:25:40.999Z</time></trkpt><trkpt lat="37.9715779859143" lon="15.695063012475062"><ele>314.0</ele><time>2026-04-18T15:25:41.999Z</time></trkpt><trkpt lat="37.971513452218595" lon="15.694963692804528"><ele>314.0</ele><time>2026-04-18T15:25:42.999Z</time></trkpt><trkpt lat="37.97143646464071" lon="15.694904551710827"><ele>315.4</ele><time>2026-04-18T15:25:43.999Z</time></trkpt><trkpt lat="37.97134643273063" lon="15.69489565946144"><ele>316.79999999999995</ele><time>2026-04-18T15:25:44.999Z</time></trkpt><trkpt lat="37.971251988633234" lon="15.694918676547463"><ele>318.20000000000005</ele><time>2026-04-18T15:25:45.999Z</time></trkpt><trkpt lat="37.97114740597848" lon="15.694964615684171"><ele>319.6</ele><time>2026-04-18T15:25:46.999Z</time></trkpt><trkpt lat="37.97105281867621" lon="15.695020938758066"><ele>321.0</ele><time>2026-04-18T15:25:47.999Z</time></trkpt><trkpt lat="37.970954048037534" lon="15.695056898403456"><ele>320.40000000000003</ele><time>2026-04-18T15:25:48.999Z</time></trkpt><trkpt lat="37.97085633597835" lon="15.695075874013762"><ele>319.8</ele><time>2026-04-18T15:25:49.999Z</time></trkpt><trkpt lat="37.97074559313258" lon="15.695073653653772"><ele>319.20000000000005</ele><time>2026-04-18T15:25:50.999Z</time></trkpt><trkpt lat="37.970628990265084" lon="15.695053329173673"><ele>318.6</ele><time>2026-04-18T15:25:51.999Z</time></trkpt><trkpt lat="37.97052077920961" lon="15.695028370349286"><ele>318.0</ele><time>2026-04-18T15:25:52.999Z</time></trkpt><trkpt lat="37.97040724588886" lon="15.694996712150955"><ele>318.0</ele><time>2026-04-18T15:25:53.999Z</time></trkpt><trkpt lat="37.970311036432506" lon="15.694947853691236"><ele>318.0</ele><time>2026-04-18T15:25:54.999Z</time></trkpt><trkpt lat="37.970210308494984" lon="15.69490308880414"><ele>318.0</ele><time>2026-04-18T15:25:55.999Z</time></trkpt><trkpt lat="37.97009231939634" lon="15.694860701135191"><ele>318.0</ele><time>2026-04-18T15:25:56.999Z</time></trkpt><trkpt lat="37.96997855666562" lon="15.694810075039673"><ele>317.0</ele><time>2026-04-18T15:25:57.999Z</time></trkpt><trkpt lat="37.96986900101857" lon="15.69475674908155"><ele>316.0</ele><time>2026-04-18T15:25:58.999Z</time></trkpt><trkpt lat="37.969758057386834" lon="15.694713721247306"><ele>315.0</ele><time>2026-04-18T15:25:59.999Z</time></trkpt><trkpt lat="37.96964549161863" lon="15.69470004486325"><ele>314.0</ele><time>2026-04-18T15:26:00.999Z</time></trkpt><trkpt lat="37.9695279700864" lon="15.694703752800262"><ele>314.0</ele><time>2026-04-18T15:26:01.999Z</time></trkpt><trkpt lat="37.9694157162092" lon="15.694708721884272"><ele>314.0</ele><time>2026-04-18T15:26:02.999Z</time></trkpt><trkpt lat="37.969305985951436" lon="15.694707311261736"><ele>314.0</ele><time>2026-04-18T15:26:03.999Z</time></trkpt><trkpt lat="37.96919062026725" lon="15.694703602469382"><ele>314.0</ele><time>2026-04-18T15:26:04.999Z</time></trkpt><trkpt lat="37.96907809088124" lon="15.69470138069422"><ele>311.0</ele><time>2026-04-18T15:26:05.999Z</time></trkpt><trkpt lat="37.96896393063966" lon="15.69470796424685"><ele>308.0</ele><time>2026-04-18T15:26:06.999Z</time></trkpt><trkpt lat="37.9688479142392" lon="15.694728995879286"><ele>305.0</ele><time>2026-04-18T15:26:07.999Z</time></trkpt><trkpt lat="37.968740473043866" lon="15.69475391316846"><ele>302.0</ele><time>2026-04-18T15:26:08.999Z</time></trkpt><trkpt lat="37.9686330684686" lon="15.694792488036459"><ele>302.0</ele><time>2026-04-18T15:26:09.999Z</time></trkpt><trkpt lat="37.96854826281335" lon="15.69486459940385"><ele>302.0</ele><time>2026-04-18T15:26:10.999Z</time></trkpt><trkpt lat="37.96847075207388" lon="15.694952017339936"><ele>302.0</ele><time>2026-04-18T15:26:11.999Z</time></trkpt><trkpt lat="37.968437312430765" lon="15.695085802433328"><ele>302.0</ele><time>2026-04-18T15:26:12.999Z</time></trkpt><trkpt lat="37.96844555762185" lon="15.695222574114773"><ele>302.0</ele><time>2026-04-18T15:26:13.999Z</time></trkpt><trkpt lat="37.96840556461063" lon="15.695344274538613"><ele>298.2</ele><time>2026-04-18T15:26:14.999Z</time></trkpt><trkpt lat="37.96835834525205" lon="15.69545629027945"><ele>294.4</ele><time>2026-04-18T15:26:15.999Z</time></trkpt><trkpt lat="37.96831770221839" lon="15.695578939435613"><ele>290.6</ele><time>2026-04-18T15:26:16.999Z</time></trkpt><trkpt lat="37.96825667443561" lon="15.695692393441682"><ele>286.8</ele><time>2026-04-18T15:26:17.999Z</time></trkpt><trkpt lat="37.968188767023626" lon="15.695792396036714"><ele>283.0</ele><time>2026-04-18T15:26:18.999Z</time></trkpt><trkpt lat="37.968112413751236" lon="15.695871397199742"><ele>283.0</ele><time>2026-04-18T15:26:19.999Z</time></trkpt><trkpt lat="37.96801806886557" lon="15.695952742879754"><ele>283.0</ele><time>2026-04-18T15:26:20.999Z</time></trkpt><trkpt lat="37.96791528373405" lon="15.696029443312055"><ele>283.0</ele><time>2026-04-18T15:26:21.999Z</time></trkpt><trkpt lat="37.96780767305293" lon="15.696094236931815"><ele>283.0</ele><time>2026-04-18T15:26:22.999Z</time></trkpt><trkpt lat="37.96770340248014" lon="15.696141181328725"><ele>278.75</ele><time>2026-04-18T15:26:23.999Z</time></trkpt><trkpt lat="37.96759035716524" lon="15.696167835266404"><ele>274.5</ele><time>2026-04-18T15:26:24.999Z</time></trkpt><trkpt lat="37.96747475327784" lon="15.696177301822894"><ele>270.25</ele><time>2026-04-18T15:26:25.999Z</time></trkpt><trkpt lat="37.96735975718553" lon="15.69618290666796"><ele>266.0</ele><time>2026-04-18T15:26:26.999Z</time></trkpt><trkpt lat="37.96724836147703" lon="15.696190308437831"><ele>266.0</ele><time>2026-04-18T15:26:27.999Z</time></trkpt><trkpt lat="37.96713694121534" lon="15.696182546839202"><ele>266.0</ele><time>2026-04-18T15:26:28.999Z</time></trkpt><trkpt lat="37.96702839697481" lon="15.696123990610653"><ele>266.0</ele><time>2026-04-18T15:26:29.999Z</time></trkpt><trkpt lat="37.96691945997168" lon="15.696049014661849"><ele>266.0</ele><time>2026-04-18T15:26:30.999Z</time></trkpt><trkpt lat="37.96680106819513" lon="15.695963985741164"><ele>264.5</ele><time>2026-04-18T15:26:31.999Z</time></trkpt><trkpt lat="37.96667659041165" lon="15.695870838854248"><ele>263.0</ele><time>2026-04-18T15:26:32.999Z</time></trkpt><trkpt lat="37.96656752613076" lon="15.69578053494702"><ele>261.5</ele><time>2026-04-18T15:26:33.999Z</time></trkpt><trkpt lat="37.96641437633402" lon="15.695699654176064"><ele>260.0</ele><time>2026-04-18T15:26:34.999Z</time></trkpt><trkpt lat="37.96628190743636" lon="15.695616592921672"><ele>260.0</ele><time>2026-04-18T15:26:35.999Z</time></trkpt><trkpt lat="37.966154459263414" lon="15.69553453116819"><ele>260.0</ele><time>2026-04-18T15:26:36.999Z</time></trkpt><trkpt lat="37.966029031768045" lon="15.695463987489475"><ele>260.0</ele><time>2026-04-18T15:26:37.999Z</time></trkpt><trkpt lat="37.965916746411416" lon="15.695385639401616"><ele>260.0</ele><time>2026-04-18T15:26:38.999Z</time></trkpt><trkpt lat="37.965821143742815" lon="15.695317244416952"><ele>259.2</ele><time>2026-04-18T15:26:39.999Z</time></trkpt><trkpt lat="37.96573539094954" lon="15.695277146685877"><ele>258.4</ele><time>2026-04-18T15:26:40.999Z</time></trkpt><trkpt lat="37.96566511866681" lon="15.695287477501063"><ele>257.6</ele><time>2026-04-18T15:26:41.999Z</time></trkpt><trkpt lat="37.965609989806396" lon="15.69543942018521"><ele>256.8</ele><time>2026-04-18T15:26:43.999Z</time></trkpt><trkpt lat="37.965575144122646" lon="15.695514333136762"><ele>256.0</ele><time>2026-04-18T15:26:44.999Z</time></trkpt><trkpt lat="37.96554973736758" lon="15.69564650544268"><ele>256.0</ele><time>2026-04-18T15:26:45.999Z</time></trkpt><trkpt lat="37.9655420988241" lon="15.695782913709882"><ele>256.0</ele><time>2026-04-18T15:26:46.999Z</time></trkpt><trkpt lat="37.96554734212523" lon="15.69591888231112"><ele>256.0</ele><time>2026-04-18T15:26:47.999Z</time></trkpt><trkpt lat="37.965551646949535" lon="15.696043553188881"><ele>256.0</ele><time>2026-04-18T15:26:49Z</time></trkpt><trkpt lat="37.965522282780526" lon="15.696165204498152"><ele>256.0</ele><time>2026-04-18T15:26:50Z</time></trkpt><trkpt lat="37.96549708541331" lon="15.69628615328656"><ele>253.60000000000002</ele><time>2026-04-18T15:26:51Z</time></trkpt><trkpt lat="37.9654722813599" lon="15.696388210965283"><ele>251.20000000000002</ele><time>2026-04-18T15:26:52Z</time></trkpt><trkpt lat="37.965430468706245" lon="15.696505982630912"><ele>248.79999999999998</ele><time>2026-04-18T15:26:54Z</time></trkpt><trkpt lat="37.965312744671635" lon="15.696428403625879"><ele>246.39999999999998</ele><time>2026-04-18T15:26:56Z</time></trkpt><trkpt lat="37.96526074832193" lon="15.696336784880968"><ele>244.0</ele><time>2026-04-18T15:26:57Z</time></trkpt><trkpt lat="37.96519845706824" lon="15.696228917948238"><ele>244.0</ele><time>2026-04-18T15:26:58Z</time></trkpt><trkpt lat="37.96513842460714" lon="15.696125442612754"><ele>243.99999999999997</ele><time>2026-04-18T15:26:59Z</time></trkpt><trkpt lat="37.9650689794895" lon="15.696045793254946"><ele>243.99999999999997</ele><time>2026-04-18T15:27:00Z</time></trkpt><trkpt lat="37.96497517396813" lon="15.695989944327943"><ele>244.0</ele><time>2026-04-18T15:27:01Z</time></trkpt><trkpt lat="37.9648782430548" lon="15.695940294079447"><ele>244.0</ele><time>2026-04-18T15:27:02Z</time></trkpt><trkpt lat="37.96479690738759" lon="15.695876748919174"><ele>243.0</ele><time>2026-04-18T15:27:03Z</time></trkpt><trkpt lat="37.96470373144797" lon="15.695783899119249"><ele>241.99999999999997</ele><time>2026-04-18T15:27:04Z</time></trkpt><trkpt lat="37.96462605569601" lon="15.695700281531495"><ele>240.99999999999997</ele><time>2026-04-18T15:27:05Z</time></trkpt><trkpt lat="37.964555929520856" lon="15.695621140393508"><ele>240.0</ele><time>2026-04-18T15:27:06Z</time></trkpt><trkpt lat="37.96450276303071" lon="15.695540648655115"><ele>239.0</ele><time>2026-04-18T15:27:07Z</time></trkpt><trkpt lat="37.9644641891591" lon="15.69541999376465"><ele>239.0</ele><time>2026-04-18T15:27:08Z</time></trkpt><trkpt lat="37.964437750344494" lon="15.695300771879847"><ele>239.0</ele><time>2026-04-18T15:27:09Z</time></trkpt><trkpt lat="37.9644048930421" lon="15.695154501579442"><ele>239.0</ele><time>2026-04-18T15:27:10Z</time></trkpt><trkpt lat="37.9643743762548" lon="15.695001324371475"><ele>239.0</ele><time>2026-04-18T15:27:11Z</time></trkpt><trkpt lat="37.964340545587646" lon="15.694871683394576"><ele>239.2</ele><time>2026-04-18T15:27:12Z</time></trkpt><trkpt lat="37.96431523841953" lon="15.694727400556413"><ele>239.39999999999998</ele><time>2026-04-18T15:27:13Z</time></trkpt><trkpt lat="37.96426991506498" lon="15.694616841888472"><ele>239.6</ele><time>2026-04-18T15:27:14Z</time></trkpt><trkpt lat="37.96420793625029" lon="15.69450791246303"><ele>239.8</ele><time>2026-04-18T15:27:15Z</time></trkpt><trkpt lat="37.96413046362291" lon="15.694412007807832"><ele>240.0</ele><time>2026-04-18T15:27:16Z</time></trkpt><trkpt lat="37.96403554441674" lon="15.694335966815242"><ele>236.2</ele><time>2026-04-18T15:27:17Z</time></trkpt><trkpt lat="37.96393240164123" lon="15.694274029778462"><ele>232.4</ele><time>2026-04-18T15:27:18Z</time></trkpt><trkpt lat="37.96382760364031" lon="15.694245818550906"><ele>228.60000000000002</ele><time>2026-04-18T15:27:19Z</time></trkpt><trkpt lat="37.96372536999354" lon="15.694233276158897"><ele>224.8</ele><time>2026-04-18T15:27:20Z</time></trkpt><trkpt lat="37.963623577024386" lon="15.694236898850134"><ele>221.0</ele><time>2026-04-18T15:27:21Z</time></trkpt><trkpt lat="37.963520912308475" lon="15.694231157149483"><ele>221.0</ele><time>2026-04-18T15:27:22Z</time></trkpt><trkpt lat="37.963412840437" lon="15.694249882742785"><ele>221.00000000000003</ele><time>2026-04-18T15:27:23Z</time></trkpt><trkpt lat="37.96331267567564" lon="15.694281478430762"><ele>221.00000000000003</ele><time>2026-04-18T15:27:24Z</time></trkpt><trkpt lat="37.96321334568073" lon="15.694312504053446"><ele>221.0</ele><time>2026-04-18T15:27:25Z</time></trkpt><trkpt lat="37.96311799908258" lon="15.694330959620604"><ele>221.0</ele><time>2026-04-18T15:27:26Z</time></trkpt><trkpt lat="37.96305688522033" lon="15.694353626041089"><ele>219.60000000000002</ele><time>2026-04-18T15:27:27Z</time></trkpt><trkpt lat="37.96299612230327" lon="15.694397709452904"><ele>218.20000000000002</ele><time>2026-04-18T15:27:28Z</time></trkpt><trkpt lat="37.96293539567803" lon="15.694486516630564"><ele>216.79999999999998</ele><time>2026-04-18T15:27:29Z</time></trkpt><trkpt lat="37.96286887550729" lon="15.694573295447546"><ele>215.39999999999998</ele><time>2026-04-18T15:27:30Z</time></trkpt><trkpt lat="37.96281075973985" lon="15.694685842596698"><ele>214.0</ele><time>2026-04-18T15:27:31Z</time></trkpt><trkpt lat="37.962749080606585" lon="15.694802375860986"><ele>214.5</ele><time>2026-04-18T15:27:32Z</time></trkpt><trkpt lat="37.96268880926489" lon="15.694919335259586"><ele>215.0</ele><time>2026-04-18T15:27:33Z</time></trkpt><trkpt lat="37.96263058375839" lon="15.69503993078325"><ele>215.5</ele><time>2026-04-18T15:27:34Z</time></trkpt><trkpt lat="37.96257132702434" lon="15.695165639402651"><ele>216.0</ele><time>2026-04-18T15:27:35Z</time></trkpt><trkpt lat="37.96249954650639" lon="15.695284555334501"><ele>216.0</ele><time>2026-04-18T15:27:36Z</time></trkpt><trkpt lat="37.96242813204905" lon="15.69540166566409"><ele>216.00000000000003</ele><time>2026-04-18T15:27:37Z</time></trkpt><trkpt lat="37.9623935689979" lon="15.695491271396142"><ele>216.00000000000003</ele><time>2026-04-18T15:27:38Z</time></trkpt><trkpt lat="37.96233420674518" lon="15.69560982026501"><ele>216.0</ele><time>2026-04-18T15:27:39Z</time></trkpt><trkpt lat="37.962276555107294" lon="15.695732112760727"><ele>216.0</ele><time>2026-04-18T15:27:40Z</time></trkpt><trkpt lat="37.962223502716974" lon="15.6958439196047"><ele>216.0</ele><time>2026-04-18T15:27:41Z</time></trkpt><trkpt lat="37.962182918849635" lon="15.695931249818635"><ele>216.0</ele><time>2026-04-18T15:27:42Z</time></trkpt><trkpt lat="37.96214622737651" lon="15.695999226099373"><ele>216.0</ele><time>2026-04-18T15:27:43Z</time></trkpt><trkpt lat="37.96206443217953" lon="15.696000456280569"><ele>216.0</ele><time>2026-04-18T15:27:45Z</time></trkpt><trkpt lat="37.96203536970574" lon="15.695926811660396"><ele>216.0</ele><time>2026-04-18T15:27:46Z</time></trkpt><trkpt lat="37.96208259825964" lon="15.695826201400818"><ele>216.0</ele><time>2026-04-18T15:27:47Z</time></trkpt><trkpt lat="37.96208765772286" lon="15.695711047139243"><ele>216.0</ele><time>2026-04-18T15:27:48Z</time></trkpt><trkpt lat="37.96208650462718" lon="15.69558858980896"><ele>216.00000000000003</ele><time>2026-04-18T15:27:49Z</time></trkpt><trkpt lat="37.96209850792916" lon="15.695463408699965"><ele>216.00000000000003</ele><time>2026-04-18T15:27:50Z</time></trkpt><trkpt lat="37.9620982054634" lon="15.695325234137071"><ele>216.0</ele><time>2026-04-18T15:27:51Z</time></trkpt><trkpt lat="37.96210264176003" lon="15.69520737614259"><ele>216.0</ele><time>2026-04-18T15:27:52Z</time></trkpt><trkpt lat="37.962108790164386" lon="15.69510287105621"><ele>214.66666666666666</ele><time>2026-04-18T15:27:53Z</time></trkpt><trkpt lat="37.96211053322909" lon="15.695007147154369"><ele>213.33333333333331</ele><time>2026-04-18T15:27:54Z</time></trkpt><trkpt lat="37.96208699783606" lon="15.694899635162429"><ele>212.0</ele><time>2026-04-18T15:27:55Z</time></trkpt><trkpt lat="37.9620245954795" lon="15.69481353729532"><ele>210.66666666666666</ele><time>2026-04-18T15:27:56Z</time></trkpt><trkpt lat="37.96194437646009" lon="15.69476769692257"><ele>209.33333333333331</ele><time>2026-04-18T15:27:57Z</time></trkpt><trkpt lat="37.96184845009467" lon="15.694744644376227"><ele>208.0</ele><time>2026-04-18T15:27:58Z</time></trkpt><trkpt lat="37.96173950275661" lon="15.694751421333951"><ele>203.5</ele><time>2026-04-18T15:27:59Z</time></trkpt><trkpt lat="37.96163149020798" lon="15.694762692765298"><ele>199.0</ele><time>2026-04-18T15:28:00Z</time></trkpt><trkpt lat="37.96149543861077" lon="15.694815023902416"><ele>194.5</ele><time>2026-04-18T15:28:01Z</time></trkpt><trkpt lat="37.961376385858124" lon="15.694825812891695"><ele>190.0</ele><time>2026-04-18T15:28:02Z</time></trkpt><trkpt lat="37.961260218876724" lon="15.694852778951558"><ele>190.0</ele><time>2026-04-18T15:28:03Z</time></trkpt><trkpt lat="37.96114581108063" lon="15.694869793227953"><ele>190.0</ele><time>2026-04-18T15:28:04Z</time></trkpt><trkpt lat="37.96102768362279" lon="15.694892034918887"><ele>190.0</ele><time>2026-04-18T15:28:05Z</time></trkpt><trkpt lat="37.960909972970825" lon="15.69491454113694"><ele>190.0</ele><time>2026-04-18T15:28:06Z</time></trkpt><trkpt lat="37.96078615963214" lon="15.694935798922577"><ele>185.5</ele><time>2026-04-18T15:28:07Z</time></trkpt><trkpt lat="37.96066344934062" lon="15.694959722994431"><ele>181.0</ele><time>2026-04-18T15:28:08Z</time></trkpt><trkpt lat="37.96054137536776" lon="15.694979535218183"><ele>176.5</ele><time>2026-04-18T15:28:09Z</time></trkpt><trkpt lat="37.960421122014786" lon="15.695001466704445"><ele>172.0</ele><time>2026-04-18T15:28:10Z</time></trkpt><trkpt lat="37.96029896412623" lon="15.695022881984443"><ele>172.0</ele><time>2026-04-18T15:28:11Z</time></trkpt><trkpt lat="37.96018077919899" lon="15.695049332853056"><ele>172.0</ele><time>2026-04-18T15:28:12Z</time></trkpt><trkpt lat="37.96005940867604" lon="15.695063038197127"><ele>172.0</ele><time>2026-04-18T15:28:13Z</time></trkpt><trkpt lat="37.9599440687174" lon="15.695092281818011"><ele>172.0</ele><time>2026-04-18T15:28:14Z</time></trkpt><trkpt lat="37.959833849806685" lon="15.695141368454987"><ele>169.8</ele><time>2026-04-18T15:28:15Z</time></trkpt><trkpt lat="37.959730924520414" lon="15.69521132761345"><ele>167.6</ele><time>2026-04-18T15:28:16Z</time></trkpt><trkpt lat="37.959636661472096" lon="15.695288768816663"><ele>165.4</ele><time>2026-04-18T15:28:17Z</time></trkpt><trkpt lat="37.95955202324624" lon="15.695371012547467"><ele>163.20000000000002</ele><time>2026-04-18T15:28:18Z</time></trkpt><trkpt lat="37.95946788991258" lon="15.695450545818359"><ele>161.0</ele><time>2026-04-18T15:28:19Z</time></trkpt><trkpt lat="37.95937751194357" lon="15.69551713798616"><ele>160.0</ele><time>2026-04-18T15:28:20Z</time></trkpt><trkpt lat="37.95928341898947" lon="15.69557568315335"><ele>159.0</ele><time>2026-04-18T15:28:21Z</time></trkpt><trkpt lat="37.95918643825428" lon="15.6956333661432"><ele>158.0</ele><time>2026-04-18T15:28:22Z</time></trkpt><trkpt lat="37.959092224978" lon="15.6956886715129"><ele>157.0</ele><time>2026-04-18T15:28:23Z</time></trkpt><trkpt lat="37.958999860268655" lon="15.69574512409893"><ele>156.0</ele><time>2026-04-18T15:28:24Z</time></trkpt><trkpt lat="37.95891216040637" lon="15.695789714618838"><ele>154.6</ele><time>2026-04-18T15:28:25Z</time></trkpt><trkpt lat="37.95882694782911" lon="15.695806855266058"><ele>153.2</ele><time>2026-04-18T15:28:26Z</time></trkpt><trkpt lat="37.95873164057898" lon="15.695796924318316"><ele>151.8</ele><time>2026-04-18T15:28:27Z</time></trkpt><trkpt lat="37.95863489858373" lon="15.69576549776108"><ele>150.4</ele><time>2026-04-18T15:28:28Z</time></trkpt><trkpt lat="37.95852732318894" lon="15.69576661516614"><ele>149.0</ele><time>2026-04-18T15:28:29Z</time></trkpt><trkpt lat="37.95841506989339" lon="15.695792615596787"><ele>146.2</ele><time>2026-04-18T15:28:30Z</time></trkpt><trkpt lat="37.958316034574025" lon="15.695827067928326"><ele>143.4</ele><time>2026-04-18T15:28:30.999Z</time></trkpt><trkpt lat="37.95822507295041" lon="15.695858301048341"><ele>140.6</ele><time>2026-04-18T15:28:31.999Z</time></trkpt><trkpt lat="37.95814564455142" lon="15.695907752720842"><ele>137.8</ele><time>2026-04-18T15:28:32.999Z</time></trkpt><trkpt lat="37.95807788821862" lon="15.695986515494903"><ele>135.0</ele><time>2026-04-18T15:28:33.999Z</time></trkpt><trkpt lat="37.9580155632307" lon="15.696061923459952"><ele>135.0</ele><time>2026-04-18T15:28:34.999Z</time></trkpt><trkpt lat="37.95793912755392" lon="15.696115340115819"><ele>135.0</ele><time>2026-04-18T15:28:35.999Z</time></trkpt><trkpt lat="37.957847461899824" lon="15.696138991615374"><ele>135.0</ele><time>2026-04-18T15:28:36.999Z</time></trkpt><trkpt lat="37.95775250658393" lon="15.696144341059561"><ele>135.0</ele><time>2026-04-18T15:28:37.999Z</time></trkpt><trkpt lat="37.95766572047536" lon="15.696119258618227"><ele>135.0</ele><time>2026-04-18T15:28:38.999Z</time></trkpt><trkpt lat="37.957610402790145" lon="15.696071659668302"><ele>135.0</ele><time>2026-04-18T15:28:39.999Z</time></trkpt><trkpt lat="37.95758146658871" lon="15.69599110832336"><ele>135.0</ele><time>2026-04-18T15:28:40.999Z</time></trkpt><trkpt lat="37.957604987583515" lon="15.695885246617825"><ele>135.0</ele><time>2026-04-18T15:28:41.999Z</time></trkpt><trkpt lat="37.95759252061876" lon="15.69577590895707"><ele>135.0</ele><time>2026-04-18T15:28:42.999Z</time></trkpt><trkpt lat="37.957576855048664" lon="15.695684843662779"><ele>135.0</ele><time>2026-04-18T15:28:43.999Z</time></trkpt><trkpt lat="37.957439095513855" lon="15.695714854319826"><ele>135.0</ele><time>2026-04-18T15:28:46.999Z</time></trkpt><trkpt lat="37.95738422083464" lon="15.69578323145603"><ele>132.2</ele><time>2026-04-18T15:28:47.999Z</time></trkpt><trkpt lat="37.95730109179094" lon="15.695823113768673"><ele>129.4</ele><time>2026-04-18T15:28:48.999Z</time></trkpt><trkpt lat="37.957211789393135" lon="15.695858117037362"><ele>126.6</ele><time>2026-04-18T15:28:49.999Z</time></trkpt><trkpt lat="37.95712198830769" lon="15.69591839619998"><ele>123.8</ele><time>2026-04-18T15:28:50.999Z</time></trkpt><trkpt lat="37.957021386274306" lon="15.695964236813719"><ele>121.0</ele><time>2026-04-18T15:28:51.999Z</time></trkpt><trkpt lat="37.956940367777364" lon="15.696022580461971"><ele>121.00000000000001</ele><time>2026-04-18T15:28:52.999Z</time></trkpt><trkpt lat="37.95686655930904" lon="15.69608528527455"><ele>121.0</ele><time>2026-04-18T15:28:53.999Z</time></trkpt><trkpt lat="37.95678841149347" lon="15.696133903195385"><ele>121.0</ele><time>2026-04-18T15:28:55Z</time></trkpt><trkpt lat="37.95670511839215" lon="15.696141257182203"><ele>121.0</ele><time>2026-04-18T15:28:56Z</time></trkpt><trkpt lat="37.95662032857709" lon="15.696118223592482"><ele>121.00000000000001</ele><time>2026-04-18T15:28:57Z</time></trkpt><trkpt lat="37.956552193267996" lon="15.69608765187426"><ele>121.0</ele><time>2026-04-18T15:28:58Z</time></trkpt><trkpt lat="37.95648853203509" lon="15.695959238277114"><ele>118.0</ele><time>2026-04-18T15:29:00Z</time></trkpt><trkpt lat="37.95649246500218" lon="15.695852138307858"><ele>115.0</ele><time>2026-04-18T15:29:01Z</time></trkpt><trkpt lat="37.95652889317114" lon="15.695723864986782"><ele>112.0</ele><time>2026-04-18T15:29:02Z</time></trkpt><trkpt lat="37.956515268428646" lon="15.695608666545425"><ele>109.0</ele><time>2026-04-18T15:29:03Z</time></trkpt><trkpt lat="37.95650520184626" lon="15.695499240851426"><ele>106.0</ele><time>2026-04-18T15:29:04Z</time></trkpt><trkpt lat="37.956507553020714" lon="15.695398174709704"><ele>106.00000000000001</ele><time>2026-04-18T15:29:05Z</time></trkpt><trkpt lat="37.956558802296954" lon="15.695310287287096"><ele>106.0</ele><time>2026-04-18T15:29:06Z</time></trkpt><trkpt lat="37.956578063685924" lon="15.695216184364266"><ele>106.0</ele><time>2026-04-18T15:29:07Z</time></trkpt><trkpt lat="37.95656239492941" lon="15.695095718777601"><ele>106.0</ele><time>2026-04-18T15:29:09Z</time></trkpt><trkpt lat="37.956487103553066" lon="15.695096767810249"><ele>106.00000000000001</ele><time>2026-04-18T15:29:10Z</time></trkpt><trkpt lat="37.956404542152036" lon="15.695137502490473"><ele>106.0</ele><time>2026-04-18T15:29:11Z</time></trkpt><trkpt lat="37.95632200449665" lon="15.695187003279736"><ele>106.00000000000001</ele><time>2026-04-18T15:29:12Z</time></trkpt><trkpt lat="37.95623262703146" lon="15.695231431039888"><ele>106.0</ele><time>2026-04-18T15:29:13Z</time></trkpt><trkpt lat="37.95615212162619" lon="15.695283219565018"><ele>106.0</ele><time>2026-04-18T15:29:14Z</time></trkpt><trkpt lat="37.95607693947713" lon="15.69535548398474"><ele>106.0</ele><time>2026-04-18T15:29:15Z</time></trkpt><trkpt lat="37.956027270871466" lon="15.695447578766284"><ele>106.00000000000001</ele><time>2026-04-18T15:29:16Z</time></trkpt><trkpt lat="37.9559790872913" lon="15.69551258483786"><ele>106.0</ele><time>2026-04-18T15:29:17Z</time></trkpt><trkpt lat="37.95592152359938" lon="15.695602843696143"><ele>106.00000000000001</ele><time>2026-04-18T15:29:19Z</time></trkpt><trkpt lat="37.955872217534655" lon="15.695676685499908"><ele>106.0</ele><time>2026-04-18T15:29:21Z</time></trkpt><trkpt lat="37.955841831025914" lon="15.69576419202425"><ele>106.0</ele><time>2026-04-18T15:29:53Z</time></trkpt><trkpt lat="37.95574119850557" lon="15.695694552678004"><ele>106.0</ele><time>2026-04-18T15:29:58Z</time></trkpt><trkpt lat="37.95574345404454" lon="15.695559528967326"><ele>106.00000000000001</ele><time>2026-04-18T15:30:00Z</time></trkpt><trkpt lat="37.955744622935484" lon="15.695467904417946"><ele>106.0</ele><time>2026-04-18T15:30:02Z</time></trkpt><trkpt lat="37.955673236394915" lon="15.695417138077985"><ele>102.00000000000001</ele><time>2026-04-18T15:30:04Z</time></trkpt><trkpt lat="37.95561090448442" lon="15.69544365453896"><ele>98.0</ele><time>2026-04-18T15:30:05Z</time></trkpt><trkpt lat="37.95553903363768" lon="15.695443582400816"><ele>94.0</ele><time>2026-04-18T15:30:06Z</time></trkpt><trkpt lat="37.95547279709316" lon="15.695462380980826"><ele>90.0</ele><time>2026-04-18T15:30:07Z</time></trkpt><trkpt lat="37.95536386670504" lon="15.695522599599869"><ele>86.0</ele><time>2026-04-18T15:30:09Z</time></trkpt><trkpt lat="37.95532516325162" lon="15.695640259620149"><ele>82.0</ele><time>2026-04-18T15:30:11Z</time></trkpt><trkpt lat="37.955335932870994" lon="15.695738352629666"><ele>82.0</ele><time>2026-04-18T15:30:13Z</time></trkpt><trkpt lat="37.955229152304575" lon="15.695676958796174"><ele>82.0</ele><time>2026-04-18T15:30:17Z</time></trkpt><trkpt lat="37.95518154365741" lon="15.695604904853631"><ele>82.0</ele><time>2026-04-18T15:30:18Z</time></trkpt><trkpt lat="37.95511770031703" lon="15.69554318776268"><ele>82.0</ele><time>2026-04-18T15:30:19Z</time></trkpt><trkpt lat="37.95503798074417" lon="15.695489597763348"><ele>82.0</ele><time>2026-04-18T15:30:20Z</time></trkpt><trkpt lat="37.95495790197441" lon="15.695442937623442"><ele>77.19999999999999</ele><time>2026-04-18T15:30:21Z</time></trkpt><trkpt lat="37.954867260833915" lon="15.695389113612517"><ele>72.39999999999999</ele><time>2026-04-18T15:30:22Z</time></trkpt><trkpt lat="37.95476751153256" lon="15.695349132129977"><ele>67.6</ele><time>2026-04-18T15:30:23Z</time></trkpt><trkpt lat="37.95467219202555" lon="15.695314557845307"><ele>62.8</ele><time>2026-04-18T15:30:24Z</time></trkpt><trkpt lat="37.95457291421183" lon="15.695294545977422"><ele>58.0</ele><time>2026-04-18T15:30:25Z</time></trkpt><trkpt lat="37.95446331529054" lon="15.695290356262484"><ele>58.0</ele><time>2026-04-18T15:30:26Z</time></trkpt><trkpt lat="37.95435716572315" lon="15.695293417044079"><ele>58.0</ele><time>2026-04-18T15:30:27Z</time></trkpt><trkpt lat="37.95425579258542" lon="15.6953176003528"><ele>58.0</ele><time>2026-04-18T15:30:28Z</time></trkpt><trkpt lat="37.95416159554676" lon="15.69536383794924"><ele>58.0</ele><time>2026-04-18T15:30:29Z</time></trkpt><trkpt lat="37.95407333710813" lon="15.695416240230553"><ele>58.0</ele><time>2026-04-18T15:30:30Z</time></trkpt><trkpt lat="37.95398449103986" lon="15.69545452351518"><ele>55.49999999999999</ele><time>2026-04-18T15:30:31Z</time></trkpt><trkpt lat="37.95390179840516" lon="15.695473616125517"><ele>53.0</ele><time>2026-04-18T15:30:32Z</time></trkpt><trkpt lat="37.95383495149662" lon="15.69545620444383"><ele>50.5</ele><time>2026-04-18T15:30:33Z</time></trkpt><trkpt lat="37.95377178037506" lon="15.695428022119636"><ele>48.0</ele><time>2026-04-18T15:30:33.999Z</time></trkpt><trkpt lat="37.95370898892012" lon="15.695363084849681"><ele>45.5</ele><time>2026-04-18T15:30:34.999Z</time></trkpt><trkpt lat="37.953643330077156" lon="15.69527777146741"><ele>43.0</ele><time>2026-04-18T15:30:35.999Z</time></trkpt><trkpt lat="37.95357083437323" lon="15.695211461357793"><ele>41.6</ele><time>2026-04-18T15:30:36.999Z</time></trkpt><trkpt lat="37.9535065937457" lon="15.695174085931887"><ele>40.199999999999996</ele><time>2026-04-18T15:30:37.999Z</time></trkpt><trkpt lat="37.953414357399915" lon="15.695137452179994"><ele>38.8</ele><time>2026-04-18T15:30:39.999Z</time></trkpt><trkpt lat="37.95332219140142" lon="15.695181248137118"><ele>37.4</ele><time>2026-04-18T15:30:41.999Z</time></trkpt><trkpt lat="37.95332728193728" lon="15.69535067583932"><ele>36.0</ele><time>2026-04-18T15:30:43.999Z</time></trkpt><trkpt lat="37.953341294837195" lon="15.695430255469976"><ele>34.6</ele><time>2026-04-18T15:30:44.999Z</time></trkpt><trkpt lat="37.953302901681" lon="15.695555753429204"><ele>33.2</ele><time>2026-04-18T15:30:46.999Z</time></trkpt><trkpt lat="37.95318717364574" lon="15.695589732360657"><ele>31.799999999999997</ele><time>2026-04-18T15:30:48.999Z</time></trkpt><trkpt lat="37.95311113646841" lon="15.69561194852084"><ele>30.4</ele><time>2026-04-18T15:30:49.999Z</time></trkpt><trkpt lat="37.95303056069125" lon="15.695620562805914"><ele>29.0</ele><time>2026-04-18T15:30:50.999Z</time></trkpt><trkpt lat="37.952943753129155" lon="15.69566262681853"><ele>29.0</ele><time>2026-04-18T15:30:51.999Z</time></trkpt><trkpt lat="37.952862785499235" lon="15.695678502370415"><ele>29.0</ele><time>2026-04-18T15:30:52.999Z</time></trkpt><trkpt lat="37.9527720065822" lon="15.695709027401033"><ele>29.0</ele><time>2026-04-18T15:30:53.999Z</time></trkpt><trkpt lat="37.9526896951364" lon="15.695742042092865"><ele>29.0</ele><time>2026-04-18T15:30:54.999Z</time></trkpt><trkpt lat="37.952627858590944" lon="15.695782155917083"><ele>29.0</ele><time>2026-04-18T15:30:55.999Z</time></trkpt><trkpt lat="37.95260340106337" lon="15.69594868798778"><ele>29.0</ele><time>2026-04-18T15:30:57.999Z</time></trkpt><trkpt lat="37.952587329115744" lon="15.696027829130884"><ele>29.0</ele><time>2026-04-18T15:30:58.999Z</time></trkpt><trkpt lat="37.95253288703004" lon="15.696156033667902"><ele>29.0</ele><time>2026-04-18T15:31:01Z</time></trkpt><trkpt lat="37.95247200448305" lon="15.696260948441846"><ele>29.0</ele><time>2026-04-18T15:31:03Z</time></trkpt><trkpt lat="37.9523988828794" lon="15.696258326416135"><ele>29.0</ele><time>2026-04-18T15:31:05Z</time></trkpt><trkpt lat="37.95230036536051" lon="15.696210827338248"><ele>27.166666666666664</ele><time>2026-04-18T15:31:07Z</time></trkpt><trkpt lat="37.952202059660856" lon="15.696163638964324"><ele>25.333333333333332</ele><time>2026-04-18T15:31:09Z</time></trkpt><trkpt lat="37.95212249973218" lon="15.696149369933945"><ele>23.5</ele><time>2026-04-18T15:31:11Z</time></trkpt><trkpt lat="37.95206813717117" lon="15.696227050790409"><ele>21.666666666666664</ele><time>2026-04-18T15:31:14Z</time></trkpt><trkpt lat="37.95202480839011" lon="15.696307987852459"><ele>19.833333333333332</ele><time>2026-04-18T15:31:15Z</time></trkpt><trkpt lat="37.95199869206341" lon="15.69638120769859"><ele>18.0</ele><time>2026-04-18T15:31:16Z</time></trkpt><trkpt lat="37.951945685138185" lon="15.696529818114865"><ele>18.0</ele><time>2026-04-18T15:31:18Z</time></trkpt><trkpt lat="37.951915404112384" lon="15.69660781542323"><ele>18.0</ele><time>2026-04-18T15:31:19Z</time></trkpt><trkpt lat="37.95189274428021" lon="15.696682839623081"><ele>18.0</ele><time>2026-04-18T15:31:20Z</time></trkpt><trkpt lat="37.95177320176083" lon="15.696639200757131"><ele>18.0</ele><time>2026-04-18T15:31:32Z</time></trkpt><trkpt lat="37.95171342083109" lon="15.696587822090951"><ele>18.0</ele><time>2026-04-18T15:31:33Z</time></trkpt><trkpt lat="37.95165877886569" lon="15.696523529571916"><ele>18.0</ele><time>2026-04-18T15:31:34Z</time></trkpt><trkpt lat="37.95158593982233" lon="15.696460625343995"><ele>17.4</ele><time>2026-04-18T15:31:35Z</time></trkpt><trkpt lat="37.95151073274176" lon="15.696395349246876"><ele>16.8</ele><time>2026-04-18T15:31:36Z</time></trkpt><trkpt lat="37.951422724114146" lon="15.696325029354858"><ele>16.2</ele><time>2026-04-18T15:31:37Z</time></trkpt><trkpt lat="37.95133747390361" lon="15.696256967822563"><ele>15.6</ele><time>2026-04-18T15:31:38Z</time></trkpt><trkpt lat="37.95125314773143" lon="15.696175826340198"><ele>15.0</ele><time>2026-04-18T15:31:39Z</time></trkpt><trkpt lat="37.951166116241204" lon="15.696110938224873"><ele>14.666666666666666</ele><time>2026-04-18T15:31:40Z</time></trkpt><trkpt lat="37.95110523643054" lon="15.69604961314236"><ele>14.333333333333332</ele><time>2026-04-18T15:31:41Z</time></trkpt><trkpt lat="37.95102818054688" lon="15.695998912740595"><ele>14.0</ele><time>2026-04-18T15:31:42Z</time></trkpt><trkpt lat="37.95096004940453" lon="15.695951878891403"><ele>13.666666666666666</ele><time>2026-04-18T15:31:43Z</time></trkpt><trkpt lat="37.950889135198096" lon="15.695895754748232"><ele>13.333333333333332</ele><time>2026-04-18T15:31:44Z</time></trkpt><trkpt lat="37.950812099495316" lon="15.695832178248505"><ele>13.0</ele><time>2026-04-18T15:31:45Z</time></trkpt><trkpt lat="37.95074722246155" lon="15.695793665228837"><ele>12.4</ele><time>2026-04-18T15:31:46Z</time></trkpt><trkpt lat="37.95067871759318" lon="15.69573028876587"><ele>11.8</ele><time>2026-04-18T15:31:47Z</time></trkpt><trkpt lat="37.950626317992125" lon="15.695681110053561"><ele>11.2</ele><time>2026-04-18T15:31:48Z</time></trkpt><trkpt lat="37.9505489693109" lon="15.695604700839375"><ele>10.6</ele><time>2026-04-18T15:31:50Z</time></trkpt><trkpt lat="37.95042011211574" lon="15.695715079303616"><ele>10.0</ele><time>2026-04-18T15:32:00Z</time></trkpt><trkpt lat="37.95037764112102" lon="15.695807044915572"><ele>10.0</ele><time>2026-04-18T15:32:01Z</time></trkpt><trkpt lat="37.9503275649269" lon="15.695920318210597"><ele>10.0</ele><time>2026-04-18T15:32:02Z</time></trkpt><trkpt lat="37.95027185908974" lon="15.696040127692449"><ele>10.0</ele><time>2026-04-18T15:32:03Z</time></trkpt><trkpt lat="37.95020491118723" lon="15.696171449866524"><ele>10.0</ele><time>2026-04-18T15:32:04Z</time></trkpt><trkpt lat="37.9501269448577" lon="15.696315593973068"><ele>9.75</ele><time>2026-04-18T15:32:05Z</time></trkpt><trkpt lat="37.9500415968727" lon="15.696458860795913"><ele>9.5</ele><time>2026-04-18T15:32:06Z</time></trkpt><trkpt lat="37.949948007823465" lon="15.696597515852238"><ele>9.25</ele><time>2026-04-18T15:32:07Z</time></trkpt><trkpt lat="37.9498440616519" lon="15.696732769278402"><ele>9.0</ele><time>2026-04-18T15:32:08Z</time></trkpt><trkpt lat="37.949741665609444" lon="15.696876465181347"><ele>9.0</ele><time>2026-04-18T15:32:09Z</time></trkpt><trkpt lat="37.949626544564126" lon="15.697032955176486"><ele>9.0</ele><time>2026-04-18T15:32:10Z</time></trkpt><trkpt lat="37.94950674271348" lon="15.697191058533331"><ele>9.0</ele><time>2026-04-18T15:32:11Z</time></trkpt><trkpt lat="37.94938551168568" lon="15.69734348095981"><ele>9.0</ele><time>2026-04-18T15:32:12Z</time></trkpt><trkpt lat="37.94925790358403" lon="15.69750046921046"><ele>9.0</ele><time>2026-04-18T15:32:13Z</time></trkpt><trkpt lat="37.949133991064016" lon="15.697654538310315"><ele>9.0</ele><time>2026-04-18T15:32:14Z</time></trkpt><trkpt lat="37.94900949540325" lon="15.697815145345778"><ele>9.0</ele><time>2026-04-18T15:32:14.999Z</time></trkpt><trkpt lat="37.94887703974594" lon="15.697987060116066"><ele>9.0</ele><time>2026-04-18T15:32:15.999Z</time></trkpt><trkpt lat="37.948741307087595" lon="15.698160393789852"><ele>9.0</ele><time>2026-04-18T15:32:16.999Z</time></trkpt><trkpt lat="37.94860653210736" lon="15.698330136354596"><ele>9.0</ele><time>2026-04-18T15:32:17.999Z</time></trkpt><trkpt lat="37.94846433729773" lon="15.698504092206631"><ele>9.0</ele><time>2026-04-18T15:32:18.999Z</time></trkpt><trkpt lat="37.94832176180343" lon="15.698681522780458"><ele>9.0</ele><time>2026-04-18T15:32:19.999Z</time></trkpt><trkpt lat="37.94818036384816" lon="15.698863144636814"><ele>8.333333333333334</ele><time>2026-04-18T15:32:20.999Z</time></trkpt><trkpt lat="37.948037405450656" lon="15.699044505742203"><ele>7.666666666666667</ele><time>2026-04-18T15:32:21.999Z</time></trkpt><trkpt lat="37.94789506524807" lon="15.699223198202597"><ele>7.0</ele><time>2026-04-18T15:32:22.999Z</time></trkpt><trkpt lat="37.94775326879772" lon="15.69940192162575"><ele>7.666666666666667</ele><time>2026-04-18T15:32:23.999Z</time></trkpt><trkpt lat="37.94760757794134" lon="15.699585493902825"><ele>8.333333333333334</ele><time>2026-04-18T15:32:24.999Z</time></trkpt><trkpt lat="37.94746019591536" lon="15.69977276676721"><ele>9.0</ele><time>2026-04-18T15:32:25.999Z</time></trkpt><trkpt lat="37.947311966855615" lon="15.699965523159921"><ele>9.0</ele><time>2026-04-18T15:32:26.999Z</time></trkpt><trkpt lat="37.94716121751493" lon="15.700160354256449"><ele>9.0</ele><time>2026-04-18T15:32:27.999Z</time></trkpt><trkpt lat="37.9470208016193" lon="15.700349137535298"><ele>9.0</ele><time>2026-04-18T15:32:28.999Z</time></trkpt><trkpt lat="37.946878644614046" lon="15.700530566609327"><ele>9.666666666666666</ele><time>2026-04-18T15:32:29.999Z</time></trkpt><trkpt lat="37.94674727528851" lon="15.70070986763786"><ele>10.333333333333332</ele><time>2026-04-18T15:32:30.999Z</time></trkpt><trkpt lat="37.94662169344083" lon="15.700878667110908"><ele>11.0</ele><time>2026-04-18T15:32:31.999Z</time></trkpt><trkpt lat="37.94650080621332" lon="15.701037557184506"><ele>12.333333333333332</ele><time>2026-04-18T15:32:32.999Z</time></trkpt><trkpt lat="37.946382105524435" lon="15.701187078135744"><ele>13.666666666666666</ele><time>2026-04-18T15:32:33.999Z</time></trkpt><trkpt lat="37.94625067851293" lon="15.701340932540285"><ele>15.0</ele><time>2026-04-18T15:32:34.999Z</time></trkpt><trkpt lat="37.946145363072986" lon="15.701486702593153"><ele>15.0</ele><time>2026-04-18T15:32:35.999Z</time></trkpt><trkpt lat="37.94604549766848" lon="15.701619884971818"><ele>15.0</ele><time>2026-04-18T15:32:36.999Z</time></trkpt><trkpt lat="37.94595663554991" lon="15.70172911308676"><ele>15.0</ele><time>2026-04-18T15:32:37.999Z</time></trkpt><trkpt lat="37.945875152932956" lon="15.701820067337723"><ele>15.0</ele><time>2026-04-18T15:32:38.999Z</time></trkpt><trkpt lat="37.94581015427808" lon="15.701885374015538"><ele>15.142857142857142</ele><time>2026-04-18T15:32:39.999Z</time></trkpt><trkpt lat="37.94575334691716" lon="15.701926399443233"><ele>15.285714285714285</ele><time>2026-04-18T15:32:40.999Z</time></trkpt><trkpt lat="37.945687127693034" lon="15.701986042073226"><ele>15.428571428571427</ele><time>2026-04-18T15:32:42.999Z</time></trkpt><trkpt lat="37.945632435343335" lon="15.702057405006187"><ele>15.571428571428571</ele><time>2026-04-18T15:32:45.999Z</time></trkpt><trkpt lat="37.94557724420155" lon="15.702098192517996"><ele>15.714285714285712</ele><time>2026-04-18T15:32:48.999Z</time></trkpt><trkpt lat="37.94556752897861" lon="15.702181472152683"><ele>15.857142857142856</ele><time>2026-04-18T15:34:39.999Z</time></trkpt><trkpt lat="37.94551219974214" lon="15.70224449812473"><ele>16.0</ele><time>2026-04-18T15:34:43.999Z</time></trkpt><trkpt lat="37.94545863414292" lon="15.702351710786132"><ele>16.0</ele><time>2026-04-18T15:34:46.999Z</time></trkpt><trkpt lat="37.945357831214785" lon="15.702498437657445"><ele>16.0</ele><time>2026-04-18T15:36:57.999Z</time></trkpt><trkpt lat="37.94528185776756" lon="15.702621577129625"><ele>16.0</ele><time>2026-04-18T15:36:58.999Z</time></trkpt><trkpt lat="37.94517533667912" lon="15.702756727259533"><ele>16.0</ele><time>2026-04-18T15:36:59.999Z</time></trkpt><trkpt lat="37.94503737895437" lon="15.702954768178515"><ele>16.0</ele><time>2026-04-18T15:37:00.999Z</time></trkpt><trkpt lat="37.94490412061528" lon="15.7031407808084"><ele>16.0</ele><time>2026-04-18T15:37:01.999Z</time></trkpt><trkpt lat="37.94480149166903" lon="15.70328749887809"><ele>16.0</ele><time>2026-04-18T15:37:02.999Z</time></trkpt><trkpt lat="37.94470832411823" lon="15.703398587514577"><ele>16.0</ele><time>2026-04-18T15:37:03.999Z</time></trkpt><trkpt lat="37.94461810865165" lon="15.703504622274961"><ele>16.0</ele><time>2026-04-18T15:37:04.999Z</time></trkpt><trkpt lat="37.944534959382516" lon="15.703599555965027"><ele>16.0</ele><time>2026-04-18T15:37:05.999Z</time></trkpt><trkpt lat="37.944455927918874" lon="15.703692374473981"><ele>16.0</ele><time>2026-04-18T15:37:06.999Z</time></trkpt><trkpt lat="37.944383080374855" lon="15.703771696224438"><ele>16.0</ele><time>2026-04-18T15:37:07.999Z</time></trkpt><trkpt lat="37.94431924043815" lon="15.703853127452657"><ele>15.999999999999998</ele><time>2026-04-18T15:37:08.999Z</time></trkpt><trkpt lat="37.944258891523084" lon="15.703919304721355"><ele>16.0</ele><time>2026-04-18T15:37:09.999Z</time></trkpt><trkpt lat="37.944212749815705" lon="15.703990927913207"><ele>16.0</ele><time>2026-04-18T15:37:10.999Z</time></trkpt><trkpt lat="37.94418961537917" lon="15.704074873821092"><ele>16.0</ele><time>2026-04-18T15:37:11.999Z</time></trkpt><trkpt lat="37.944201105568226" lon="15.704170673764557"><ele>15.999999999999998</ele><time>2026-04-18T15:37:12.999Z</time></trkpt><trkpt lat="37.94426068610223" lon="15.704245490010656"><ele>16.0</ele><time>2026-04-18T15:37:13.999Z</time></trkpt><trkpt lat="37.94432865054363" lon="15.704280043215032"><ele>17.0</ele><time>2026-04-18T15:37:14.999Z</time></trkpt><trkpt lat="37.944400708863995" lon="15.704271916794335"><ele>18.0</ele><time>2026-04-18T15:37:15.999Z</time></trkpt><trkpt lat="37.944465357832335" lon="15.704207978752178"><ele>19.0</ele><time>2026-04-18T15:37:16.999Z</time></trkpt><trkpt lat="37.94450760219531" lon="15.704111499625393"><ele>20.0</ele><time>2026-04-18T15:37:17.999Z</time></trkpt><trkpt lat="37.94452336988098" lon="15.703978787392536"><ele>21.0</ele><time>2026-04-18T15:37:18.999Z</time></trkpt><trkpt lat="37.944542656966945" lon="15.703830441576182"><ele>21.0</ele><time>2026-04-18T15:37:19.999Z</time></trkpt><trkpt lat="37.944584780122035" lon="15.703701495563271"><ele>21.0</ele><time>2026-04-18T15:37:20.999Z</time></trkpt><trkpt lat="37.9446640958148" lon="15.703573018768894"><ele>21.0</ele><time>2026-04-18T15:37:21.999Z</time></trkpt><trkpt lat="37.944764244274616" lon="15.703442040212465"><ele>21.0</ele><time>2026-04-18T15:37:22.999Z</time></trkpt><trkpt lat="37.94487135790025" lon="15.703295821583676"><ele>20.0</ele><time>2026-04-18T15:37:23.999Z</time></trkpt><trkpt lat="37.94499245151412" lon="15.703134713612833"><ele>19.0</ele><time>2026-04-18T15:37:24.999Z</time></trkpt><trkpt lat="37.94511090796639" lon="15.702977325075874"><ele>18.0</ele><time>2026-04-18T15:37:25.999Z</time></trkpt><trkpt lat="37.94523956071934" lon="15.70280749325871"><ele>17.333333333333332</ele><time>2026-04-18T15:37:26.999Z</time></trkpt><trkpt lat="37.945369283932614" lon="15.702637840598495"><ele>16.666666666666664</ele><time>2026-04-18T15:37:27.999Z</time></trkpt><trkpt lat="37.94550825185538" lon="15.702461384938276"><ele>16.0</ele><time>2026-04-18T15:37:28.999Z</time></trkpt><trkpt lat="37.94563159446665" lon="15.702289149290607"><ele>16.0</ele><time>2026-04-18T15:37:29.999Z</time></trkpt><trkpt lat="37.94577110485041" lon="15.702096078720919"><ele>16.0</ele><time>2026-04-18T15:37:30.999Z</time></trkpt><trkpt lat="37.94591511588368" lon="15.701907499718073"><ele>16.0</ele><time>2026-04-18T15:37:31.999Z</time></trkpt><trkpt lat="37.946060336734455" lon="15.701715584101475"><ele>15.666666666666666</ele><time>2026-04-18T15:37:32.999Z</time></trkpt><trkpt lat="37.946206763281275" lon="15.701518735395702"><ele>15.333333333333332</ele><time>2026-04-18T15:37:33.999Z</time></trkpt><trkpt lat="37.94635653196145" lon="15.701314015747329"><ele>15.0</ele><time>2026-04-18T15:37:34.999Z</time></trkpt><trkpt lat="37.94651075670171" lon="15.701112940914355"><ele>15.0</ele><time>2026-04-18T15:37:35.999Z</time></trkpt><trkpt lat="37.94666740153502" lon="15.70091045544555"><ele>15.0</ele><time>2026-04-18T15:37:36.999Z</time></trkpt><trkpt lat="37.94682031200602" lon="15.700701638802421"><ele>15.0</ele><time>2026-04-18T15:37:37.999Z</time></trkpt><trkpt lat="37.94697508038665" lon="15.700504229565315"><ele>15.0</ele><time>2026-04-18T15:37:38.999Z</time></trkpt><trkpt lat="37.947129680564984" lon="15.700309986692208"><ele>15.0</ele><time>2026-04-18T15:37:39.999Z</time></trkpt><trkpt lat="37.94728110768645" lon="15.700111105687743"><ele>15.0</ele><time>2026-04-18T15:37:40.999Z</time></trkpt><trkpt lat="37.94743863617152" lon="15.69990968575652"><ele>12.5</ele><time>2026-04-18T15:37:41.999Z</time></trkpt><trkpt lat="37.94759481043559" lon="15.69970418778594"><ele>10.0</ele><time>2026-04-18T15:37:42.999Z</time></trkpt><trkpt lat="37.94775681945183" lon="15.699499530530321"><ele>8.5</ele><time>2026-04-18T15:37:43.999Z</time></trkpt><trkpt lat="37.94791749929932" lon="15.699295554294025"><ele>7.0</ele><time>2026-04-18T15:37:44.999Z</time></trkpt><trkpt lat="37.9480815494125" lon="15.699090381833043"><ele>7.0</ele><time>2026-04-18T15:37:45.999Z</time></trkpt><trkpt lat="37.94824658528602" lon="15.698883618507814"><ele>7.0</ele><time>2026-04-18T15:37:46.999Z</time></trkpt><trkpt lat="37.948412725052115" lon="15.698671253117844"><ele>8.0</ele><time>2026-04-18T15:37:47.999Z</time></trkpt><trkpt lat="37.94857659114127" lon="15.698459916822374"><ele>9.0</ele><time>2026-04-18T15:37:48.999Z</time></trkpt><trkpt lat="37.94873598749274" lon="15.698252447134243"><ele>9.0</ele><time>2026-04-18T15:37:49.999Z</time></trkpt><trkpt lat="37.94889489819531" lon="15.698050211017268"><ele>9.0</ele><time>2026-04-18T15:37:50.999Z</time></trkpt><trkpt lat="37.94905057331804" lon="15.697850361825534"><ele>9.0</ele><time>2026-04-18T15:37:51.999Z</time></trkpt><trkpt lat="37.949200094355874" lon="15.697658032698504"><ele>9.0</ele><time>2026-04-18T15:37:52.999Z</time></trkpt><trkpt lat="37.94935660603022" lon="15.697458167794993"><ele>9.0</ele><time>2026-04-18T15:37:53.999Z</time></trkpt><trkpt lat="37.94950940311174" lon="15.697267796257577"><ele>9.0</ele><time>2026-04-18T15:37:54.999Z</time></trkpt><trkpt lat="37.949669469693646" lon="15.697063091899206"><ele>9.0</ele><time>2026-04-18T15:37:55.999Z</time></trkpt><trkpt lat="37.949833776120656" lon="15.696839912934527"><ele>9.0</ele><time>2026-04-18T15:37:56.999Z</time></trkpt><trkpt lat="37.94996336067137" lon="15.69666569545827"><ele>9.0</ele><time>2026-04-18T15:37:57.999Z</time></trkpt><trkpt lat="37.95009245759082" lon="15.696450537134714"><ele>9.333333333333334</ele><time>2026-04-18T15:37:58.999Z</time></trkpt><trkpt lat="37.95022744839931" lon="15.696237281220624"><ele>9.666666666666668</ele><time>2026-04-18T15:37:59.999Z</time></trkpt><trkpt lat="37.95034976788668" lon="15.696010432303533"><ele>10.0</ele><time>2026-04-18T15:38:00.999Z</time></trkpt><trkpt lat="37.95045620333302" lon="15.695774412584916"><ele>10.0</ele><time>2026-04-18T15:38:01.999Z</time></trkpt><trkpt lat="37.95055054282603" lon="15.69553513302013"><ele>10.0</ele><time>2026-04-18T15:38:02.999Z</time></trkpt><trkpt lat="37.950637999204915" lon="15.695289698605945"><ele>10.0</ele><time>2026-04-18T15:38:03.999Z</time></trkpt><trkpt lat="37.95072098938362" lon="15.695043925883047"><ele>9.333333333333334</ele><time>2026-04-18T15:38:04.999Z</time></trkpt><trkpt lat="37.950798856388886" lon="15.694785808779166"><ele>8.666666666666666</ele><time>2026-04-18T15:38:05.999Z</time></trkpt><trkpt lat="37.95087726887223" lon="15.69453353262862"><ele>8.0</ele><time>2026-04-18T15:38:06.999Z</time></trkpt><trkpt lat="37.95096127136265" lon="15.694282099062537"><ele>8.0</ele><time>2026-04-18T15:38:07.999Z</time></trkpt><trkpt lat="37.95105175358787" lon="15.69402396366581"><ele>8.0</ele><time>2026-04-18T15:38:08.999Z</time></trkpt><trkpt lat="37.95114372735168" lon="15.693772716774784"><ele>8.0</ele><time>2026-04-18T15:38:09.999Z</time></trkpt><trkpt lat="37.951226637175566" lon="15.693526693742713"><ele>8.5</ele><time>2026-04-18T15:38:10.999Z</time></trkpt><trkpt lat="37.95130407755446" lon="15.693262070889734"><ele>9.0</ele><time>2026-04-18T15:38:11.999Z</time></trkpt><trkpt lat="37.951400301978055" lon="15.692989419202377"><ele>9.666666666666666</ele><time>2026-04-18T15:38:12.999Z</time></trkpt><trkpt lat="37.951485295757855" lon="15.692728788255332"><ele>10.333333333333332</ele><time>2026-04-18T15:38:13.999Z</time></trkpt><trkpt lat="37.951570178099594" lon="15.692467005492214"><ele>11.0</ele><time>2026-04-18T15:38:14.999Z</time></trkpt><trkpt lat="37.951657970078045" lon="15.692204492200071"><ele>13.5</ele><time>2026-04-18T15:38:15.999Z</time></trkpt><trkpt lat="37.951746181094315" lon="15.6919399529713"><ele>16.0</ele><time>2026-04-18T15:38:16.999Z</time></trkpt><trkpt lat="37.951834978609966" lon="15.691676588402139"><ele>16.0</ele><time>2026-04-18T15:38:17.999Z</time></trkpt><trkpt lat="37.95192106602739" lon="15.691413347467313"><ele>16.0</ele><time>2026-04-18T15:38:18.999Z</time></trkpt><trkpt lat="37.9520067773233" lon="15.691154111245062"><ele>16.0</ele><time>2026-04-18T15:38:19.999Z</time></trkpt><trkpt lat="37.952090846443475" lon="15.690897983217782"><ele>14.333333333333332</ele><time>2026-04-18T15:38:20.999Z</time></trkpt><trkpt lat="37.95217219080887" lon="15.69064005852905"><ele>12.666666666666666</ele><time>2026-04-18T15:38:21.999Z</time></trkpt><trkpt lat="37.95225364487852" lon="15.690376930643886"><ele>11.0</ele><time>2026-04-18T15:38:22.999Z</time></trkpt><trkpt lat="37.95232702594411" lon="15.69012014646701"><ele>11.0</ele><time>2026-04-18T15:38:23.999Z</time></trkpt><trkpt lat="37.95241121548774" lon="15.68986156243361"><ele>11.0</ele><time>2026-04-18T15:38:24.999Z</time></trkpt><trkpt lat="37.95244242888388" lon="15.689570752459534"><ele>12.0</ele><time>2026-04-18T15:38:25.999Z</time></trkpt><trkpt lat="37.95247231386682" lon="15.689282279581896"><ele>13.0</ele><time>2026-04-18T15:38:26.999Z</time></trkpt><trkpt lat="37.95249280738061" lon="15.688986048088568"><ele>13.0</ele><time>2026-04-18T15:38:27.999Z</time></trkpt><trkpt lat="37.95249781976114" lon="15.688689116200637"><ele>13.0</ele><time>2026-04-18T15:38:28.999Z</time></trkpt><trkpt lat="37.95248782525806" lon="15.688386558232569"><ele>16.0</ele><time>2026-04-18T15:38:29.999Z</time></trkpt><trkpt lat="37.95247069088402" lon="15.688083130461592"><ele>19.0</ele><time>2026-04-18T15:38:30.999Z</time></trkpt><trkpt lat="37.95245776756015" lon="15.68778033509175"><ele>20.5</ele><time>2026-04-18T15:38:31.999Z</time></trkpt><trkpt lat="37.952447892309976" lon="15.687479684748366"><ele>22.0</ele><time>2026-04-18T15:38:32.999Z</time></trkpt><trkpt lat="37.95243812627494" lon="15.687177925316073"><ele>25.333333333333332</ele><time>2026-04-18T15:38:33.999Z</time></trkpt><trkpt lat="37.95242511426112" lon="15.686875706162276"><ele>28.666666666666664</ele><time>2026-04-18T15:38:34.999Z</time></trkpt><trkpt lat="37.95240273878887" lon="15.686615959102689"><ele>32.0</ele><time>2026-04-18T15:38:35.999Z</time></trkpt><trkpt lat="37.95239079384138" lon="15.686276086244838"><ele>39.5</ele><time>2026-04-18T15:38:36.999Z</time></trkpt><trkpt lat="37.95237597694209" lon="15.685971354820852"><ele>47.0</ele><time>2026-04-18T15:38:37.999Z</time></trkpt><trkpt lat="37.952356159518" lon="15.685668133944715"><ele>47.0</ele><time>2026-04-18T15:38:38.999Z</time></trkpt><trkpt lat="37.95232524035855" lon="15.685353030740236"><ele>47.0</ele><time>2026-04-18T15:38:39.999Z</time></trkpt><trkpt lat="37.95229587459241" lon="15.685049001604947"><ele>45.5</ele><time>2026-04-18T15:38:40.999Z</time></trkpt><trkpt lat="37.95226819591535" lon="15.684737257307225"><ele>44.0</ele><time>2026-04-18T15:38:42.02Z</time></trkpt><trkpt lat="37.95224025889439" lon="15.684431112489062"><ele>45.33333333333333</ele><time>2026-04-18T15:38:43.019Z</time></trkpt><trkpt lat="37.95220033558544" lon="15.684144394049852"><ele>46.666666666666664</ele><time>2026-04-18T15:38:44.018Z</time></trkpt><trkpt lat="37.95217067400923" lon="15.683877509645026"><ele>48.0</ele><time>2026-04-18T15:38:44.999Z</time></trkpt><trkpt lat="37.95254169936914" lon="15.683812825366804"><ele>48.0</ele><time>2026-04-18T15:38:45.999Z</time></trkpt><trkpt lat="37.95266339169619" lon="15.683576803417507"><ele>48.0</ele><time>2026-04-18T15:38:46.999Z</time></trkpt><trkpt lat="37.952788001801984" lon="15.6833359621259"><ele>48.0</ele><time>2026-04-18T15:38:47.999Z</time></trkpt><trkpt lat="37.95290076187113" lon="15.68308328515507"><ele>48.0</ele><time>2026-04-18T15:38:48.999Z</time></trkpt><trkpt lat="37.95301782537458" lon="15.68283712509899"><ele>48.0</ele><time>2026-04-18T15:38:49.999Z</time></trkpt><trkpt lat="37.95313002170356" lon="15.682582071511574"><ele>45.0</ele><time>2026-04-18T15:38:50.999Z</time></trkpt><trkpt lat="37.95324150754473" lon="15.682334940059327"><ele>42.0</ele><time>2026-04-18T15:38:51.999Z</time></trkpt><trkpt lat="37.95336364060216" lon="15.68210445053433"><ele>39.0</ele><time>2026-04-18T15:38:52.999Z</time></trkpt><trkpt lat="37.95347545225425" lon="15.681896697792805"><ele>47.33333333333333</ele><time>2026-04-18T15:38:53.999Z</time></trkpt><trkpt lat="37.95357653903251" lon="15.681704944741838"><ele>55.666666666666664</ele><time>2026-04-18T15:38:54.999Z</time></trkpt><trkpt lat="37.953660489758676" lon="15.681518944236613"><ele>64.0</ele><time>2026-04-18T15:38:55.999Z</time></trkpt><trkpt lat="37.953693237277236" lon="15.68132448797453"><ele>64.0</ele><time>2026-04-18T15:38:56.999Z</time></trkpt><trkpt lat="37.95367480821143" lon="15.68111056534398"><ele>64.0</ele><time>2026-04-18T15:38:57.999Z</time></trkpt><trkpt lat="37.95362835320857" lon="15.680903462217598"><ele>64.0</ele><time>2026-04-18T15:38:58.999Z</time></trkpt><trkpt lat="37.95359696135471" lon="15.680710453500344"><ele>65.0</ele><time>2026-04-18T15:38:59.999Z</time></trkpt><trkpt lat="37.953604963224386" lon="15.680520724194082"><ele>66.0</ele><time>2026-04-18T15:39:00.999Z</time></trkpt><trkpt lat="37.95363506115601" lon="15.680314354625205"><ele>67.0</ele><time>2026-04-18T15:39:01.999Z</time></trkpt><trkpt lat="37.95368266432056" lon="15.680092317401291"><ele>67.0</ele><time>2026-04-18T15:39:02.999Z</time></trkpt><trkpt lat="37.9537445013185" lon="15.679868798071283"><ele>67.0</ele><time>2026-04-18T15:39:03.999Z</time></trkpt><trkpt lat="37.95381804869975" lon="15.679675804098578"><ele>67.0</ele><time>2026-04-18T15:39:04.999Z</time></trkpt><trkpt lat="37.95387728570342" lon="15.679503041810305"><ele>60.666666666666664</ele><time>2026-04-18T15:39:05.999Z</time></trkpt><trkpt lat="37.95395833557974" lon="15.679288720761358"><ele>54.33333333333333</ele><time>2026-04-18T15:39:06.999Z</time></trkpt><trkpt lat="37.9540568408089" lon="15.679018945293501"><ele>48.0</ele><time>2026-04-18T15:39:07.999Z</time></trkpt><trkpt lat="37.95418727373601" lon="15.678755336109997"><ele>47.5</ele><time>2026-04-18T15:39:08.999Z</time></trkpt><trkpt lat="37.954347896701705" lon="15.678533056500036"><ele>47.0</ele><time>2026-04-18T15:39:09.999Z</time></trkpt><trkpt lat="37.95452674498456" lon="15.678319240516448"><ele>47.0</ele><time>2026-04-18T15:39:10.999Z</time></trkpt><trkpt lat="37.95470120724626" lon="15.678139526967826"><ele>47.0</ele><time>2026-04-18T15:39:11.999Z</time></trkpt><trkpt lat="37.95486367412221" lon="15.677954607124041"><ele>47.0</ele><time>2026-04-18T15:39:12.999Z</time></trkpt><trkpt lat="37.955044486946285" lon="15.677804132106862"><ele>37.0</ele><time>2026-04-18T15:39:13.999Z</time></trkpt><trkpt lat="37.95525985920805" lon="15.677718717326679"><ele>27.0</ele><time>2026-04-18T15:39:14.999Z</time></trkpt><trkpt lat="37.955488362559244" lon="15.677692421861966"><ele>27.0</ele><time>2026-04-18T15:39:15.999Z</time></trkpt><trkpt lat="37.95570758916286" lon="15.67768821846217"><ele>27.0</ele><time>2026-04-18T15:39:16.999Z</time></trkpt><trkpt lat="37.95591747481739" lon="15.67759985559501"><ele>27.0</ele><time>2026-04-18T15:39:17.999Z</time></trkpt><trkpt lat="37.95610834568444" lon="15.677474244240601"><ele>27.0</ele><time>2026-04-18T15:39:18.999Z</time></trkpt><trkpt lat="37.95632305511358" lon="15.677310014692987"><ele>27.0</ele><time>2026-04-18T15:39:19.999Z</time></trkpt><trkpt lat="37.956566782049165" lon="15.677110866671068"><ele>23.5</ele><time>2026-04-18T15:39:20.999Z</time></trkpt><trkpt lat="37.95683784101523" lon="15.67688580057357"><ele>20.0</ele><time>2026-04-18T15:39:21.999Z</time></trkpt><trkpt lat="37.95709852574588" lon="15.67668072630707"><ele>20.0</ele><time>2026-04-18T15:39:22.999Z</time></trkpt><trkpt lat="37.95734999744173" lon="15.67648828295603"><ele>20.0</ele><time>2026-04-18T15:39:23.999Z</time></trkpt><trkpt lat="37.95759515368628" lon="15.676291872638558"><ele>19.0</ele><time>2026-04-18T15:39:24.999Z</time></trkpt><trkpt lat="37.95783556077506" lon="15.676090164375877"><ele>18.0</ele><time>2026-04-18T15:39:25.999Z</time></trkpt><trkpt lat="37.958066557878624" lon="15.675894385165881"><ele>18.0</ele><time>2026-04-18T15:39:26.999Z</time></trkpt><trkpt lat="37.95828726172005" lon="15.675704290310563"><ele>18.0</ele><time>2026-04-18T15:39:27.999Z</time></trkpt><trkpt lat="37.95850213646385" lon="15.67551878526291"><ele>16.5</ele><time>2026-04-18T15:39:28.999Z</time></trkpt><trkpt lat="37.958716045700164" lon="15.675342907985497"><ele>15.0</ele><time>2026-04-18T15:39:29.999Z</time></trkpt><trkpt lat="37.958936012235746" lon="15.675171571952987"><ele>15.0</ele><time>2026-04-18T15:39:30.999Z</time></trkpt><trkpt lat="37.95915772996244" lon="15.675032344644817"><ele>15.0</ele><time>2026-04-18T15:39:31.999Z</time></trkpt><trkpt lat="37.9593414426947" lon="15.674871756819542"><ele>17.0</ele><time>2026-04-18T15:39:32.999Z</time></trkpt><trkpt lat="37.9595012719439" lon="15.6747617806544"><ele>19.0</ele><time>2026-04-18T15:39:33.999Z</time></trkpt><trkpt lat="37.959649099251486" lon="15.67466189584962"><ele>21.0</ele><time>2026-04-18T15:39:34.999Z</time></trkpt><trkpt lat="37.95982106923741" lon="15.674542394729304"><ele>19.0</ele><time>2026-04-18T15:39:35.999Z</time></trkpt><trkpt lat="37.96001895162132" lon="15.674401415761825"><ele>17.0</ele><time>2026-04-18T15:39:36.999Z</time></trkpt><trkpt lat="37.96022373260485" lon="15.674279228114903"><ele>17.0</ele><time>2026-04-18T15:39:37.999Z</time></trkpt><trkpt lat="37.960437281655935" lon="15.674161138762402"><ele>17.0</ele><time>2026-04-18T15:39:38.999Z</time></trkpt><trkpt lat="37.96064394019192" lon="15.67403354332537"><ele>17.0</ele><time>2026-04-18T15:39:39.999Z</time></trkpt><trkpt lat="37.96084925728437" lon="15.673913878001887"><ele>17.0</ele><time>2026-04-18T15:39:40.999Z</time></trkpt><trkpt lat="37.961061484778135" lon="15.673788258382956"><ele>16.0</ele><time>2026-04-18T15:39:41.999Z</time></trkpt><trkpt lat="37.961275999890255" lon="15.673659331704059"><ele>15.0</ele><time>2026-04-18T15:39:42.999Z</time></trkpt><trkpt lat="37.9614872811252" lon="15.673532885923247"><ele>15.0</ele><time>2026-04-18T15:39:43.999Z</time></trkpt><trkpt lat="37.96170600723586" lon="15.673407373624949"><ele>15.0</ele><time>2026-04-18T15:39:44.999Z</time></trkpt><trkpt lat="37.9619202837555" lon="15.67327939770926"><ele>15.0</ele><time>2026-04-18T15:39:45.999Z</time></trkpt><trkpt lat="37.96212506149517" lon="15.673141060050213"><ele>15.0</ele><time>2026-04-18T15:39:46.999Z</time></trkpt><trkpt lat="37.96233994769215" lon="15.673013138992136"><ele>16.0</ele><time>2026-04-18T15:39:47.999Z</time></trkpt><trkpt lat="37.962549918002786" lon="15.672885179972052"><ele>17.0</ele><time>2026-04-18T15:39:48.999Z</time></trkpt><trkpt lat="37.96275554224548" lon="15.672752295203875"><ele>15.0</ele><time>2026-04-18T15:39:49.999Z</time></trkpt><trkpt lat="37.96296313409053" lon="15.672613911257919"><ele>13.0</ele><time>2026-04-18T15:39:50.999Z</time></trkpt><trkpt lat="37.96316729244996" lon="15.672476235726338"><ele>13.5</ele><time>2026-04-18T15:39:51.999Z</time></trkpt><trkpt lat="37.96336750093813" lon="15.67232999029068"><ele>14.0</ele><time>2026-04-18T15:39:52.999Z</time></trkpt><trkpt lat="37.96357791608241" lon="15.672206525331866"><ele>14.0</ele><time>2026-04-18T15:39:53.999Z</time></trkpt><trkpt lat="37.96378346728002" lon="15.672064946693636"><ele>14.0</ele><time>2026-04-18T15:39:54.999Z</time></trkpt><trkpt lat="37.963990311366935" lon="15.671915730955295"><ele>14.5</ele><time>2026-04-18T15:39:55.999Z</time></trkpt><trkpt lat="37.964205423937976" lon="15.671781131761177"><ele>15.0</ele><time>2026-04-18T15:39:56.999Z</time></trkpt><trkpt lat="37.964413175250435" lon="15.671635802561262"><ele>15.0</ele><time>2026-04-18T15:39:57.999Z</time></trkpt><trkpt lat="37.96462280433639" lon="15.671488367744528"><ele>15.0</ele><time>2026-04-18T15:39:58.999Z</time></trkpt><trkpt lat="37.96483429725107" lon="15.671343635333406"><ele>13.5</ele><time>2026-04-18T15:39:59.999Z</time></trkpt><trkpt lat="37.96503770921819" lon="15.671194496772948"><ele>12.0</ele><time>2026-04-18T15:40:00.999Z</time></trkpt><trkpt lat="37.96524698920355" lon="15.671045214193544"><ele>12.0</ele><time>2026-04-18T15:40:01.999Z</time></trkpt><trkpt lat="37.96545515840307" lon="15.670899886260761"><ele>12.0</ele><time>2026-04-18T15:40:02.999Z</time></trkpt><trkpt lat="37.96566275336275" lon="15.670753458600242"><ele>14.0</ele><time>2026-04-18T15:40:03.999Z</time></trkpt><trkpt lat="37.965874196008755" lon="15.670604631907342"><ele>16.0</ele><time>2026-04-18T15:40:04.999Z</time></trkpt><trkpt lat="37.966083675397016" lon="15.67045744880613"><ele>16.0</ele><time>2026-04-18T15:40:05.999Z</time></trkpt><trkpt lat="37.966294453905185" lon="15.670312013477242"><ele>16.0</ele><time>2026-04-18T15:40:06.999Z</time></trkpt><trkpt lat="37.96650598396806" lon="15.670166607673568"><ele>17.5</ele><time>2026-04-18T15:40:07.999Z</time></trkpt><trkpt lat="37.966712554063065" lon="15.670020758745299"><ele>19.0</ele><time>2026-04-18T15:40:08.999Z</time></trkpt><trkpt lat="37.96691985110335" lon="15.669872428951395"><ele>19.0</ele><time>2026-04-18T15:40:09.999Z</time></trkpt><trkpt lat="37.96712499502063" lon="15.66971972530101"><ele>19.0</ele><time>2026-04-18T15:40:10.999Z</time></trkpt><trkpt lat="37.96733643386531" lon="15.669590337960432"><ele>18.5</ele><time>2026-04-18T15:40:11.999Z</time></trkpt><trkpt lat="37.967530305934886" lon="15.669411271728356"><ele>18.0</ele><time>2026-04-18T15:40:12.999Z</time></trkpt><trkpt lat="37.96772215523028" lon="15.66924537859805"><ele>18.0</ele><time>2026-04-18T15:40:13.999Z</time></trkpt><trkpt lat="37.96790743820609" lon="15.669071289013173"><ele>18.0</ele><time>2026-04-18T15:40:14.999Z</time></trkpt><trkpt lat="37.968092650019955" lon="15.668887462772418"><ele>18.0</ele><time>2026-04-18T15:40:15.999Z</time></trkpt><trkpt lat="37.968272503519444" lon="15.66869640830104"><ele>18.0</ele><time>2026-04-18T15:40:16.999Z</time></trkpt><trkpt lat="37.968445811393224" lon="15.668497401034843"><ele>18.0</ele><time>2026-04-18T15:40:17.999Z</time></trkpt><trkpt lat="37.96861488868212" lon="15.66829719681615"><ele>18.0</ele><time>2026-04-18T15:40:18.999Z</time></trkpt><trkpt lat="37.96879848990909" lon="15.668100200445975"><ele>18.0</ele><time>2026-04-18T15:40:19.999Z</time></trkpt><trkpt lat="37.96898120949923" lon="15.667901778521927"><ele>18.0</ele><time>2026-04-18T15:40:20.999Z</time></trkpt><trkpt lat="37.96916219132952" lon="15.667701904256722"><ele>16.5</ele><time>2026-04-18T15:40:21.999Z</time></trkpt><trkpt lat="37.9693404674088" lon="15.667500927009383"><ele>15.0</ele><time>2026-04-18T15:40:22.999Z</time></trkpt><trkpt lat="37.96951871537742" lon="15.667298625150066"><ele>15.0</ele><time>2026-04-18T15:40:23.999Z</time></trkpt><trkpt lat="37.9696946409491" lon="15.667096397841494"><ele>15.0</ele><time>2026-04-18T15:40:24.999Z</time></trkpt><trkpt lat="37.96987134454558" lon="15.666897867951539"><ele>16.5</ele><time>2026-04-18T15:40:25.999Z</time></trkpt><trkpt lat="37.970043982977565" lon="15.66669966328092"><ele>18.0</ele><time>2026-04-18T15:40:26.999Z</time></trkpt><trkpt lat="37.97021930324535" lon="15.666494604872833"><ele>18.0</ele><time>2026-04-18T15:40:27.999Z</time></trkpt><trkpt lat="37.970395701008854" lon="15.666287595358758"><ele>18.0</ele><time>2026-04-18T15:40:28.999Z</time></trkpt><trkpt lat="37.97057259055947" lon="15.666083372852135"><ele>18.5</ele><time>2026-04-18T15:40:29.999Z</time></trkpt><trkpt lat="37.97074927606245" lon="15.665881318946465"><ele>19.0</ele><time>2026-04-18T15:40:30.999Z</time></trkpt><trkpt lat="37.970925732742785" lon="15.665684354464158"><ele>19.0</ele><time>2026-04-18T15:40:31.999Z</time></trkpt><trkpt lat="37.9711020544784" lon="15.665487736511169"><ele>19.0</ele><time>2026-04-18T15:40:32.999Z</time></trkpt><trkpt lat="37.97127743926236" lon="15.665292971198726"><ele>16.5</ele><time>2026-04-18T15:40:33.999Z</time></trkpt><trkpt lat="37.97145214933741" lon="15.665092803907482"><ele>14.0</ele><time>2026-04-18T15:40:34.999Z</time></trkpt><trkpt lat="37.97162864231263" lon="15.66489374401317"><ele>15.0</ele><time>2026-04-18T15:40:35.999Z</time></trkpt><trkpt lat="37.97180233617655" lon="15.664693610417213"><ele>16.0</ele><time>2026-04-18T15:40:36.999Z</time></trkpt><trkpt lat="37.971976418210595" lon="15.664491531999413"><ele>13.5</ele><time>2026-04-18T15:40:37.999Z</time></trkpt><trkpt lat="37.97215317741829" lon="15.66429008835803"><ele>11.0</ele><time>2026-04-18T15:40:38.999Z</time></trkpt><trkpt lat="37.9723322325056" lon="15.66408820652325"><ele>11.0</ele><time>2026-04-18T15:40:39.999Z</time></trkpt><trkpt lat="37.97251152436162" lon="15.663887295129719"><ele>11.0</ele><time>2026-04-18T15:40:40.999Z</time></trkpt><trkpt lat="37.97269388402416" lon="15.66368326714989"><ele>12.5</ele><time>2026-04-18T15:40:41.999Z</time></trkpt><trkpt lat="37.972874177976195" lon="15.663483749361566"><ele>14.0</ele><time>2026-04-18T15:40:42.999Z</time></trkpt><trkpt lat="37.97305911928369" lon="15.663290932422516"><ele>14.0</ele><time>2026-04-18T15:40:43.999Z</time></trkpt><trkpt lat="37.9732579325087" lon="15.66310019090456"><ele>14.0</ele><time>2026-04-18T15:40:44.999Z</time></trkpt><trkpt lat="37.973461264569394" lon="15.662940308434385"><ele>13.333333333333334</ele><time>2026-04-18T15:40:45.999Z</time></trkpt><trkpt lat="37.973653790554266" lon="15.662813268054276"><ele>12.666666666666668</ele><time>2026-04-18T15:40:46.999Z</time></trkpt><trkpt lat="37.97384602968301" lon="15.662699529266725"><ele>12.0</ele><time>2026-04-18T15:40:47.999Z</time></trkpt><trkpt lat="37.9740447527842" lon="15.662612756600124"><ele>13.0</ele><time>2026-04-18T15:40:48.999Z</time></trkpt><trkpt lat="37.974245522173035" lon="15.66255494896441"><ele>14.0</ele><time>2026-04-18T15:40:49.999Z</time></trkpt><trkpt lat="37.97443289150182" lon="15.662507094830557"><ele>15.0</ele><time>2026-04-18T15:40:50.999Z</time></trkpt><trkpt lat="37.974607476471974" lon="15.662469976384306"><ele>15.0</ele><time>2026-04-18T15:40:51.999Z</time></trkpt><trkpt lat="37.97477671605101" lon="15.66244143952556"><ele>15.0</ele><time>2026-04-18T15:40:52.999Z</time></trkpt><trkpt lat="37.974926165786826" lon="15.662424889874597"><ele>15.0</ele><time>2026-04-18T15:40:53.999Z</time></trkpt><trkpt lat="37.97506790870362" lon="15.662422876281578"><ele>15.0</ele><time>2026-04-18T15:40:54.999Z</time></trkpt><trkpt lat="37.975190410707135" lon="15.66244710694967"><ele>15.0</ele><time>2026-04-18T15:40:55.999Z</time></trkpt><trkpt lat="37.97531158104936" lon="15.662470401327143"><ele>15.0</ele><time>2026-04-18T15:40:56.999Z</time></trkpt><trkpt lat="37.97543661493689" lon="15.66243832072357"><ele>15.0</ele><time>2026-04-18T15:40:57.999Z</time></trkpt><trkpt lat="37.975578013042515" lon="15.662334035281408"><ele>15.0</ele><time>2026-04-18T15:40:58.999Z</time></trkpt><trkpt lat="37.97578333559792" lon="15.662223390032704"><ele>15.0</ele><time>2026-04-18T15:40:59.999Z</time></trkpt><trkpt lat="37.976030597163486" lon="15.662115525739464"><ele>15.0</ele><time>2026-04-18T15:41:00.999Z</time></trkpt><trkpt lat="37.97626042998091" lon="15.661978252994018"><ele>15.0</ele><time>2026-04-18T15:41:01.999Z</time></trkpt><trkpt lat="37.9765200176187" lon="15.661809485995816"><ele>14.5</ele><time>2026-04-18T15:41:02.999Z</time></trkpt><trkpt lat="37.976776664072716" lon="15.661634609244365"><ele>14.0</ele><time>2026-04-18T15:41:03.999Z</time></trkpt><trkpt lat="37.97701979038186" lon="15.661472712684857"><ele>14.0</ele><time>2026-04-18T15:41:04.999Z</time></trkpt><trkpt lat="37.977246980910415" lon="15.661317110341365"><ele>14.0</ele><time>2026-04-18T15:41:05.999Z</time></trkpt><trkpt lat="37.977477796788655" lon="15.661175270700417"><ele>13.5</ele><time>2026-04-18T15:41:06.999Z</time></trkpt><trkpt lat="37.977684053089455" lon="15.66103239528"><ele>13.0</ele><time>2026-04-18T15:41:07.999Z</time></trkpt><trkpt lat="37.977885942565635" lon="15.660895539382414"><ele>13.0</ele><time>2026-04-18T15:41:08.999Z</time></trkpt><trkpt lat="37.97808495771386" lon="15.66075460237597"><ele>13.0</ele><time>2026-04-18T15:41:09.999Z</time></trkpt><trkpt lat="37.97828239149427" lon="15.660610971588705"><ele>13.0</ele><time>2026-04-18T15:41:10.999Z</time></trkpt><trkpt lat="37.9784679424638" lon="15.660487661455909"><ele>13.0</ele><time>2026-04-18T15:41:11.999Z</time></trkpt><trkpt lat="37.97864993392862" lon="15.660355322659617"><ele>13.0</ele><time>2026-04-18T15:41:12.999Z</time></trkpt><trkpt lat="37.978824559618076" lon="15.660241574516599"><ele>13.0</ele><time>2026-04-18T15:41:13.999Z</time></trkpt><trkpt lat="37.97898745125648" lon="15.660116956993644"><ele>13.0</ele><time>2026-04-18T15:41:14.999Z</time></trkpt><trkpt lat="37.97915030238999" lon="15.659979105625062"><ele>13.0</ele><time>2026-04-18T15:41:15.999Z</time></trkpt><trkpt lat="37.979298992290914" lon="15.659823813897498"><ele>12.666666666666666</ele><time>2026-04-18T15:41:16.999Z</time></trkpt><trkpt lat="37.979452773122645" lon="15.659627438062625"><ele>12.333333333333332</ele><time>2026-04-18T15:41:17.999Z</time></trkpt><trkpt lat="37.97960889612046" lon="15.659412077436942"><ele>12.0</ele><time>2026-04-18T15:41:18.999Z</time></trkpt><trkpt lat="37.97976552200661" lon="15.659197477767465"><ele>11.0</ele><time>2026-04-18T15:41:19.999Z</time></trkpt><trkpt lat="37.97991247816875" lon="15.658976549823493"><ele>10.0</ele><time>2026-04-18T15:41:20.999Z</time></trkpt><trkpt lat="37.98005157140081" lon="15.658757216323965"><ele>11.333333333333334</ele><time>2026-04-18T15:41:21.999Z</time></trkpt><trkpt lat="37.980199627961674" lon="15.658545341401402"><ele>12.666666666666668</ele><time>2026-04-18T15:41:22.999Z</time></trkpt><trkpt lat="37.980344602701074" lon="15.658330601944645"><ele>14.0</ele><time>2026-04-18T15:41:23.999Z</time></trkpt><trkpt lat="37.980486899203854" lon="15.65813219228533"><ele>14.0</ele><time>2026-04-18T15:41:24.999Z</time></trkpt><trkpt lat="37.98064598118864" lon="15.657972662362866"><ele>14.0</ele><time>2026-04-18T15:41:25.999Z</time></trkpt><trkpt lat="37.98078564160802" lon="15.65781756441858"><ele>14.0</ele><time>2026-04-18T15:41:26.999Z</time></trkpt><trkpt lat="37.98090757652101" lon="15.657668347861247"><ele>14.333333333333334</ele><time>2026-04-18T15:41:27.999Z</time></trkpt><trkpt lat="37.98104189899236" lon="15.657521066002088"><ele>14.666666666666668</ele><time>2026-04-18T15:41:28.999Z</time></trkpt><trkpt lat="37.98121259658828" lon="15.657355954350383"><ele>15.0</ele><time>2026-04-18T15:41:29.999Z</time></trkpt><trkpt lat="37.981351170971024" lon="15.657201065697825"><ele>15.0</ele><time>2026-04-18T15:41:30.999Z</time></trkpt><trkpt lat="37.981501165981946" lon="15.657056184355149"><ele>15.0</ele><time>2026-04-18T15:41:31.999Z</time></trkpt><trkpt lat="37.98162114141284" lon="15.656934617610112"><ele>15.0</ele><time>2026-04-18T15:41:32.999Z</time></trkpt><trkpt lat="37.98174405682575" lon="15.656804711998538"><ele>15.25</ele><time>2026-04-18T15:41:33.999Z</time></trkpt><trkpt lat="37.98186038393118" lon="15.65670822283339"><ele>15.5</ele><time>2026-04-18T15:41:34.999Z</time></trkpt><trkpt lat="37.98197975303599" lon="15.656586947550938"><ele>15.75</ele><time>2026-04-18T15:41:35.999Z</time></trkpt><trkpt lat="37.98210575261338" lon="15.656581780384347"><ele>16.0</ele><time>2026-04-18T15:41:36.999Z</time></trkpt><trkpt lat="37.982256862884036" lon="15.656515438965766"><ele>16.0</ele><time>2026-04-18T15:41:37.999Z</time></trkpt><trkpt lat="37.98235525500715" lon="15.656493522352415"><ele>16.0</ele><time>2026-04-18T15:41:38.999Z</time></trkpt><trkpt lat="37.98244570226866" lon="15.656459453007123"><ele>16.0</ele><time>2026-04-18T15:41:39.999Z</time></trkpt><trkpt lat="37.98247392970731" lon="15.656340175950177"><ele>16.0</ele><time>2026-04-18T15:41:40.999Z</time></trkpt><trkpt lat="37.98248279180443" lon="15.656249307438957"><ele>16.0</ele><time>2026-04-18T15:41:41.999Z</time></trkpt><trkpt lat="37.982483315772775" lon="15.656120606877804"><ele>16.0</ele><time>2026-04-18T15:41:42.999Z</time></trkpt><trkpt lat="37.9825096127703" lon="15.65599469033677"><ele>16.0</ele><time>2026-04-18T15:41:43.999Z</time></trkpt><trkpt lat="37.98263313742491" lon="15.655866303875689"><ele>16.0</ele><time>2026-04-18T15:41:44.999Z</time></trkpt><trkpt lat="37.982764760770536" lon="15.655716317283941"><ele>16.0</ele><time>2026-04-18T15:41:45.999Z</time></trkpt><trkpt lat="37.98292058745856" lon="15.655560843666995"><ele>16.0</ele><time>2026-04-18T15:41:46.999Z</time></trkpt><trkpt lat="37.983086005891394" lon="15.655414543455944"><ele>16.0</ele><time>2026-04-18T15:41:47.999Z</time></trkpt><trkpt lat="37.983250285215846" lon="15.655228223064585"><ele>16.0</ele><time>2026-04-18T15:41:48.999Z</time></trkpt><trkpt lat="37.98342406425988" lon="15.65506175444747"><ele>16.333333333333332</ele><time>2026-04-18T15:41:49.999Z</time></trkpt><trkpt lat="37.98359709889979" lon="15.654900444456782"><ele>16.666666666666668</ele><time>2026-04-18T15:41:50.999Z</time></trkpt><trkpt lat="37.98378372743757" lon="15.654774595690142"><ele>17.0</ele><time>2026-04-18T15:41:51.999Z</time></trkpt><trkpt lat="37.983998358963056" lon="15.654630620016063"><ele>18.5</ele><time>2026-04-18T15:41:52.999Z</time></trkpt><trkpt lat="37.98421599314108" lon="15.654489010351003"><ele>20.0</ele><time>2026-04-18T15:41:53.999Z</time></trkpt><trkpt lat="37.98442627803088" lon="15.654330446906865"><ele>17.0</ele><time>2026-04-18T15:41:54.999Z</time></trkpt><trkpt lat="37.984636048054" lon="15.65420594524503"><ele>14.0</ele><time>2026-04-18T15:41:55.999Z</time></trkpt><trkpt lat="37.98485074169527" lon="15.654054875217145"><ele>16.5</ele><time>2026-04-18T15:41:56.999Z</time></trkpt><trkpt lat="37.98506270330668" lon="15.653889105318063"><ele>19.0</ele><time>2026-04-18T15:41:57.999Z</time></trkpt><trkpt lat="37.98526228208749" lon="15.653704532814563"><ele>16.5</ele><time>2026-04-18T15:41:58.999Z</time></trkpt><trkpt lat="37.9854561056145" lon="15.653517513198668"><ele>14.0</ele><time>2026-04-18T15:41:59.999Z</time></trkpt><trkpt lat="37.98565629773788" lon="15.653329471243454"><ele>14.0</ele><time>2026-04-18T15:42:00.999Z</time></trkpt><trkpt lat="37.98584405714175" lon="15.653140648864666"><ele>14.0</ele><time>2026-04-18T15:42:01.999Z</time></trkpt><trkpt lat="37.98603125268464" lon="15.65295945658152"><ele>14.0</ele><time>2026-04-18T15:42:02.999Z</time></trkpt><trkpt lat="37.9862168699606" lon="15.652782589023936"><ele>14.0</ele><time>2026-04-18T15:42:03.999Z</time></trkpt><trkpt lat="37.98640566163738" lon="15.652613671796834"><ele>14.0</ele><time>2026-04-18T15:42:04.999Z</time></trkpt><trkpt lat="37.98659740413828" lon="15.652451103782228"><ele>14.0</ele><time>2026-04-18T15:42:05.999Z</time></trkpt><trkpt lat="37.98678271110191" lon="15.652307393408062"><ele>14.0</ele><time>2026-04-18T15:42:06.999Z</time></trkpt><trkpt lat="37.986955802865644" lon="15.652176539871627"><ele>13.5</ele><time>2026-04-18T15:42:07.999Z</time></trkpt><trkpt lat="37.98713998016318" lon="15.652032448265695"><ele>13.0</ele><time>2026-04-18T15:42:09Z</time></trkpt><trkpt lat="37.987359241026766" lon="15.651902758668431"><ele>16.5</ele><time>2026-04-18T15:42:10Z</time></trkpt><trkpt lat="37.98759198756003" lon="15.651742363465711"><ele>20.0</ele><time>2026-04-18T15:42:11Z</time></trkpt><trkpt lat="37.987843443959775" lon="15.65157245727274"><ele>20.0</ele><time>2026-04-18T15:42:12Z</time></trkpt><trkpt lat="37.98810761321509" lon="15.651392655737348"><ele>20.0</ele><time>2026-04-18T15:42:13Z</time></trkpt><trkpt lat="37.98836825528729" lon="15.651201421332338"><ele>18.5</ele><time>2026-04-18T15:42:14Z</time></trkpt><trkpt lat="37.98863585658043" lon="15.651028815388594"><ele>17.0</ele><time>2026-04-18T15:42:15Z</time></trkpt><trkpt lat="37.98889858548332" lon="15.65085171937612"><ele>17.0</ele><time>2026-04-18T15:42:16Z</time></trkpt><trkpt lat="37.98916046101203" lon="15.650674103766645"><ele>17.0</ele><time>2026-04-18T15:42:17Z</time></trkpt><trkpt lat="37.989421589560635" lon="15.650498417521959"><ele>17.5</ele><time>2026-04-18T15:42:18Z</time></trkpt><trkpt lat="37.98968199214978" lon="15.650317594797112"><ele>18.0</ele><time>2026-04-18T15:42:19Z</time></trkpt><trkpt lat="37.9899445691304" lon="15.650132029142474"><ele>22.0</ele><time>2026-04-18T15:42:20Z</time></trkpt><trkpt lat="37.990207009140455" lon="15.64994704088679"><ele>26.0</ele><time>2026-04-18T15:42:21Z</time></trkpt><trkpt lat="37.990468818610196" lon="15.649759935649639"><ele>26.0</ele><time>2026-04-18T15:42:22Z</time></trkpt><trkpt lat="37.990728805762906" lon="15.649574533458102"><ele>26.0</ele><time>2026-04-18T15:42:23Z</time></trkpt><trkpt lat="37.99098783467404" lon="15.649390552768212"><ele>26.0</ele><time>2026-04-18T15:42:24Z</time></trkpt><trkpt lat="37.991248568022634" lon="15.649212509128157"><ele>26.0</ele><time>2026-04-18T15:42:25Z</time></trkpt><trkpt lat="37.99151056029882" lon="15.649035308470069"><ele>29.0</ele><time>2026-04-18T15:42:26Z</time></trkpt><trkpt lat="37.99177164952535" lon="15.648862280199781"><ele>32.0</ele><time>2026-04-18T15:42:27Z</time></trkpt><trkpt lat="37.99203207725945" lon="15.648689001120907"><ele>29.5</ele><time>2026-04-18T15:42:28Z</time></trkpt><trkpt lat="37.992288811763586" lon="15.648516998100613"><ele>27.0</ele><time>2026-04-18T15:42:29Z</time></trkpt><trkpt lat="37.99254452809992" lon="15.648335265609116"><ele>27.0</ele><time>2026-04-18T15:42:30Z</time></trkpt><trkpt lat="37.99279870499885" lon="15.648158523391993"><ele>27.0</ele><time>2026-04-18T15:42:31Z</time></trkpt><trkpt lat="37.99304664032936" lon="15.647970280285708"><ele>27.0</ele><time>2026-04-18T15:42:32Z</time></trkpt><trkpt lat="37.993298504623226" lon="15.647804447696712"><ele>27.0</ele><time>2026-04-18T15:42:33Z</time></trkpt><trkpt lat="37.99353772560822" lon="15.647642562500906"><ele>24.5</ele><time>2026-04-18T15:42:34Z</time></trkpt><trkpt lat="37.99377747357449" lon="15.647478622262469"><ele>22.0</ele><time>2026-04-18T15:42:35Z</time></trkpt><trkpt lat="37.99401279812154" lon="15.6473143708379"><ele>22.5</ele><time>2026-04-18T15:42:36Z</time></trkpt><trkpt lat="37.99423993442322" lon="15.647157306909921"><ele>23.0</ele><time>2026-04-18T15:42:37Z</time></trkpt><trkpt lat="37.9944571534611" lon="15.646997943111584"><ele>20.0</ele><time>2026-04-18T15:42:38Z</time></trkpt><trkpt lat="37.994651289463995" lon="15.646861641782111"><ele>17.0</ele><time>2026-04-18T15:42:39Z</time></trkpt><trkpt lat="37.99488447734257" lon="15.646693487637592"><ele>18.5</ele><time>2026-04-18T15:42:40Z</time></trkpt><trkpt lat="37.995106870482786" lon="15.646539366169344"><ele>20.0</ele><time>2026-04-18T15:42:41Z</time></trkpt><trkpt lat="37.99533991822126" lon="15.646369546027762"><ele>20.0</ele><time>2026-04-18T15:42:42Z</time></trkpt><trkpt lat="37.99557753239821" lon="15.646203347354545"><ele>20.0</ele><time>2026-04-18T15:42:43Z</time></trkpt><trkpt lat="37.995820442161154" lon="15.64603922729921"><ele>19.5</ele><time>2026-04-18T15:42:44Z</time></trkpt><trkpt lat="37.99606891885036" lon="15.64587152672091"><ele>19.0</ele><time>2026-04-18T15:42:45Z</time></trkpt><trkpt lat="37.9963137285772" lon="15.64570509313112"><ele>19.0</ele><time>2026-04-18T15:42:46Z</time></trkpt><trkpt lat="37.99656393193556" lon="15.645534171362007"><ele>19.0</ele><time>2026-04-18T15:42:47Z</time></trkpt><trkpt lat="37.99681694670597" lon="15.64536400843753"><ele>19.0</ele><time>2026-04-18T15:42:48Z</time></trkpt><trkpt lat="37.997064702288284" lon="15.645191264214846"><ele>19.0</ele><time>2026-04-18T15:42:49Z</time></trkpt><trkpt lat="37.99731835262042" lon="15.645020709472469"><ele>21.5</ele><time>2026-04-18T15:42:50Z</time></trkpt><trkpt lat="37.99756912444866" lon="15.644853752766139"><ele>24.0</ele><time>2026-04-18T15:42:51Z</time></trkpt><trkpt lat="37.99782118626754" lon="15.644682201559554"><ele>24.0</ele><time>2026-04-18T15:42:52Z</time></trkpt><trkpt lat="37.99806928602532" lon="15.644509256659203"><ele>24.0</ele><time>2026-04-18T15:42:53Z</time></trkpt><trkpt lat="37.998312668184994" lon="15.64433296981969"><ele>24.0</ele><time>2026-04-18T15:42:54Z</time></trkpt><trkpt lat="37.99855891620664" lon="15.644154879425864"><ele>24.0</ele><time>2026-04-18T15:42:55Z</time></trkpt><trkpt lat="37.99880631328416" lon="15.643980810917956"><ele>24.0</ele><time>2026-04-18T15:42:56Z</time></trkpt><trkpt lat="37.999057835595735" lon="15.64381771311739"><ele>24.0</ele><time>2026-04-18T15:42:57Z</time></trkpt><trkpt lat="37.99929590054316" lon="15.643668384871377"><ele>21.5</ele><time>2026-04-18T15:42:58Z</time></trkpt><trkpt lat="37.999519706995926" lon="15.643541995551582"><ele>19.0</ele><time>2026-04-18T15:42:59Z</time></trkpt><trkpt lat="37.99973066033863" lon="15.6434376997516"><ele>19.0</ele><time>2026-04-18T15:43:00Z</time></trkpt><trkpt lat="37.999928841649826" lon="15.643349946374085"><ele>19.0</ele><time>2026-04-18T15:43:01Z</time></trkpt><trkpt lat="38.00012013483211" lon="15.643269923207153"><ele>19.0</ele><time>2026-04-18T15:43:02Z</time></trkpt><trkpt lat="38.00031609342563" lon="15.643191688054658"><ele>19.0</ele><time>2026-04-18T15:43:03Z</time></trkpt><trkpt lat="38.00052422604495" lon="15.643115584647127"><ele>19.0</ele><time>2026-04-18T15:43:04Z</time></trkpt><trkpt lat="38.000748591358246" lon="15.643038012512582"><ele>19.0</ele><time>2026-04-18T15:43:05Z</time></trkpt><trkpt lat="38.00096805035484" lon="15.642963887988396"><ele>20.0</ele><time>2026-04-18T15:43:06Z</time></trkpt><trkpt lat="38.00119245000561" lon="15.64288557599045"><ele>21.0</ele><time>2026-04-18T15:43:07Z</time></trkpt><trkpt lat="38.00140854564475" lon="15.64280913236122"><ele>20.666666666666668</ele><time>2026-04-18T15:43:08Z</time></trkpt><trkpt lat="38.001608652508715" lon="15.64274049348136"><ele>20.333333333333336</ele><time>2026-04-18T15:43:09Z</time></trkpt><trkpt lat="38.00181308322386" lon="15.642672594942237"><ele>20.0</ele><time>2026-04-18T15:43:10Z</time></trkpt><trkpt lat="38.00203564091679" lon="15.642601779902725"><ele>20.0</ele><time>2026-04-18T15:43:11Z</time></trkpt><trkpt lat="38.002271547572136" lon="15.642518293800551"><ele>20.0</ele><time>2026-04-18T15:43:12Z</time></trkpt><trkpt lat="38.00253109130506" lon="15.642431315284064"><ele>22.0</ele><time>2026-04-18T15:43:13Z</time></trkpt><trkpt lat="38.002808685134944" lon="15.642345609216685"><ele>24.0</ele><time>2026-04-18T15:43:14Z</time></trkpt><trkpt lat="38.00309194507714" lon="15.642260157368817"><ele>28.0</ele><time>2026-04-18T15:43:15Z</time></trkpt><trkpt lat="38.00336756478058" lon="15.642172489890502"><ele>32.0</ele><time>2026-04-18T15:43:16Z</time></trkpt><trkpt lat="38.003640236996326" lon="15.642082897188894"><ele>32.0</ele><time>2026-04-18T15:43:17Z</time></trkpt><trkpt lat="38.003894407845195" lon="15.641992633547487"><ele>32.0</ele><time>2026-04-18T15:43:18Z</time></trkpt><trkpt lat="38.00414891222232" lon="15.641910205974549"><ele>29.0</ele><time>2026-04-18T15:43:19Z</time></trkpt><trkpt lat="38.00440099704055" lon="15.641832050040703"><ele>26.0</ele><time>2026-04-18T15:43:20Z</time></trkpt><trkpt lat="38.00464943190704" lon="15.641748166098436"><ele>26.0</ele><time>2026-04-18T15:43:21Z</time></trkpt><trkpt lat="38.00489454364318" lon="15.641655423817648"><ele>26.0</ele><time>2026-04-18T15:43:22Z</time></trkpt><trkpt lat="38.00514250301077" lon="15.641569435417054"><ele>26.0</ele><time>2026-04-18T15:43:23Z</time></trkpt><trkpt lat="38.005387173989945" lon="15.641482720389986"><ele>26.0</ele><time>2026-04-18T15:43:24Z</time></trkpt><trkpt lat="38.00562740433707" lon="15.641403170265646"><ele>27.333333333333332</ele><time>2026-04-18T15:43:25Z</time></trkpt><trkpt lat="38.00585005221461" lon="15.64132152434512"><ele>28.666666666666664</ele><time>2026-04-18T15:43:26Z</time></trkpt><trkpt lat="38.006047236193616" lon="15.641251223987416"><ele>30.0</ele><time>2026-04-18T15:43:27Z</time></trkpt><trkpt lat="38.00623037525375" lon="15.64118651775992"><ele>27.0</ele><time>2026-04-18T15:43:28Z</time></trkpt><trkpt lat="38.006405845861195" lon="15.641126866311783"><ele>24.0</ele><time>2026-04-18T15:43:29Z</time></trkpt><trkpt lat="38.00658800803306" lon="15.641064299760123"><ele>21.0</ele><time>2026-04-18T15:43:30Z</time></trkpt><trkpt lat="38.0067725189479" lon="15.64100463382374"><ele>21.0</ele><time>2026-04-18T15:43:31Z</time></trkpt><trkpt lat="38.00695431063431" lon="15.64094590460618"><ele>21.0</ele><time>2026-04-18T15:43:32Z</time></trkpt><trkpt lat="38.00714173477941" lon="15.640889068501172"><ele>21.0</ele><time>2026-04-18T15:43:33Z</time></trkpt><trkpt lat="38.007331352599046" lon="15.64082051150845"><ele>22.0</ele><time>2026-04-18T15:43:34Z</time></trkpt><trkpt lat="38.00752123411333" lon="15.640756874972396"><ele>23.0</ele><time>2026-04-18T15:43:35Z</time></trkpt><trkpt lat="38.00772580637756" lon="15.640687655178743"><ele>24.0</ele><time>2026-04-18T15:43:36Z</time></trkpt><trkpt lat="38.00793622801379" lon="15.640609707691423"><ele>24.0</ele><time>2026-04-18T15:43:36.999Z</time></trkpt><trkpt lat="38.00815790951121" lon="15.640530022785331"><ele>24.0</ele><time>2026-04-18T15:43:37.999Z</time></trkpt><trkpt lat="38.0083988777573" lon="15.64044718004759"><ele>27.5</ele><time>2026-04-18T15:43:38.999Z</time></trkpt><trkpt lat="38.008639832996614" lon="15.64035924542339"><ele>31.0</ele><time>2026-04-18T15:43:39.999Z</time></trkpt><trkpt lat="38.008912204613196" lon="15.640263358174966"><ele>27.5</ele><time>2026-04-18T15:43:40.999Z</time></trkpt><trkpt lat="38.00913361580686" lon="15.640194728949345"><ele>24.0</ele><time>2026-04-18T15:43:41.999Z</time></trkpt><trkpt lat="38.00938078028118" lon="15.640111114385883"><ele>24.0</ele><time>2026-04-18T15:43:42.999Z</time></trkpt><trkpt lat="38.009626896871836" lon="15.640016608297435"><ele>24.0</ele><time>2026-04-18T15:43:43.999Z</time></trkpt><trkpt lat="38.009875308318875" lon="15.639932039775106"><ele>26.0</ele><time>2026-04-18T15:43:44.999Z</time></trkpt><trkpt lat="38.01012862757895" lon="15.639844740799381"><ele>28.0</ele><time>2026-04-18T15:43:45.999Z</time></trkpt><trkpt lat="38.01036892323184" lon="15.63976690879139"><ele>28.0</ele><time>2026-04-18T15:43:46.999Z</time></trkpt><trkpt lat="38.01061489023509" lon="15.639679560766652"><ele>28.0</ele><time>2026-04-18T15:43:47.999Z</time></trkpt><trkpt lat="38.01085458640067" lon="15.639596684247842"><ele>28.5</ele><time>2026-04-18T15:43:48.999Z</time></trkpt><trkpt lat="38.01110792401754" lon="15.639515404883094"><ele>29.0</ele><time>2026-04-18T15:43:50Z</time></trkpt><trkpt lat="38.01135530737399" lon="15.639429041579593"><ele>24.0</ele><time>2026-04-18T15:43:51Z</time></trkpt><trkpt lat="38.011609923718055" lon="15.639344586840425"><ele>19.0</ele><time>2026-04-18T15:43:52Z</time></trkpt><trkpt lat="38.011862527223585" lon="15.639259183596222"><ele>18.5</ele><time>2026-04-18T15:43:53Z</time></trkpt><trkpt lat="38.012114712623244" lon="15.639175638970489"><ele>18.0</ele><time>2026-04-18T15:43:54Z</time></trkpt><trkpt lat="38.012366250967816" lon="15.639083739962434"><ele>17.0</ele><time>2026-04-18T15:43:55Z</time></trkpt><trkpt lat="38.01261967029156" lon="15.638997427955506"><ele>16.0</ele><time>2026-04-18T15:43:56Z</time></trkpt><trkpt lat="38.0128731184928" lon="15.638910083332387"><ele>16.0</ele><time>2026-04-18T15:43:57Z</time></trkpt><trkpt lat="38.01312438002608" lon="15.638826706984553"><ele>16.0</ele><time>2026-04-18T15:43:58Z</time></trkpt><trkpt lat="38.013365044103836" lon="15.638741209589012"><ele>16.0</ele><time>2026-04-18T15:43:59Z</time></trkpt><trkpt lat="38.01359676224334" lon="15.63866475613843"><ele>16.0</ele><time>2026-04-18T15:44:00Z</time></trkpt><trkpt lat="38.013804849865835" lon="15.638593447067443"><ele>16.0</ele><time>2026-04-18T15:44:01Z</time></trkpt><trkpt lat="38.014005188647154" lon="15.638526918888044"><ele>16.0</ele><time>2026-04-18T15:44:02Z</time></trkpt><trkpt lat="38.014195215880086" lon="15.638469028942469"><ele>16.0</ele><time>2026-04-18T15:44:03Z</time></trkpt><trkpt lat="38.01437316260181" lon="15.638422718842921"><ele>17.0</ele><time>2026-04-18T15:44:04Z</time></trkpt><trkpt lat="38.01453478687666" lon="15.63837254131939"><ele>18.0</ele><time>2026-04-18T15:44:05Z</time></trkpt><trkpt lat="38.01469068060447" lon="15.63833185971235"><ele>19.0</ele><time>2026-04-18T15:44:06Z</time></trkpt><trkpt lat="38.01483372416591" lon="15.638326781780592"><ele>19.0</ele><time>2026-04-18T15:44:07Z</time></trkpt><trkpt lat="38.0149857513137" lon="15.638324811366015"><ele>19.0</ele><time>2026-04-18T15:44:08Z</time></trkpt><trkpt lat="38.01513952376615" lon="15.638378282523968"><ele>19.0</ele><time>2026-04-18T15:44:09Z</time></trkpt><trkpt lat="38.015296242512264" lon="15.638433661381383"><ele>18.333333333333332</ele><time>2026-04-18T15:44:10Z</time></trkpt><trkpt lat="38.01545658965922" lon="15.638466002514388"><ele>17.666666666666668</ele><time>2026-04-18T15:44:11Z</time></trkpt><trkpt lat="38.015600377845445" lon="15.638545977505876"><ele>17.0</ele><time>2026-04-18T15:44:12Z</time></trkpt><trkpt lat="38.01574063608136" lon="15.638670036264973"><ele>17.333333333333336</ele><time>2026-04-18T15:44:13Z</time></trkpt><trkpt lat="38.015885410161474" lon="15.638786774877639"><ele>17.666666666666668</ele><time>2026-04-18T15:44:14Z</time></trkpt><trkpt lat="38.016032577841116" lon="15.638925615706915"><ele>18.0</ele><time>2026-04-18T15:44:15Z</time></trkpt><trkpt lat="38.01618561077817" lon="15.639068895160234"><ele>18.0</ele><time>2026-04-18T15:44:16Z</time></trkpt><trkpt lat="38.016288634145795" lon="15.63922968953308"><ele>18.0</ele><time>2026-04-18T15:44:17Z</time></trkpt><trkpt lat="38.016403865418745" lon="15.63940093822718"><ele>18.0</ele><time>2026-04-18T15:44:18Z</time></trkpt><trkpt lat="38.016487525772604" lon="15.639572443596945"><ele>22.333333333333336</ele><time>2026-04-18T15:44:19Z</time></trkpt><trkpt lat="38.01653619043463" lon="15.639760031242922"><ele>26.666666666666668</ele><time>2026-04-18T15:44:20Z</time></trkpt><trkpt lat="38.016572861433055" lon="15.639948289197687"><ele>31.0</ele><time>2026-04-18T15:44:21Z</time></trkpt><trkpt lat="38.01664060708001" lon="15.64011391671886"><ele>23.0</ele><time>2026-04-18T15:44:22Z</time></trkpt><trkpt lat="38.01669971696002" lon="15.640273174339441"><ele>15.0</ele><time>2026-04-18T15:44:23Z</time></trkpt><trkpt lat="38.01700459062061" lon="15.640884927785132"><ele>16.0</ele><time>2026-04-18T15:44:24Z</time></trkpt><trkpt lat="38.017106639892454" lon="15.641178446508786"><ele>17.0</ele><time>2026-04-18T15:44:25Z</time></trkpt><trkpt lat="38.01720747260637" lon="15.641447097655423"><ele>17.0</ele><time>2026-04-18T15:44:26Z</time></trkpt><trkpt lat="38.01730208036247" lon="15.641707810009322"><ele>17.0</ele><time>2026-04-18T15:44:27Z</time></trkpt><trkpt lat="38.01738984649906" lon="15.641967431261573"><ele>17.0</ele><time>2026-04-18T15:44:28Z</time></trkpt><trkpt lat="38.017483915910084" lon="15.642240352978108"><ele>14.5</ele><time>2026-04-18T15:44:29Z</time></trkpt><trkpt lat="38.01758124046013" lon="15.642519289527062"><ele>12.0</ele><time>2026-04-18T15:44:30Z</time></trkpt><trkpt lat="38.01767323014703" lon="15.642790819380606"><ele>13.0</ele><time>2026-04-18T15:44:31Z</time></trkpt><trkpt lat="38.01775243231182" lon="15.643031377242378"><ele>14.0</ele><time>2026-04-18T15:44:32Z</time></trkpt><trkpt lat="38.017825898766546" lon="15.643246871643662"><ele>15.0</ele><time>2026-04-18T15:44:33Z</time></trkpt><trkpt lat="38.01789575239631" lon="15.643428715655988"><ele>17.0</ele><time>2026-04-18T15:44:34Z</time></trkpt><trkpt lat="38.01796461144344" lon="15.643653015304436"><ele>19.0</ele><time>2026-04-18T15:44:35Z</time></trkpt><trkpt lat="38.01804251782893" lon="15.643904287877458"><ele>21.0</ele><time>2026-04-18T15:44:36Z</time></trkpt><trkpt lat="38.01814138678287" lon="15.644179560826686"><ele>21.0</ele><time>2026-04-18T15:44:37Z</time></trkpt><trkpt lat="38.018231773002405" lon="15.64444734826551"><ele>21.0</ele><time>2026-04-18T15:44:38Z</time></trkpt><trkpt lat="38.01832673097509" lon="15.644705782263935"><ele>21.5</ele><time>2026-04-18T15:44:39Z</time></trkpt><trkpt lat="38.018420069904074" lon="15.644980299619478"><ele>22.0</ele><time>2026-04-18T15:44:40Z</time></trkpt><trkpt lat="38.01853404880472" lon="15.645262096428231"><ele>21.5</ele><time>2026-04-18T15:44:41Z</time></trkpt><trkpt lat="38.01866452437949" lon="15.64558286315219"><ele>21.0</ele><time>2026-04-18T15:44:42Z</time></trkpt><trkpt lat="38.018794860417515" lon="15.645903145027717"><ele>21.5</ele><time>2026-04-18T15:44:43Z</time></trkpt><trkpt lat="38.01891620256004" lon="15.646250573785439"><ele>22.0</ele><time>2026-04-18T15:44:44Z</time></trkpt><trkpt lat="38.019144300822134" lon="15.646504444806656"><ele>19.5</ele><time>2026-04-18T15:44:45Z</time></trkpt><trkpt lat="38.019348493728245" lon="15.646727320657842"><ele>17.0</ele><time>2026-04-18T15:44:46Z</time></trkpt><trkpt lat="38.01949695944071" lon="15.646955278173092"><ele>17.333333333333336</ele><time>2026-04-18T15:44:47Z</time></trkpt><trkpt lat="38.019635973282185" lon="15.647175457854496"><ele>17.666666666666668</ele><time>2026-04-18T15:44:48Z</time></trkpt><trkpt lat="38.019776386684825" lon="15.647398397632788"><ele>18.0</ele><time>2026-04-18T15:44:49Z</time></trkpt><trkpt lat="38.01991368090109" lon="15.647617576612973"><ele>18.333333333333332</ele><time>2026-04-18T15:44:50Z</time></trkpt><trkpt lat="38.02003790869157" lon="15.64781633045876"><ele>18.666666666666664</ele><time>2026-04-18T15:44:51Z</time></trkpt><trkpt lat="38.020158580471275" lon="15.647996067136184"><ele>19.0</ele><time>2026-04-18T15:44:52Z</time></trkpt><trkpt lat="38.02027322496903" lon="15.648169618929707"><ele>19.0</ele><time>2026-04-18T15:44:53Z</time></trkpt><trkpt lat="38.02038161097993" lon="15.648342696299336"><ele>19.0</ele><time>2026-04-18T15:44:54Z</time></trkpt><trkpt lat="38.02048507571188" lon="15.648504209416426"><ele>19.0</ele><time>2026-04-18T15:44:55Z</time></trkpt><trkpt lat="38.020580002988495" lon="15.648658067310272"><ele>19.5</ele><time>2026-04-18T15:44:56Z</time></trkpt><trkpt lat="38.020667134486494" lon="15.648786891046448"><ele>20.0</ele><time>2026-04-18T15:44:57Z</time></trkpt><trkpt lat="38.02073936337" lon="15.648895947310878"><ele>20.5</ele><time>2026-04-18T15:44:58Z</time></trkpt><trkpt lat="38.020807535020595" lon="15.649003489315406"><ele>21.0</ele><time>2026-04-18T15:44:59Z</time></trkpt><trkpt lat="38.02087352858403" lon="15.649117577643299"><ele>21.0</ele><time>2026-04-18T15:45:00Z</time></trkpt><trkpt lat="38.02091531360605" lon="15.649215842950712"><ele>21.0</ele><time>2026-04-18T15:45:01Z</time></trkpt><trkpt lat="38.02097075476334" lon="15.649310285868914"><ele>21.0</ele><time>2026-04-18T15:45:02Z</time></trkpt><trkpt lat="38.02100901411452" lon="15.649392403622196"><ele>21.0</ele><time>2026-04-18T15:45:03Z</time></trkpt><trkpt lat="38.02103376018584" lon="15.649503934362949"><ele>21.0</ele><time>2026-04-18T15:45:05Z</time></trkpt><trkpt lat="38.02112745618827" lon="15.649619684108634"><ele>21.25</ele><time>2026-04-18T15:45:07Z</time></trkpt><trkpt lat="38.021225686616276" lon="15.649699057819277"><ele>21.5</ele><time>2026-04-18T15:45:08Z</time></trkpt><trkpt lat="38.021308770086726" lon="15.649797707418204"><ele>21.75</ele><time>2026-04-18T15:45:09Z</time></trkpt><trkpt lat="38.021394612837966" lon="15.649934785548382"><ele>22.0</ele><time>2026-04-18T15:45:10Z</time></trkpt><trkpt lat="38.02149557587735" lon="15.650091575280396"><ele>22.0</ele><time>2026-04-18T15:45:11Z</time></trkpt><trkpt lat="38.021595249458876" lon="15.650249441312212"><ele>22.0</ele><time>2026-04-18T15:45:12Z</time></trkpt><trkpt lat="38.02169327985534" lon="15.650413890651723"><ele>22.0</ele><time>2026-04-18T15:45:13Z</time></trkpt><trkpt lat="38.021800717728034" lon="15.650594895208158"><ele>23.0</ele><time>2026-04-18T15:45:14Z</time></trkpt><trkpt lat="38.02192342635294" lon="15.65077865680474"><ele>24.0</ele><time>2026-04-18T15:45:15Z</time></trkpt><trkpt lat="38.022044534131" lon="15.650960371387113"><ele>25.0</ele><time>2026-04-18T15:45:16Z</time></trkpt><trkpt lat="38.02216271926291" lon="15.651148999060684"><ele>25.0</ele><time>2026-04-18T15:45:17Z</time></trkpt><trkpt lat="38.022285986203464" lon="15.651336119443183"><ele>25.0</ele><time>2026-04-18T15:45:18Z</time></trkpt><trkpt lat="38.02241148759293" lon="15.651534229051952"><ele>25.0</ele><time>2026-04-18T15:45:19Z</time></trkpt><trkpt lat="38.02253736494083" lon="15.65173300065981"><ele>23.0</ele><time>2026-04-18T15:45:20Z</time></trkpt><trkpt lat="38.022667615189434" lon="15.65194095983943"><ele>21.0</ele><time>2026-04-18T15:45:21Z</time></trkpt><trkpt lat="38.022795345891375" lon="15.652150657243235"><ele>19.0</ele><time>2026-04-18T15:45:22Z</time></trkpt><trkpt lat="38.02292881074214" lon="15.652356390140083"><ele>19.0</ele><time>2026-04-18T15:45:23Z</time></trkpt><trkpt lat="38.023061270599825" lon="15.652562343610306"><ele>19.0</ele><time>2026-04-18T15:45:24Z</time></trkpt><trkpt lat="38.02319473566743" lon="15.652770800177848"><ele>19.0</ele><time>2026-04-18T15:45:25Z</time></trkpt><trkpt lat="38.02332339795654" lon="15.652968406912736"><ele>18.0</ele><time>2026-04-18T15:45:26Z</time></trkpt><trkpt lat="38.023447038737245" lon="15.653159298119768"><ele>17.0</ele><time>2026-04-18T15:45:27Z</time></trkpt><trkpt lat="38.023566160971576" lon="15.653350043198099"><ele>16.0</ele><time>2026-04-18T15:45:28Z</time></trkpt><trkpt lat="38.02368586879534" lon="15.653526289459057"><ele>16.333333333333332</ele><time>2026-04-18T15:45:29Z</time></trkpt><trkpt lat="38.02380953170307" lon="15.653696573053942"><ele>16.666666666666668</ele><time>2026-04-18T15:45:30Z</time></trkpt><trkpt lat="38.02392869518365" lon="15.653851196605897"><ele>17.0</ele><time>2026-04-18T15:45:31Z</time></trkpt><trkpt lat="38.02403896152465" lon="15.653999157396711"><ele>17.0</ele><time>2026-04-18T15:45:32Z</time></trkpt><trkpt lat="38.02413478546134" lon="15.654120803380378"><ele>17.0</ele><time>2026-04-18T15:45:33Z</time></trkpt><trkpt lat="38.02420795589425" lon="15.654213485586958"><ele>17.0</ele><time>2026-04-18T15:45:34Z</time></trkpt><trkpt lat="38.02428001876796" lon="15.654297375401498"><ele>17.0</ele><time>2026-04-18T15:45:35Z</time></trkpt><trkpt lat="38.02438476488672" lon="15.65438515050313"><ele>16.333333333333336</ele><time>2026-04-18T15:45:36Z</time></trkpt><trkpt lat="38.02453421503793" lon="15.654476379040892"><ele>15.666666666666668</ele><time>2026-04-18T15:45:37Z</time></trkpt><trkpt lat="38.024701577007626" lon="15.654564931431379"><ele>15.0</ele><time>2026-04-18T15:45:38Z</time></trkpt><trkpt lat="38.02488139110117" lon="15.654649117908287"><ele>14.333333333333332</ele><time>2026-04-18T15:45:39Z</time></trkpt><trkpt lat="38.02505614855908" lon="15.654726436636444"><ele>13.666666666666666</ele><time>2026-04-18T15:45:40Z</time></trkpt><trkpt lat="38.02522875086775" lon="15.65479622074575"><ele>13.0</ele><time>2026-04-18T15:45:41Z</time></trkpt><trkpt lat="38.02539629213122" lon="15.654855871380505"><ele>13.0</ele><time>2026-04-18T15:45:42Z</time></trkpt><trkpt lat="38.02556265878313" lon="15.654918051462243"><ele>13.0</ele><time>2026-04-18T15:45:43Z</time></trkpt><trkpt lat="38.02574711356936" lon="15.654994278940368"><ele>13.0</ele><time>2026-04-18T15:45:44Z</time></trkpt><trkpt lat="38.025938123309075" lon="15.655064409546139"><ele>13.0</ele><time>2026-04-18T15:45:45Z</time></trkpt><trkpt lat="38.02613652604269" lon="15.655141824793265"><ele>13.0</ele><time>2026-04-18T15:45:46Z</time></trkpt><trkpt lat="38.02632602733802" lon="15.655220954652947"><ele>13.0</ele><time>2026-04-18T15:45:47Z</time></trkpt><trkpt lat="38.02652003585133" lon="15.655299602518443"><ele>14.0</ele><time>2026-04-18T15:45:48Z</time></trkpt><trkpt lat="38.02672611594165" lon="15.655379699391606"><ele>15.0</ele><time>2026-04-18T15:45:49Z</time></trkpt><trkpt lat="38.026939953753796" lon="15.655461363577679"><ele>16.0</ele><time>2026-04-18T15:45:50Z</time></trkpt><trkpt lat="38.02715161433027" lon="15.655543210025717"><ele>16.0</ele><time>2026-04-18T15:45:51Z</time></trkpt><trkpt lat="38.027374382395315" lon="15.655626824042283"><ele>16.0</ele><time>2026-04-18T15:45:52Z</time></trkpt><trkpt lat="38.02759807931152" lon="15.655708451910973"><ele>15.666666666666666</ele><time>2026-04-18T15:45:53Z</time></trkpt><trkpt lat="38.02781330952449" lon="15.655789303831442"><ele>15.333333333333332</ele><time>2026-04-18T15:45:54Z</time></trkpt><trkpt lat="38.02802609023788" lon="15.655870590226783"><ele>15.0</ele><time>2026-04-18T15:45:55Z</time></trkpt><trkpt lat="38.028246253121026" lon="15.65595987922785"><ele>15.5</ele><time>2026-04-18T15:45:56Z</time></trkpt><trkpt lat="38.028465449604084" lon="15.656048298093411"><ele>16.0</ele><time>2026-04-18T15:45:57Z</time></trkpt><trkpt lat="38.02868635907488" lon="15.656138177684825"><ele>16.0</ele><time>2026-04-18T15:45:58Z</time></trkpt><trkpt lat="38.02890761994511" lon="15.656220626941485"><ele>16.0</ele><time>2026-04-18T15:45:59Z</time></trkpt><trkpt lat="38.02913266974413" lon="15.65629973519882"><ele>15.0</ele><time>2026-04-18T15:46:00Z</time></trkpt><trkpt lat="38.02935572348426" lon="15.656381585515069"><ele>14.0</ele><time>2026-04-18T15:46:01Z</time></trkpt><trkpt lat="38.029583068169224" lon="15.656462959447174"><ele>14.0</ele><time>2026-04-18T15:46:02Z</time></trkpt><trkpt lat="38.029810468628845" lon="15.656549177956496"><ele>14.0</ele><time>2026-04-18T15:46:03Z</time></trkpt><trkpt lat="38.0300429064836" lon="15.656631637856028"><ele>12.5</ele><time>2026-04-18T15:46:04Z</time></trkpt><trkpt lat="38.030278847462064" lon="15.65673757559591"><ele>11.0</ele><time>2026-04-18T15:46:05Z</time></trkpt><trkpt lat="38.03050554842656" lon="15.656837627279359"><ele>11.0</ele><time>2026-04-18T15:46:06Z</time></trkpt><trkpt lat="38.03073254382466" lon="15.65693483729484"><ele>11.0</ele><time>2026-04-18T15:46:07Z</time></trkpt><trkpt lat="38.030966655263555" lon="15.657028617071099"><ele>13.0</ele><time>2026-04-18T15:46:08Z</time></trkpt><trkpt lat="38.031200652069636" lon="15.65712075245102"><ele>15.0</ele><time>2026-04-18T15:46:09Z</time></trkpt><trkpt lat="38.03143882139737" lon="15.657209148864611"><ele>14.5</ele><time>2026-04-18T15:46:10Z</time></trkpt><trkpt lat="38.031683244092605" lon="15.657295904653393"><ele>14.0</ele><time>2026-04-18T15:46:11Z</time></trkpt><trkpt lat="38.031929023421924" lon="15.657383078598167"><ele>14.0</ele><time>2026-04-18T15:46:12Z</time></trkpt><trkpt lat="38.03217293604438" lon="15.657478111331976"><ele>14.0</ele><time>2026-04-18T15:46:13Z</time></trkpt><trkpt lat="38.032421240189436" lon="15.657581076947094"><ele>14.0</ele><time>2026-04-18T15:46:14Z</time></trkpt><trkpt lat="38.03266970546138" lon="15.657686737305681"><ele>14.0</ele><time>2026-04-18T15:46:15Z</time></trkpt><trkpt lat="38.032918840544085" lon="15.657791488499099"><ele>14.0</ele><time>2026-04-18T15:46:16Z</time></trkpt><trkpt lat="38.033169025673324" lon="15.657894794828438"><ele>14.0</ele><time>2026-04-18T15:46:17Z</time></trkpt><trkpt lat="38.033422267217965" lon="15.657999856451369"><ele>12.5</ele><time>2026-04-18T15:46:18Z</time></trkpt><trkpt lat="38.03367794443026" lon="15.658103703939119"><ele>11.0</ele><time>2026-04-18T15:46:19Z</time></trkpt><trkpt lat="38.03393418348429" lon="15.658209772833489"><ele>11.5</ele><time>2026-04-18T15:46:20Z</time></trkpt><trkpt lat="38.03418844601083" lon="15.658309717967633"><ele>12.0</ele><time>2026-04-18T15:46:21Z</time></trkpt><trkpt lat="38.03444594867834" lon="15.658406624493882"><ele>12.0</ele><time>2026-04-18T15:46:22Z</time></trkpt><trkpt lat="38.034703611879365" lon="15.65849817728764"><ele>12.0</ele><time>2026-04-18T15:46:23Z</time></trkpt><trkpt lat="38.03495553167615" lon="15.658580919340881"><ele>12.5</ele><time>2026-04-18T15:46:24Z</time></trkpt><trkpt lat="38.03520925737578" lon="15.65867072897405"><ele>13.0</ele><time>2026-04-18T15:46:25Z</time></trkpt><trkpt lat="38.03546396094476" lon="15.658776881112193"><ele>13.0</ele><time>2026-04-18T15:46:26Z</time></trkpt><trkpt lat="38.03571663028292" lon="15.658891983647239"><ele>13.0</ele><time>2026-04-18T15:46:27Z</time></trkpt><trkpt lat="38.035970436431356" lon="15.659001047744505"><ele>12.0</ele><time>2026-04-18T15:46:28Z</time></trkpt><trkpt lat="38.03622032513832" lon="15.659106043156285"><ele>11.0</ele><time>2026-04-18T15:46:29Z</time></trkpt><trkpt lat="38.036465990083144" lon="15.659208167722227"><ele>11.0</ele><time>2026-04-18T15:46:30Z</time></trkpt><trkpt lat="38.036710641670034" lon="15.659307654708709"><ele>11.0</ele><time>2026-04-18T15:46:31Z</time></trkpt><trkpt lat="38.03695069685818" lon="15.659402715404465"><ele>12.0</ele><time>2026-04-18T15:46:32Z</time></trkpt><trkpt lat="38.037184471961005" lon="15.659489113559554"><ele>13.0</ele><time>2026-04-18T15:46:33Z</time></trkpt><trkpt lat="38.03739816558489" lon="15.659565883743676"><ele>13.666666666666666</ele><time>2026-04-18T15:46:34Z</time></trkpt><trkpt lat="38.03759461898562" lon="15.659626663069078"><ele>14.333333333333332</ele><time>2026-04-18T15:46:35Z</time></trkpt><trkpt lat="38.03777161976959" lon="15.659663325500667"><ele>15.0</ele><time>2026-04-18T15:46:36Z</time></trkpt><trkpt lat="38.03795133515653" lon="15.659688820109027"><ele>15.0</ele><time>2026-04-18T15:46:37Z</time></trkpt><trkpt lat="38.03814315117752" lon="15.659713352698118"><ele>15.0</ele><time>2026-04-18T15:46:38Z</time></trkpt><trkpt lat="38.03832612843453" lon="15.659727218181704"><ele>15.0</ele><time>2026-04-18T15:46:39Z</time></trkpt><trkpt lat="38.0385002117913" lon="15.659725669641269"><ele>16.0</ele><time>2026-04-18T15:46:40Z</time></trkpt><trkpt lat="38.03868783295207" lon="15.659714522838216"><ele>17.0</ele><time>2026-04-18T15:46:41Z</time></trkpt><trkpt lat="38.03889473548522" lon="15.65972032045214"><ele>18.0</ele><time>2026-04-18T15:46:42Z</time></trkpt><trkpt lat="38.039096394089654" lon="15.659687364865874"><ele>18.333333333333332</ele><time>2026-04-18T15:46:43Z</time></trkpt><trkpt lat="38.03930387153388" lon="15.659592051407024"><ele>18.666666666666664</ele><time>2026-04-18T15:46:44Z</time></trkpt><trkpt lat="38.03951443515157" lon="15.659518823914924"><ele>19.0</ele><time>2026-04-18T15:46:45Z</time></trkpt><trkpt lat="38.03971364771336" lon="15.659419811069803"><ele>17.333333333333332</ele><time>2026-04-18T15:46:46Z</time></trkpt><trkpt lat="38.039910377531925" lon="15.659319954866417"><ele>15.666666666666668</ele><time>2026-04-18T15:46:47Z</time></trkpt><trkpt lat="38.04010980166738" lon="15.659211712745721"><ele>14.0</ele><time>2026-04-18T15:46:48Z</time></trkpt><trkpt lat="38.0403123650126" lon="15.659106449079648"><ele>14.0</ele><time>2026-04-18T15:46:49Z</time></trkpt><trkpt lat="38.04051488814548" lon="15.658998001698524"><ele>14.0</ele><time>2026-04-18T15:46:50Z</time></trkpt><trkpt lat="38.040719758906796" lon="15.658886043425891"><ele>14.0</ele><time>2026-04-18T15:46:51Z</time></trkpt><trkpt lat="38.04092175488377" lon="15.658778449260128"><ele>14.0</ele><time>2026-04-18T15:46:52Z</time></trkpt><trkpt lat="38.041126023059874" lon="15.658669255603721"><ele>14.0</ele><time>2026-04-18T15:46:53Z</time></trkpt><trkpt lat="38.041329803533756" lon="15.658557490463764"><ele>14.0</ele><time>2026-04-18T15:46:54Z</time></trkpt><trkpt lat="38.04153259701589" lon="15.658445564320852"><ele>13.0</ele><time>2026-04-18T15:46:55Z</time></trkpt><trkpt lat="38.04173315877978" lon="15.658338237836036"><ele>12.0</ele><time>2026-04-18T15:46:56Z</time></trkpt><trkpt lat="38.041933141180245" lon="15.658232267439205"><ele>11.0</ele><time>2026-04-18T15:46:57Z</time></trkpt><trkpt lat="38.0421306410375" lon="15.658127975559465"><ele>11.0</ele><time>2026-04-18T15:46:58Z</time></trkpt><trkpt lat="38.04232938711715" lon="15.658021890589625"><ele>11.0</ele><time>2026-04-18T15:46:59Z</time></trkpt><trkpt lat="38.04252525218035" lon="15.657916041472907"><ele>11.0</ele><time>2026-04-18T15:47:00Z</time></trkpt><trkpt lat="38.042721978813034" lon="15.657809279411328"><ele>10.333333333333332</ele><time>2026-04-18T15:47:01Z</time></trkpt><trkpt lat="38.04291538962184" lon="15.657703372398597"><ele>9.666666666666666</ele><time>2026-04-18T15:47:02Z</time></trkpt><trkpt lat="38.04310179320286" lon="15.657586124036145"><ele>9.0</ele><time>2026-04-18T15:47:03Z</time></trkpt><trkpt lat="38.04327842627304" lon="15.65749375452528"><ele>10.333333333333332</ele><time>2026-04-18T15:47:04Z</time></trkpt><trkpt lat="38.04343439673269" lon="15.657422728199453"><ele>11.666666666666666</ele><time>2026-04-18T15:47:05Z</time></trkpt><trkpt lat="38.04357880547446" lon="15.657340563815948"><ele>13.0</ele><time>2026-04-18T15:47:06Z</time></trkpt><trkpt lat="38.04375416447417" lon="15.657249893749233"><ele>13.0</ele><time>2026-04-18T15:47:07Z</time></trkpt><trkpt lat="38.043919681881725" lon="15.657156029072693"><ele>13.0</ele><time>2026-04-18T15:47:08Z</time></trkpt><trkpt lat="38.04407273902563" lon="15.657067821394705"><ele>13.0</ele><time>2026-04-18T15:47:09Z</time></trkpt><trkpt lat="38.04423090168811" lon="15.656983160213153"><ele>12.666666666666666</ele><time>2026-04-18T15:47:10Z</time></trkpt><trkpt lat="38.044392904336156" lon="15.656894731875143"><ele>12.333333333333332</ele><time>2026-04-18T15:47:11Z</time></trkpt><trkpt lat="38.04455931878712" lon="15.65680042240249"><ele>12.0</ele><time>2026-04-18T15:47:12Z</time></trkpt><trkpt lat="38.044732898014225" lon="15.656710230743892"><ele>12.0</ele><time>2026-04-18T15:47:13Z</time></trkpt><trkpt lat="38.04490424370143" lon="15.656613719018278"><ele>12.0</ele><time>2026-04-18T15:47:14Z</time></trkpt><trkpt lat="38.04508963716436" lon="15.656519529902017"><ele>12.0</ele><time>2026-04-18T15:47:15Z</time></trkpt><trkpt lat="38.04527507698139" lon="15.65643424798156"><ele>12.666666666666668</ele><time>2026-04-18T15:47:16Z</time></trkpt><trkpt lat="38.045459131698486" lon="15.656349250425269"><ele>13.333333333333334</ele><time>2026-04-18T15:47:17Z</time></trkpt><trkpt lat="38.045644084910066" lon="15.656264462932196"><ele>14.0</ele><time>2026-04-18T15:47:18Z</time></trkpt><trkpt lat="38.04582737915366" lon="15.65620340746826"><ele>14.0</ele><time>2026-04-18T15:47:19Z</time></trkpt><trkpt lat="38.04602488215969" lon="15.656155010826554"><ele>14.0</ele><time>2026-04-18T15:47:20Z</time></trkpt><trkpt lat="38.046225143879916" lon="15.656110240686138"><ele>14.0</ele><time>2026-04-18T15:47:21Z</time></trkpt><trkpt lat="38.046427894044335" lon="15.656065923423615"><ele>14.666666666666668</ele><time>2026-04-18T15:47:22Z</time></trkpt><trkpt lat="38.04663023319813" lon="15.656019379823661"><ele>15.333333333333332</ele><time>2026-04-18T15:47:23Z</time></trkpt><trkpt lat="38.04683673635132" lon="15.655980947223604"><ele>16.0</ele><time>2026-04-18T15:47:24Z</time></trkpt><trkpt lat="38.04704334573664" lon="15.655953506920058"><ele>16.0</ele><time>2026-04-18T15:47:25Z</time></trkpt><trkpt lat="38.047247096028485" lon="15.655919420174193"><ele>16.0</ele><time>2026-04-18T15:47:26Z</time></trkpt><trkpt lat="38.04745623018799" lon="15.655881896622693"><ele>16.0</ele><time>2026-04-18T15:47:27Z</time></trkpt><trkpt lat="38.04766760364599" lon="15.655842584766258"><ele>16.666666666666664</ele><time>2026-04-18T15:47:28Z</time></trkpt><trkpt lat="38.04788518726552" lon="15.655801260783196"><ele>17.333333333333332</ele><time>2026-04-18T15:47:29Z</time></trkpt><trkpt lat="38.04811199186778" lon="15.655765195013274"><ele>18.0</ele><time>2026-04-18T15:47:30Z</time></trkpt><trkpt lat="38.04835979690053" lon="15.6557390334285"><ele>18.5</ele><time>2026-04-18T15:47:31Z</time></trkpt><trkpt lat="38.04862522729129" lon="15.655728449455387"><ele>19.0</ele><time>2026-04-18T15:47:32Z</time></trkpt><trkpt lat="38.04890628281759" lon="15.655745616888481"><ele>20.5</ele><time>2026-04-18T15:47:33Z</time></trkpt><trkpt lat="38.04920345113201" lon="15.655777267567098"><ele>22.0</ele><time>2026-04-18T15:47:34Z</time></trkpt><trkpt lat="38.04949971348258" lon="15.655822564069954"><ele>22.0</ele><time>2026-04-18T15:47:35Z</time></trkpt><trkpt lat="38.049787801749616" lon="15.655895511581829"><ele>22.0</ele><time>2026-04-18T15:47:36Z</time></trkpt><trkpt lat="38.05007678959136" lon="15.655981057566972"><ele>23.5</ele><time>2026-04-18T15:47:37Z</time></trkpt><trkpt lat="38.05034923118601" lon="15.656082689676083"><ele>25.0</ele><time>2026-04-18T15:47:38Z</time></trkpt><trkpt lat="38.05062319241496" lon="15.656216478652476"><ele>27.0</ele><time>2026-04-18T15:47:39Z</time></trkpt><trkpt lat="38.050907186944656" lon="15.656367549496252"><ele>29.0</ele><time>2026-04-18T15:47:40Z</time></trkpt><trkpt lat="38.05119786771967" lon="15.656566937443712"><ele>29.0</ele><time>2026-04-18T15:47:41Z</time></trkpt><trkpt lat="38.051485222853906" lon="15.656771878310698"><ele>29.0</ele><time>2026-04-18T15:47:42Z</time></trkpt><trkpt lat="38.05179153377252" lon="15.657002147780812"><ele>30.0</ele><time>2026-04-18T15:47:43Z</time></trkpt><trkpt lat="38.05211486899552" lon="15.657236037797256"><ele>31.0</ele><time>2026-04-18T15:47:44Z</time></trkpt><trkpt lat="38.05245947754461" lon="15.65746756470373"><ele>31.0</ele><time>2026-04-18T15:47:45Z</time></trkpt><trkpt lat="38.05279704101581" lon="15.657690053339518"><ele>31.0</ele><time>2026-04-18T15:47:46Z</time></trkpt><trkpt lat="38.05313172225268" lon="15.657880831905501"><ele>32.5</ele><time>2026-04-18T15:47:47Z</time></trkpt><trkpt lat="38.05344496563948" lon="15.658056354774944"><ele>34.0</ele><time>2026-04-18T15:47:48Z</time></trkpt><trkpt lat="38.05374790580826" lon="15.658230009754782"><ele>34.0</ele><time>2026-04-18T15:47:49Z</time></trkpt><trkpt lat="38.05404859468275" lon="15.658421929923831"><ele>34.0</ele><time>2026-04-18T15:47:50Z</time></trkpt><trkpt lat="38.05435325237749" lon="15.658619003045054"><ele>35.5</ele><time>2026-04-18T15:47:51Z</time></trkpt><trkpt lat="38.054645814560544" lon="15.658799957355539"><ele>37.0</ele><time>2026-04-18T15:47:52Z</time></trkpt><trkpt lat="38.054911985215355" lon="15.658921624216127"><ele>35.5</ele><time>2026-04-18T15:47:53Z</time></trkpt><trkpt lat="38.05516310253004" lon="15.65906010595539"><ele>34.0</ele><time>2026-04-18T15:47:54Z</time></trkpt><trkpt lat="38.05540456444576" lon="15.659200308862008"><ele>34.0</ele><time>2026-04-18T15:47:55Z</time></trkpt><trkpt lat="38.05564622834642" lon="15.659338208482032"><ele>34.0</ele><time>2026-04-18T15:47:56Z</time></trkpt><trkpt lat="38.0558879480284" lon="15.659475822574702"><ele>36.0</ele><time>2026-04-18T15:47:57Z</time></trkpt><trkpt lat="38.0561325959596" lon="15.659610892061046"><ele>38.0</ele><time>2026-04-18T15:47:58Z</time></trkpt><trkpt lat="38.056379629295265" lon="15.659757788864853"><ele>36.5</ele><time>2026-04-18T15:47:59Z</time></trkpt><trkpt lat="38.05662974147796" lon="15.659900173282466"><ele>35.0</ele><time>2026-04-18T15:48:00Z</time></trkpt><trkpt lat="38.056876860788755" lon="15.660032899678333"><ele>35.0</ele><time>2026-04-18T15:48:01Z</time></trkpt><trkpt lat="38.057127422662084" lon="15.66016658621172"><ele>35.0</ele><time>2026-04-18T15:48:02Z</time></trkpt><trkpt lat="38.05738135072399" lon="15.660303873309386"><ele>36.5</ele><time>2026-04-18T15:48:03Z</time></trkpt><trkpt lat="38.05763889775639" lon="15.660443986732071"><ele>38.0</ele><time>2026-04-18T15:48:04.017Z</time></trkpt><trkpt lat="38.05789259772493" lon="15.6605822042864"><ele>38.0</ele><time>2026-04-18T15:48:05.02Z</time></trkpt><trkpt lat="38.05814335532315" lon="15.660721715048117"><ele>38.0</ele><time>2026-04-18T15:48:06.017Z</time></trkpt><trkpt lat="38.05839424671075" lon="15.660865160680421"><ele>37.0</ele><time>2026-04-18T15:48:07.022Z</time></trkpt><trkpt lat="38.05863841814143" lon="15.661002413695433"><ele>36.0</ele><time>2026-04-18T15:48:08Z</time></trkpt><trkpt lat="38.05896322572544" lon="15.661104046835062"><ele>39.5</ele><time>2026-04-18T15:48:09Z</time></trkpt><trkpt lat="38.059227727528864" lon="15.66121513001839"><ele>43.0</ele><time>2026-04-18T15:48:10Z</time></trkpt><trkpt lat="38.05948315566538" lon="15.661314068681207"><ele>43.0</ele><time>2026-04-18T15:48:11Z</time></trkpt><trkpt lat="38.05973805955154" lon="15.661424243609078"><ele>43.0</ele><time>2026-04-18T15:48:12Z</time></trkpt><trkpt lat="38.059953971607136" lon="15.661477475378282"><ele>43.0</ele><time>2026-04-18T15:48:13Z</time></trkpt><trkpt lat="38.06020554933276" lon="15.661601346478433"><ele>43.0</ele><time>2026-04-18T15:48:14Z</time></trkpt><trkpt lat="38.060433767494125" lon="15.661697759167877"><ele>43.0</ele><time>2026-04-18T15:48:15Z</time></trkpt><trkpt lat="38.060667312034546" lon="15.661803260856841"><ele>43.0</ele><time>2026-04-18T15:48:16Z</time></trkpt><trkpt lat="38.06088615752232" lon="15.661900482839707"><ele>46.0</ele><time>2026-04-18T15:48:17Z</time></trkpt><trkpt lat="38.0611164188432" lon="15.662000184996073"><ele>49.0</ele><time>2026-04-18T15:48:18Z</time></trkpt><trkpt lat="38.061349644401865" lon="15.662103224205563"><ele>49.0</ele><time>2026-04-18T15:48:19Z</time></trkpt><trkpt lat="38.06157390570424" lon="15.662205207775758"><ele>49.0</ele><time>2026-04-18T15:48:20Z</time></trkpt><trkpt lat="38.06181194457674" lon="15.66228537601618"><ele>46.5</ele><time>2026-04-18T15:48:21Z</time></trkpt><trkpt lat="38.062054308617775" lon="15.662351909461817"><ele>44.0</ele><time>2026-04-18T15:48:22Z</time></trkpt><trkpt lat="38.06228889100532" lon="15.662394967214242"><ele>43.0</ele><time>2026-04-18T15:48:23Z</time></trkpt><trkpt lat="38.06251788106844" lon="15.662426218937243"><ele>42.0</ele><time>2026-04-18T15:48:24Z</time></trkpt><trkpt lat="38.06273879400137" lon="15.662459320741515"><ele>42.0</ele><time>2026-04-18T15:48:25Z</time></trkpt><trkpt lat="38.06295309458908" lon="15.662493968012978"><ele>42.0</ele><time>2026-04-18T15:48:26Z</time></trkpt><trkpt lat="38.06316484535283" lon="15.662528981270766"><ele>42.0</ele><time>2026-04-18T15:48:27Z</time></trkpt><trkpt lat="38.06337642795201" lon="15.662555076281272"><ele>40.666666666666664</ele><time>2026-04-18T15:48:28Z</time></trkpt><trkpt lat="38.06359468842198" lon="15.662575086809039"><ele>39.33333333333333</ele><time>2026-04-18T15:48:29Z</time></trkpt><trkpt lat="38.06381136879799" lon="15.662595084879781"><ele>38.0</ele><time>2026-04-18T15:48:30Z</time></trkpt><trkpt lat="38.06403699059065" lon="15.66262000610204"><ele>39.0</ele><time>2026-04-18T15:48:31Z</time></trkpt><trkpt lat="38.064260258478434" lon="15.662646905038779"><ele>40.0</ele><time>2026-04-18T15:48:32Z</time></trkpt><trkpt lat="38.06448332379232" lon="15.66267283288742"><ele>41.0</ele><time>2026-04-18T15:48:33Z</time></trkpt><trkpt lat="38.064706926511434" lon="15.662695617742735"><ele>41.0</ele><time>2026-04-18T15:48:34Z</time></trkpt><trkpt lat="38.06494541085592" lon="15.662720381869383"><ele>41.0</ele><time>2026-04-18T15:48:35Z</time></trkpt><trkpt lat="38.065196706710466" lon="15.662751990837757"><ele>40.5</ele><time>2026-04-18T15:48:36Z</time></trkpt><trkpt lat="38.065448828437916" lon="15.662780103466865"><ele>40.0</ele><time>2026-04-18T15:48:37Z</time></trkpt><trkpt lat="38.06570582155555" lon="15.662811555768164"><ele>41.5</ele><time>2026-04-18T15:48:38Z</time></trkpt><trkpt lat="38.06596209294138" lon="15.66283796089064"><ele>43.0</ele><time>2026-04-18T15:48:39Z</time></trkpt><trkpt lat="38.0662237210529" lon="15.66286454158619"><ele>43.0</ele><time>2026-04-18T15:48:40Z</time></trkpt><trkpt lat="38.066480970372346" lon="15.662892205616185"><ele>43.0</ele><time>2026-04-18T15:48:41Z</time></trkpt><trkpt lat="38.066726413930056" lon="15.662920872391663"><ele>42.5</ele><time>2026-04-18T15:48:42Z</time></trkpt><trkpt lat="38.066968519922476" lon="15.662951718690522"><ele>42.0</ele><time>2026-04-18T15:48:43Z</time></trkpt><trkpt lat="38.06721429928531" lon="15.662982863042892"><ele>41.5</ele><time>2026-04-18T15:48:44Z</time></trkpt><trkpt lat="38.06746566602865" lon="15.663017866222045"><ele>41.0</ele><time>2026-04-18T15:48:45Z</time></trkpt><trkpt lat="38.06772159561696" lon="15.663054190501356"><ele>41.0</ele><time>2026-04-18T15:48:46Z</time></trkpt><trkpt lat="38.067987130812845" lon="15.663081699456304"><ele>41.0</ele><time>2026-04-18T15:48:47Z</time></trkpt><trkpt lat="38.068257519566224" lon="15.663116169785953"><ele>39.5</ele><time>2026-04-18T15:48:48Z</time></trkpt><trkpt lat="38.06853448822822" lon="15.663156177774512"><ele>38.0</ele><time>2026-04-18T15:48:49Z</time></trkpt><trkpt lat="38.0688189433847" lon="15.663193978908305"><ele>38.0</ele><time>2026-04-18T15:48:50Z</time></trkpt><trkpt lat="38.06909295051235" lon="15.6632266249585"><ele>38.0</ele><time>2026-04-18T15:48:51Z</time></trkpt><trkpt lat="38.069353169501085" lon="15.66324723998469"><ele>37.5</ele><time>2026-04-18T15:48:52Z</time></trkpt><trkpt lat="38.06960262050953" lon="15.663258536702083"><ele>37.0</ele><time>2026-04-18T15:48:53Z</time></trkpt><trkpt lat="38.06985669060319" lon="15.663273063687432"><ele>36.5</ele><time>2026-04-18T15:48:54Z</time></trkpt><trkpt lat="38.070112942553045" lon="15.663282722857442"><ele>36.0</ele><time>2026-04-18T15:48:55Z</time></trkpt><trkpt lat="38.07037731643011" lon="15.663293871194385"><ele>36.0</ele><time>2026-04-18T15:48:56Z</time></trkpt><trkpt lat="38.070651231665934" lon="15.66329812333919"><ele>36.0</ele><time>2026-04-18T15:48:57Z</time></trkpt><trkpt lat="38.070923322241235" lon="15.663301133791446"><ele>36.0</ele><time>2026-04-18T15:48:58Z</time></trkpt><trkpt lat="38.071199802352936" lon="15.663298820346926"><ele>36.0</ele><time>2026-04-18T15:48:59Z</time></trkpt><trkpt lat="38.07147842122627" lon="15.663299042908402"><ele>34.5</ele><time>2026-04-18T15:49:00Z</time></trkpt><trkpt lat="38.071762325135886" lon="15.663299758146492"><ele>33.0</ele><time>2026-04-18T15:49:01Z</time></trkpt><trkpt lat="38.072045382593906" lon="15.663312756164993"><ele>33.0</ele><time>2026-04-18T15:49:02Z</time></trkpt><trkpt lat="38.07234488323468" lon="15.663350658629472"><ele>33.0</ele><time>2026-04-18T15:49:03Z</time></trkpt><trkpt lat="38.072658020404845" lon="15.66341301789178"><ele>33.0</ele><time>2026-04-18T15:49:04Z</time></trkpt><trkpt lat="38.072950472164585" lon="15.6634734198629"><ele>33.0</ele><time>2026-04-18T15:49:05Z</time></trkpt><trkpt lat="38.07329291991888" lon="15.66357738597283"><ele>34.5</ele><time>2026-04-18T15:49:06Z</time></trkpt><trkpt lat="38.07364888339193" lon="15.663716159690939"><ele>36.0</ele><time>2026-04-18T15:49:07Z</time></trkpt><trkpt lat="38.07402872461871" lon="15.663863529192314"><ele>36.0</ele><time>2026-04-18T15:49:08Z</time></trkpt><trkpt lat="38.07437409430523" lon="15.663959376003268"><ele>36.0</ele><time>2026-04-18T15:49:09Z</time></trkpt><trkpt lat="38.07473311347739" lon="15.664067961128644"><ele>39.0</ele><time>2026-04-18T15:49:10Z</time></trkpt><trkpt lat="38.07508105939342" lon="15.66419559477679"><ele>42.0</ele><time>2026-04-18T15:49:11Z</time></trkpt><trkpt lat="38.0754144291798" lon="15.66429993748813"><ele>42.0</ele><time>2026-04-18T15:49:12Z</time></trkpt><trkpt lat="38.07574872673165" lon="15.664385563382316"><ele>42.0</ele><time>2026-04-18T15:49:13Z</time></trkpt><trkpt lat="38.07609205843763" lon="15.664462496059643"><ele>44.0</ele><time>2026-04-18T15:49:14Z</time></trkpt><trkpt lat="38.076436247617835" lon="15.664524932813139"><ele>46.0</ele><time>2026-04-18T15:49:15Z</time></trkpt><trkpt lat="38.07677975094673" lon="15.664557050898349"><ele>48.0</ele><time>2026-04-18T15:49:16Z</time></trkpt><trkpt lat="38.07712118811115" lon="15.664572429196333"><ele>50.0</ele><time>2026-04-18T15:49:17Z</time></trkpt><trkpt lat="38.07746451282939" lon="15.664570373571259"><ele>54.5</ele><time>2026-04-18T15:49:18Z</time></trkpt><trkpt lat="38.07779343030581" lon="15.664552299785388"><ele>59.0</ele><time>2026-04-18T15:49:19Z</time></trkpt><trkpt lat="38.07812965439825" lon="15.664544982964113"><ele>61.5</ele><time>2026-04-18T15:49:20Z</time></trkpt><trkpt lat="38.078452617499394" lon="15.664535609429226"><ele>64.0</ele><time>2026-04-18T15:49:21Z</time></trkpt><trkpt lat="38.078786149461244" lon="15.664524726969313"><ele>63.0</ele><time>2026-04-18T15:49:22Z</time></trkpt><trkpt lat="38.07911469862736" lon="15.664512886780896"><ele>62.0</ele><time>2026-04-18T15:49:23Z</time></trkpt><trkpt lat="38.079446374943515" lon="15.664507422961204"><ele>62.0</ele><time>2026-04-18T15:49:24Z</time></trkpt><trkpt lat="38.07977352339322" lon="15.664501520149281"><ele>62.0</ele><time>2026-04-18T15:49:25Z</time></trkpt><trkpt lat="38.08009356337621" lon="15.664492882971015"><ele>62.5</ele><time>2026-04-18T15:49:26Z</time></trkpt><trkpt lat="38.08038839845778" lon="15.664474218868326"><ele>63.0</ele><time>2026-04-18T15:49:27Z</time></trkpt><trkpt lat="38.080687270383926" lon="15.664454531194465"><ele>66.0</ele><time>2026-04-18T15:49:28Z</time></trkpt><trkpt lat="38.08099098081919" lon="15.664434491188889"><ele>69.0</ele><time>2026-04-18T15:49:29Z</time></trkpt><trkpt lat="38.08129596057303" lon="15.66441952792643"><ele>69.5</ele><time>2026-04-18T15:49:30Z</time></trkpt><trkpt lat="38.08160316154835" lon="15.664413628456701"><ele>70.0</ele><time>2026-04-18T15:49:31Z</time></trkpt><trkpt lat="38.08190543112327" lon="15.664390264565375"><ele>70.0</ele><time>2026-04-18T15:49:32Z</time></trkpt><trkpt lat="38.0821992830635" lon="15.664384773416051"><ele>70.0</ele><time>2026-04-18T15:49:33Z</time></trkpt><trkpt lat="38.08246702357169" lon="15.664385243098458"><ele>70.5</ele><time>2026-04-18T15:49:34Z</time></trkpt><trkpt lat="38.0827279320239" lon="15.664372144979914"><ele>71.0</ele><time>2026-04-18T15:49:35Z</time></trkpt><trkpt lat="38.082986263395576" lon="15.664359090662579"><ele>71.0</ele><time>2026-04-18T15:49:36Z</time></trkpt><trkpt lat="38.08324190200116" lon="15.66434988696406"><ele>71.0</ele><time>2026-04-18T15:49:37Z</time></trkpt><trkpt lat="38.083502688079996" lon="15.664343260597708"><ele>73.0</ele><time>2026-04-18T15:49:38Z</time></trkpt><trkpt lat="38.08375575051655" lon="15.664334291476141"><ele>75.0</ele><time>2026-04-18T15:49:39Z</time></trkpt><trkpt lat="38.084000188610275" lon="15.664323303714003"><ele>76.5</ele><time>2026-04-18T15:49:40Z</time></trkpt><trkpt lat="38.08423952333876" lon="15.664309214404428"><ele>78.0</ele><time>2026-04-18T15:49:41Z</time></trkpt><trkpt lat="38.08447447685875" lon="15.664276314556924"><ele>78.0</ele><time>2026-04-18T15:49:42Z</time></trkpt><trkpt lat="38.08470405136724" lon="15.66421976111265"><ele>78.0</ele><time>2026-04-18T15:49:43Z</time></trkpt><trkpt lat="38.08492237602716" lon="15.66414985575818"><ele>79.5</ele><time>2026-04-18T15:49:44Z</time></trkpt><trkpt lat="38.085138677245716" lon="15.664072674535303"><ele>81.0</ele><time>2026-04-18T15:49:45Z</time></trkpt><trkpt lat="38.085354177507604" lon="15.663981795800595"><ele>81.0</ele><time>2026-04-18T15:49:46Z</time></trkpt><trkpt lat="38.08557314029173" lon="15.66388090228934"><ele>81.0</ele><time>2026-04-18T15:49:47Z</time></trkpt><trkpt lat="38.08578770253898" lon="15.663775452989128"><ele>79.5</ele><time>2026-04-18T15:49:48Z</time></trkpt><trkpt lat="38.08599685484079" lon="15.663652692393923"><ele>78.0</ele><time>2026-04-18T15:49:49Z</time></trkpt><trkpt lat="38.08619626565941" lon="15.663526371344727"><ele>76.0</ele><time>2026-04-18T15:49:50Z</time></trkpt><trkpt lat="38.08639775205001" lon="15.663403299918215"><ele>74.0</ele><time>2026-04-18T15:49:51Z</time></trkpt><trkpt lat="38.08659478612141" lon="15.663284105088692"><ele>72.0</ele><time>2026-04-18T15:49:52Z</time></trkpt><trkpt lat="38.08679583821589" lon="15.663156235663385"><ele>71.66666666666667</ele><time>2026-04-18T15:49:53Z</time></trkpt><trkpt lat="38.08699580858452" lon="15.663032703390702"><ele>71.33333333333334</ele><time>2026-04-18T15:49:54Z</time></trkpt><trkpt lat="38.08719753625117" lon="15.662907243680399"><ele>71.0</ele><time>2026-04-18T15:49:55Z</time></trkpt><trkpt lat="38.087402423003475" lon="15.662777388710994"><ele>70.5</ele><time>2026-04-18T15:49:56Z</time></trkpt><trkpt lat="38.087601449748924" lon="15.662644516199107"><ele>70.0</ele><time>2026-04-18T15:49:57Z</time></trkpt><trkpt lat="38.08780254954264" lon="15.662515382900366"><ele>70.0</ele><time>2026-04-18T15:49:58Z</time></trkpt><trkpt lat="38.088007409813876" lon="15.66238510380394"><ele>70.0</ele><time>2026-04-18T15:49:59Z</time></trkpt><trkpt lat="38.088217774907775" lon="15.662249931121002"><ele>71.0</ele><time>2026-04-18T15:50:00Z</time></trkpt><trkpt lat="38.088427464705596" lon="15.662117931553471"><ele>72.0</ele><time>2026-04-18T15:50:01Z</time></trkpt><trkpt lat="38.088637018371294" lon="15.661982942098463"><ele>72.0</ele><time>2026-04-18T15:50:02Z</time></trkpt><trkpt lat="38.08884458216229" lon="15.661849770278295"><ele>72.0</ele><time>2026-04-18T15:50:03Z</time></trkpt><trkpt lat="38.089061003945275" lon="15.661713296504011"><ele>75.0</ele><time>2026-04-18T15:50:04Z</time></trkpt><trkpt lat="38.0892720442555" lon="15.66157746535513"><ele>78.0</ele><time>2026-04-18T15:50:05Z</time></trkpt><trkpt lat="38.08948189857562" lon="15.661441354709067"><ele>78.0</ele><time>2026-04-18T15:50:06Z</time></trkpt><trkpt lat="38.08969250505017" lon="15.661315419026803"><ele>78.0</ele><time>2026-04-18T15:50:07Z</time></trkpt><trkpt lat="38.08989915634031" lon="15.661179206032383"><ele>78.0</ele><time>2026-04-18T15:50:08Z</time></trkpt><trkpt lat="38.09010488109644" lon="15.661042991391055"><ele>78.0</ele><time>2026-04-18T15:50:09Z</time></trkpt><trkpt lat="38.090317743297085" lon="15.660911543306021"><ele>78.0</ele><time>2026-04-18T15:50:10Z</time></trkpt><trkpt lat="38.09052966783417" lon="15.660772693864187"><ele>78.0</ele><time>2026-04-18T15:50:11Z</time></trkpt><trkpt lat="38.09076512025685" lon="15.660637539537294"><ele>80.5</ele><time>2026-04-18T15:50:12Z</time></trkpt><trkpt lat="38.09097988115826" lon="15.660502823466878"><ele>83.0</ele><time>2026-04-18T15:50:13Z</time></trkpt><trkpt lat="38.091204299487394" lon="15.660362854788763"><ele>83.0</ele><time>2026-04-18T15:50:14Z</time></trkpt><trkpt lat="38.091431501786545" lon="15.660230829255617"><ele>83.0</ele><time>2026-04-18T15:50:15Z</time></trkpt><trkpt lat="38.09166617869254" lon="15.660105736027987"><ele>89.0</ele><time>2026-04-18T15:50:16Z</time></trkpt><trkpt lat="38.09189979157182" lon="15.659981656584472"><ele>95.0</ele><time>2026-04-18T15:50:17Z</time></trkpt><trkpt lat="38.092142515458114" lon="15.65987023862489"><ele>95.0</ele><time>2026-04-18T15:50:18Z</time></trkpt><trkpt lat="38.09238400275466" lon="15.659774525786148"><ele>95.0</ele><time>2026-04-18T15:50:19Z</time></trkpt><trkpt lat="38.09262772388397" lon="15.659682934810892"><ele>96.5</ele><time>2026-04-18T15:50:20Z</time></trkpt><trkpt lat="38.09286979705117" lon="15.659600220381778"><ele>98.0</ele><time>2026-04-18T15:50:21Z</time></trkpt><trkpt lat="38.093121309781004" lon="15.659526024057376"><ele>98.5</ele><time>2026-04-18T15:50:22Z</time></trkpt><trkpt lat="38.09335761179204" lon="15.65944597044787"><ele>99.0</ele><time>2026-04-18T15:50:23Z</time></trkpt><trkpt lat="38.09357858091238" lon="15.659366312767524"><ele>99.0</ele><time>2026-04-18T15:50:24Z</time></trkpt><trkpt lat="38.09380638856647" lon="15.659285836130914"><ele>99.0</ele><time>2026-04-18T15:50:25Z</time></trkpt><trkpt lat="38.09403837675648" lon="15.659207041006818"><ele>99.5</ele><time>2026-04-18T15:50:26Z</time></trkpt><trkpt lat="38.09428285841771" lon="15.659128303480824"><ele>100.0</ele><time>2026-04-18T15:50:27Z</time></trkpt><trkpt lat="38.094540636400346" lon="15.6590419864697"><ele>100.0</ele><time>2026-04-18T15:50:28Z</time></trkpt><trkpt lat="38.0947851213229" lon="15.65900119627032"><ele>100.0</ele><time>2026-04-18T15:50:29Z</time></trkpt><trkpt lat="38.09503195233187" lon="15.658962893923016"><ele>101.0</ele><time>2026-04-18T15:50:30Z</time></trkpt><trkpt lat="38.09527860015356" lon="15.658947313121281"><ele>102.0</ele><time>2026-04-18T15:50:31Z</time></trkpt><trkpt lat="38.095531661414554" lon="15.65895560740488"><ele>100.5</ele><time>2026-04-18T15:50:32Z</time></trkpt><trkpt lat="38.09578365682824" lon="15.658980028392019"><ele>99.0</ele><time>2026-04-18T15:50:33Z</time></trkpt><trkpt lat="38.09603691821432" lon="15.65902668800568"><ele>99.0</ele><time>2026-04-18T15:50:34Z</time></trkpt><trkpt lat="38.09629138588137" lon="15.65911003614399"><ele>99.0</ele><time>2026-04-18T15:50:35Z</time></trkpt><trkpt lat="38.096534443391235" lon="15.659176066272703"><ele>97.5</ele><time>2026-04-18T15:50:36Z</time></trkpt><trkpt lat="38.096798792525895" lon="15.659254431429826"><ele>96.0</ele><time>2026-04-18T15:50:37Z</time></trkpt><trkpt lat="38.09705012944841" lon="15.659314219570817"><ele>96.0</ele><time>2026-04-18T15:50:38Z</time></trkpt><trkpt lat="38.09728331956364" lon="15.659374029602505"><ele>96.0</ele><time>2026-04-18T15:50:39Z</time></trkpt><trkpt lat="38.09749967975109" lon="15.659439448105243"><ele>97.0</ele><time>2026-04-18T15:50:40Z</time></trkpt><trkpt lat="38.09771466131212" lon="15.659500612904248"><ele>98.0</ele><time>2026-04-18T15:50:41Z</time></trkpt><trkpt lat="38.097916105939184" lon="15.659552782652261"><ele>99.0</ele><time>2026-04-18T15:50:42Z</time></trkpt><trkpt lat="38.09810140810674" lon="15.659593715690576"><ele>99.0</ele><time>2026-04-18T15:50:43Z</time></trkpt><trkpt lat="38.098283466539804" lon="15.659628287126147"><ele>87.0</ele><time>2026-04-18T15:50:44Z</time></trkpt><trkpt lat="38.0984585265287" lon="15.659662000675349"><ele>87.0</ele><time>2026-04-18T15:50:45Z</time></trkpt></trkseg></trk></gpx>